<?xml version="1.0" encoding="UTF-8"?>
<gpx creator="Garmin Connect" version="1.1"
  xsi:schemaLocation="http://www.topografix.com/GPX/1/1 http://www.topografix.com/GPX/11.xsd"
  xmlns:ns3="http://www.garmin.com/xmlschemas/TrackPointExtension/v1"
  xmlns="http://www.topografix.com/GPX/1/1"
  xmlns:xsi="http://www.w3.org/2001/XMLSchema-instance" xmlns:ns2="http://www.garmin.com/xmlschemas/GpxExtensions/v3">
  <metadata>
    <link href="connect.garmin.com">
      <text>Garmin Connect</text>
    </link>
    <time>2019-06-14T10:13:02.000Z</time>
  </metadata>
  <trk>
    <name>Neuchatel Mountain Bike</name>
    <type>mountain_biking</type>
    <trkseg>
      <trkpt lat="47.003205455839633941650390625" lon="6.93261989392340183258056640625">
        <ele>656.4000244140625</ele>
        <time>2019-06-14T10:13:02.000Z</time>
        <extensions>
          <ns3:TrackPointExtension>
            <ns3:atemp>29.0</ns3:atemp>
            <ns3:hr>85</ns3:hr>
          </ns3:TrackPointExtension>
        </extensions>
      </trkpt>
      <trkpt lat="47.0032220520079135894775390625" lon="6.93263933993875980377197265625">
        <ele>656.79998779296875</ele>
        <time>2019-06-14T10:13:03.000Z</time>
        <extensions>
          <ns3:TrackPointExtension>
            <ns3:atemp>29.0</ns3:atemp>
            <ns3:hr>84</ns3:hr>
          </ns3:TrackPointExtension>
        </extensions>
      </trkpt>
      <trkpt lat="47.00325851328670978546142578125" lon="6.932693906128406524658203125">
        <ele>657.4000244140625</ele>
        <time>2019-06-14T10:13:06.000Z</time>
        <extensions>
          <ns3:TrackPointExtension>
            <ns3:atemp>29.0</ns3:atemp>
            <ns3:hr>85</ns3:hr>
          </ns3:TrackPointExtension>
        </extensions>
      </trkpt>
      <trkpt lat="47.003265134990215301513671875" lon="6.9327151961624622344970703125">
        <ele>657</ele>
        <time>2019-06-14T10:13:07.000Z</time>
        <extensions>
          <ns3:TrackPointExtension>
            <ns3:atemp>29.0</ns3:atemp>
            <ns3:hr>84</ns3:hr>
          </ns3:TrackPointExtension>
        </extensions>
      </trkpt>
      <trkpt lat="47.0032683201134204864501953125" lon="6.9327436946332454681396484375">
        <ele>657</ele>
        <time>2019-06-14T10:13:08.000Z</time>
        <extensions>
          <ns3:TrackPointExtension>
            <ns3:atemp>29.0</ns3:atemp>
            <ns3:hr>87</ns3:hr>
          </ns3:TrackPointExtension>
        </extensions>
      </trkpt>
      <trkpt lat="47.0032740198075771331787109375" lon="6.93279105238616466522216796875">
        <ele>657</ele>
        <time>2019-06-14T10:13:09.000Z</time>
        <extensions>
          <ns3:TrackPointExtension>
            <ns3:atemp>29.0</ns3:atemp>
            <ns3:hr>84</ns3:hr>
          </ns3:TrackPointExtension>
        </extensions>
      </trkpt>
      <trkpt lat="47.003297992050647735595703125" lon="6.93296288140118122100830078125">
        <ele>657.20001220703125</ele>
        <time>2019-06-14T10:13:13.000Z</time>
        <extensions>
          <ns3:TrackPointExtension>
            <ns3:atemp>29.0</ns3:atemp>
            <ns3:hr>83</ns3:hr>
          </ns3:TrackPointExtension>
        </extensions>
      </trkpt>
      <trkpt lat="47.00333814136683940887451171875" lon="6.93315046839416027069091796875">
        <ele>657.5999755859375</ele>
        <time>2019-06-14T10:13:19.000Z</time>
        <extensions>
          <ns3:TrackPointExtension>
            <ns3:atemp>29.0</ns3:atemp>
            <ns3:hr>82</ns3:hr>
          </ns3:TrackPointExtension>
        </extensions>
      </trkpt>
      <trkpt lat="47.0034049451351165771484375" lon="6.9332932122051715850830078125">
        <ele>657.79998779296875</ele>
        <time>2019-06-14T10:13:23.000Z</time>
        <extensions>
          <ns3:TrackPointExtension>
            <ns3:atemp>29.0</ns3:atemp>
            <ns3:hr>87</ns3:hr>
          </ns3:TrackPointExtension>
        </extensions>
      </trkpt>
      <trkpt lat="47.0034222118556499481201171875" lon="6.93333805538713932037353515625">
        <ele>657.79998779296875</ele>
        <time>2019-06-14T10:13:24.000Z</time>
        <extensions>
          <ns3:TrackPointExtension>
            <ns3:atemp>29.0</ns3:atemp>
            <ns3:hr>95</ns3:hr>
          </ns3:TrackPointExtension>
        </extensions>
      </trkpt>
      <trkpt lat="47.00344224460422992706298828125" lon="6.93337007425725460052490234375">
        <ele>657.79998779296875</ele>
        <time>2019-06-14T10:13:25.000Z</time>
        <extensions>
          <ns3:TrackPointExtension>
            <ns3:atemp>29.0</ns3:atemp>
            <ns3:hr>98</ns3:hr>
          </ns3:TrackPointExtension>
        </extensions>
      </trkpt>
      <trkpt lat="47.0034614391624927520751953125" lon="6.9333907775580883026123046875">
        <ele>658</ele>
        <time>2019-06-14T10:13:26.000Z</time>
        <extensions>
          <ns3:TrackPointExtension>
            <ns3:atemp>29.0</ns3:atemp>
            <ns3:hr>104</ns3:hr>
          </ns3:TrackPointExtension>
        </extensions>
      </trkpt>
      <trkpt lat="47.00347912497818470001220703125" lon="6.93341910839080810546875">
        <ele>658</ele>
        <time>2019-06-14T10:13:27.000Z</time>
        <extensions>
          <ns3:TrackPointExtension>
            <ns3:atemp>29.0</ns3:atemp>
            <ns3:hr>109</ns3:hr>
          </ns3:TrackPointExtension>
        </extensions>
      </trkpt>
      <trkpt lat="47.0034959726035594940185546875" lon="6.9334531389176845550537109375">
        <ele>658.20001220703125</ele>
        <time>2019-06-14T10:13:28.000Z</time>
        <extensions>
          <ns3:TrackPointExtension>
            <ns3:atemp>29.0</ns3:atemp>
            <ns3:hr>115</ns3:hr>
          </ns3:TrackPointExtension>
        </extensions>
      </trkpt>
      <trkpt lat="47.0035231299698352813720703125" lon="6.9334953837096691131591796875">
        <ele>658</ele>
        <time>2019-06-14T10:13:29.000Z</time>
        <extensions>
          <ns3:TrackPointExtension>
            <ns3:atemp>29.0</ns3:atemp>
            <ns3:hr>121</ns3:hr>
          </ns3:TrackPointExtension>
        </extensions>
      </trkpt>
      <trkpt lat="47.003542743623256683349609375" lon="6.93353637121617794036865234375">
        <ele>658</ele>
        <time>2019-06-14T10:13:30.000Z</time>
        <extensions>
          <ns3:TrackPointExtension>
            <ns3:atemp>29.0</ns3:atemp>
            <ns3:hr>126</ns3:hr>
          </ns3:TrackPointExtension>
        </extensions>
      </trkpt>
      <trkpt lat="47.003567218780517578125" lon="6.9335786998271942138671875">
        <ele>658</ele>
        <time>2019-06-14T10:13:31.000Z</time>
        <extensions>
          <ns3:TrackPointExtension>
            <ns3:atemp>29.0</ns3:atemp>
            <ns3:hr>131</ns3:hr>
          </ns3:TrackPointExtension>
        </extensions>
      </trkpt>
      <trkpt lat="47.00359077192842960357666015625" lon="6.9336191006004810333251953125">
        <ele>658</ele>
        <time>2019-06-14T10:13:32.000Z</time>
        <extensions>
          <ns3:TrackPointExtension>
            <ns3:atemp>29.0</ns3:atemp>
            <ns3:hr>137</ns3:hr>
          </ns3:TrackPointExtension>
        </extensions>
      </trkpt>
      <trkpt lat="47.003612816333770751953125" lon="6.933657824993133544921875">
        <ele>658.20001220703125</ele>
        <time>2019-06-14T10:13:33.000Z</time>
        <extensions>
          <ns3:TrackPointExtension>
            <ns3:atemp>29.0</ns3:atemp>
            <ns3:hr>140</ns3:hr>
          </ns3:TrackPointExtension>
        </extensions>
      </trkpt>
      <trkpt lat="47.00373376719653606414794921875" lon="6.9338742457330226898193359375">
        <ele>658.4000244140625</ele>
        <time>2019-06-14T10:13:39.000Z</time>
        <extensions>
          <ns3:TrackPointExtension>
            <ns3:atemp>29.0</ns3:atemp>
            <ns3:hr>138</ns3:hr>
          </ns3:TrackPointExtension>
        </extensions>
      </trkpt>
      <trkpt lat="47.0038007386028766632080078125" lon="6.93403861485421657562255859375">
        <ele>658.4000244140625</ele>
        <time>2019-06-14T10:13:44.000Z</time>
        <extensions>
          <ns3:TrackPointExtension>
            <ns3:atemp>29.0</ns3:atemp>
            <ns3:hr>138</ns3:hr>
          </ns3:TrackPointExtension>
        </extensions>
      </trkpt>
      <trkpt lat="47.00385128147900104522705078125" lon="6.934208013117313385009765625">
        <ele>658.5999755859375</ele>
        <time>2019-06-14T10:13:48.000Z</time>
        <extensions>
          <ns3:TrackPointExtension>
            <ns3:atemp>28.0</ns3:atemp>
            <ns3:hr>135</ns3:hr>
          </ns3:TrackPointExtension>
        </extensions>
      </trkpt>
      <trkpt lat="47.0039026625454425811767578125" lon="6.93435159511864185333251953125">
        <ele>659.20001220703125</ele>
        <time>2019-06-14T10:13:51.000Z</time>
        <extensions>
          <ns3:TrackPointExtension>
            <ns3:atemp>28.0</ns3:atemp>
            <ns3:hr>132</ns3:hr>
          </ns3:TrackPointExtension>
        </extensions>
      </trkpt>
      <trkpt lat="47.004004418849945068359375" lon="6.9346433691680431365966796875">
        <ele>659.4000244140625</ele>
        <time>2019-06-14T10:13:57.000Z</time>
        <extensions>
          <ns3:TrackPointExtension>
            <ns3:atemp>28.0</ns3:atemp>
            <ns3:hr>130</ns3:hr>
          </ns3:TrackPointExtension>
        </extensions>
      </trkpt>
      <trkpt lat="47.0040283910930156707763671875" lon="6.93473766557872295379638671875">
        <ele>659.4000244140625</ele>
        <time>2019-06-14T10:13:59.000Z</time>
        <extensions>
          <ns3:TrackPointExtension>
            <ns3:atemp>28.0</ns3:atemp>
            <ns3:hr>130</ns3:hr>
          </ns3:TrackPointExtension>
        </extensions>
      </trkpt>
      <trkpt lat="47.00405311770737171173095703125" lon="6.934835650026798248291015625">
        <ele>659.5999755859375</ele>
        <time>2019-06-14T10:14:01.000Z</time>
        <extensions>
          <ns3:TrackPointExtension>
            <ns3:atemp>28.0</ns3:atemp>
            <ns3:hr>127</ns3:hr>
          </ns3:TrackPointExtension>
        </extensions>
      </trkpt>
      <trkpt lat="47.00412251986563205718994140625" lon="6.9350343011319637298583984375">
        <ele>660.20001220703125</ele>
        <time>2019-06-14T10:14:05.000Z</time>
        <extensions>
          <ns3:TrackPointExtension>
            <ns3:atemp>28.0</ns3:atemp>
            <ns3:hr>126</ns3:hr>
          </ns3:TrackPointExtension>
        </extensions>
      </trkpt>
      <trkpt lat="47.0041329972445964813232421875" lon="6.93508132360875606536865234375">
        <ele>660.20001220703125</ele>
        <time>2019-06-14T10:14:06.000Z</time>
        <extensions>
          <ns3:TrackPointExtension>
            <ns3:atemp>28.0</ns3:atemp>
            <ns3:hr>125</ns3:hr>
          </ns3:TrackPointExtension>
        </extensions>
      </trkpt>
      <trkpt lat="47.0041598193347454071044921875" lon="6.93524896167218685150146484375">
        <ele>660.4000244140625</ele>
        <time>2019-06-14T10:14:10.000Z</time>
        <extensions>
          <ns3:TrackPointExtension>
            <ns3:atemp>28.0</ns3:atemp>
            <ns3:hr>123</ns3:hr>
          </ns3:TrackPointExtension>
        </extensions>
      </trkpt>
      <trkpt lat="47.0041742362082004547119140625" lon="6.93533487617969512939453125">
        <ele>660.5999755859375</ele>
        <time>2019-06-14T10:14:12.000Z</time>
        <extensions>
          <ns3:TrackPointExtension>
            <ns3:atemp>28.0</ns3:atemp>
            <ns3:hr>122</ns3:hr>
          </ns3:TrackPointExtension>
        </extensions>
      </trkpt>
      <trkpt lat="47.00423165224492549896240234375" lon="6.9355368800461292266845703125">
        <ele>660.5999755859375</ele>
        <time>2019-06-14T10:14:16.000Z</time>
        <extensions>
          <ns3:TrackPointExtension>
            <ns3:atemp>28.0</ns3:atemp>
            <ns3:hr>120</ns3:hr>
          </ns3:TrackPointExtension>
        </extensions>
      </trkpt>
      <trkpt lat="47.00426199473440647125244140625" lon="6.93563352338969707489013671875">
        <ele>660.79998779296875</ele>
        <time>2019-06-14T10:14:18.000Z</time>
        <extensions>
          <ns3:TrackPointExtension>
            <ns3:atemp>28.0</ns3:atemp>
            <ns3:hr>116</ns3:hr>
          </ns3:TrackPointExtension>
        </extensions>
      </trkpt>
      <trkpt lat="47.0043036527931690216064453125" lon="6.93576335906982421875">
        <ele>661</ele>
        <time>2019-06-14T10:14:21.000Z</time>
        <extensions>
          <ns3:TrackPointExtension>
            <ns3:atemp>28.0</ns3:atemp>
            <ns3:hr>110</ns3:hr>
          </ns3:TrackPointExtension>
        </extensions>
      </trkpt>
      <trkpt lat="47.00431731529533863067626953125" lon="6.935809962451457977294921875">
        <ele>661</ele>
        <time>2019-06-14T10:14:22.000Z</time>
        <extensions>
          <ns3:TrackPointExtension>
            <ns3:atemp>28.0</ns3:atemp>
            <ns3:hr>110</ns3:hr>
          </ns3:TrackPointExtension>
        </extensions>
      </trkpt>
      <trkpt lat="47.0043774135410785675048828125" lon="6.93609955720603466033935546875">
        <ele>661.4000244140625</ele>
        <time>2019-06-14T10:14:28.000Z</time>
        <extensions>
          <ns3:TrackPointExtension>
            <ns3:atemp>28.0</ns3:atemp>
            <ns3:hr>108</ns3:hr>
          </ns3:TrackPointExtension>
        </extensions>
      </trkpt>
      <trkpt lat="47.00441940687596797943115234375" lon="6.93623534403741359710693359375">
        <ele>661.5999755859375</ele>
        <time>2019-06-14T10:14:31.000Z</time>
        <extensions>
          <ns3:TrackPointExtension>
            <ns3:atemp>28.0</ns3:atemp>
            <ns3:hr>107</ns3:hr>
          </ns3:TrackPointExtension>
        </extensions>
      </trkpt>
      <trkpt lat="47.0044736377894878387451171875" lon="6.93632285110652446746826171875">
        <ele>661.79998779296875</ele>
        <time>2019-06-14T10:14:33.000Z</time>
        <extensions>
          <ns3:TrackPointExtension>
            <ns3:atemp>28.0</ns3:atemp>
            <ns3:hr>107</ns3:hr>
          </ns3:TrackPointExtension>
        </extensions>
      </trkpt>
      <trkpt lat="47.00458310544490814208984375" lon="6.93656441755592823028564453125">
        <ele>662.20001220703125</ele>
        <time>2019-06-14T10:14:38.000Z</time>
        <extensions>
          <ns3:TrackPointExtension>
            <ns3:atemp>27.0</ns3:atemp>
            <ns3:hr>106</ns3:hr>
          </ns3:TrackPointExtension>
        </extensions>
      </trkpt>
      <trkpt lat="47.004720233380794525146484375" lon="6.9368484802544116973876953125">
        <ele>662.4000244140625</ele>
        <time>2019-06-14T10:14:44.000Z</time>
        <extensions>
          <ns3:TrackPointExtension>
            <ns3:atemp>27.0</ns3:atemp>
            <ns3:hr>106</ns3:hr>
          </ns3:TrackPointExtension>
        </extensions>
      </trkpt>
      <trkpt lat="47.00482022948563098907470703125" lon="6.9371743686497211456298828125">
        <ele>662.5999755859375</ele>
        <time>2019-06-14T10:14:50.000Z</time>
        <extensions>
          <ns3:TrackPointExtension>
            <ns3:atemp>27.0</ns3:atemp>
            <ns3:hr>107</ns3:hr>
          </ns3:TrackPointExtension>
        </extensions>
      </trkpt>
      <trkpt lat="47.00487672351300716400146484375" lon="6.93733890540897846221923828125">
        <ele>662.79998779296875</ele>
        <time>2019-06-14T10:14:53.000Z</time>
        <extensions>
          <ns3:TrackPointExtension>
            <ns3:atemp>27.0</ns3:atemp>
            <ns3:hr>108</ns3:hr>
          </ns3:TrackPointExtension>
        </extensions>
      </trkpt>
      <trkpt lat="47.00493472628295421600341796875" lon="6.93749547936022281646728515625">
        <ele>663</ele>
        <time>2019-06-14T10:14:56.000Z</time>
        <extensions>
          <ns3:TrackPointExtension>
            <ns3:atemp>27.0</ns3:atemp>
            <ns3:hr>109</ns3:hr>
          </ns3:TrackPointExtension>
        </extensions>
      </trkpt>
      <trkpt lat="47.0050546713173389434814453125" lon="6.93774358369410037994384765625">
        <ele>663</ele>
        <time>2019-06-14T10:15:01.000Z</time>
        <extensions>
          <ns3:TrackPointExtension>
            <ns3:atemp>27.0</ns3:atemp>
            <ns3:hr>109</ns3:hr>
          </ns3:TrackPointExtension>
        </extensions>
      </trkpt>
      <trkpt lat="47.0050717703998088836669921875" lon="6.93779136054217815399169921875">
        <ele>663</ele>
        <time>2019-06-14T10:15:02.000Z</time>
        <extensions>
          <ns3:TrackPointExtension>
            <ns3:atemp>27.0</ns3:atemp>
            <ns3:hr>109</ns3:hr>
          </ns3:TrackPointExtension>
        </extensions>
      </trkpt>
      <trkpt lat="47.00517796911299228668212890625" lon="6.93802253343164920806884765625">
        <ele>663.5999755859375</ele>
        <time>2019-06-14T10:15:07.000Z</time>
        <extensions>
          <ns3:TrackPointExtension>
            <ns3:atemp>27.0</ns3:atemp>
            <ns3:hr>109</ns3:hr>
          </ns3:TrackPointExtension>
        </extensions>
      </trkpt>
      <trkpt lat="47.00521300546824932098388671875" lon="6.93811389617621898651123046875">
        <ele>663.5999755859375</ele>
        <time>2019-06-14T10:15:09.000Z</time>
        <extensions>
          <ns3:TrackPointExtension>
            <ns3:atemp>27.0</ns3:atemp>
            <ns3:hr>109</ns3:hr>
          </ns3:TrackPointExtension>
        </extensions>
      </trkpt>
      <trkpt lat="47.00526145286858081817626953125" lon="6.93821062333881855010986328125">
        <ele>663.20001220703125</ele>
        <time>2019-06-14T10:15:11.000Z</time>
        <extensions>
          <ns3:TrackPointExtension>
            <ns3:atemp>27.0</ns3:atemp>
            <ns3:hr>109</ns3:hr>
          </ns3:TrackPointExtension>
        </extensions>
      </trkpt>
      <trkpt lat="47.005276791751384735107421875" lon="6.93826544098556041717529296875">
        <ele>663</ele>
        <time>2019-06-14T10:15:12.000Z</time>
        <extensions>
          <ns3:TrackPointExtension>
            <ns3:atemp>27.0</ns3:atemp>
            <ns3:hr>108</ns3:hr>
          </ns3:TrackPointExtension>
        </extensions>
      </trkpt>
      <trkpt lat="47.00537192635238170623779296875" lon="6.93852393887937068939208984375">
        <ele>661.79998779296875</ele>
        <time>2019-06-14T10:15:16.000Z</time>
        <extensions>
          <ns3:TrackPointExtension>
            <ns3:atemp>27.0</ns3:atemp>
            <ns3:hr>108</ns3:hr>
          </ns3:TrackPointExtension>
        </extensions>
      </trkpt>
      <trkpt lat="47.0053966529667377471923828125" lon="6.93859568797051906585693359375">
        <ele>661.5999755859375</ele>
        <time>2019-06-14T10:15:17.000Z</time>
        <extensions>
          <ns3:TrackPointExtension>
            <ns3:atemp>27.0</ns3:atemp>
            <ns3:hr>108</ns3:hr>
          </ns3:TrackPointExtension>
        </extensions>
      </trkpt>
      <trkpt lat="47.00542892329394817352294921875" lon="6.9387508369982242584228515625">
        <ele>661</ele>
        <time>2019-06-14T10:15:19.000Z</time>
        <extensions>
          <ns3:TrackPointExtension>
            <ns3:atemp>27.0</ns3:atemp>
            <ns3:hr>108</ns3:hr>
          </ns3:TrackPointExtension>
        </extensions>
      </trkpt>
      <trkpt lat="47.0054469443857669830322265625" lon="6.93890213035047054290771484375">
        <ele>660.4000244140625</ele>
        <time>2019-06-14T10:15:21.000Z</time>
        <extensions>
          <ns3:TrackPointExtension>
            <ns3:atemp>27.0</ns3:atemp>
            <ns3:hr>108</ns3:hr>
          </ns3:TrackPointExtension>
        </extensions>
      </trkpt>
      <trkpt lat="47.0054865069687366485595703125" lon="6.93918258883059024810791015625">
        <ele>660</ele>
        <time>2019-06-14T10:15:24.000Z</time>
        <extensions>
          <ns3:TrackPointExtension>
            <ns3:atemp>27.0</ns3:atemp>
            <ns3:hr>106</ns3:hr>
          </ns3:TrackPointExtension>
        </extensions>
      </trkpt>
      <trkpt lat="47.00551089830696582794189453125" lon="6.93936229683458805084228515625">
        <ele>659.4000244140625</ele>
        <time>2019-06-14T10:15:26.000Z</time>
        <extensions>
          <ns3:TrackPointExtension>
            <ns3:atemp>27.0</ns3:atemp>
            <ns3:hr>105</ns3:hr>
          </ns3:TrackPointExtension>
        </extensions>
      </trkpt>
      <trkpt lat="47.00561617501080036163330078125" lon="6.9398847408592700958251953125">
        <ele>658.79998779296875</ele>
        <time>2019-06-14T10:15:31.000Z</time>
        <extensions>
          <ns3:TrackPointExtension>
            <ns3:atemp>27.0</ns3:atemp>
            <ns3:hr>104</ns3:hr>
          </ns3:TrackPointExtension>
        </extensions>
      </trkpt>
      <trkpt lat="47.0056799612939357757568359375" lon="6.94008381105959415435791015625">
        <ele>658.20001220703125</ele>
        <time>2019-06-14T10:15:33.000Z</time>
        <extensions>
          <ns3:TrackPointExtension>
            <ns3:atemp>27.0</ns3:atemp>
            <ns3:hr>105</ns3:hr>
          </ns3:TrackPointExtension>
        </extensions>
      </trkpt>
      <trkpt lat="47.00580191798508167266845703125" lon="6.9404017366468906402587890625">
        <ele>657</ele>
        <time>2019-06-14T10:15:36.000Z</time>
        <extensions>
          <ns3:TrackPointExtension>
            <ns3:atemp>26.0</ns3:atemp>
            <ns3:hr>102</ns3:hr>
          </ns3:TrackPointExtension>
        </extensions>
      </trkpt>
      <trkpt lat="47.00603761710226535797119140625" lon="6.94106130860745906829833984375">
        <ele>656.5999755859375</ele>
        <time>2019-06-14T10:15:43.000Z</time>
        <extensions>
          <ns3:TrackPointExtension>
            <ns3:atemp>26.0</ns3:atemp>
            <ns3:hr>102</ns3:hr>
          </ns3:TrackPointExtension>
        </extensions>
      </trkpt>
      <trkpt lat="47.00627163983881473541259765625" lon="6.9416026957333087921142578125">
        <ele>658</ele>
        <time>2019-06-14T10:15:50.000Z</time>
        <extensions>
          <ns3:TrackPointExtension>
            <ns3:atemp>26.0</ns3:atemp>
            <ns3:hr>103</ns3:hr>
          </ns3:TrackPointExtension>
        </extensions>
      </trkpt>
      <trkpt lat="47.00630533508956432342529296875" lon="6.9416788034141063690185546875">
        <ele>658</ele>
        <time>2019-06-14T10:15:51.000Z</time>
        <extensions>
          <ns3:TrackPointExtension>
            <ns3:atemp>26.0</ns3:atemp>
            <ns3:hr>104</ns3:hr>
          </ns3:TrackPointExtension>
        </extensions>
      </trkpt>
      <trkpt lat="47.00636266730725765228271484375" lon="6.941827833652496337890625">
        <ele>657.79998779296875</ele>
        <time>2019-06-14T10:15:53.000Z</time>
        <extensions>
          <ns3:TrackPointExtension>
            <ns3:atemp>26.0</ns3:atemp>
            <ns3:hr>101</ns3:hr>
          </ns3:TrackPointExtension>
        </extensions>
      </trkpt>
      <trkpt lat="47.00641639530658721923828125" lon="6.9419691525399684906005859375">
        <ele>657.5999755859375</ele>
        <time>2019-06-14T10:15:55.000Z</time>
        <extensions>
          <ns3:TrackPointExtension>
            <ns3:atemp>26.0</ns3:atemp>
            <ns3:hr>100</ns3:hr>
          </ns3:TrackPointExtension>
        </extensions>
      </trkpt>
      <trkpt lat="47.0064309798181056976318359375" lon="6.94203101098537445068359375">
        <ele>657.5999755859375</ele>
        <time>2019-06-14T10:15:56.000Z</time>
        <extensions>
          <ns3:TrackPointExtension>
            <ns3:atemp>26.0</ns3:atemp>
            <ns3:hr>100</ns3:hr>
          </ns3:TrackPointExtension>
        </extensions>
      </trkpt>
      <trkpt lat="47.00648034922778606414794921875" lon="6.94215849973261356353759765625">
        <ele>657.4000244140625</ele>
        <time>2019-06-14T10:15:58.000Z</time>
        <extensions>
          <ns3:TrackPointExtension>
            <ns3:atemp>26.0</ns3:atemp>
            <ns3:hr>100</ns3:hr>
          </ns3:TrackPointExtension>
        </extensions>
      </trkpt>
      <trkpt lat="47.00651505030691623687744140625" lon="6.94223083555698394775390625">
        <ele>657.4000244140625</ele>
        <time>2019-06-14T10:15:59.000Z</time>
        <extensions>
          <ns3:TrackPointExtension>
            <ns3:atemp>26.0</ns3:atemp>
            <ns3:hr>99</ns3:hr>
          </ns3:TrackPointExtension>
        </extensions>
      </trkpt>
      <trkpt lat="47.00672174803912639617919921875" lon="6.9427225179970264434814453125">
        <ele>657.79998779296875</ele>
        <time>2019-06-14T10:16:06.000Z</time>
        <extensions>
          <ns3:TrackPointExtension>
            <ns3:atemp>26.0</ns3:atemp>
            <ns3:hr>99</ns3:hr>
          </ns3:TrackPointExtension>
        </extensions>
      </trkpt>
      <trkpt lat="47.006785534322261810302734375" lon="6.94283911027014255523681640625">
        <ele>658.20001220703125</ele>
        <time>2019-06-14T10:16:08.000Z</time>
        <extensions>
          <ns3:TrackPointExtension>
            <ns3:atemp>26.0</ns3:atemp>
            <ns3:hr>99</ns3:hr>
          </ns3:TrackPointExtension>
        </extensions>
      </trkpt>
      <trkpt lat="47.00689877383410930633544921875" lon="6.94305083714425563812255859375">
        <ele>658.79998779296875</ele>
        <time>2019-06-14T10:16:12.000Z</time>
        <extensions>
          <ns3:TrackPointExtension>
            <ns3:atemp>26.0</ns3:atemp>
            <ns3:hr>97</ns3:hr>
          </ns3:TrackPointExtension>
        </extensions>
      </trkpt>
      <trkpt lat="47.00692995451390743255615234375" lon="6.943092159926891326904296875">
        <ele>658.79998779296875</ele>
        <time>2019-06-14T10:16:13.000Z</time>
        <extensions>
          <ns3:TrackPointExtension>
            <ns3:atemp>26.0</ns3:atemp>
            <ns3:hr>98</ns3:hr>
          </ns3:TrackPointExtension>
        </extensions>
      </trkpt>
      <trkpt lat="47.00698879547417163848876953125" lon="6.9431794993579387664794921875">
        <ele>659.20001220703125</ele>
        <time>2019-06-14T10:16:15.000Z</time>
        <extensions>
          <ns3:TrackPointExtension>
            <ns3:atemp>26.0</ns3:atemp>
            <ns3:hr>101</ns3:hr>
          </ns3:TrackPointExtension>
        </extensions>
      </trkpt>
      <trkpt lat="47.00701452791690826416015625" lon="6.9432267732918262481689453125">
        <ele>659.20001220703125</ele>
        <time>2019-06-14T10:16:16.000Z</time>
        <extensions>
          <ns3:TrackPointExtension>
            <ns3:atemp>26.0</ns3:atemp>
            <ns3:hr>103</ns3:hr>
          </ns3:TrackPointExtension>
        </extensions>
      </trkpt>
      <trkpt lat="47.0070452056825160980224609375" lon="6.94327195174992084503173828125">
        <ele>659.4000244140625</ele>
        <time>2019-06-14T10:16:17.000Z</time>
        <extensions>
          <ns3:TrackPointExtension>
            <ns3:atemp>26.0</ns3:atemp>
            <ns3:hr>104</ns3:hr>
          </ns3:TrackPointExtension>
        </extensions>
      </trkpt>
      <trkpt lat="47.00709960423409938812255859375" lon="6.94335711188614368438720703125">
        <ele>660</ele>
        <time>2019-06-14T10:16:19.000Z</time>
        <extensions>
          <ns3:TrackPointExtension>
            <ns3:atemp>26.0</ns3:atemp>
            <ns3:hr>107</ns3:hr>
          </ns3:TrackPointExtension>
        </extensions>
      </trkpt>
      <trkpt lat="47.007147967815399169921875" lon="6.9434276036918163299560546875">
        <ele>660.4000244140625</ele>
        <time>2019-06-14T10:16:21.000Z</time>
        <extensions>
          <ns3:TrackPointExtension>
            <ns3:atemp>26.0</ns3:atemp>
            <ns3:hr>108</ns3:hr>
          </ns3:TrackPointExtension>
        </extensions>
      </trkpt>
      <trkpt lat="47.00719331391155719757080078125" lon="6.94350262172520160675048828125">
        <ele>660.5999755859375</ele>
        <time>2019-06-14T10:16:23.000Z</time>
        <extensions>
          <ns3:TrackPointExtension>
            <ns3:atemp>26.0</ns3:atemp>
            <ns3:hr>109</ns3:hr>
          </ns3:TrackPointExtension>
        </extensions>
      </trkpt>
      <trkpt lat="47.00732155703008174896240234375" lon="6.94370378740131855010986328125">
        <ele>661.4000244140625</ele>
        <time>2019-06-14T10:16:29.000Z</time>
        <extensions>
          <ns3:TrackPointExtension>
            <ns3:atemp>26.0</ns3:atemp>
            <ns3:hr>112</ns3:hr>
          </ns3:TrackPointExtension>
        </extensions>
      </trkpt>
      <trkpt lat="47.0073442719876766204833984375" lon="6.9437394104897975921630859375">
        <ele>661.5999755859375</ele>
        <time>2019-06-14T10:16:30.000Z</time>
        <extensions>
          <ns3:TrackPointExtension>
            <ns3:atemp>26.0</ns3:atemp>
            <ns3:hr>112</ns3:hr>
          </ns3:TrackPointExtension>
        </extensions>
      </trkpt>
      <trkpt lat="47.00743420980870723724365234375" lon="6.94384108297526836395263671875">
        <ele>662.79998779296875</ele>
        <time>2019-06-14T10:16:34.000Z</time>
        <extensions>
          <ns3:TrackPointExtension>
            <ns3:atemp>26.0</ns3:atemp>
            <ns3:hr>112</ns3:hr>
          </ns3:TrackPointExtension>
        </extensions>
      </trkpt>
      <trkpt lat="47.0074787177145481109619140625" lon="6.94387259893119335174560546875">
        <ele>663.20001220703125</ele>
        <time>2019-06-14T10:16:36.000Z</time>
        <extensions>
          <ns3:TrackPointExtension>
            <ns3:atemp>25.0</ns3:atemp>
            <ns3:hr>112</ns3:hr>
          </ns3:TrackPointExtension>
        </extensions>
      </trkpt>
      <trkpt lat="47.0075806416571140289306640625" lon="6.94398189894855022430419921875">
        <ele>664</ele>
        <time>2019-06-14T10:16:41.000Z</time>
        <extensions>
          <ns3:TrackPointExtension>
            <ns3:atemp>25.0</ns3:atemp>
            <ns3:hr>113</ns3:hr>
          </ns3:TrackPointExtension>
        </extensions>
      </trkpt>
      <trkpt lat="47.00761266052722930908203125" lon="6.94400385953485965728759765625">
        <ele>664</ele>
        <time>2019-06-14T10:16:42.000Z</time>
        <extensions>
          <ns3:TrackPointExtension>
            <ns3:atemp>25.0</ns3:atemp>
            <ns3:hr>113</ns3:hr>
          </ns3:TrackPointExtension>
        </extensions>
      </trkpt>
      <trkpt lat="47.00776018202304840087890625" lon="6.944166719913482666015625">
        <ele>665.20001220703125</ele>
        <time>2019-06-14T10:16:47.000Z</time>
        <extensions>
          <ns3:TrackPointExtension>
            <ns3:atemp>25.0</ns3:atemp>
            <ns3:hr>113</ns3:hr>
          </ns3:TrackPointExtension>
        </extensions>
      </trkpt>
      <trkpt lat="47.00778373517096042633056640625" lon="6.9442061148583889007568359375">
        <ele>665.4000244140625</ele>
        <time>2019-06-14T10:16:48.000Z</time>
        <extensions>
          <ns3:TrackPointExtension>
            <ns3:atemp>25.0</ns3:atemp>
            <ns3:hr>113</ns3:hr>
          </ns3:TrackPointExtension>
        </extensions>
      </trkpt>
      <trkpt lat="47.00781047344207763671875" lon="6.94424777291715145111083984375">
        <ele>665.5999755859375</ele>
        <time>2019-06-14T10:16:49.000Z</time>
        <extensions>
          <ns3:TrackPointExtension>
            <ns3:atemp>25.0</ns3:atemp>
            <ns3:hr>118</ns3:hr>
          </ns3:TrackPointExtension>
        </extensions>
      </trkpt>
      <trkpt lat="47.00783251784741878509521484375" lon="6.94427342154085636138916015625">
        <ele>665.5999755859375</ele>
        <time>2019-06-14T10:16:50.000Z</time>
        <extensions>
          <ns3:TrackPointExtension>
            <ns3:atemp>25.0</ns3:atemp>
            <ns3:hr>118</ns3:hr>
          </ns3:TrackPointExtension>
        </extensions>
      </trkpt>
      <trkpt lat="47.00791365467011928558349609375" lon="6.9443968869745731353759765625">
        <ele>666</ele>
        <time>2019-06-14T10:16:54.000Z</time>
        <extensions>
          <ns3:TrackPointExtension>
            <ns3:atemp>25.0</ns3:atemp>
            <ns3:hr>117</ns3:hr>
          </ns3:TrackPointExtension>
        </extensions>
      </trkpt>
      <trkpt lat="47.0079306699335575103759765625" lon="6.9444148242473602294921875">
        <ele>666.20001220703125</ele>
        <time>2019-06-14T10:16:55.000Z</time>
        <extensions>
          <ns3:TrackPointExtension>
            <ns3:atemp>25.0</ns3:atemp>
            <ns3:hr>118</ns3:hr>
          </ns3:TrackPointExtension>
        </extensions>
      </trkpt>
      <trkpt lat="47.00794852338731288909912109375" lon="6.94443024694919586181640625">
        <ele>666.5999755859375</ele>
        <time>2019-06-14T10:16:56.000Z</time>
        <extensions>
          <ns3:TrackPointExtension>
            <ns3:atemp>25.0</ns3:atemp>
            <ns3:hr>115</ns3:hr>
          </ns3:TrackPointExtension>
        </extensions>
      </trkpt>
      <trkpt lat="47.00798909179866313934326171875" lon="6.94448749534785747528076171875">
        <ele>667.4000244140625</ele>
        <time>2019-06-14T10:16:58.000Z</time>
        <extensions>
          <ns3:TrackPointExtension>
            <ns3:atemp>25.0</ns3:atemp>
            <ns3:hr>115</ns3:hr>
          </ns3:TrackPointExtension>
        </extensions>
      </trkpt>
      <trkpt lat="47.00803033076226711273193359375" lon="6.9445221126079559326171875">
        <ele>668</ele>
        <time>2019-06-14T10:17:00.000Z</time>
        <extensions>
          <ns3:TrackPointExtension>
            <ns3:atemp>25.0</ns3:atemp>
            <ns3:hr>116</ns3:hr>
          </ns3:TrackPointExtension>
        </extensions>
      </trkpt>
      <trkpt lat="47.0080885849893093109130859375" lon="6.94459176622331142425537109375">
        <ele>668.4000244140625</ele>
        <time>2019-06-14T10:17:02.000Z</time>
        <extensions>
          <ns3:TrackPointExtension>
            <ns3:atemp>25.0</ns3:atemp>
            <ns3:hr>117</ns3:hr>
          </ns3:TrackPointExtension>
        </extensions>
      </trkpt>
      <trkpt lat="47.00824029743671417236328125" lon="6.94471380673348903656005859375">
        <ele>669.5999755859375</ele>
        <time>2019-06-14T10:17:08.000Z</time>
        <extensions>
          <ns3:TrackPointExtension>
            <ns3:atemp>25.0</ns3:atemp>
            <ns3:hr>119</ns3:hr>
          </ns3:TrackPointExtension>
        </extensions>
      </trkpt>
      <trkpt lat="47.00830643065273761749267578125" lon="6.9448305666446685791015625">
        <ele>670.4000244140625</ele>
        <time>2019-06-14T10:17:11.000Z</time>
        <extensions>
          <ns3:TrackPointExtension>
            <ns3:atemp>25.0</ns3:atemp>
            <ns3:hr>122</ns3:hr>
          </ns3:TrackPointExtension>
        </extensions>
      </trkpt>
      <trkpt lat="47.0083252899348735809326171875" lon="6.944865770637989044189453125">
        <ele>670.5999755859375</ele>
        <time>2019-06-14T10:17:12.000Z</time>
        <extensions>
          <ns3:TrackPointExtension>
            <ns3:atemp>25.0</ns3:atemp>
            <ns3:hr>123</ns3:hr>
          </ns3:TrackPointExtension>
        </extensions>
      </trkpt>
      <trkpt lat="47.00834834016859531402587890625" lon="6.9449212588369846343994140625">
        <ele>671.4000244140625</ele>
        <time>2019-06-14T10:17:14.000Z</time>
        <extensions>
          <ns3:TrackPointExtension>
            <ns3:atemp>25.0</ns3:atemp>
            <ns3:hr>124</ns3:hr>
          </ns3:TrackPointExtension>
        </extensions>
      </trkpt>
      <trkpt lat="47.008386142551898956298828125" lon="6.94500247947871685028076171875">
        <ele>671.79998779296875</ele>
        <time>2019-06-14T10:17:16.000Z</time>
        <extensions>
          <ns3:TrackPointExtension>
            <ns3:atemp>25.0</ns3:atemp>
            <ns3:hr>124</ns3:hr>
          </ns3:TrackPointExtension>
        </extensions>
      </trkpt>
      <trkpt lat="47.008438445627689361572265625" lon="6.94510339759290218353271484375">
        <ele>672.20001220703125</ele>
        <time>2019-06-14T10:17:19.000Z</time>
        <extensions>
          <ns3:TrackPointExtension>
            <ns3:atemp>25.0</ns3:atemp>
            <ns3:hr>124</ns3:hr>
          </ns3:TrackPointExtension>
        </extensions>
      </trkpt>
      <trkpt lat="47.00845344923436641693115234375" lon="6.9451794214546680450439453125">
        <ele>673</ele>
        <time>2019-06-14T10:17:22.000Z</time>
        <extensions>
          <ns3:TrackPointExtension>
            <ns3:atemp>25.0</ns3:atemp>
            <ns3:hr>125</ns3:hr>
          </ns3:TrackPointExtension>
        </extensions>
      </trkpt>
      <trkpt lat="47.00850105844438076019287109375" lon="6.9452632404863834381103515625">
        <ele>674.20001220703125</ele>
        <time>2019-06-14T10:17:26.000Z</time>
        <extensions>
          <ns3:TrackPointExtension>
            <ns3:atemp>25.0</ns3:atemp>
            <ns3:hr>125</ns3:hr>
          </ns3:TrackPointExtension>
        </extensions>
      </trkpt>
      <trkpt lat="47.008574567735195159912109375" lon="6.94534010253846645355224609375">
        <ele>675.4000244140625</ele>
        <time>2019-06-14T10:17:30.000Z</time>
        <extensions>
          <ns3:TrackPointExtension>
            <ns3:atemp>25.0</ns3:atemp>
            <ns3:hr>124</ns3:hr>
          </ns3:TrackPointExtension>
        </extensions>
      </trkpt>
      <trkpt lat="47.00862980447709560394287109375" lon="6.9453903101384639739990234375">
        <ele>676.4000244140625</ele>
        <time>2019-06-14T10:17:33.000Z</time>
        <extensions>
          <ns3:TrackPointExtension>
            <ns3:atemp>25.0</ns3:atemp>
            <ns3:hr>122</ns3:hr>
          </ns3:TrackPointExtension>
        </extensions>
      </trkpt>
      <trkpt lat="47.00864925049245357513427734375" lon="6.9453993625938892364501953125">
        <ele>676.5999755859375</ele>
        <time>2019-06-14T10:17:34.000Z</time>
        <extensions>
          <ns3:TrackPointExtension>
            <ns3:atemp>25.0</ns3:atemp>
            <ns3:hr>122</ns3:hr>
          </ns3:TrackPointExtension>
        </extensions>
      </trkpt>
      <trkpt lat="47.00872535817325115203857421875" lon="6.945486366748809814453125">
        <ele>677.5999755859375</ele>
        <time>2019-06-14T10:17:39.000Z</time>
        <extensions>
          <ns3:TrackPointExtension>
            <ns3:atemp>25.0</ns3:atemp>
            <ns3:hr>120</ns3:hr>
          </ns3:TrackPointExtension>
        </extensions>
      </trkpt>
      <trkpt lat="47.00877397321164608001708984375" lon="6.9455747120082378387451171875">
        <ele>678.79998779296875</ele>
        <time>2019-06-14T10:17:43.000Z</time>
        <extensions>
          <ns3:TrackPointExtension>
            <ns3:atemp>25.0</ns3:atemp>
            <ns3:hr>120</ns3:hr>
          </ns3:TrackPointExtension>
        </extensions>
      </trkpt>
      <trkpt lat="47.00878771953284740447998046875" lon="6.9455891288816928863525390625">
        <ele>679</ele>
        <time>2019-06-14T10:17:44.000Z</time>
        <extensions>
          <ns3:TrackPointExtension>
            <ns3:atemp>25.0</ns3:atemp>
            <ns3:hr>116</ns3:hr>
          </ns3:TrackPointExtension>
        </extensions>
      </trkpt>
      <trkpt lat="47.00883843004703521728515625" lon="6.94564050994813442230224609375">
        <ele>680</ele>
        <time>2019-06-14T10:17:48.000Z</time>
        <extensions>
          <ns3:TrackPointExtension>
            <ns3:atemp>25.0</ns3:atemp>
            <ns3:hr>120</ns3:hr>
          </ns3:TrackPointExtension>
        </extensions>
      </trkpt>
      <trkpt lat="47.00885226018726825714111328125" lon="6.94565107114613056182861328125">
        <ele>680.20001220703125</ele>
        <time>2019-06-14T10:17:49.000Z</time>
        <extensions>
          <ns3:TrackPointExtension>
            <ns3:atemp>25.0</ns3:atemp>
            <ns3:hr>120</ns3:hr>
          </ns3:TrackPointExtension>
        </extensions>
      </trkpt>
      <trkpt lat="47.00888947583734989166259765625" lon="6.94569088518619537353515625">
        <ele>681</ele>
        <time>2019-06-14T10:17:52.000Z</time>
        <extensions>
          <ns3:TrackPointExtension>
            <ns3:atemp>25.0</ns3:atemp>
            <ns3:hr>120</ns3:hr>
          </ns3:TrackPointExtension>
        </extensions>
      </trkpt>
      <trkpt lat="47.00893457047641277313232421875" lon="6.94576104171574115753173828125">
        <ele>682.20001220703125</ele>
        <time>2019-06-14T10:17:56.000Z</time>
        <extensions>
          <ns3:TrackPointExtension>
            <ns3:atemp>25.0</ns3:atemp>
            <ns3:hr>121</ns3:hr>
          </ns3:TrackPointExtension>
        </extensions>
      </trkpt>
      <trkpt lat="47.0089810900390148162841796875" lon="6.9457959942519664764404296875">
        <ele>682.79998779296875</ele>
        <time>2019-06-14T10:17:59.000Z</time>
        <extensions>
          <ns3:TrackPointExtension>
            <ns3:atemp>25.0</ns3:atemp>
            <ns3:hr>121</ns3:hr>
          </ns3:TrackPointExtension>
        </extensions>
      </trkpt>
      <trkpt lat="47.009010426700115203857421875" lon="6.94582222960889339447021484375">
        <ele>683.20001220703125</ele>
        <time>2019-06-14T10:18:01.000Z</time>
        <extensions>
          <ns3:TrackPointExtension>
            <ns3:atemp>25.0</ns3:atemp>
            <ns3:hr>120</ns3:hr>
          </ns3:TrackPointExtension>
        </extensions>
      </trkpt>
      <trkpt lat="47.0090565271675586700439453125" lon="6.9458578526973724365234375">
        <ele>684</ele>
        <time>2019-06-14T10:18:04.000Z</time>
        <extensions>
          <ns3:TrackPointExtension>
            <ns3:atemp>25.0</ns3:atemp>
            <ns3:hr>123</ns3:hr>
          </ns3:TrackPointExtension>
        </extensions>
      </trkpt>
      <trkpt lat="47.00906985439360141754150390625" lon="6.945871599018573760986328125">
        <ele>684.20001220703125</ele>
        <time>2019-06-14T10:18:05.000Z</time>
        <extensions>
          <ns3:TrackPointExtension>
            <ns3:atemp>25.0</ns3:atemp>
            <ns3:hr>122</ns3:hr>
          </ns3:TrackPointExtension>
        </extensions>
      </trkpt>
      <trkpt lat="47.00908158905804157257080078125" lon="6.94588241167366504669189453125">
        <ele>684.4000244140625</ele>
        <time>2019-06-14T10:18:06.000Z</time>
        <extensions>
          <ns3:TrackPointExtension>
            <ns3:atemp>25.0</ns3:atemp>
            <ns3:hr>124</ns3:hr>
          </ns3:TrackPointExtension>
        </extensions>
      </trkpt>
      <trkpt lat="47.0091423578560352325439453125" lon="6.94589607417583465576171875">
        <ele>685.4000244140625</ele>
        <time>2019-06-14T10:18:11.000Z</time>
        <extensions>
          <ns3:TrackPointExtension>
            <ns3:atemp>25.0</ns3:atemp>
            <ns3:hr>121</ns3:hr>
          </ns3:TrackPointExtension>
        </extensions>
      </trkpt>
      <trkpt lat="47.0091571100056171417236328125" lon="6.9458965770900249481201171875">
        <ele>685.5999755859375</ele>
        <time>2019-06-14T10:18:12.000Z</time>
        <extensions>
          <ns3:TrackPointExtension>
            <ns3:atemp>25.0</ns3:atemp>
            <ns3:hr>120</ns3:hr>
          </ns3:TrackPointExtension>
        </extensions>
      </trkpt>
      <trkpt lat="47.00919826515018939971923828125" lon="6.94589246995747089385986328125">
        <ele>686.4000244140625</ele>
        <time>2019-06-14T10:18:15.000Z</time>
        <extensions>
          <ns3:TrackPointExtension>
            <ns3:atemp>25.0</ns3:atemp>
            <ns3:hr>118</ns3:hr>
          </ns3:TrackPointExtension>
        </extensions>
      </trkpt>
      <trkpt lat="47.0092174597084522247314453125" lon="6.94589481689035892486572265625">
        <ele>687.20001220703125</ele>
        <time>2019-06-14T10:18:18.000Z</time>
        <extensions>
          <ns3:TrackPointExtension>
            <ns3:atemp>25.0</ns3:atemp>
            <ns3:hr>120</ns3:hr>
          </ns3:TrackPointExtension>
        </extensions>
      </trkpt>
      <trkpt lat="47.009222991764545440673828125" lon="6.94589397870004177093505859375">
        <ele>687.4000244140625</ele>
        <time>2019-06-14T10:18:19.000Z</time>
        <extensions>
          <ns3:TrackPointExtension>
            <ns3:atemp>25.0</ns3:atemp>
            <ns3:hr>120</ns3:hr>
          </ns3:TrackPointExtension>
        </extensions>
      </trkpt>
      <trkpt lat="47.00923112221062183380126953125" lon="6.94589129649102687835693359375">
        <ele>687.4000244140625</ele>
        <time>2019-06-14T10:18:20.000Z</time>
        <extensions>
          <ns3:TrackPointExtension>
            <ns3:atemp>25.0</ns3:atemp>
            <ns3:hr>121</ns3:hr>
          </ns3:TrackPointExtension>
        </extensions>
      </trkpt>
      <trkpt lat="47.009287364780902862548828125" lon="6.9458757899701595306396484375">
        <ele>688.4000244140625</ele>
        <time>2019-06-14T10:18:24.000Z</time>
        <extensions>
          <ns3:TrackPointExtension>
            <ns3:atemp>25.0</ns3:atemp>
            <ns3:hr>122</ns3:hr>
          </ns3:TrackPointExtension>
        </extensions>
      </trkpt>
      <trkpt lat="47.00929365120828151702880859375" lon="6.94587268866598606109619140625">
        <ele>688.5999755859375</ele>
        <time>2019-06-14T10:18:25.000Z</time>
        <extensions>
          <ns3:TrackPointExtension>
            <ns3:atemp>25.0</ns3:atemp>
            <ns3:hr>122</ns3:hr>
          </ns3:TrackPointExtension>
        </extensions>
      </trkpt>
      <trkpt lat="47.00929951854050159454345703125" lon="6.94586916826665401458740234375">
        <ele>688.5999755859375</ele>
        <time>2019-06-14T10:18:26.000Z</time>
        <extensions>
          <ns3:TrackPointExtension>
            <ns3:atemp>25.0</ns3:atemp>
            <ns3:hr>119</ns3:hr>
          </ns3:TrackPointExtension>
        </extensions>
      </trkpt>
      <trkpt lat="47.00931142084300518035888671875" lon="6.945866234600543975830078125">
        <ele>688.79998779296875</ele>
        <time>2019-06-14T10:18:27.000Z</time>
        <extensions>
          <ns3:TrackPointExtension>
            <ns3:atemp>25.0</ns3:atemp>
            <ns3:hr>120</ns3:hr>
          </ns3:TrackPointExtension>
        </extensions>
      </trkpt>
      <trkpt lat="47.00934209860861301422119140625" lon="6.945869587361812591552734375">
        <ele>689</ele>
        <time>2019-06-14T10:18:29.000Z</time>
        <extensions>
          <ns3:TrackPointExtension>
            <ns3:atemp>25.0</ns3:atemp>
            <ns3:hr>120</ns3:hr>
          </ns3:TrackPointExtension>
        </extensions>
      </trkpt>
      <trkpt lat="47.0094223134219646453857421875" lon="6.9458915479481220245361328125">
        <ele>689.4000244140625</ele>
        <time>2019-06-14T10:18:33.000Z</time>
        <extensions>
          <ns3:TrackPointExtension>
            <ns3:atemp>25.0</ns3:atemp>
            <ns3:hr>123</ns3:hr>
          </ns3:TrackPointExtension>
        </extensions>
      </trkpt>
      <trkpt lat="47.00944469310343265533447265625" lon="6.94592691957950592041015625">
        <ele>689.20001220703125</ele>
        <time>2019-06-14T10:18:35.000Z</time>
        <extensions>
          <ns3:TrackPointExtension>
            <ns3:atemp>25.0</ns3:atemp>
            <ns3:hr>125</ns3:hr>
          </ns3:TrackPointExtension>
        </extensions>
      </trkpt>
      <trkpt lat="47.0095222257077693939208984375" lon="6.94610302336513996124267578125">
        <ele>689</ele>
        <time>2019-06-14T10:18:41.000Z</time>
        <extensions>
          <ns3:TrackPointExtension>
            <ns3:atemp>25.0</ns3:atemp>
            <ns3:hr>128</ns3:hr>
          </ns3:TrackPointExtension>
        </extensions>
      </trkpt>
      <trkpt lat="47.00953505001962184906005859375" lon="6.946127414703369140625">
        <ele>688.79998779296875</ele>
        <time>2019-06-14T10:18:42.000Z</time>
        <extensions>
          <ns3:TrackPointExtension>
            <ns3:atemp>25.0</ns3:atemp>
            <ns3:hr>131</ns3:hr>
          </ns3:TrackPointExtension>
        </extensions>
      </trkpt>
      <trkpt lat="47.0095524005591869354248046875" lon="6.94617460481822490692138671875">
        <ele>688.79998779296875</ele>
        <time>2019-06-14T10:18:43.000Z</time>
        <extensions>
          <ns3:TrackPointExtension>
            <ns3:atemp>25.0</ns3:atemp>
            <ns3:hr>134</ns3:hr>
          </ns3:TrackPointExtension>
        </extensions>
      </trkpt>
      <trkpt lat="47.00957260094583034515380859375" lon="6.9462150894105434417724609375">
        <ele>688.79998779296875</ele>
        <time>2019-06-14T10:18:44.000Z</time>
        <extensions>
          <ns3:TrackPointExtension>
            <ns3:atemp>25.0</ns3:atemp>
            <ns3:hr>137</ns3:hr>
          </ns3:TrackPointExtension>
        </extensions>
      </trkpt>
      <trkpt lat="47.00964485295116901397705078125" lon="6.94635246880352497100830078125">
        <ele>688.79998779296875</ele>
        <time>2019-06-14T10:18:48.000Z</time>
        <extensions>
          <ns3:TrackPointExtension>
            <ns3:atemp>25.0</ns3:atemp>
            <ns3:hr>136</ns3:hr>
          </ns3:TrackPointExtension>
        </extensions>
      </trkpt>
      <trkpt lat="47.00965843163430690765380859375" lon="6.94638423621654510498046875">
        <ele>688.79998779296875</ele>
        <time>2019-06-14T10:18:49.000Z</time>
        <extensions>
          <ns3:TrackPointExtension>
            <ns3:atemp>25.0</ns3:atemp>
            <ns3:hr>135</ns3:hr>
          </ns3:TrackPointExtension>
        </extensions>
      </trkpt>
      <trkpt lat="47.0096891932189464569091796875" lon="6.9465537182986736297607421875">
        <ele>688.79998779296875</ele>
        <time>2019-06-14T10:18:53.000Z</time>
        <extensions>
          <ns3:TrackPointExtension>
            <ns3:atemp>25.0</ns3:atemp>
            <ns3:hr>138</ns3:hr>
          </ns3:TrackPointExtension>
        </extensions>
      </trkpt>
      <trkpt lat="47.00972096063196659088134765625" lon="6.9467139802873134613037109375">
        <ele>688.79998779296875</ele>
        <time>2019-06-14T10:18:58.000Z</time>
        <extensions>
          <ns3:TrackPointExtension>
            <ns3:atemp>25.0</ns3:atemp>
            <ns3:hr>136</ns3:hr>
          </ns3:TrackPointExtension>
        </extensions>
      </trkpt>
      <trkpt lat="47.00977091677486896514892578125" lon="6.946892850100994110107421875">
        <ele>688.5999755859375</ele>
        <time>2019-06-14T10:19:04.000Z</time>
        <extensions>
          <ns3:TrackPointExtension>
            <ns3:atemp>25.0</ns3:atemp>
            <ns3:hr>137</ns3:hr>
          </ns3:TrackPointExtension>
        </extensions>
      </trkpt>
      <trkpt lat="47.0098293386399745941162109375" lon="6.9469832070171833038330078125">
        <ele>688.5999755859375</ele>
        <time>2019-06-14T10:19:07.000Z</time>
        <extensions>
          <ns3:TrackPointExtension>
            <ns3:atemp>25.0</ns3:atemp>
            <ns3:hr>137</ns3:hr>
          </ns3:TrackPointExtension>
        </extensions>
      </trkpt>
      <trkpt lat="47.0098591782152652740478515625" lon="6.947038359940052032470703125">
        <ele>688.5999755859375</ele>
        <time>2019-06-14T10:19:09.000Z</time>
        <extensions>
          <ns3:TrackPointExtension>
            <ns3:atemp>25.0</ns3:atemp>
            <ns3:hr>139</ns3:hr>
          </ns3:TrackPointExtension>
        </extensions>
      </trkpt>
      <trkpt lat="47.00994140468537807464599609375" lon="6.94729660637676715850830078125">
        <ele>688.4000244140625</ele>
        <time>2019-06-14T10:19:14.000Z</time>
        <extensions>
          <ns3:TrackPointExtension>
            <ns3:atemp>25.0</ns3:atemp>
            <ns3:hr>136</ns3:hr>
          </ns3:TrackPointExtension>
        </extensions>
      </trkpt>
      <trkpt lat="47.00998364947736263275146484375" lon="6.94742267020046710968017578125">
        <ele>688.4000244140625</ele>
        <time>2019-06-14T10:19:16.000Z</time>
        <extensions>
          <ns3:TrackPointExtension>
            <ns3:atemp>25.0</ns3:atemp>
            <ns3:hr>133</ns3:hr>
          </ns3:TrackPointExtension>
        </extensions>
      </trkpt>
      <trkpt lat="47.010052464902400970458984375" lon="6.9476168788969516754150390625">
        <ele>688.20001220703125</ele>
        <time>2019-06-14T10:19:19.000Z</time>
        <extensions>
          <ns3:TrackPointExtension>
            <ns3:atemp>25.0</ns3:atemp>
            <ns3:hr>131</ns3:hr>
          </ns3:TrackPointExtension>
        </extensions>
      </trkpt>
      <trkpt lat="47.0101270638406276702880859375" lon="6.9477707706391811370849609375">
        <ele>688</ele>
        <time>2019-06-14T10:19:22.000Z</time>
        <extensions>
          <ns3:TrackPointExtension>
            <ns3:atemp>25.0</ns3:atemp>
            <ns3:hr>131</ns3:hr>
          </ns3:TrackPointExtension>
        </extensions>
      </trkpt>
      <trkpt lat="47.0101880840957164764404296875" lon="6.947953663766384124755859375">
        <ele>688</ele>
        <time>2019-06-14T10:19:25.000Z</time>
        <extensions>
          <ns3:TrackPointExtension>
            <ns3:atemp>25.0</ns3:atemp>
            <ns3:hr>130</ns3:hr>
          </ns3:TrackPointExtension>
        </extensions>
      </trkpt>
      <trkpt lat="47.01035630889236927032470703125" lon="6.94818005897104740142822265625">
        <ele>688</ele>
        <time>2019-06-14T10:19:30.000Z</time>
        <extensions>
          <ns3:TrackPointExtension>
            <ns3:atemp>25.0</ns3:atemp>
            <ns3:hr>129</ns3:hr>
          </ns3:TrackPointExtension>
        </extensions>
      </trkpt>
      <trkpt lat="47.0104591548442840576171875" lon="6.9484262354671955108642578125">
        <ele>688.4000244140625</ele>
        <time>2019-06-14T10:19:36.000Z</time>
        <extensions>
          <ns3:TrackPointExtension>
            <ns3:atemp>25.0</ns3:atemp>
            <ns3:hr>126</ns3:hr>
          </ns3:TrackPointExtension>
        </extensions>
      </trkpt>
      <trkpt lat="47.0104874856770038604736328125" lon="6.94849781692028045654296875">
        <ele>688.5999755859375</ele>
        <time>2019-06-14T10:19:37.000Z</time>
        <extensions>
          <ns3:TrackPointExtension>
            <ns3:atemp>25.0</ns3:atemp>
            <ns3:hr>130</ns3:hr>
          </ns3:TrackPointExtension>
        </extensions>
      </trkpt>
      <trkpt lat="47.01057055033743381500244140625" lon="6.948728822171688079833984375">
        <ele>689</ele>
        <time>2019-06-14T10:19:41.000Z</time>
        <extensions>
          <ns3:TrackPointExtension>
            <ns3:atemp>25.0</ns3:atemp>
            <ns3:hr>129</ns3:hr>
          </ns3:TrackPointExtension>
        </extensions>
      </trkpt>
      <trkpt lat="47.01063710264861583709716796875" lon="6.94903023540973663330078125">
        <ele>689</ele>
        <time>2019-06-14T10:19:47.000Z</time>
        <extensions>
          <ns3:TrackPointExtension>
            <ns3:atemp>25.0</ns3:atemp>
            <ns3:hr>128</ns3:hr>
          </ns3:TrackPointExtension>
        </extensions>
      </trkpt>
      <trkpt lat="47.01073751784861087799072265625" lon="6.94925151765346527099609375">
        <ele>688.79998779296875</ele>
        <time>2019-06-14T10:19:53.000Z</time>
        <extensions>
          <ns3:TrackPointExtension>
            <ns3:atemp>25.0</ns3:atemp>
            <ns3:hr>127</ns3:hr>
          </ns3:TrackPointExtension>
        </extensions>
      </trkpt>
      <trkpt lat="47.01083055697381496429443359375" lon="6.94955502636730670928955078125">
        <ele>688.20001220703125</ele>
        <time>2019-06-14T10:19:58.000Z</time>
        <extensions>
          <ns3:TrackPointExtension>
            <ns3:atemp>25.0</ns3:atemp>
            <ns3:hr>127</ns3:hr>
          </ns3:TrackPointExtension>
        </extensions>
      </trkpt>
      <trkpt lat="47.01092527247965335845947265625" lon="6.9498033821582794189453125">
        <ele>687.4000244140625</ele>
        <time>2019-06-14T10:20:01.000Z</time>
        <extensions>
          <ns3:TrackPointExtension>
            <ns3:atemp>25.0</ns3:atemp>
            <ns3:hr>127</ns3:hr>
          </ns3:TrackPointExtension>
        </extensions>
      </trkpt>
      <trkpt lat="47.010964415967464447021484375" lon="6.94988477043807506561279296875">
        <ele>687.20001220703125</ele>
        <time>2019-06-14T10:20:02.000Z</time>
        <extensions>
          <ns3:TrackPointExtension>
            <ns3:atemp>25.0</ns3:atemp>
            <ns3:hr>127</ns3:hr>
          </ns3:TrackPointExtension>
        </extensions>
      </trkpt>
      <trkpt lat="47.011013366281986236572265625" lon="6.95007353089749813079833984375">
        <ele>687</ele>
        <time>2019-06-14T10:20:04.000Z</time>
        <extensions>
          <ns3:TrackPointExtension>
            <ns3:atemp>25.0</ns3:atemp>
            <ns3:hr>128</ns3:hr>
          </ns3:TrackPointExtension>
        </extensions>
      </trkpt>
      <trkpt lat="47.0110655017197132110595703125" lon="6.95029699243605136871337890625">
        <ele>687</ele>
        <time>2019-06-14T10:20:07.000Z</time>
        <extensions>
          <ns3:TrackPointExtension>
            <ns3:atemp>25.0</ns3:atemp>
            <ns3:hr>127</ns3:hr>
          </ns3:TrackPointExtension>
        </extensions>
      </trkpt>
      <trkpt lat="47.011078409850597381591796875" lon="6.95036941207945346832275390625">
        <ele>687</ele>
        <time>2019-06-14T10:20:08.000Z</time>
        <extensions>
          <ns3:TrackPointExtension>
            <ns3:atemp>25.0</ns3:atemp>
            <ns3:hr>127</ns3:hr>
          </ns3:TrackPointExtension>
        </extensions>
      </trkpt>
      <trkpt lat="47.011101208627223968505859375" lon="6.9506227970123291015625">
        <ele>687</ele>
        <time>2019-06-14T10:20:12.000Z</time>
        <extensions>
          <ns3:TrackPointExtension>
            <ns3:atemp>25.0</ns3:atemp>
            <ns3:hr>126</ns3:hr>
          </ns3:TrackPointExtension>
        </extensions>
      </trkpt>
      <trkpt lat="47.011103890836238861083984375" lon="6.95069077424705028533935546875">
        <ele>686.79998779296875</ele>
        <time>2019-06-14T10:20:13.000Z</time>
        <extensions>
          <ns3:TrackPointExtension>
            <ns3:atemp>25.0</ns3:atemp>
            <ns3:hr>126</ns3:hr>
          </ns3:TrackPointExtension>
        </extensions>
      </trkpt>
      <trkpt lat="47.01110162772238254547119140625" lon="6.95076034404337406158447265625">
        <ele>686.5999755859375</ele>
        <time>2019-06-14T10:20:14.000Z</time>
        <extensions>
          <ns3:TrackPointExtension>
            <ns3:atemp>25.0</ns3:atemp>
            <ns3:hr>127</ns3:hr>
          </ns3:TrackPointExtension>
        </extensions>
      </trkpt>
      <trkpt lat="47.011111266911029815673828125" lon="6.950909793376922607421875">
        <ele>686.20001220703125</ele>
        <time>2019-06-14T10:20:16.000Z</time>
        <extensions>
          <ns3:TrackPointExtension>
            <ns3:atemp>25.0</ns3:atemp>
            <ns3:hr>127</ns3:hr>
          </ns3:TrackPointExtension>
        </extensions>
      </trkpt>
      <trkpt lat="47.01111554168164730072021484375" lon="6.951061673462390899658203125">
        <ele>685.79998779296875</ele>
        <time>2019-06-14T10:20:18.000Z</time>
        <extensions>
          <ns3:TrackPointExtension>
            <ns3:atemp>25.0</ns3:atemp>
            <ns3:hr>127</ns3:hr>
          </ns3:TrackPointExtension>
        </extensions>
      </trkpt>
      <trkpt lat="47.01115719974040985107421875" lon="6.95139334537088871002197265625">
        <ele>685</ele>
        <time>2019-06-14T10:20:21.000Z</time>
        <extensions>
          <ns3:TrackPointExtension>
            <ns3:atemp>25.0</ns3:atemp>
            <ns3:hr>126</ns3:hr>
          </ns3:TrackPointExtension>
        </extensions>
      </trkpt>
      <trkpt lat="47.011164911091327667236328125" lon="6.9514903239905834197998046875">
        <ele>684.79998779296875</ele>
        <time>2019-06-14T10:20:22.000Z</time>
        <extensions>
          <ns3:TrackPointExtension>
            <ns3:atemp>25.0</ns3:atemp>
            <ns3:hr>126</ns3:hr>
          </ns3:TrackPointExtension>
        </extensions>
      </trkpt>
      <trkpt lat="47.01120154000818729400634765625" lon="6.9517533481121063232421875">
        <ele>684.5999755859375</ele>
        <time>2019-06-14T10:20:25.000Z</time>
        <extensions>
          <ns3:TrackPointExtension>
            <ns3:atemp>25.0</ns3:atemp>
            <ns3:hr>124</ns3:hr>
          </ns3:TrackPointExtension>
        </extensions>
      </trkpt>
      <trkpt lat="47.01126038096845149993896484375" lon="6.95191872306168079376220703125">
        <ele>684.5999755859375</ele>
        <time>2019-06-14T10:20:27.000Z</time>
        <extensions>
          <ns3:TrackPointExtension>
            <ns3:atemp>25.0</ns3:atemp>
            <ns3:hr>124</ns3:hr>
          </ns3:TrackPointExtension>
        </extensions>
      </trkpt>
      <trkpt lat="47.01150060631334781646728515625" lon="6.9523362256586551666259765625">
        <ele>685</ele>
        <time>2019-06-14T10:20:33.000Z</time>
        <extensions>
          <ns3:TrackPointExtension>
            <ns3:atemp>24.0</ns3:atemp>
            <ns3:hr>122</ns3:hr>
          </ns3:TrackPointExtension>
        </extensions>
      </trkpt>
      <trkpt lat="47.01168961822986602783203125" lon="6.9526614435017108917236328125">
        <ele>685</ele>
        <time>2019-06-14T10:20:37.000Z</time>
        <extensions>
          <ns3:TrackPointExtension>
            <ns3:atemp>24.0</ns3:atemp>
            <ns3:hr>123</ns3:hr>
          </ns3:TrackPointExtension>
        </extensions>
      </trkpt>
      <trkpt lat="47.01172507368028163909912109375" lon="6.952728666365146636962890625">
        <ele>684.79998779296875</ele>
        <time>2019-06-14T10:20:38.000Z</time>
        <extensions>
          <ns3:TrackPointExtension>
            <ns3:atemp>24.0</ns3:atemp>
            <ns3:hr>123</ns3:hr>
          </ns3:TrackPointExtension>
        </extensions>
      </trkpt>
      <trkpt lat="47.01180889271199703216552734375" lon="6.95291130803525447845458984375">
        <ele>684.5999755859375</ele>
        <time>2019-06-14T10:20:41.000Z</time>
        <extensions>
          <ns3:TrackPointExtension>
            <ns3:atemp>24.0</ns3:atemp>
            <ns3:hr>125</ns3:hr>
          </ns3:TrackPointExtension>
        </extensions>
      </trkpt>
      <trkpt lat="47.0118523947894573211669921875" lon="6.95304214954376220703125">
        <ele>684.79998779296875</ele>
        <time>2019-06-14T10:20:43.000Z</time>
        <extensions>
          <ns3:TrackPointExtension>
            <ns3:atemp>24.0</ns3:atemp>
            <ns3:hr>125</ns3:hr>
          </ns3:TrackPointExtension>
        </extensions>
      </trkpt>
      <trkpt lat="47.0119342021644115447998046875" lon="6.95319210179150104522705078125">
        <ele>685</ele>
        <time>2019-06-14T10:20:45.000Z</time>
        <extensions>
          <ns3:TrackPointExtension>
            <ns3:atemp>24.0</ns3:atemp>
            <ns3:hr>124</ns3:hr>
          </ns3:TrackPointExtension>
        </extensions>
      </trkpt>
      <trkpt lat="47.01200620271265506744384765625" lon="6.953326128423213958740234375">
        <ele>685</ele>
        <time>2019-06-14T10:20:47.000Z</time>
        <extensions>
          <ns3:TrackPointExtension>
            <ns3:atemp>24.0</ns3:atemp>
            <ns3:hr>124</ns3:hr>
          </ns3:TrackPointExtension>
        </extensions>
      </trkpt>
      <trkpt lat="47.01203654520213603973388671875" lon="6.95340332575142383575439453125">
        <ele>684.79998779296875</ele>
        <time>2019-06-14T10:20:48.000Z</time>
        <extensions>
          <ns3:TrackPointExtension>
            <ns3:atemp>24.0</ns3:atemp>
            <ns3:hr>124</ns3:hr>
          </ns3:TrackPointExtension>
        </extensions>
      </trkpt>
      <trkpt lat="47.01209102757275104522705078125" lon="6.9535502605140209197998046875">
        <ele>684.79998779296875</ele>
        <time>2019-06-14T10:20:50.000Z</time>
        <extensions>
          <ns3:TrackPointExtension>
            <ns3:atemp>24.0</ns3:atemp>
            <ns3:hr>125</ns3:hr>
          </ns3:TrackPointExtension>
        </extensions>
      </trkpt>
      <trkpt lat="47.012152969837188720703125" lon="6.95376877672970294952392578125">
        <ele>684.4000244140625</ele>
        <time>2019-06-14T10:20:53.000Z</time>
        <extensions>
          <ns3:TrackPointExtension>
            <ns3:atemp>24.0</ns3:atemp>
            <ns3:hr>126</ns3:hr>
          </ns3:TrackPointExtension>
        </extensions>
      </trkpt>
      <trkpt lat="47.0122320950031280517578125" lon="6.953983604907989501953125">
        <ele>684.4000244140625</ele>
        <time>2019-06-14T10:20:56.000Z</time>
        <extensions>
          <ns3:TrackPointExtension>
            <ns3:atemp>24.0</ns3:atemp>
            <ns3:hr>126</ns3:hr>
          </ns3:TrackPointExtension>
        </extensions>
      </trkpt>
      <trkpt lat="47.0122698135673999786376953125" lon="6.95403967984020709991455078125">
        <ele>684.4000244140625</ele>
        <time>2019-06-14T10:20:57.000Z</time>
        <extensions>
          <ns3:TrackPointExtension>
            <ns3:atemp>24.0</ns3:atemp>
            <ns3:hr>126</ns3:hr>
          </ns3:TrackPointExtension>
        </extensions>
      </trkpt>
      <trkpt lat="47.01231591403484344482421875" lon="6.95408594794571399688720703125">
        <ele>684.5999755859375</ele>
        <time>2019-06-14T10:20:58.000Z</time>
        <extensions>
          <ns3:TrackPointExtension>
            <ns3:atemp>24.0</ns3:atemp>
            <ns3:hr>126</ns3:hr>
          </ns3:TrackPointExtension>
        </extensions>
      </trkpt>
      <trkpt lat="47.01246435754001140594482421875" lon="6.95422374643385410308837890625">
        <ele>685.5999755859375</ele>
        <time>2019-06-14T10:21:01.000Z</time>
        <extensions>
          <ns3:TrackPointExtension>
            <ns3:atemp>24.0</ns3:atemp>
            <ns3:hr>126</ns3:hr>
          </ns3:TrackPointExtension>
        </extensions>
      </trkpt>
      <trkpt lat="47.0125754177570343017578125" lon="6.95440881885588169097900390625">
        <ele>685.5999755859375</ele>
        <time>2019-06-14T10:21:04.000Z</time>
        <extensions>
          <ns3:TrackPointExtension>
            <ns3:atemp>24.0</ns3:atemp>
            <ns3:hr>126</ns3:hr>
          </ns3:TrackPointExtension>
        </extensions>
      </trkpt>
      <trkpt lat="47.01261322014033794403076171875" lon="6.9544886983931064605712890625">
        <ele>685.4000244140625</ele>
        <time>2019-06-14T10:21:05.000Z</time>
        <extensions>
          <ns3:TrackPointExtension>
            <ns3:atemp>24.0</ns3:atemp>
            <ns3:hr>126</ns3:hr>
          </ns3:TrackPointExtension>
        </extensions>
      </trkpt>
      <trkpt lat="47.0126718096435070037841796875" lon="6.9546586833894252777099609375">
        <ele>685</ele>
        <time>2019-06-14T10:21:07.000Z</time>
        <extensions>
          <ns3:TrackPointExtension>
            <ns3:atemp>24.0</ns3:atemp>
            <ns3:hr>126</ns3:hr>
          </ns3:TrackPointExtension>
        </extensions>
      </trkpt>
      <trkpt lat="47.012693099677562713623046875" lon="6.95472632534801959991455078125">
        <ele>684.5999755859375</ele>
        <time>2019-06-14T10:21:08.000Z</time>
        <extensions>
          <ns3:TrackPointExtension>
            <ns3:atemp>24.0</ns3:atemp>
            <ns3:hr>126</ns3:hr>
          </ns3:TrackPointExtension>
        </extensions>
      </trkpt>
      <trkpt lat="47.0127254538238048553466796875" lon="6.9548035226762294769287109375">
        <ele>684.20001220703125</ele>
        <time>2019-06-14T10:21:09.000Z</time>
        <extensions>
          <ns3:TrackPointExtension>
            <ns3:atemp>24.0</ns3:atemp>
            <ns3:hr>126</ns3:hr>
          </ns3:TrackPointExtension>
        </extensions>
      </trkpt>
      <trkpt lat="47.01277725398540496826171875" lon="6.95489999838173389434814453125">
        <ele>683.79998779296875</ele>
        <time>2019-06-14T10:21:10.000Z</time>
        <extensions>
          <ns3:TrackPointExtension>
            <ns3:atemp>24.0</ns3:atemp>
            <ns3:hr>126</ns3:hr>
          </ns3:TrackPointExtension>
        </extensions>
      </trkpt>
      <trkpt lat="47.01287624426186084747314453125" lon="6.95508339442312717437744140625">
        <ele>682.5999755859375</ele>
        <time>2019-06-14T10:21:12.000Z</time>
        <extensions>
          <ns3:TrackPointExtension>
            <ns3:atemp>24.0</ns3:atemp>
            <ns3:hr>126</ns3:hr>
          </ns3:TrackPointExtension>
        </extensions>
      </trkpt>
      <trkpt lat="47.012960650026798248291015625" lon="6.95517651736736297607421875">
        <ele>682.20001220703125</ele>
        <time>2019-06-14T10:21:13.000Z</time>
        <extensions>
          <ns3:TrackPointExtension>
            <ns3:atemp>24.0</ns3:atemp>
            <ns3:hr>126</ns3:hr>
          </ns3:TrackPointExtension>
        </extensions>
      </trkpt>
      <trkpt lat="47.01307740993797779083251953125" lon="6.95540182292461395263671875">
        <ele>682.20001220703125</ele>
        <time>2019-06-14T10:21:16.000Z</time>
        <extensions>
          <ns3:TrackPointExtension>
            <ns3:atemp>24.0</ns3:atemp>
            <ns3:hr>128</ns3:hr>
          </ns3:TrackPointExtension>
        </extensions>
      </trkpt>
      <trkpt lat="47.01318922452628612518310546875" lon="6.9556256197392940521240234375">
        <ele>683.20001220703125</ele>
        <time>2019-06-14T10:21:19.000Z</time>
        <extensions>
          <ns3:TrackPointExtension>
            <ns3:atemp>24.0</ns3:atemp>
            <ns3:hr>128</ns3:hr>
          </ns3:TrackPointExtension>
        </extensions>
      </trkpt>
      <trkpt lat="47.01329047791659832000732421875" lon="6.95576014928519725799560546875">
        <ele>683.4000244140625</ele>
        <time>2019-06-14T10:21:21.000Z</time>
        <extensions>
          <ns3:TrackPointExtension>
            <ns3:atemp>24.0</ns3:atemp>
            <ns3:hr>128</ns3:hr>
          </ns3:TrackPointExtension>
        </extensions>
      </trkpt>
      <trkpt lat="47.01340413652360439300537109375" lon="6.95587464608252048492431640625">
        <ele>683.4000244140625</ele>
        <time>2019-06-14T10:21:23.000Z</time>
        <extensions>
          <ns3:TrackPointExtension>
            <ns3:atemp>24.0</ns3:atemp>
            <ns3:hr>128</ns3:hr>
          </ns3:TrackPointExtension>
        </extensions>
      </trkpt>
      <trkpt lat="47.0134996064007282257080078125" lon="6.95597070269286632537841796875">
        <ele>683.4000244140625</ele>
        <time>2019-06-14T10:21:25.000Z</time>
        <extensions>
          <ns3:TrackPointExtension>
            <ns3:atemp>24.0</ns3:atemp>
            <ns3:hr>129</ns3:hr>
          </ns3:TrackPointExtension>
        </extensions>
      </trkpt>
      <trkpt lat="47.01357194222509860992431640625" lon="6.9560945034027099609375">
        <ele>682.79998779296875</ele>
        <time>2019-06-14T10:21:27.000Z</time>
        <extensions>
          <ns3:TrackPointExtension>
            <ns3:atemp>24.0</ns3:atemp>
            <ns3:hr>129</ns3:hr>
          </ns3:TrackPointExtension>
        </extensions>
      </trkpt>
      <trkpt lat="47.01359474100172519683837890625" lon="6.9561761431396007537841796875">
        <ele>682.4000244140625</ele>
        <time>2019-06-14T10:21:28.000Z</time>
        <extensions>
          <ns3:TrackPointExtension>
            <ns3:atemp>24.0</ns3:atemp>
            <ns3:hr>129</ns3:hr>
          </ns3:TrackPointExtension>
        </extensions>
      </trkpt>
      <trkpt lat="47.01360739767551422119140625" lon="6.9562673382461071014404296875">
        <ele>682</ele>
        <time>2019-06-14T10:21:29.000Z</time>
        <extensions>
          <ns3:TrackPointExtension>
            <ns3:atemp>24.0</ns3:atemp>
            <ns3:hr>128</ns3:hr>
          </ns3:TrackPointExtension>
        </extensions>
      </trkpt>
      <trkpt lat="47.01361142098903656005859375" lon="6.9563625566661357879638671875">
        <ele>681.5999755859375</ele>
        <time>2019-06-14T10:21:30.000Z</time>
        <extensions>
          <ns3:TrackPointExtension>
            <ns3:atemp>24.0</ns3:atemp>
            <ns3:hr>129</ns3:hr>
          </ns3:TrackPointExtension>
        </extensions>
      </trkpt>
      <trkpt lat="47.0136129297316074371337890625" lon="6.9564686715602874755859375">
        <ele>680.79998779296875</ele>
        <time>2019-06-14T10:21:31.000Z</time>
        <extensions>
          <ns3:TrackPointExtension>
            <ns3:atemp>24.0</ns3:atemp>
            <ns3:hr>130</ns3:hr>
          </ns3:TrackPointExtension>
        </extensions>
      </trkpt>
      <trkpt lat="47.01360597275197505950927734375" lon="6.95657797157764434814453125">
        <ele>680</ele>
        <time>2019-06-14T10:21:32.000Z</time>
        <extensions>
          <ns3:TrackPointExtension>
            <ns3:atemp>24.0</ns3:atemp>
            <ns3:hr>130</ns3:hr>
          </ns3:TrackPointExtension>
        </extensions>
      </trkpt>
      <trkpt lat="47.0136295258998870849609375" lon="6.95686153136193752288818359375">
        <ele>678</ele>
        <time>2019-06-14T10:21:34.000Z</time>
        <extensions>
          <ns3:TrackPointExtension>
            <ns3:atemp>24.0</ns3:atemp>
            <ns3:hr>129</ns3:hr>
          </ns3:TrackPointExtension>
        </extensions>
      </trkpt>
      <trkpt lat="47.0136545039713382720947265625" lon="6.95699715055525302886962890625">
        <ele>677.20001220703125</ele>
        <time>2019-06-14T10:21:35.000Z</time>
        <extensions>
          <ns3:TrackPointExtension>
            <ns3:atemp>24.0</ns3:atemp>
            <ns3:hr>129</ns3:hr>
          </ns3:TrackPointExtension>
        </extensions>
      </trkpt>
      <trkpt lat="47.0136729441583156585693359375" lon="6.95712304674088954925537109375">
        <ele>676.20001220703125</ele>
        <time>2019-06-14T10:21:36.000Z</time>
        <extensions>
          <ns3:TrackPointExtension>
            <ns3:atemp>24.0</ns3:atemp>
            <ns3:hr>128</ns3:hr>
          </ns3:TrackPointExtension>
        </extensions>
      </trkpt>
      <trkpt lat="47.01369649730622768402099609375" lon="6.95723921991884708404541015625">
        <ele>675.20001220703125</ele>
        <time>2019-06-14T10:21:37.000Z</time>
        <extensions>
          <ns3:TrackPointExtension>
            <ns3:atemp>24.0</ns3:atemp>
            <ns3:hr>126</ns3:hr>
          </ns3:TrackPointExtension>
        </extensions>
      </trkpt>
      <trkpt lat="47.0137275941669940948486328125" lon="6.95734315551817417144775390625">
        <ele>674</ele>
        <time>2019-06-14T10:21:38.000Z</time>
        <extensions>
          <ns3:TrackPointExtension>
            <ns3:atemp>24.0</ns3:atemp>
            <ns3:hr>125</ns3:hr>
          </ns3:TrackPointExtension>
        </extensions>
      </trkpt>
      <trkpt lat="47.01379758305847644805908203125" lon="6.95753979496657848358154296875">
        <ele>672.5999755859375</ele>
        <time>2019-06-14T10:21:40.000Z</time>
        <extensions>
          <ns3:TrackPointExtension>
            <ns3:atemp>24.0</ns3:atemp>
            <ns3:hr>125</ns3:hr>
          </ns3:TrackPointExtension>
        </extensions>
      </trkpt>
      <trkpt lat="47.01382859610021114349365234375" lon="6.9576205126941204071044921875">
        <ele>672.20001220703125</ele>
        <time>2019-06-14T10:21:41.000Z</time>
        <extensions>
          <ns3:TrackPointExtension>
            <ns3:atemp>24.0</ns3:atemp>
            <ns3:hr>124</ns3:hr>
          </ns3:TrackPointExtension>
        </extensions>
      </trkpt>
      <trkpt lat="47.01387871988117694854736328125" lon="6.9578045792877674102783203125">
        <ele>670.79998779296875</ele>
        <time>2019-06-14T10:21:43.000Z</time>
        <extensions>
          <ns3:TrackPointExtension>
            <ns3:atemp>24.0</ns3:atemp>
            <ns3:hr>125</ns3:hr>
          </ns3:TrackPointExtension>
        </extensions>
      </trkpt>
      <trkpt lat="47.0139026083052158355712890625" lon="6.95790323428809642791748046875">
        <ele>669.5999755859375</ele>
        <time>2019-06-14T10:21:44.000Z</time>
        <extensions>
          <ns3:TrackPointExtension>
            <ns3:atemp>24.0</ns3:atemp>
            <ns3:hr>124</ns3:hr>
          </ns3:TrackPointExtension>
        </extensions>
      </trkpt>
      <trkpt lat="47.01392590999603271484375" lon="6.9580117799341678619384765625">
        <ele>668.4000244140625</ele>
        <time>2019-06-14T10:21:45.000Z</time>
        <extensions>
          <ns3:TrackPointExtension>
            <ns3:atemp>24.0</ns3:atemp>
            <ns3:hr>124</ns3:hr>
          </ns3:TrackPointExtension>
        </extensions>
      </trkpt>
      <trkpt lat="47.01395750977098941802978515625" lon="6.9581220857799053192138671875">
        <ele>667.4000244140625</ele>
        <time>2019-06-14T10:21:46.000Z</time>
        <extensions>
          <ns3:TrackPointExtension>
            <ns3:atemp>24.0</ns3:atemp>
            <ns3:hr>124</ns3:hr>
          </ns3:TrackPointExtension>
        </extensions>
      </trkpt>
      <trkpt lat="47.0139881037175655364990234375" lon="6.95822794921696186065673828125">
        <ele>666.20001220703125</ele>
        <time>2019-06-14T10:21:47.000Z</time>
        <extensions>
          <ns3:TrackPointExtension>
            <ns3:atemp>24.0</ns3:atemp>
            <ns3:hr>124</ns3:hr>
          </ns3:TrackPointExtension>
        </extensions>
      </trkpt>
      <trkpt lat="47.0140233077108860015869140625" lon="6.95833557285368442535400390625">
        <ele>664.79998779296875</ele>
        <time>2019-06-14T10:21:48.000Z</time>
        <extensions>
          <ns3:TrackPointExtension>
            <ns3:atemp>24.0</ns3:atemp>
            <ns3:hr>123</ns3:hr>
          </ns3:TrackPointExtension>
        </extensions>
      </trkpt>
      <trkpt lat="47.01405440457165241241455078125" lon="6.95844939909875392913818359375">
        <ele>663.4000244140625</ele>
        <time>2019-06-14T10:21:49.000Z</time>
        <extensions>
          <ns3:TrackPointExtension>
            <ns3:atemp>24.0</ns3:atemp>
            <ns3:hr>124</ns3:hr>
          </ns3:TrackPointExtension>
        </extensions>
      </trkpt>
      <trkpt lat="47.01407971791923046112060546875" lon="6.95856121368706226348876953125">
        <ele>662</ele>
        <time>2019-06-14T10:21:50.000Z</time>
        <extensions>
          <ns3:TrackPointExtension>
            <ns3:atemp>24.0</ns3:atemp>
            <ns3:hr>123</ns3:hr>
          </ns3:TrackPointExtension>
        </extensions>
      </trkpt>
      <trkpt lat="47.01409011147916316986083984375" lon="6.95865810848772525787353515625">
        <ele>661</ele>
        <time>2019-06-14T10:21:51.000Z</time>
        <extensions>
          <ns3:TrackPointExtension>
            <ns3:atemp>24.0</ns3:atemp>
            <ns3:hr>123</ns3:hr>
          </ns3:TrackPointExtension>
        </extensions>
      </trkpt>
      <trkpt lat="47.01410586945712566375732421875" lon="6.958811245858669281005859375">
        <ele>659.4000244140625</ele>
        <time>2019-06-14T10:21:53.000Z</time>
        <extensions>
          <ns3:TrackPointExtension>
            <ns3:atemp>24.0</ns3:atemp>
            <ns3:hr>123</ns3:hr>
          </ns3:TrackPointExtension>
        </extensions>
      </trkpt>
      <trkpt lat="47.01412045396864414215087890625" lon="6.95885441266000270843505859375">
        <ele>659</ele>
        <time>2019-06-14T10:21:54.000Z</time>
        <extensions>
          <ns3:TrackPointExtension>
            <ns3:atemp>24.0</ns3:atemp>
            <ns3:hr>122</ns3:hr>
          </ns3:TrackPointExtension>
        </extensions>
      </trkpt>
      <trkpt lat="47.0141480304300785064697265625" lon="6.95888877846300601959228515625">
        <ele>658.5999755859375</ele>
        <time>2019-06-14T10:21:56.000Z</time>
        <extensions>
          <ns3:TrackPointExtension>
            <ns3:atemp>24.0</ns3:atemp>
            <ns3:hr>122</ns3:hr>
          </ns3:TrackPointExtension>
        </extensions>
      </trkpt>
      <trkpt lat="47.01417560689151287078857421875" lon="6.95888198912143707275390625">
        <ele>658.79998779296875</ele>
        <time>2019-06-14T10:21:58.000Z</time>
        <extensions>
          <ns3:TrackPointExtension>
            <ns3:atemp>24.0</ns3:atemp>
            <ns3:hr>121</ns3:hr>
          </ns3:TrackPointExtension>
        </extensions>
      </trkpt>
      <trkpt lat="47.0142410695552825927734375" lon="6.958873607218265533447265625">
        <ele>659.5999755859375</ele>
        <time>2019-06-14T10:22:01.000Z</time>
        <extensions>
          <ns3:TrackPointExtension>
            <ns3:atemp>24.0</ns3:atemp>
            <ns3:hr>124</ns3:hr>
          </ns3:TrackPointExtension>
        </extensions>
      </trkpt>
      <trkpt lat="47.01435062102973461151123046875" lon="6.95888659916818141937255859375">
        <ele>660.4000244140625</ele>
        <time>2019-06-14T10:22:05.000Z</time>
        <extensions>
          <ns3:TrackPointExtension>
            <ns3:atemp>23.0</ns3:atemp>
            <ns3:hr>122</ns3:hr>
          </ns3:TrackPointExtension>
        </extensions>
      </trkpt>
      <trkpt lat="47.01439018361270427703857421875" lon="6.958878971636295318603515625">
        <ele>660.79998779296875</ele>
        <time>2019-06-14T10:22:07.000Z</time>
        <extensions>
          <ns3:TrackPointExtension>
            <ns3:atemp>23.0</ns3:atemp>
            <ns3:hr>122</ns3:hr>
          </ns3:TrackPointExtension>
        </extensions>
      </trkpt>
      <trkpt lat="47.0144269801676273345947265625" lon="6.95887503214180469512939453125">
        <ele>661.4000244140625</ele>
        <time>2019-06-14T10:22:09.000Z</time>
        <extensions>
          <ns3:TrackPointExtension>
            <ns3:atemp>23.0</ns3:atemp>
            <ns3:hr>123</ns3:hr>
          </ns3:TrackPointExtension>
        </extensions>
      </trkpt>
      <trkpt lat="47.01444827020168304443359375" lon="6.958867572247982025146484375">
        <ele>661.79998779296875</ele>
        <time>2019-06-14T10:22:10.000Z</time>
        <extensions>
          <ns3:TrackPointExtension>
            <ns3:atemp>23.0</ns3:atemp>
            <ns3:hr>125</ns3:hr>
          </ns3:TrackPointExtension>
        </extensions>
      </trkpt>
      <trkpt lat="47.0144843123853206634521484375" lon="6.958856172859668731689453125">
        <ele>662.4000244140625</ele>
        <time>2019-06-14T10:22:12.000Z</time>
        <extensions>
          <ns3:TrackPointExtension>
            <ns3:atemp>23.0</ns3:atemp>
            <ns3:hr>129</ns3:hr>
          </ns3:TrackPointExtension>
        </extensions>
      </trkpt>
      <trkpt lat="47.01448875479400157928466796875" lon="6.95884041488170623779296875">
        <ele>662.5999755859375</ele>
        <time>2019-06-14T10:22:13.000Z</time>
        <extensions>
          <ns3:TrackPointExtension>
            <ns3:atemp>23.0</ns3:atemp>
            <ns3:hr>123</ns3:hr>
          </ns3:TrackPointExtension>
        </extensions>
      </trkpt>
      <trkpt lat="47.01453167013823986053466796875" lon="6.9588295184075832366943359375">
        <ele>662.79998779296875</ele>
        <time>2019-06-14T10:22:14.000Z</time>
        <extensions>
          <ns3:TrackPointExtension>
            <ns3:atemp>23.0</ns3:atemp>
            <ns3:hr>123</ns3:hr>
          </ns3:TrackPointExtension>
        </extensions>
      </trkpt>
      <trkpt lat="47.014651112258434295654296875" lon="6.95886447094380855560302734375">
        <ele>663.4000244140625</ele>
        <time>2019-06-14T10:22:17.000Z</time>
        <extensions>
          <ns3:TrackPointExtension>
            <ns3:atemp>23.0</ns3:atemp>
            <ns3:hr>125</ns3:hr>
          </ns3:TrackPointExtension>
        </extensions>
      </trkpt>
      <trkpt lat="47.014746330678462982177734375" lon="6.95905323140323162078857421875">
        <ele>662.5999755859375</ele>
        <time>2019-06-14T10:22:21.000Z</time>
        <extensions>
          <ns3:TrackPointExtension>
            <ns3:atemp>23.0</ns3:atemp>
            <ns3:hr>124</ns3:hr>
          </ns3:TrackPointExtension>
        </extensions>
      </trkpt>
      <trkpt lat="47.01480441726744174957275390625" lon="6.95918549783527851104736328125">
        <ele>662</ele>
        <time>2019-06-14T10:22:23.000Z</time>
        <extensions>
          <ns3:TrackPointExtension>
            <ns3:atemp>23.0</ns3:atemp>
            <ns3:hr>124</ns3:hr>
          </ns3:TrackPointExtension>
        </extensions>
      </trkpt>
      <trkpt lat="47.014827467501163482666015625" lon="6.95926194079220294952392578125">
        <ele>661.5999755859375</ele>
        <time>2019-06-14T10:22:24.000Z</time>
        <extensions>
          <ns3:TrackPointExtension>
            <ns3:atemp>23.0</ns3:atemp>
            <ns3:hr>125</ns3:hr>
          </ns3:TrackPointExtension>
        </extensions>
      </trkpt>
      <trkpt lat="47.01484062708914279937744140625" lon="6.95932321250438690185546875">
        <ele>661</ele>
        <time>2019-06-14T10:22:25.000Z</time>
        <extensions>
          <ns3:TrackPointExtension>
            <ns3:atemp>23.0</ns3:atemp>
            <ns3:hr>124</ns3:hr>
          </ns3:TrackPointExtension>
        </extensions>
      </trkpt>
      <trkpt lat="47.0148383639752864837646484375" lon="6.95940610952675342559814453125">
        <ele>660.79998779296875</ele>
        <time>2019-06-14T10:22:26.000Z</time>
        <extensions>
          <ns3:TrackPointExtension>
            <ns3:atemp>23.0</ns3:atemp>
            <ns3:hr>123</ns3:hr>
          </ns3:TrackPointExtension>
        </extensions>
      </trkpt>
      <trkpt lat="47.0148420520126819610595703125" lon="6.95950870402157306671142578125">
        <ele>660.5999755859375</ele>
        <time>2019-06-14T10:22:28.000Z</time>
        <extensions>
          <ns3:TrackPointExtension>
            <ns3:atemp>23.0</ns3:atemp>
            <ns3:hr>126</ns3:hr>
          </ns3:TrackPointExtension>
        </extensions>
      </trkpt>
      <trkpt lat="47.014858312904834747314453125" lon="6.95956754498183727264404296875">
        <ele>660.79998779296875</ele>
        <time>2019-06-14T10:22:29.000Z</time>
        <extensions>
          <ns3:TrackPointExtension>
            <ns3:atemp>23.0</ns3:atemp>
            <ns3:hr>131</ns3:hr>
          </ns3:TrackPointExtension>
        </extensions>
      </trkpt>
      <trkpt lat="47.01488505117595195770263671875" lon="6.95960677228868007659912109375">
        <ele>661.5999755859375</ele>
        <time>2019-06-14T10:22:31.000Z</time>
        <extensions>
          <ns3:TrackPointExtension>
            <ns3:atemp>23.0</ns3:atemp>
            <ns3:hr>134</ns3:hr>
          </ns3:TrackPointExtension>
        </extensions>
      </trkpt>
      <trkpt lat="47.01498345471918582916259765625" lon="6.959673576056957244873046875">
        <ele>662.4000244140625</ele>
        <time>2019-06-14T10:22:34.000Z</time>
        <extensions>
          <ns3:TrackPointExtension>
            <ns3:atemp>23.0</ns3:atemp>
            <ns3:hr>135</ns3:hr>
          </ns3:TrackPointExtension>
        </extensions>
      </trkpt>
      <trkpt lat="47.01501865871250629425048828125" lon="6.95970634929835796356201171875">
        <ele>662.5999755859375</ele>
        <time>2019-06-14T10:22:35.000Z</time>
        <extensions>
          <ns3:TrackPointExtension>
            <ns3:atemp>23.0</ns3:atemp>
            <ns3:hr>136</ns3:hr>
          </ns3:TrackPointExtension>
        </extensions>
      </trkpt>
      <trkpt lat="47.01509459875524044036865234375" lon="6.95981531403958797454833984375">
        <ele>663.4000244140625</ele>
        <time>2019-06-14T10:22:38.000Z</time>
        <extensions>
          <ns3:TrackPointExtension>
            <ns3:atemp>23.0</ns3:atemp>
            <ns3:hr>134</ns3:hr>
          </ns3:TrackPointExtension>
        </extensions>
      </trkpt>
      <trkpt lat="47.0151330716907978057861328125" lon="6.959864683449268341064453125">
        <ele>663.79998779296875</ele>
        <time>2019-06-14T10:22:40.000Z</time>
        <extensions>
          <ns3:TrackPointExtension>
            <ns3:atemp>23.0</ns3:atemp>
            <ns3:hr>135</ns3:hr>
          </ns3:TrackPointExtension>
        </extensions>
      </trkpt>
      <trkpt lat="47.01518378220498561859130859375" lon="6.959910951554775238037109375">
        <ele>664.4000244140625</ele>
        <time>2019-06-14T10:22:43.000Z</time>
        <extensions>
          <ns3:TrackPointExtension>
            <ns3:atemp>23.0</ns3:atemp>
            <ns3:hr>135</ns3:hr>
          </ns3:TrackPointExtension>
        </extensions>
      </trkpt>
      <trkpt lat="47.01518579386174678802490234375" lon="6.9601303897798061370849609375">
        <ele>664.20001220703125</ele>
        <time>2019-06-14T10:22:48.000Z</time>
        <extensions>
          <ns3:TrackPointExtension>
            <ns3:atemp>23.0</ns3:atemp>
            <ns3:hr>137</ns3:hr>
          </ns3:TrackPointExtension>
        </extensions>
      </trkpt>
      <trkpt lat="47.01519752852618694305419921875" lon="6.9602577947080135345458984375">
        <ele>663.5999755859375</ele>
        <time>2019-06-14T10:22:52.000Z</time>
        <extensions>
          <ns3:TrackPointExtension>
            <ns3:atemp>23.0</ns3:atemp>
            <ns3:hr>139</ns3:hr>
          </ns3:TrackPointExtension>
        </extensions>
      </trkpt>
      <trkpt lat="47.01531990431249141693115234375" lon="6.960354857146739959716796875">
        <ele>662.79998779296875</ele>
        <time>2019-06-14T10:22:57.000Z</time>
        <extensions>
          <ns3:TrackPointExtension>
            <ns3:atemp>23.0</ns3:atemp>
            <ns3:hr>137</ns3:hr>
          </ns3:TrackPointExtension>
        </extensions>
      </trkpt>
      <trkpt lat="47.015348486602306365966796875" lon="6.960367597639560699462890625">
        <ele>662.5999755859375</ele>
        <time>2019-06-14T10:22:58.000Z</time>
        <extensions>
          <ns3:TrackPointExtension>
            <ns3:atemp>23.0</ns3:atemp>
            <ns3:hr>135</ns3:hr>
          </ns3:TrackPointExtension>
        </extensions>
      </trkpt>
      <trkpt lat="47.01550045050680637359619140625" lon="6.96048134006559848785400390625">
        <ele>663</ele>
        <time>2019-06-14T10:23:03.000Z</time>
        <extensions>
          <ns3:TrackPointExtension>
            <ns3:atemp>23.0</ns3:atemp>
            <ns3:hr>135</ns3:hr>
          </ns3:TrackPointExtension>
        </extensions>
      </trkpt>
      <trkpt lat="47.01553347520530223846435546875" lon="6.96060455404222011566162109375">
        <ele>663.5999755859375</ele>
        <time>2019-06-14T10:23:06.000Z</time>
        <extensions>
          <ns3:TrackPointExtension>
            <ns3:atemp>23.0</ns3:atemp>
            <ns3:hr>139</ns3:hr>
          </ns3:TrackPointExtension>
        </extensions>
      </trkpt>
      <trkpt lat="47.01553992927074432373046875" lon="6.96064763702452182769775390625">
        <ele>663.5999755859375</ele>
        <time>2019-06-14T10:23:07.000Z</time>
        <extensions>
          <ns3:TrackPointExtension>
            <ns3:atemp>23.0</ns3:atemp>
            <ns3:hr>140</ns3:hr>
          </ns3:TrackPointExtension>
        </extensions>
      </trkpt>
      <trkpt lat="47.0155062340199947357177734375" lon="6.9608918018639087677001953125">
        <ele>663.79998779296875</ele>
        <time>2019-06-14T10:23:12.000Z</time>
        <extensions>
          <ns3:TrackPointExtension>
            <ns3:atemp>23.0</ns3:atemp>
            <ns3:hr>141</ns3:hr>
          </ns3:TrackPointExtension>
        </extensions>
      </trkpt>
      <trkpt lat="47.01545937918126583099365234375" lon="6.961062289774417877197265625">
        <ele>663.4000244140625</ele>
        <time>2019-06-14T10:23:16.000Z</time>
        <extensions>
          <ns3:TrackPointExtension>
            <ns3:atemp>23.0</ns3:atemp>
            <ns3:hr>139</ns3:hr>
          </ns3:TrackPointExtension>
        </extensions>
      </trkpt>
      <trkpt lat="47.01543322764337062835693359375" lon="6.96118357591331005096435546875">
        <ele>662.20001220703125</ele>
        <time>2019-06-14T10:23:18.000Z</time>
        <extensions>
          <ns3:TrackPointExtension>
            <ns3:atemp>23.0</ns3:atemp>
            <ns3:hr>139</ns3:hr>
          </ns3:TrackPointExtension>
        </extensions>
      </trkpt>
      <trkpt lat="47.0154428668320178985595703125" lon="6.9612381421029567718505859375">
        <ele>661.79998779296875</ele>
        <time>2019-06-14T10:23:19.000Z</time>
        <extensions>
          <ns3:TrackPointExtension>
            <ns3:atemp>23.0</ns3:atemp>
            <ns3:hr>138</ns3:hr>
          </ns3:TrackPointExtension>
        </extensions>
      </trkpt>
      <trkpt lat="47.01545384712517261505126953125" lon="6.961271502077579498291015625">
        <ele>661.5999755859375</ele>
        <time>2019-06-14T10:23:20.000Z</time>
        <extensions>
          <ns3:TrackPointExtension>
            <ns3:atemp>23.0</ns3:atemp>
            <ns3:hr>138</ns3:hr>
          </ns3:TrackPointExtension>
        </extensions>
      </trkpt>
      <trkpt lat="47.015478909015655517578125" lon="6.96138046681880950927734375">
        <ele>661</ele>
        <time>2019-06-14T10:23:22.000Z</time>
        <extensions>
          <ns3:TrackPointExtension>
            <ns3:atemp>23.0</ns3:atemp>
            <ns3:hr>135</ns3:hr>
          </ns3:TrackPointExtension>
        </extensions>
      </trkpt>
      <trkpt lat="47.01550447382032871246337890625" lon="6.96153611876070499420166015625">
        <ele>660.79998779296875</ele>
        <time>2019-06-14T10:23:24.000Z</time>
        <extensions>
          <ns3:TrackPointExtension>
            <ns3:atemp>23.0</ns3:atemp>
            <ns3:hr>135</ns3:hr>
          </ns3:TrackPointExtension>
        </extensions>
      </trkpt>
      <trkpt lat="47.0155451260507106781005859375" lon="6.9617735780775547027587890625">
        <ele>660.4000244140625</ele>
        <time>2019-06-14T10:23:27.000Z</time>
        <extensions>
          <ns3:TrackPointExtension>
            <ns3:atemp>23.0</ns3:atemp>
            <ns3:hr>137</ns3:hr>
          </ns3:TrackPointExtension>
        </extensions>
      </trkpt>
      <trkpt lat="47.01558410190045833587646484375" lon="6.96192738600075244903564453125">
        <ele>660</ele>
        <time>2019-06-14T10:23:29.000Z</time>
        <extensions>
          <ns3:TrackPointExtension>
            <ns3:atemp>23.0</ns3:atemp>
            <ns3:hr>138</ns3:hr>
          </ns3:TrackPointExtension>
        </extensions>
      </trkpt>
      <trkpt lat="47.01560472138226032257080078125" lon="6.96198932826519012451171875">
        <ele>659.79998779296875</ele>
        <time>2019-06-14T10:23:30.000Z</time>
        <extensions>
          <ns3:TrackPointExtension>
            <ns3:atemp>23.0</ns3:atemp>
            <ns3:hr>138</ns3:hr>
          </ns3:TrackPointExtension>
        </extensions>
      </trkpt>
      <trkpt lat="47.01566641218960285186767578125" lon="6.96220432408154010772705078125">
        <ele>660.5999755859375</ele>
        <time>2019-06-14T10:23:34.000Z</time>
        <extensions>
          <ns3:TrackPointExtension>
            <ns3:atemp>23.0</ns3:atemp>
            <ns3:hr>135</ns3:hr>
          </ns3:TrackPointExtension>
        </extensions>
      </trkpt>
      <trkpt lat="47.015756852924823760986328125" lon="6.9625527597963809967041015625">
        <ele>660.5999755859375</ele>
        <time>2019-06-14T10:23:39.000Z</time>
        <extensions>
          <ns3:TrackPointExtension>
            <ns3:atemp>23.0</ns3:atemp>
            <ns3:hr>136</ns3:hr>
          </ns3:TrackPointExtension>
        </extensions>
      </trkpt>
      <trkpt lat="47.01578199863433837890625" lon="6.9626117683947086334228515625">
        <ele>660.4000244140625</ele>
        <time>2019-06-14T10:23:40.000Z</time>
        <extensions>
          <ns3:TrackPointExtension>
            <ns3:atemp>23.0</ns3:atemp>
            <ns3:hr>136</ns3:hr>
          </ns3:TrackPointExtension>
        </extensions>
      </trkpt>
      <trkpt lat="47.0159067213535308837890625" lon="6.96285844780504703521728515625">
        <ele>659</ele>
        <time>2019-06-14T10:23:44.000Z</time>
        <extensions>
          <ns3:TrackPointExtension>
            <ns3:atemp>23.0</ns3:atemp>
            <ns3:hr>137</ns3:hr>
          </ns3:TrackPointExtension>
        </extensions>
      </trkpt>
      <trkpt lat="47.01594770886003971099853515625" lon="6.9629467092454433441162109375">
        <ele>658.79998779296875</ele>
        <time>2019-06-14T10:23:45.000Z</time>
        <extensions>
          <ns3:TrackPointExtension>
            <ns3:atemp>23.0</ns3:atemp>
            <ns3:hr>136</ns3:hr>
          </ns3:TrackPointExtension>
        </extensions>
      </trkpt>
      <trkpt lat="47.01603504829108715057373046875" lon="6.963140331208705902099609375">
        <ele>658.20001220703125</ele>
        <time>2019-06-14T10:23:48.000Z</time>
        <extensions>
          <ns3:TrackPointExtension>
            <ns3:atemp>23.0</ns3:atemp>
            <ns3:hr>138</ns3:hr>
          </ns3:TrackPointExtension>
        </extensions>
      </trkpt>
      <trkpt lat="47.01606488786637783050537109375" lon="6.9632585160434246063232421875">
        <ele>657.79998779296875</ele>
        <time>2019-06-14T10:23:50.000Z</time>
        <extensions>
          <ns3:TrackPointExtension>
            <ns3:atemp>23.0</ns3:atemp>
            <ns3:hr>138</ns3:hr>
          </ns3:TrackPointExtension>
        </extensions>
      </trkpt>
      <trkpt lat="47.01612674631178379058837890625" lon="6.963510811328887939453125">
        <ele>656.79998779296875</ele>
        <time>2019-06-14T10:23:53.000Z</time>
        <extensions>
          <ns3:TrackPointExtension>
            <ns3:atemp>23.0</ns3:atemp>
            <ns3:hr>137</ns3:hr>
          </ns3:TrackPointExtension>
        </extensions>
      </trkpt>
      <trkpt lat="47.01620184816420078277587890625" lon="6.96376553736627101898193359375">
        <ele>655.79998779296875</ele>
        <time>2019-06-14T10:23:55.000Z</time>
        <extensions>
          <ns3:TrackPointExtension>
            <ns3:atemp>23.0</ns3:atemp>
            <ns3:hr>138</ns3:hr>
          </ns3:TrackPointExtension>
        </extensions>
      </trkpt>
      <trkpt lat="47.0162321068346500396728515625" lon="6.96385622955858707427978515625">
        <ele>655.4000244140625</ele>
        <time>2019-06-14T10:23:56.000Z</time>
        <extensions>
          <ns3:TrackPointExtension>
            <ns3:atemp>23.0</ns3:atemp>
            <ns3:hr>138</ns3:hr>
          </ns3:TrackPointExtension>
        </extensions>
      </trkpt>
      <trkpt lat="47.01637652702629566192626953125" lon="6.96415529586374759674072265625">
        <ele>654.5999755859375</ele>
        <time>2019-06-14T10:23:59.000Z</time>
        <extensions>
          <ns3:TrackPointExtension>
            <ns3:atemp>23.0</ns3:atemp>
            <ns3:hr>136</ns3:hr>
          </ns3:TrackPointExtension>
        </extensions>
      </trkpt>
      <trkpt lat="47.01640754006803035736083984375" lon="6.96426191367208957672119140625">
        <ele>654.20001220703125</ele>
        <time>2019-06-14T10:24:00.000Z</time>
        <extensions>
          <ns3:TrackPointExtension>
            <ns3:atemp>23.0</ns3:atemp>
            <ns3:hr>135</ns3:hr>
          </ns3:TrackPointExtension>
        </extensions>
      </trkpt>
      <trkpt lat="47.01644517481327056884765625" lon="6.96442611515522003173828125">
        <ele>652.4000244140625</ele>
        <time>2019-06-14T10:24:02.000Z</time>
        <extensions>
          <ns3:TrackPointExtension>
            <ns3:atemp>23.0</ns3:atemp>
            <ns3:hr>131</ns3:hr>
          </ns3:TrackPointExtension>
        </extensions>
      </trkpt>
      <trkpt lat="47.0164802111685276031494140625" lon="6.964550502598285675048828125">
        <ele>651.79998779296875</ele>
        <time>2019-06-14T10:24:03.000Z</time>
        <extensions>
          <ns3:TrackPointExtension>
            <ns3:atemp>23.0</ns3:atemp>
            <ns3:hr>130</ns3:hr>
          </ns3:TrackPointExtension>
        </extensions>
      </trkpt>
      <trkpt lat="47.01650979928672313690185546875" lon="6.96463574655354022979736328125">
        <ele>652</ele>
        <time>2019-06-14T10:24:04.000Z</time>
        <extensions>
          <ns3:TrackPointExtension>
            <ns3:atemp>23.0</ns3:atemp>
            <ns3:hr>130</ns3:hr>
          </ns3:TrackPointExtension>
        </extensions>
      </trkpt>
      <trkpt lat="47.01655204407870769500732421875" lon="6.9647592119872570037841796875">
        <ele>651.5999755859375</ele>
        <time>2019-06-14T10:24:05.000Z</time>
        <extensions>
          <ns3:TrackPointExtension>
            <ns3:atemp>23.0</ns3:atemp>
            <ns3:hr>129</ns3:hr>
          </ns3:TrackPointExtension>
        </extensions>
      </trkpt>
      <trkpt lat="47.016650028526782989501953125" lon="6.9649486429989337921142578125">
        <ele>651.5999755859375</ele>
        <time>2019-06-14T10:24:07.000Z</time>
        <extensions>
          <ns3:TrackPointExtension>
            <ns3:atemp>23.0</ns3:atemp>
            <ns3:hr>128</ns3:hr>
          </ns3:TrackPointExtension>
        </extensions>
      </trkpt>
      <trkpt lat="47.01690006069839000701904296875" lon="6.96525298990309238433837890625">
        <ele>652.20001220703125</ele>
        <time>2019-06-14T10:24:12.000Z</time>
        <extensions>
          <ns3:TrackPointExtension>
            <ns3:atemp>23.0</ns3:atemp>
            <ns3:hr>127</ns3:hr>
          </ns3:TrackPointExtension>
        </extensions>
      </trkpt>
      <trkpt lat="47.0169938541948795318603515625" lon="6.96536748670041561126708984375">
        <ele>651.5999755859375</ele>
        <time>2019-06-14T10:24:14.000Z</time>
        <extensions>
          <ns3:TrackPointExtension>
            <ns3:atemp>23.0</ns3:atemp>
            <ns3:hr>126</ns3:hr>
          </ns3:TrackPointExtension>
        </extensions>
      </trkpt>
      <trkpt lat="47.01703928411006927490234375" lon="6.96543596684932708740234375">
        <ele>651.20001220703125</ele>
        <time>2019-06-14T10:24:15.000Z</time>
        <extensions>
          <ns3:TrackPointExtension>
            <ns3:atemp>23.0</ns3:atemp>
            <ns3:hr>125</ns3:hr>
          </ns3:TrackPointExtension>
        </extensions>
      </trkpt>
      <trkpt lat="47.01714028604328632354736328125" lon="6.9655782915651798248291015625">
        <ele>650</ele>
        <time>2019-06-14T10:24:17.000Z</time>
        <extensions>
          <ns3:TrackPointExtension>
            <ns3:atemp>23.0</ns3:atemp>
            <ns3:hr>126</ns3:hr>
          </ns3:TrackPointExtension>
        </extensions>
      </trkpt>
      <trkpt lat="47.0172325707972049713134765625" lon="6.965789683163166046142578125">
        <ele>649</ele>
        <time>2019-06-14T10:24:20.000Z</time>
        <extensions>
          <ns3:TrackPointExtension>
            <ns3:atemp>23.0</ns3:atemp>
            <ns3:hr>126</ns3:hr>
          </ns3:TrackPointExtension>
        </extensions>
      </trkpt>
      <trkpt lat="47.01723039150238037109375" lon="6.9658502005040645599365234375">
        <ele>648.5999755859375</ele>
        <time>2019-06-14T10:24:21.000Z</time>
        <extensions>
          <ns3:TrackPointExtension>
            <ns3:atemp>23.0</ns3:atemp>
            <ns3:hr>126</ns3:hr>
          </ns3:TrackPointExtension>
        </extensions>
      </trkpt>
      <trkpt lat="47.01721957884728908538818359375" lon="6.96592287160456180572509765625">
        <ele>648.5999755859375</ele>
        <time>2019-06-14T10:24:22.000Z</time>
        <extensions>
          <ns3:TrackPointExtension>
            <ns3:atemp>23.0</ns3:atemp>
            <ns3:hr>125</ns3:hr>
          </ns3:TrackPointExtension>
        </extensions>
      </trkpt>
      <trkpt lat="47.01724505983293056488037109375" lon="6.96612537838518619537353515625">
        <ele>647.79998779296875</ele>
        <time>2019-06-14T10:24:24.000Z</time>
        <extensions>
          <ns3:TrackPointExtension>
            <ns3:atemp>23.0</ns3:atemp>
            <ns3:hr>123</ns3:hr>
          </ns3:TrackPointExtension>
        </extensions>
      </trkpt>
      <trkpt lat="47.017259895801544189453125" lon="6.96625010110437870025634765625">
        <ele>647.20001220703125</ele>
        <time>2019-06-14T10:24:25.000Z</time>
        <extensions>
          <ns3:TrackPointExtension>
            <ns3:atemp>23.0</ns3:atemp>
            <ns3:hr>121</ns3:hr>
          </ns3:TrackPointExtension>
        </extensions>
      </trkpt>
      <trkpt lat="47.01727087609469890594482421875" lon="6.96640868671238422393798828125">
        <ele>645.4000244140625</ele>
        <time>2019-06-14T10:24:27.000Z</time>
        <extensions>
          <ns3:TrackPointExtension>
            <ns3:atemp>23.0</ns3:atemp>
            <ns3:hr>121</ns3:hr>
          </ns3:TrackPointExtension>
        </extensions>
      </trkpt>
      <trkpt lat="47.01727674342691898345947265625" lon="6.9664624147117137908935546875">
        <ele>644.20001220703125</ele>
        <time>2019-06-14T10:24:28.000Z</time>
        <extensions>
          <ns3:TrackPointExtension>
            <ns3:atemp>23.0</ns3:atemp>
            <ns3:hr>124</ns3:hr>
          </ns3:TrackPointExtension>
        </extensions>
      </trkpt>
      <trkpt lat="47.01726517640054225921630859375" lon="6.96650809608399868011474609375">
        <ele>643.4000244140625</ele>
        <time>2019-06-14T10:24:29.000Z</time>
        <extensions>
          <ns3:TrackPointExtension>
            <ns3:atemp>23.0</ns3:atemp>
            <ns3:hr>124</ns3:hr>
          </ns3:TrackPointExtension>
        </extensions>
      </trkpt>
      <trkpt lat="47.0172496698796749114990234375" lon="6.9665510952472686767578125">
        <ele>642.79998779296875</ele>
        <time>2019-06-14T10:24:30.000Z</time>
        <extensions>
          <ns3:TrackPointExtension>
            <ns3:atemp>23.0</ns3:atemp>
            <ns3:hr>127</ns3:hr>
          </ns3:TrackPointExtension>
        </extensions>
      </trkpt>
      <trkpt lat="47.01723298989236354827880859375" lon="6.96659677661955356597900390625">
        <ele>642.20001220703125</ele>
        <time>2019-06-14T10:24:31.000Z</time>
        <extensions>
          <ns3:TrackPointExtension>
            <ns3:atemp>23.0</ns3:atemp>
            <ns3:hr>126</ns3:hr>
          </ns3:TrackPointExtension>
        </extensions>
      </trkpt>
      <trkpt lat="47.01720616780221462249755859375" lon="6.9666474871337413787841796875">
        <ele>641.5999755859375</ele>
        <time>2019-06-14T10:24:32.000Z</time>
        <extensions>
          <ns3:TrackPointExtension>
            <ns3:atemp>23.0</ns3:atemp>
            <ns3:hr>129</ns3:hr>
          </ns3:TrackPointExtension>
        </extensions>
      </trkpt>
      <trkpt lat="47.017160318791866302490234375" lon="6.96674890816211700439453125">
        <ele>640.4000244140625</ele>
        <time>2019-06-14T10:24:34.000Z</time>
        <extensions>
          <ns3:TrackPointExtension>
            <ns3:atemp>23.0</ns3:atemp>
            <ns3:hr>129</ns3:hr>
          </ns3:TrackPointExtension>
        </extensions>
      </trkpt>
      <trkpt lat="47.01713676564395427703857421875" lon="6.9668000377714633941650390625">
        <ele>640</ele>
        <time>2019-06-14T10:24:35.000Z</time>
        <extensions>
          <ns3:TrackPointExtension>
            <ns3:atemp>23.0</ns3:atemp>
            <ns3:hr>131</ns3:hr>
          </ns3:TrackPointExtension>
        </extensions>
      </trkpt>
      <trkpt lat="47.01710307039320468902587890625" lon="6.9668684341013431549072265625">
        <ele>638.79998779296875</ele>
        <time>2019-06-14T10:24:37.000Z</time>
        <extensions>
          <ns3:TrackPointExtension>
            <ns3:atemp>22.0</ns3:atemp>
            <ns3:hr>129</ns3:hr>
          </ns3:TrackPointExtension>
        </extensions>
      </trkpt>
      <trkpt lat="47.01705344952642917633056640625" lon="6.96689508855342864990234375">
        <ele>637.4000244140625</ele>
        <time>2019-06-14T10:24:39.000Z</time>
        <extensions>
          <ns3:TrackPointExtension>
            <ns3:atemp>23.0</ns3:atemp>
            <ns3:hr>129</ns3:hr>
          </ns3:TrackPointExtension>
        </extensions>
      </trkpt>
      <trkpt lat="47.01700231991708278656005859375" lon="6.9669582881033420562744140625">
        <ele>636.20001220703125</ele>
        <time>2019-06-14T10:24:41.000Z</time>
        <extensions>
          <ns3:TrackPointExtension>
            <ns3:atemp>23.0</ns3:atemp>
            <ns3:hr>126</ns3:hr>
          </ns3:TrackPointExtension>
        </extensions>
      </trkpt>
      <trkpt lat="47.0169232785701751708984375" lon="6.96704789064824581146240234375">
        <ele>634.79998779296875</ele>
        <time>2019-06-14T10:24:43.000Z</time>
        <extensions>
          <ns3:TrackPointExtension>
            <ns3:atemp>23.0</ns3:atemp>
            <ns3:hr>127</ns3:hr>
          </ns3:TrackPointExtension>
        </extensions>
      </trkpt>
      <trkpt lat="47.01689578592777252197265625" lon="6.96710187010467052459716796875">
        <ele>633.79998779296875</ele>
        <time>2019-06-14T10:24:44.000Z</time>
        <extensions>
          <ns3:TrackPointExtension>
            <ns3:atemp>23.0</ns3:atemp>
            <ns3:hr>127</ns3:hr>
          </ns3:TrackPointExtension>
        </extensions>
      </trkpt>
      <trkpt lat="47.01687164604663848876953125" lon="6.967149563133716583251953125">
        <ele>632.5999755859375</ele>
        <time>2019-06-14T10:24:45.000Z</time>
        <extensions>
          <ns3:TrackPointExtension>
            <ns3:atemp>23.0</ns3:atemp>
            <ns3:hr>125</ns3:hr>
          </ns3:TrackPointExtension>
        </extensions>
      </trkpt>
      <trkpt lat="47.01685421168804168701171875" lon="6.9671921432018280029296875">
        <ele>631.20001220703125</ele>
        <time>2019-06-14T10:24:46.000Z</time>
        <extensions>
          <ns3:TrackPointExtension>
            <ns3:atemp>23.0</ns3:atemp>
            <ns3:hr>126</ns3:hr>
          </ns3:TrackPointExtension>
        </extensions>
      </trkpt>
      <trkpt lat="47.0168322511017322540283203125" lon="6.967233382165431976318359375">
        <ele>630.4000244140625</ele>
        <time>2019-06-14T10:24:47.000Z</time>
        <extensions>
          <ns3:TrackPointExtension>
            <ns3:atemp>23.0</ns3:atemp>
            <ns3:hr>126</ns3:hr>
          </ns3:TrackPointExtension>
        </extensions>
      </trkpt>
      <trkpt lat="47.01680165715515613555908203125" lon="6.9672672450542449951171875">
        <ele>629.4000244140625</ele>
        <time>2019-06-14T10:24:48.000Z</time>
        <extensions>
          <ns3:TrackPointExtension>
            <ns3:atemp>22.0</ns3:atemp>
            <ns3:hr>126</ns3:hr>
          </ns3:TrackPointExtension>
        </extensions>
      </trkpt>
      <trkpt lat="47.016750611364841461181640625" lon="6.96739071048796176910400390625">
        <ele>628</ele>
        <time>2019-06-14T10:24:50.000Z</time>
        <extensions>
          <ns3:TrackPointExtension>
            <ns3:atemp>22.0</ns3:atemp>
            <ns3:hr>126</ns3:hr>
          </ns3:TrackPointExtension>
        </extensions>
      </trkpt>
      <trkpt lat="47.01671934686601161956787109375" lon="6.967449299991130828857421875">
        <ele>627.20001220703125</ele>
        <time>2019-06-14T10:24:51.000Z</time>
        <extensions>
          <ns3:TrackPointExtension>
            <ns3:atemp>22.0</ns3:atemp>
            <ns3:hr>126</ns3:hr>
          </ns3:TrackPointExtension>
        </extensions>
      </trkpt>
      <trkpt lat="47.01667760498821735382080078125" lon="6.96751601994037628173828125">
        <ele>626.5999755859375</ele>
        <time>2019-06-14T10:24:52.000Z</time>
        <extensions>
          <ns3:TrackPointExtension>
            <ns3:atemp>22.0</ns3:atemp>
            <ns3:hr>127</ns3:hr>
          </ns3:TrackPointExtension>
        </extensions>
      </trkpt>
      <trkpt lat="47.0166686363518238067626953125" lon="6.96764032356441020965576171875">
        <ele>625.79998779296875</ele>
        <time>2019-06-14T10:24:53.000Z</time>
        <extensions>
          <ns3:TrackPointExtension>
            <ns3:atemp>22.0</ns3:atemp>
            <ns3:hr>129</ns3:hr>
          </ns3:TrackPointExtension>
        </extensions>
      </trkpt>
      <trkpt lat="47.016678191721439361572265625" lon="6.96774895302951335906982421875">
        <ele>625</ele>
        <time>2019-06-14T10:24:54.000Z</time>
        <extensions>
          <ns3:TrackPointExtension>
            <ns3:atemp>22.0</ns3:atemp>
            <ns3:hr>128</ns3:hr>
          </ns3:TrackPointExtension>
        </extensions>
      </trkpt>
      <trkpt lat="47.016660086810588836669921875" lon="6.9679037667810916900634765625">
        <ele>623.20001220703125</ele>
        <time>2019-06-14T10:24:56.000Z</time>
        <extensions>
          <ns3:TrackPointExtension>
            <ns3:atemp>22.0</ns3:atemp>
            <ns3:hr>130</ns3:hr>
          </ns3:TrackPointExtension>
        </extensions>
      </trkpt>
      <trkpt lat="47.01667391695082187652587890625" lon="6.96804315783083438873291015625">
        <ele>621.79998779296875</ele>
        <time>2019-06-14T10:24:58.000Z</time>
        <extensions>
          <ns3:TrackPointExtension>
            <ns3:atemp>22.0</ns3:atemp>
            <ns3:hr>131</ns3:hr>
          </ns3:TrackPointExtension>
        </extensions>
      </trkpt>
      <trkpt lat="47.01668431051075458526611328125" lon="6.9681317545473575592041015625">
        <ele>621.20001220703125</ele>
        <time>2019-06-14T10:24:59.000Z</time>
        <extensions>
          <ns3:TrackPointExtension>
            <ns3:atemp>22.0</ns3:atemp>
            <ns3:hr>133</ns3:hr>
          </ns3:TrackPointExtension>
        </extensions>
      </trkpt>
      <trkpt lat="47.01668799854815006256103515625" lon="6.96823460049927234649658203125">
        <ele>620.5999755859375</ele>
        <time>2019-06-14T10:25:00.000Z</time>
        <extensions>
          <ns3:TrackPointExtension>
            <ns3:atemp>22.0</ns3:atemp>
            <ns3:hr>134</ns3:hr>
          </ns3:TrackPointExtension>
        </extensions>
      </trkpt>
      <trkpt lat="47.01669788919389247894287109375" lon="6.968311630189418792724609375">
        <ele>620</ele>
        <time>2019-06-14T10:25:01.000Z</time>
        <extensions>
          <ns3:TrackPointExtension>
            <ns3:atemp>22.0</ns3:atemp>
            <ns3:hr>133</ns3:hr>
          </ns3:TrackPointExtension>
        </extensions>
      </trkpt>
      <trkpt lat="47.0167618431150913238525390625" lon="6.9684499315917491912841796875">
        <ele>619.20001220703125</ele>
        <time>2019-06-14T10:25:03.000Z</time>
        <extensions>
          <ns3:TrackPointExtension>
            <ns3:atemp>22.0</ns3:atemp>
            <ns3:hr>135</ns3:hr>
          </ns3:TrackPointExtension>
        </extensions>
      </trkpt>
      <trkpt lat="47.01680115424096584320068359375" lon="6.968526206910610198974609375">
        <ele>618.79998779296875</ele>
        <time>2019-06-14T10:25:04.000Z</time>
        <extensions>
          <ns3:TrackPointExtension>
            <ns3:atemp>22.0</ns3:atemp>
            <ns3:hr>135</ns3:hr>
          </ns3:TrackPointExtension>
        </extensions>
      </trkpt>
      <trkpt lat="47.01687692664563655853271484375" lon="6.9686819426715373992919921875">
        <ele>618</ele>
        <time>2019-06-14T10:25:06.000Z</time>
        <extensions>
          <ns3:TrackPointExtension>
            <ns3:atemp>22.0</ns3:atemp>
            <ns3:hr>136</ns3:hr>
          </ns3:TrackPointExtension>
        </extensions>
      </trkpt>
      <trkpt lat="47.01698471792042255401611328125" lon="6.96895594708621501922607421875">
        <ele>617.4000244140625</ele>
        <time>2019-06-14T10:25:09.000Z</time>
        <extensions>
          <ns3:TrackPointExtension>
            <ns3:atemp>22.0</ns3:atemp>
            <ns3:hr>136</ns3:hr>
          </ns3:TrackPointExtension>
        </extensions>
      </trkpt>
      <trkpt lat="47.01710742898285388946533203125" lon="6.969148479402065277099609375">
        <ele>617</ele>
        <time>2019-06-14T10:25:12.000Z</time>
        <extensions>
          <ns3:TrackPointExtension>
            <ns3:atemp>22.0</ns3:atemp>
            <ns3:hr>138</ns3:hr>
          </ns3:TrackPointExtension>
        </extensions>
      </trkpt>
      <trkpt lat="47.01715788803994655609130859375" lon="6.9692056439816951751708984375">
        <ele>616.5999755859375</ele>
        <time>2019-06-14T10:25:13.000Z</time>
        <extensions>
          <ns3:TrackPointExtension>
            <ns3:atemp>22.0</ns3:atemp>
            <ns3:hr>138</ns3:hr>
          </ns3:TrackPointExtension>
        </extensions>
      </trkpt>
      <trkpt lat="47.01728043146431446075439453125" lon="6.96934486739337444305419921875">
        <ele>616.4000244140625</ele>
        <time>2019-06-14T10:25:15.000Z</time>
        <extensions>
          <ns3:TrackPointExtension>
            <ns3:atemp>22.0</ns3:atemp>
            <ns3:hr>138</ns3:hr>
          </ns3:TrackPointExtension>
        </extensions>
      </trkpt>
      <trkpt lat="47.0174193195998668670654296875" lon="6.96948635391891002655029296875">
        <ele>616.79998779296875</ele>
        <time>2019-06-14T10:25:18.000Z</time>
        <extensions>
          <ns3:TrackPointExtension>
            <ns3:atemp>22.0</ns3:atemp>
            <ns3:hr>133</ns3:hr>
          </ns3:TrackPointExtension>
        </extensions>
      </trkpt>
      <trkpt lat="47.0175214111804962158203125" lon="6.96962733753025531768798828125">
        <ele>617.79998779296875</ele>
        <time>2019-06-14T10:25:21.000Z</time>
        <extensions>
          <ns3:TrackPointExtension>
            <ns3:atemp>22.0</ns3:atemp>
            <ns3:hr>130</ns3:hr>
          </ns3:TrackPointExtension>
        </extensions>
      </trkpt>
      <trkpt lat="47.01754680834710597991943359375" lon="6.96968751959502696990966796875">
        <ele>618</ele>
        <time>2019-06-14T10:25:22.000Z</time>
        <extensions>
          <ns3:TrackPointExtension>
            <ns3:atemp>22.0</ns3:atemp>
            <ns3:hr>130</ns3:hr>
          </ns3:TrackPointExtension>
        </extensions>
      </trkpt>
      <trkpt lat="47.0175683498382568359375" lon="6.96974233724176883697509765625">
        <ele>618.20001220703125</ele>
        <time>2019-06-14T10:25:23.000Z</time>
        <extensions>
          <ns3:TrackPointExtension>
            <ns3:atemp>22.0</ns3:atemp>
            <ns3:hr>131</ns3:hr>
          </ns3:TrackPointExtension>
        </extensions>
      </trkpt>
      <trkpt lat="47.0177217386662960052490234375" lon="6.9700528867542743682861328125">
        <ele>616.79998779296875</ele>
        <time>2019-06-14T10:25:28.000Z</time>
        <extensions>
          <ns3:TrackPointExtension>
            <ns3:atemp>22.0</ns3:atemp>
            <ns3:hr>131</ns3:hr>
          </ns3:TrackPointExtension>
        </extensions>
      </trkpt>
      <trkpt lat="47.0177572779357433319091796875" lon="6.9701320119202136993408203125">
        <ele>616.5999755859375</ele>
        <time>2019-06-14T10:25:29.000Z</time>
        <extensions>
          <ns3:TrackPointExtension>
            <ns3:atemp>22.0</ns3:atemp>
            <ns3:hr>131</ns3:hr>
          </ns3:TrackPointExtension>
        </extensions>
      </trkpt>
      <trkpt lat="47.01782223768532276153564453125" lon="6.97028674185276031494140625">
        <ele>616.4000244140625</ele>
        <time>2019-06-14T10:25:31.000Z</time>
        <extensions>
          <ns3:TrackPointExtension>
            <ns3:atemp>22.0</ns3:atemp>
            <ns3:hr>131</ns3:hr>
          </ns3:TrackPointExtension>
        </extensions>
      </trkpt>
      <trkpt lat="47.017893902957439422607421875" lon="6.9704304076731204986572265625">
        <ele>616.4000244140625</ele>
        <time>2019-06-14T10:25:33.000Z</time>
        <extensions>
          <ns3:TrackPointExtension>
            <ns3:atemp>22.0</ns3:atemp>
            <ns3:hr>131</ns3:hr>
          </ns3:TrackPointExtension>
        </extensions>
      </trkpt>
      <trkpt lat="47.0179520733654499053955078125" lon="6.9705638475716114044189453125">
        <ele>616.4000244140625</ele>
        <time>2019-06-14T10:25:35.000Z</time>
        <extensions>
          <ns3:TrackPointExtension>
            <ns3:atemp>22.0</ns3:atemp>
            <ns3:hr>133</ns3:hr>
          </ns3:TrackPointExtension>
        </extensions>
      </trkpt>
      <trkpt lat="47.0180328749120235443115234375" lon="6.9707529433071613311767578125">
        <ele>616.5999755859375</ele>
        <time>2019-06-14T10:25:37.000Z</time>
        <extensions>
          <ns3:TrackPointExtension>
            <ns3:atemp>22.0</ns3:atemp>
            <ns3:hr>132</ns3:hr>
          </ns3:TrackPointExtension>
        </extensions>
      </trkpt>
      <trkpt lat="47.01809163205325603485107421875" lon="6.97085193358361721038818359375">
        <ele>616.4000244140625</ele>
        <time>2019-06-14T10:25:38.000Z</time>
        <extensions>
          <ns3:TrackPointExtension>
            <ns3:atemp>22.0</ns3:atemp>
            <ns3:hr>133</ns3:hr>
          </ns3:TrackPointExtension>
        </extensions>
      </trkpt>
      <trkpt lat="47.01817922294139862060546875" lon="6.97100020945072174072265625">
        <ele>616</ele>
        <time>2019-06-14T10:25:40.000Z</time>
        <extensions>
          <ns3:TrackPointExtension>
            <ns3:atemp>22.0</ns3:atemp>
            <ns3:hr>132</ns3:hr>
          </ns3:TrackPointExtension>
        </extensions>
      </trkpt>
      <trkpt lat="47.01820679940283298492431640625" lon="6.971056871116161346435546875">
        <ele>615.79998779296875</ele>
        <time>2019-06-14T10:25:41.000Z</time>
        <extensions>
          <ns3:TrackPointExtension>
            <ns3:atemp>22.0</ns3:atemp>
            <ns3:hr>132</ns3:hr>
          </ns3:TrackPointExtension>
        </extensions>
      </trkpt>
      <trkpt lat="47.0182940550148487091064453125" lon="6.9712649099528789520263671875">
        <ele>616.5999755859375</ele>
        <time>2019-06-14T10:25:45.000Z</time>
        <extensions>
          <ns3:TrackPointExtension>
            <ns3:atemp>22.0</ns3:atemp>
            <ns3:hr>130</ns3:hr>
          </ns3:TrackPointExtension>
        </extensions>
      </trkpt>
      <trkpt lat="47.01840226538479328155517578125" lon="6.971516869962215423583984375">
        <ele>616</ele>
        <time>2019-06-14T10:25:49.000Z</time>
        <extensions>
          <ns3:TrackPointExtension>
            <ns3:atemp>22.0</ns3:atemp>
            <ns3:hr>128</ns3:hr>
          </ns3:TrackPointExtension>
        </extensions>
      </trkpt>
      <trkpt lat="47.01862639747560024261474609375" lon="6.97175080887973308563232421875">
        <ele>615.5999755859375</ele>
        <time>2019-06-14T10:25:53.000Z</time>
        <extensions>
          <ns3:TrackPointExtension>
            <ns3:atemp>22.0</ns3:atemp>
            <ns3:hr>129</ns3:hr>
          </ns3:TrackPointExtension>
        </extensions>
      </trkpt>
      <trkpt lat="47.01867802999913692474365234375" lon="6.97181551717221736907958984375">
        <ele>615.20001220703125</ele>
        <time>2019-06-14T10:25:54.000Z</time>
        <extensions>
          <ns3:TrackPointExtension>
            <ns3:atemp>22.0</ns3:atemp>
            <ns3:hr>129</ns3:hr>
          </ns3:TrackPointExtension>
        </extensions>
      </trkpt>
      <trkpt lat="47.0187154971063137054443359375" lon="6.9718942232429981231689453125">
        <ele>614.79998779296875</ele>
        <time>2019-06-14T10:25:55.000Z</time>
        <extensions>
          <ns3:TrackPointExtension>
            <ns3:atemp>22.0</ns3:atemp>
            <ns3:hr>128</ns3:hr>
          </ns3:TrackPointExtension>
        </extensions>
      </trkpt>
      <trkpt lat="47.01873770914971828460693359375" lon="6.97196580469608306884765625">
        <ele>614.4000244140625</ele>
        <time>2019-06-14T10:25:56.000Z</time>
        <extensions>
          <ns3:TrackPointExtension>
            <ns3:atemp>22.0</ns3:atemp>
            <ns3:hr>132</ns3:hr>
          </ns3:TrackPointExtension>
        </extensions>
      </trkpt>
      <trkpt lat="47.01876570470631122589111328125" lon="6.97206345386803150177001953125">
        <ele>614</ele>
        <time>2019-06-14T10:25:57.000Z</time>
        <extensions>
          <ns3:TrackPointExtension>
            <ns3:atemp>22.0</ns3:atemp>
            <ns3:hr>134</ns3:hr>
          </ns3:TrackPointExtension>
        </extensions>
      </trkpt>
      <trkpt lat="47.01878364197909832000732421875" lon="6.97214526124298572540283203125">
        <ele>613.5999755859375</ele>
        <time>2019-06-14T10:25:58.000Z</time>
        <extensions>
          <ns3:TrackPointExtension>
            <ns3:atemp>22.0</ns3:atemp>
            <ns3:hr>135</ns3:hr>
          </ns3:TrackPointExtension>
        </extensions>
      </trkpt>
      <trkpt lat="47.01882429420948028564453125" lon="6.9724159128963947296142578125">
        <ele>612.79998779296875</ele>
        <time>2019-06-14T10:26:01.000Z</time>
        <extensions>
          <ns3:TrackPointExtension>
            <ns3:atemp>22.0</ns3:atemp>
            <ns3:hr>136</ns3:hr>
          </ns3:TrackPointExtension>
        </extensions>
      </trkpt>
      <trkpt lat="47.01883493922650814056396484375" lon="6.97248539887368679046630859375">
        <ele>612.5999755859375</ele>
        <time>2019-06-14T10:26:02.000Z</time>
        <extensions>
          <ns3:TrackPointExtension>
            <ns3:atemp>22.0</ns3:atemp>
            <ns3:hr>136</ns3:hr>
          </ns3:TrackPointExtension>
        </extensions>
      </trkpt>
      <trkpt lat="47.0188657008111476898193359375" lon="6.97259302251040935516357421875">
        <ele>612.4000244140625</ele>
        <time>2019-06-14T10:26:03.000Z</time>
        <extensions>
          <ns3:TrackPointExtension>
            <ns3:atemp>22.0</ns3:atemp>
            <ns3:hr>135</ns3:hr>
          </ns3:TrackPointExtension>
        </extensions>
      </trkpt>
      <trkpt lat="47.0189317502081394195556640625" lon="6.972756050527095794677734375">
        <ele>612.5999755859375</ele>
        <time>2019-06-14T10:26:05.000Z</time>
        <extensions>
          <ns3:TrackPointExtension>
            <ns3:atemp>22.0</ns3:atemp>
            <ns3:hr>135</ns3:hr>
          </ns3:TrackPointExtension>
        </extensions>
      </trkpt>
      <trkpt lat="47.01910852454602718353271484375" lon="6.97302485816180706024169921875">
        <ele>612.20001220703125</ele>
        <time>2019-06-14T10:26:09.000Z</time>
        <extensions>
          <ns3:TrackPointExtension>
            <ns3:atemp>22.0</ns3:atemp>
            <ns3:hr>135</ns3:hr>
          </ns3:TrackPointExtension>
        </extensions>
      </trkpt>
      <trkpt lat="47.01914741657674312591552734375" lon="6.97308202274143695831298828125">
        <ele>612.20001220703125</ele>
        <time>2019-06-14T10:26:10.000Z</time>
        <extensions>
          <ns3:TrackPointExtension>
            <ns3:atemp>22.0</ns3:atemp>
            <ns3:hr>135</ns3:hr>
          </ns3:TrackPointExtension>
        </extensions>
      </trkpt>
      <trkpt lat="47.01923173852264881134033203125" lon="6.97320808656513690948486328125">
        <ele>611.79998779296875</ele>
        <time>2019-06-14T10:26:12.000Z</time>
        <extensions>
          <ns3:TrackPointExtension>
            <ns3:atemp>22.0</ns3:atemp>
            <ns3:hr>135</ns3:hr>
          </ns3:TrackPointExtension>
        </extensions>
      </trkpt>
      <trkpt lat="47.01932226307690143585205078125" lon="6.97331629693508148193359375">
        <ele>611.5999755859375</ele>
        <time>2019-06-14T10:26:14.000Z</time>
        <extensions>
          <ns3:TrackPointExtension>
            <ns3:atemp>22.0</ns3:atemp>
            <ns3:hr>136</ns3:hr>
          </ns3:TrackPointExtension>
        </extensions>
      </trkpt>
      <trkpt lat="47.01937976293265819549560546875" lon="6.97337170131504535675048828125">
        <ele>611.20001220703125</ele>
        <time>2019-06-14T10:26:15.000Z</time>
        <extensions>
          <ns3:TrackPointExtension>
            <ns3:atemp>22.0</ns3:atemp>
            <ns3:hr>136</ns3:hr>
          </ns3:TrackPointExtension>
        </extensions>
      </trkpt>
      <trkpt lat="47.0195590518414974212646484375" lon="6.9735266827046871185302734375">
        <ele>610.20001220703125</ele>
        <time>2019-06-14T10:26:18.000Z</time>
        <extensions>
          <ns3:TrackPointExtension>
            <ns3:atemp>22.0</ns3:atemp>
            <ns3:hr>136</ns3:hr>
          </ns3:TrackPointExtension>
        </extensions>
      </trkpt>
      <trkpt lat="47.01969710178673267364501953125" lon="6.973614357411861419677734375">
        <ele>609.79998779296875</ele>
        <time>2019-06-14T10:26:20.000Z</time>
        <extensions>
          <ns3:TrackPointExtension>
            <ns3:atemp>22.0</ns3:atemp>
            <ns3:hr>135</ns3:hr>
          </ns3:TrackPointExtension>
        </extensions>
      </trkpt>
      <trkpt lat="47.0198926515877246856689453125" lon="6.97377084754407405853271484375">
        <ele>609.79998779296875</ele>
        <time>2019-06-14T10:26:24.000Z</time>
        <extensions>
          <ns3:TrackPointExtension>
            <ns3:atemp>22.0</ns3:atemp>
            <ns3:hr>134</ns3:hr>
          </ns3:TrackPointExtension>
        </extensions>
      </trkpt>
      <trkpt lat="47.019930370151996612548828125" lon="6.9738198816776275634765625">
        <ele>609.5999755859375</ele>
        <time>2019-06-14T10:26:25.000Z</time>
        <extensions>
          <ns3:TrackPointExtension>
            <ns3:atemp>22.0</ns3:atemp>
            <ns3:hr>132</ns3:hr>
          </ns3:TrackPointExtension>
        </extensions>
      </trkpt>
      <trkpt lat="47.0199935697019100189208984375" lon="6.9739303551614284515380859375">
        <ele>609.4000244140625</ele>
        <time>2019-06-14T10:26:26.000Z</time>
        <extensions>
          <ns3:TrackPointExtension>
            <ns3:atemp>22.0</ns3:atemp>
            <ns3:hr>132</ns3:hr>
          </ns3:TrackPointExtension>
        </extensions>
      </trkpt>
      <trkpt lat="47.02018861658871173858642578125" lon="6.9741187803447246551513671875">
        <ele>609.4000244140625</ele>
        <time>2019-06-14T10:26:30.000Z</time>
        <extensions>
          <ns3:TrackPointExtension>
            <ns3:atemp>22.0</ns3:atemp>
            <ns3:hr>131</ns3:hr>
          </ns3:TrackPointExtension>
        </extensions>
      </trkpt>
      <trkpt lat="47.02032976783812046051025390625" lon="6.97428968735039234161376953125">
        <ele>611.5999755859375</ele>
        <time>2019-06-14T10:26:34.000Z</time>
        <extensions>
          <ns3:TrackPointExtension>
            <ns3:atemp>22.0</ns3:atemp>
            <ns3:hr>131</ns3:hr>
          </ns3:TrackPointExtension>
        </extensions>
      </trkpt>
      <trkpt lat="47.02043152414262294769287109375" lon="6.9744027592241764068603515625">
        <ele>612.5999755859375</ele>
        <time>2019-06-14T10:26:36.000Z</time>
        <extensions>
          <ns3:TrackPointExtension>
            <ns3:atemp>22.0</ns3:atemp>
            <ns3:hr>129</ns3:hr>
          </ns3:TrackPointExtension>
        </extensions>
      </trkpt>
      <trkpt lat="47.020501680672168731689453125" lon="6.97449739091098308563232421875">
        <ele>612.79998779296875</ele>
        <time>2019-06-14T10:26:38.000Z</time>
        <extensions>
          <ns3:TrackPointExtension>
            <ns3:atemp>22.0</ns3:atemp>
            <ns3:hr>129</ns3:hr>
          </ns3:TrackPointExtension>
        </extensions>
      </trkpt>
      <trkpt lat="47.020670659840106964111328125" lon="6.97480232454836368560791015625">
        <ele>612.20001220703125</ele>
        <time>2019-06-14T10:26:43.000Z</time>
        <extensions>
          <ns3:TrackPointExtension>
            <ns3:atemp>22.0</ns3:atemp>
            <ns3:hr>126</ns3:hr>
          </ns3:TrackPointExtension>
        </extensions>
      </trkpt>
      <trkpt lat="47.02075104229152202606201171875" lon="6.97493509389460086822509765625">
        <ele>611.5999755859375</ele>
        <time>2019-06-14T10:26:46.000Z</time>
        <extensions>
          <ns3:TrackPointExtension>
            <ns3:atemp>22.0</ns3:atemp>
            <ns3:hr>128</ns3:hr>
          </ns3:TrackPointExtension>
        </extensions>
      </trkpt>
      <trkpt lat="47.02079261653125286102294921875" lon="6.9749660231173038482666015625">
        <ele>611.4000244140625</ele>
        <time>2019-06-14T10:26:47.000Z</time>
        <extensions>
          <ns3:TrackPointExtension>
            <ns3:atemp>22.0</ns3:atemp>
            <ns3:hr>129</ns3:hr>
          </ns3:TrackPointExtension>
        </extensions>
      </trkpt>
      <trkpt lat="47.02091868035495281219482421875" lon="6.97508093900978565216064453125">
        <ele>610.20001220703125</ele>
        <time>2019-06-14T10:26:50.000Z</time>
        <extensions>
          <ns3:TrackPointExtension>
            <ns3:atemp>22.0</ns3:atemp>
            <ns3:hr>132</ns3:hr>
          </ns3:TrackPointExtension>
        </extensions>
      </trkpt>
      <trkpt lat="47.020999900996685028076171875" lon="6.97518311440944671630859375">
        <ele>610.20001220703125</ele>
        <time>2019-06-14T10:26:52.000Z</time>
        <extensions>
          <ns3:TrackPointExtension>
            <ns3:atemp>22.0</ns3:atemp>
            <ns3:hr>131</ns3:hr>
          </ns3:TrackPointExtension>
        </extensions>
      </trkpt>
      <trkpt lat="47.0210795290768146514892578125" lon="6.9752848707139492034912109375">
        <ele>610.20001220703125</ele>
        <time>2019-06-14T10:26:54.000Z</time>
        <extensions>
          <ns3:TrackPointExtension>
            <ns3:atemp>22.0</ns3:atemp>
            <ns3:hr>133</ns3:hr>
          </ns3:TrackPointExtension>
        </extensions>
      </trkpt>
      <trkpt lat="47.021253369748592376708984375" lon="6.97547614574432373046875">
        <ele>609.5999755859375</ele>
        <time>2019-06-14T10:26:58.000Z</time>
        <extensions>
          <ns3:TrackPointExtension>
            <ns3:atemp>22.0</ns3:atemp>
            <ns3:hr>135</ns3:hr>
          </ns3:TrackPointExtension>
        </extensions>
      </trkpt>
      <trkpt lat="47.02129326760768890380859375" lon="6.9755242578685283660888671875">
        <ele>609.20001220703125</ele>
        <time>2019-06-14T10:26:59.000Z</time>
        <extensions>
          <ns3:TrackPointExtension>
            <ns3:atemp>22.0</ns3:atemp>
            <ns3:hr>134</ns3:hr>
          </ns3:TrackPointExtension>
        </extensions>
      </trkpt>
      <trkpt lat="47.021466605365276336669921875" lon="6.97568946518003940582275390625">
        <ele>607.79998779296875</ele>
        <time>2019-06-14T10:27:02.000Z</time>
        <extensions>
          <ns3:TrackPointExtension>
            <ns3:atemp>22.0</ns3:atemp>
            <ns3:hr>135</ns3:hr>
          </ns3:TrackPointExtension>
        </extensions>
      </trkpt>
      <trkpt lat="47.02164924703538417816162109375" lon="6.975901611149311065673828125">
        <ele>607.20001220703125</ele>
        <time>2019-06-14T10:27:06.000Z</time>
        <extensions>
          <ns3:TrackPointExtension>
            <ns3:atemp>22.0</ns3:atemp>
            <ns3:hr>135</ns3:hr>
          </ns3:TrackPointExtension>
        </extensions>
      </trkpt>
      <trkpt lat="47.02183105051517486572265625" lon="6.97618785314261913299560546875">
        <ele>608.79998779296875</ele>
        <time>2019-06-14T10:27:11.000Z</time>
        <extensions>
          <ns3:TrackPointExtension>
            <ns3:atemp>22.0</ns3:atemp>
            <ns3:hr>134</ns3:hr>
          </ns3:TrackPointExtension>
        </extensions>
      </trkpt>
      <trkpt lat="47.0218496583402156829833984375" lon="6.97621065191924571990966796875">
        <ele>609</ele>
        <time>2019-06-14T10:27:12.000Z</time>
        <extensions>
          <ns3:TrackPointExtension>
            <ns3:atemp>22.0</ns3:atemp>
            <ns3:hr>134</ns3:hr>
          </ns3:TrackPointExtension>
        </extensions>
      </trkpt>
      <trkpt lat="47.02186885289847850799560546875" lon="6.97623982094228267669677734375">
        <ele>609.5999755859375</ele>
        <time>2019-06-14T10:27:14.000Z</time>
        <extensions>
          <ns3:TrackPointExtension>
            <ns3:atemp>22.0</ns3:atemp>
            <ns3:hr>131</ns3:hr>
          </ns3:TrackPointExtension>
        </extensions>
      </trkpt>
      <trkpt lat="47.0219334773719310760498046875" lon="6.97638767771422863006591796875">
        <ele>610</ele>
        <time>2019-06-14T10:27:16.000Z</time>
        <extensions>
          <ns3:TrackPointExtension>
            <ns3:atemp>22.0</ns3:atemp>
            <ns3:hr>131</ns3:hr>
          </ns3:TrackPointExtension>
        </extensions>
      </trkpt>
      <trkpt lat="47.02196138910949230194091796875" lon="6.97644752450287342071533203125">
        <ele>610.20001220703125</ele>
        <time>2019-06-14T10:27:17.000Z</time>
        <extensions>
          <ns3:TrackPointExtension>
            <ns3:atemp>22.0</ns3:atemp>
            <ns3:hr>131</ns3:hr>
          </ns3:TrackPointExtension>
        </extensions>
      </trkpt>
      <trkpt lat="47.0220441184937953948974609375" lon="6.976533941924571990966796875">
        <ele>611.4000244140625</ele>
        <time>2019-06-14T10:27:20.000Z</time>
        <extensions>
          <ns3:TrackPointExtension>
            <ns3:atemp>22.0</ns3:atemp>
            <ns3:hr>133</ns3:hr>
          </ns3:TrackPointExtension>
        </extensions>
      </trkpt>
      <trkpt lat="47.02206431888043880462646484375" lon="6.97654592804610729217529296875">
        <ele>611.79998779296875</ele>
        <time>2019-06-14T10:27:21.000Z</time>
        <extensions>
          <ns3:TrackPointExtension>
            <ns3:atemp>22.0</ns3:atemp>
            <ns3:hr>133</ns3:hr>
          </ns3:TrackPointExtension>
        </extensions>
      </trkpt>
      <trkpt lat="47.022111676633358001708984375" lon="6.9765723310410976409912109375">
        <ele>612.4000244140625</ele>
        <time>2019-06-14T10:27:23.000Z</time>
        <extensions>
          <ns3:TrackPointExtension>
            <ns3:atemp>22.0</ns3:atemp>
            <ns3:hr>133</ns3:hr>
          </ns3:TrackPointExtension>
        </extensions>
      </trkpt>
      <trkpt lat="47.022176720201969146728515625" lon="6.976633183658123016357421875">
        <ele>613.4000244140625</ele>
        <time>2019-06-14T10:27:26.000Z</time>
        <extensions>
          <ns3:TrackPointExtension>
            <ns3:atemp>22.0</ns3:atemp>
            <ns3:hr>133</ns3:hr>
          </ns3:TrackPointExtension>
        </extensions>
      </trkpt>
      <trkpt lat="47.02221251092851161956787109375" lon="6.976674757897853851318359375">
        <ele>614.5999755859375</ele>
        <time>2019-06-14T10:27:29.000Z</time>
        <extensions>
          <ns3:TrackPointExtension>
            <ns3:atemp>22.0</ns3:atemp>
            <ns3:hr>133</ns3:hr>
          </ns3:TrackPointExtension>
        </extensions>
      </trkpt>
      <trkpt lat="47.0222972519695758819580078125" lon="6.97673871181905269622802734375">
        <ele>615.79998779296875</ele>
        <time>2019-06-14T10:27:33.000Z</time>
        <extensions>
          <ns3:TrackPointExtension>
            <ns3:atemp>22.0</ns3:atemp>
            <ns3:hr>132</ns3:hr>
          </ns3:TrackPointExtension>
        </extensions>
      </trkpt>
      <trkpt lat="47.02232616953551769256591796875" lon="6.9767434895038604736328125">
        <ele>616.20001220703125</ele>
        <time>2019-06-14T10:27:34.000Z</time>
        <extensions>
          <ns3:TrackPointExtension>
            <ns3:atemp>22.0</ns3:atemp>
            <ns3:hr>134</ns3:hr>
          </ns3:TrackPointExtension>
        </extensions>
      </trkpt>
      <trkpt lat="47.0224008522927761077880859375" lon="6.97681582532823085784912109375">
        <ele>617.20001220703125</ele>
        <time>2019-06-14T10:27:37.000Z</time>
        <extensions>
          <ns3:TrackPointExtension>
            <ns3:atemp>22.0</ns3:atemp>
            <ns3:hr>130</ns3:hr>
          </ns3:TrackPointExtension>
        </extensions>
      </trkpt>
      <trkpt lat="47.02243848703801631927490234375" lon="6.97688338346779346466064453125">
        <ele>617.79998779296875</ele>
        <time>2019-06-14T10:27:39.000Z</time>
        <extensions>
          <ns3:TrackPointExtension>
            <ns3:atemp>22.0</ns3:atemp>
            <ns3:hr>131</ns3:hr>
          </ns3:TrackPointExtension>
        </extensions>
      </trkpt>
      <trkpt lat="47.02248475514352321624755859375" lon="6.9769166596233844757080078125">
        <ele>618.4000244140625</ele>
        <time>2019-06-14T10:27:41.000Z</time>
        <extensions>
          <ns3:TrackPointExtension>
            <ns3:atemp>22.0</ns3:atemp>
            <ns3:hr>132</ns3:hr>
          </ns3:TrackPointExtension>
        </extensions>
      </trkpt>
      <trkpt lat="47.0226010121405124664306640625" lon="6.97701598517596721649169921875">
        <ele>619</ele>
        <time>2019-06-14T10:27:45.000Z</time>
        <extensions>
          <ns3:TrackPointExtension>
            <ns3:atemp>22.0</ns3:atemp>
            <ns3:hr>134</ns3:hr>
          </ns3:TrackPointExtension>
        </extensions>
      </trkpt>
      <trkpt lat="47.022649459540843963623046875" lon="6.97704968042671680450439453125">
        <ele>619.5999755859375</ele>
        <time>2019-06-14T10:27:47.000Z</time>
        <extensions>
          <ns3:TrackPointExtension>
            <ns3:atemp>22.0</ns3:atemp>
            <ns3:hr>131</ns3:hr>
          </ns3:TrackPointExtension>
        </extensions>
      </trkpt>
      <trkpt lat="47.0227012597024440765380859375" lon="6.9770963676273822784423828125">
        <ele>620.4000244140625</ele>
        <time>2019-06-14T10:27:50.000Z</time>
        <extensions>
          <ns3:TrackPointExtension>
            <ns3:atemp>22.0</ns3:atemp>
            <ns3:hr>131</ns3:hr>
          </ns3:TrackPointExtension>
        </extensions>
      </trkpt>
      <trkpt lat="47.02276839874684810638427734375" lon="6.977190077304840087890625">
        <ele>620.5999755859375</ele>
        <time>2019-06-14T10:27:54.000Z</time>
        <extensions>
          <ns3:TrackPointExtension>
            <ns3:atemp>22.0</ns3:atemp>
            <ns3:hr>130</ns3:hr>
          </ns3:TrackPointExtension>
        </extensions>
      </trkpt>
      <trkpt lat="47.022777535021305084228515625" lon="6.9772117026150226593017578125">
        <ele>620.79998779296875</ele>
        <time>2019-06-14T10:27:55.000Z</time>
        <extensions>
          <ns3:TrackPointExtension>
            <ns3:atemp>22.0</ns3:atemp>
            <ns3:hr>129</ns3:hr>
          </ns3:TrackPointExtension>
        </extensions>
      </trkpt>
      <trkpt lat="47.0228876732289791107177734375" lon="6.97729946114122867584228515625">
        <ele>621.79998779296875</ele>
        <time>2019-06-14T10:28:01.000Z</time>
        <extensions>
          <ns3:TrackPointExtension>
            <ns3:atemp>22.0</ns3:atemp>
            <ns3:hr>131</ns3:hr>
          </ns3:TrackPointExtension>
        </extensions>
      </trkpt>
      <trkpt lat="47.02289865352213382720947265625" lon="6.97731303982436656951904296875">
        <ele>622</ele>
        <time>2019-06-14T10:28:02.000Z</time>
        <extensions>
          <ns3:TrackPointExtension>
            <ns3:atemp>22.0</ns3:atemp>
            <ns3:hr>136</ns3:hr>
          </ns3:TrackPointExtension>
        </extensions>
      </trkpt>
      <trkpt lat="47.02291524969041347503662109375" lon="6.97732376866042613983154296875">
        <ele>622.20001220703125</ele>
        <time>2019-06-14T10:28:03.000Z</time>
        <extensions>
          <ns3:TrackPointExtension>
            <ns3:atemp>22.0</ns3:atemp>
            <ns3:hr>133</ns3:hr>
          </ns3:TrackPointExtension>
        </extensions>
      </trkpt>
      <trkpt lat="47.0229448378086090087890625" lon="6.9773474894464015960693359375">
        <ele>622.20001220703125</ele>
        <time>2019-06-14T10:28:04.000Z</time>
        <extensions>
          <ns3:TrackPointExtension>
            <ns3:atemp>22.0</ns3:atemp>
            <ns3:hr>132</ns3:hr>
          </ns3:TrackPointExtension>
        </extensions>
      </trkpt>
      <trkpt lat="47.0229711569845676422119140625" lon="6.97736433707177639007568359375">
        <ele>622.4000244140625</ele>
        <time>2019-06-14T10:28:05.000Z</time>
        <extensions>
          <ns3:TrackPointExtension>
            <ns3:atemp>22.0</ns3:atemp>
            <ns3:hr>132</ns3:hr>
          </ns3:TrackPointExtension>
        </extensions>
      </trkpt>
      <trkpt lat="47.02302186749875545501708984375" lon="6.97740423493087291717529296875">
        <ele>622.79998779296875</ele>
        <time>2019-06-14T10:28:07.000Z</time>
        <extensions>
          <ns3:TrackPointExtension>
            <ns3:atemp>22.0</ns3:atemp>
            <ns3:hr>132</ns3:hr>
          </ns3:TrackPointExtension>
        </extensions>
      </trkpt>
      <trkpt lat="47.02309026382863521575927734375" lon="6.97743642143905162811279296875">
        <ele>623.20001220703125</ele>
        <time>2019-06-14T10:28:10.000Z</time>
        <extensions>
          <ns3:TrackPointExtension>
            <ns3:atemp>22.0</ns3:atemp>
            <ns3:hr>135</ns3:hr>
          </ns3:TrackPointExtension>
        </extensions>
      </trkpt>
      <trkpt lat="47.0231227017939090728759765625" lon="6.97746408171951770782470703125">
        <ele>623.4000244140625</ele>
        <time>2019-06-14T10:28:11.000Z</time>
        <extensions>
          <ns3:TrackPointExtension>
            <ns3:atemp>22.0</ns3:atemp>
            <ns3:hr>136</ns3:hr>
          </ns3:TrackPointExtension>
        </extensions>
      </trkpt>
      <trkpt lat="47.0231545530259609222412109375" lon="6.97748352773487567901611328125">
        <ele>623.79998779296875</ele>
        <time>2019-06-14T10:28:13.000Z</time>
        <extensions>
          <ns3:TrackPointExtension>
            <ns3:atemp>22.0</ns3:atemp>
            <ns3:hr>135</ns3:hr>
          </ns3:TrackPointExtension>
        </extensions>
      </trkpt>
      <trkpt lat="47.02318497933447360992431640625" lon="6.97750054299831390380859375">
        <ele>624</ele>
        <time>2019-06-14T10:28:14.000Z</time>
        <extensions>
          <ns3:TrackPointExtension>
            <ns3:atemp>22.0</ns3:atemp>
            <ns3:hr>136</ns3:hr>
          </ns3:TrackPointExtension>
        </extensions>
      </trkpt>
      <trkpt lat="47.02323594130575656890869140625" lon="6.9775508344173431396484375">
        <ele>624.20001220703125</ele>
        <time>2019-06-14T10:28:16.000Z</time>
        <extensions>
          <ns3:TrackPointExtension>
            <ns3:atemp>22.0</ns3:atemp>
            <ns3:hr>138</ns3:hr>
          </ns3:TrackPointExtension>
        </extensions>
      </trkpt>
      <trkpt lat="47.0233946107327938079833984375" lon="6.9776903092861175537109375">
        <ele>625</ele>
        <time>2019-06-14T10:28:23.000Z</time>
        <extensions>
          <ns3:TrackPointExtension>
            <ns3:atemp>22.0</ns3:atemp>
            <ns3:hr>137</ns3:hr>
          </ns3:TrackPointExtension>
        </extensions>
      </trkpt>
      <trkpt lat="47.0234760828316211700439453125" lon="6.97774806059896945953369140625">
        <ele>625.79998779296875</ele>
        <time>2019-06-14T10:28:28.000Z</time>
        <extensions>
          <ns3:TrackPointExtension>
            <ns3:atemp>22.0</ns3:atemp>
            <ns3:hr>138</ns3:hr>
          </ns3:TrackPointExtension>
        </extensions>
      </trkpt>
      <trkpt lat="47.0235136337578296661376953125" lon="6.97777857072651386260986328125">
        <ele>626</ele>
        <time>2019-06-14T10:28:30.000Z</time>
        <extensions>
          <ns3:TrackPointExtension>
            <ns3:atemp>22.0</ns3:atemp>
            <ns3:hr>135</ns3:hr>
          </ns3:TrackPointExtension>
        </extensions>
      </trkpt>
      <trkpt lat="47.02355864457786083221435546875" lon="6.97788317687809467315673828125">
        <ele>626</ele>
        <time>2019-06-14T10:28:32.000Z</time>
        <extensions>
          <ns3:TrackPointExtension>
            <ns3:atemp>22.0</ns3:atemp>
            <ns3:hr>134</ns3:hr>
          </ns3:TrackPointExtension>
        </extensions>
      </trkpt>
      <trkpt lat="47.02363693155348300933837890625" lon="6.97798141278326511383056640625">
        <ele>626.79998779296875</ele>
        <time>2019-06-14T10:28:35.000Z</time>
        <extensions>
          <ns3:TrackPointExtension>
            <ns3:atemp>22.0</ns3:atemp>
            <ns3:hr>136</ns3:hr>
          </ns3:TrackPointExtension>
        </extensions>
      </trkpt>
      <trkpt lat="47.0236839540302753448486328125" lon="6.9780267588794231414794921875">
        <ele>627</ele>
        <time>2019-06-14T10:28:38.000Z</time>
        <extensions>
          <ns3:TrackPointExtension>
            <ns3:atemp>22.0</ns3:atemp>
            <ns3:hr>137</ns3:hr>
          </ns3:TrackPointExtension>
        </extensions>
      </trkpt>
      <trkpt lat="47.02369627542793750762939453125" lon="6.9780416786670684814453125">
        <ele>627.20001220703125</ele>
        <time>2019-06-14T10:28:39.000Z</time>
        <extensions>
          <ns3:TrackPointExtension>
            <ns3:atemp>22.0</ns3:atemp>
            <ns3:hr>131</ns3:hr>
          </ns3:TrackPointExtension>
        </extensions>
      </trkpt>
      <trkpt lat="47.02370482496917247772216796875" lon="6.9780492223799228668212890625">
        <ele>627.4000244140625</ele>
        <time>2019-06-14T10:28:40.000Z</time>
        <extensions>
          <ns3:TrackPointExtension>
            <ns3:atemp>22.0</ns3:atemp>
            <ns3:hr>131</ns3:hr>
          </ns3:TrackPointExtension>
        </extensions>
      </trkpt>
      <trkpt lat="47.02373784966766834259033203125" lon="6.97808166034519672393798828125">
        <ele>627.79998779296875</ele>
        <time>2019-06-14T10:28:42.000Z</time>
        <extensions>
          <ns3:TrackPointExtension>
            <ns3:atemp>22.0</ns3:atemp>
            <ns3:hr>134</ns3:hr>
          </ns3:TrackPointExtension>
        </extensions>
      </trkpt>
      <trkpt lat="47.02376249246299266815185546875" lon="6.9780975021421909332275390625">
        <ele>628.20001220703125</ele>
        <time>2019-06-14T10:28:45.000Z</time>
        <extensions>
          <ns3:TrackPointExtension>
            <ns3:atemp>23.0</ns3:atemp>
            <ns3:hr>136</ns3:hr>
          </ns3:TrackPointExtension>
        </extensions>
      </trkpt>
      <trkpt lat="47.02382049523293972015380859375" lon="6.97816304862499237060546875">
        <ele>628.5999755859375</ele>
        <time>2019-06-14T10:28:47.000Z</time>
        <extensions>
          <ns3:TrackPointExtension>
            <ns3:atemp>23.0</ns3:atemp>
            <ns3:hr>135</ns3:hr>
          </ns3:TrackPointExtension>
        </extensions>
      </trkpt>
      <trkpt lat="47.02396768145263195037841796875" lon="6.97828911244869232177734375">
        <ele>629.20001220703125</ele>
        <time>2019-06-14T10:28:52.000Z</time>
        <extensions>
          <ns3:TrackPointExtension>
            <ns3:atemp>23.0</ns3:atemp>
            <ns3:hr>136</ns3:hr>
          </ns3:TrackPointExtension>
        </extensions>
      </trkpt>
      <trkpt lat="47.02399835921823978424072265625" lon="6.978321969509124755859375">
        <ele>629.4000244140625</ele>
        <time>2019-06-14T10:28:53.000Z</time>
        <extensions>
          <ns3:TrackPointExtension>
            <ns3:atemp>23.0</ns3:atemp>
            <ns3:hr>135</ns3:hr>
          </ns3:TrackPointExtension>
        </extensions>
      </trkpt>
      <trkpt lat="47.024075053632259368896484375" lon="6.978400759398937225341796875">
        <ele>629.5999755859375</ele>
        <time>2019-06-14T10:28:55.000Z</time>
        <extensions>
          <ns3:TrackPointExtension>
            <ns3:atemp>23.0</ns3:atemp>
            <ns3:hr>135</ns3:hr>
          </ns3:TrackPointExtension>
        </extensions>
      </trkpt>
      <trkpt lat="47.024130038917064666748046875" lon="6.9784233905375003814697265625">
        <ele>629.79998779296875</ele>
        <time>2019-06-14T10:28:57.000Z</time>
        <extensions>
          <ns3:TrackPointExtension>
            <ns3:atemp>23.0</ns3:atemp>
            <ns3:hr>135</ns3:hr>
          </ns3:TrackPointExtension>
        </extensions>
      </trkpt>
      <trkpt lat="47.024249732494354248046875" lon="6.97843973524868488311767578125">
        <ele>630.5999755859375</ele>
        <time>2019-06-14T10:29:01.000Z</time>
        <extensions>
          <ns3:TrackPointExtension>
            <ns3:atemp>23.0</ns3:atemp>
            <ns3:hr>137</ns3:hr>
          </ns3:TrackPointExtension>
        </extensions>
      </trkpt>
      <trkpt lat="47.02426255680620670318603515625" lon="6.978427581489086151123046875">
        <ele>630.79998779296875</ele>
        <time>2019-06-14T10:29:02.000Z</time>
        <extensions>
          <ns3:TrackPointExtension>
            <ns3:atemp>23.0</ns3:atemp>
            <ns3:hr>137</ns3:hr>
          </ns3:TrackPointExtension>
        </extensions>
      </trkpt>
      <trkpt lat="47.02440035529434680938720703125" lon="6.9785055331885814666748046875">
        <ele>631</ele>
        <time>2019-06-14T10:29:04.000Z</time>
        <extensions>
          <ns3:TrackPointExtension>
            <ns3:atemp>23.0</ns3:atemp>
            <ns3:hr>141</ns3:hr>
          </ns3:TrackPointExtension>
        </extensions>
      </trkpt>
      <trkpt lat="47.02445215545594692230224609375" lon="6.9785021804273128509521484375">
        <ele>631.20001220703125</ele>
        <time>2019-06-14T10:29:05.000Z</time>
        <extensions>
          <ns3:TrackPointExtension>
            <ns3:atemp>23.0</ns3:atemp>
            <ns3:hr>145</ns3:hr>
          </ns3:TrackPointExtension>
        </extensions>
      </trkpt>
      <trkpt lat="47.02449188567698001861572265625" lon="6.9785236380994319915771484375">
        <ele>631.20001220703125</ele>
        <time>2019-06-14T10:29:06.000Z</time>
        <extensions>
          <ns3:TrackPointExtension>
            <ns3:atemp>23.0</ns3:atemp>
            <ns3:hr>142</ns3:hr>
          </ns3:TrackPointExtension>
        </extensions>
      </trkpt>
      <trkpt lat="47.02453496865928173065185546875" lon="6.97851953096687793731689453125">
        <ele>631.20001220703125</ele>
        <time>2019-06-14T10:29:07.000Z</time>
        <extensions>
          <ns3:TrackPointExtension>
            <ns3:atemp>23.0</ns3:atemp>
            <ns3:hr>145</ns3:hr>
          </ns3:TrackPointExtension>
        </extensions>
      </trkpt>
      <trkpt lat="47.024783156812191009521484375" lon="6.97867811657488346099853515625">
        <ele>631.5999755859375</ele>
        <time>2019-06-14T10:29:13.000Z</time>
        <extensions>
          <ns3:TrackPointExtension>
            <ns3:atemp>23.0</ns3:atemp>
            <ns3:hr>145</ns3:hr>
          </ns3:TrackPointExtension>
        </extensions>
      </trkpt>
      <trkpt lat="47.024838142096996307373046875" lon="6.97875757701694965362548828125">
        <ele>631.5999755859375</ele>
        <time>2019-06-14T10:29:14.000Z</time>
        <extensions>
          <ns3:TrackPointExtension>
            <ns3:atemp>23.0</ns3:atemp>
            <ns3:hr>145</ns3:hr>
          </ns3:TrackPointExtension>
        </extensions>
      </trkpt>
      <trkpt lat="47.02502916567027568817138671875" lon="6.9789628498256206512451171875">
        <ele>632</ele>
        <time>2019-06-14T10:29:20.000Z</time>
        <extensions>
          <ns3:TrackPointExtension>
            <ns3:atemp>23.0</ns3:atemp>
            <ns3:hr>149</ns3:hr>
          </ns3:TrackPointExtension>
        </extensions>
      </trkpt>
      <trkpt lat="47.0251816324889659881591796875" lon="6.97904826141893863677978515625">
        <ele>632</ele>
        <time>2019-06-14T10:29:25.000Z</time>
        <extensions>
          <ns3:TrackPointExtension>
            <ns3:atemp>23.0</ns3:atemp>
            <ns3:hr>150</ns3:hr>
          </ns3:TrackPointExtension>
        </extensions>
      </trkpt>
      <trkpt lat="47.02526520006358623504638671875" lon="6.97908799163997173309326171875">
        <ele>632</ele>
        <time>2019-06-14T10:29:28.000Z</time>
        <extensions>
          <ns3:TrackPointExtension>
            <ns3:atemp>23.0</ns3:atemp>
            <ns3:hr>153</ns3:hr>
          </ns3:TrackPointExtension>
        </extensions>
      </trkpt>
      <trkpt lat="47.0253469236195087432861328125" lon="6.97916259057819843292236328125">
        <ele>632.4000244140625</ele>
        <time>2019-06-14T10:29:31.000Z</time>
        <extensions>
          <ns3:TrackPointExtension>
            <ns3:atemp>23.0</ns3:atemp>
            <ns3:hr>152</ns3:hr>
          </ns3:TrackPointExtension>
        </extensions>
      </trkpt>
      <trkpt lat="47.0255417190492153167724609375" lon="6.97933374904096126556396484375">
        <ele>632</ele>
        <time>2019-06-14T10:29:37.000Z</time>
        <extensions>
          <ns3:TrackPointExtension>
            <ns3:atemp>23.0</ns3:atemp>
            <ns3:hr>152</ns3:hr>
          </ns3:TrackPointExtension>
        </extensions>
      </trkpt>
      <trkpt lat="47.02574833296239376068115234375" lon="6.9795048236846923828125">
        <ele>632.20001220703125</ele>
        <time>2019-06-14T10:29:42.000Z</time>
        <extensions>
          <ns3:TrackPointExtension>
            <ns3:atemp>23.0</ns3:atemp>
            <ns3:hr>146</ns3:hr>
          </ns3:TrackPointExtension>
        </extensions>
      </trkpt>
      <trkpt lat="47.02578638680279254913330078125" lon="6.97953164577484130859375">
        <ele>632.20001220703125</ele>
        <time>2019-06-14T10:29:43.000Z</time>
        <extensions>
          <ns3:TrackPointExtension>
            <ns3:atemp>23.0</ns3:atemp>
            <ns3:hr>144</ns3:hr>
          </ns3:TrackPointExtension>
        </extensions>
      </trkpt>
      <trkpt lat="47.02585796825587749481201171875" lon="6.97960012592375278472900390625">
        <ele>632.5999755859375</ele>
        <time>2019-06-14T10:29:46.000Z</time>
        <extensions>
          <ns3:TrackPointExtension>
            <ns3:atemp>23.0</ns3:atemp>
            <ns3:hr>142</ns3:hr>
          </ns3:TrackPointExtension>
        </extensions>
      </trkpt>
      <trkpt lat="47.02589602209627628326416015625" lon="6.9796551950275897979736328125">
        <ele>632.5999755859375</ele>
        <time>2019-06-14T10:29:48.000Z</time>
        <extensions>
          <ns3:TrackPointExtension>
            <ns3:atemp>23.0</ns3:atemp>
            <ns3:hr>141</ns3:hr>
          </ns3:TrackPointExtension>
        </extensions>
      </trkpt>
      <trkpt lat="47.02598319388926029205322265625" lon="6.9797470606863498687744140625">
        <ele>632.79998779296875</ele>
        <time>2019-06-14T10:29:54.000Z</time>
        <extensions>
          <ns3:TrackPointExtension>
            <ns3:atemp>23.0</ns3:atemp>
            <ns3:hr>140</ns3:hr>
          </ns3:TrackPointExtension>
        </extensions>
      </trkpt>
      <trkpt lat="47.0261656679213047027587890625" lon="6.9799690134823322296142578125">
        <ele>632.79998779296875</ele>
        <time>2019-06-14T10:29:59.000Z</time>
        <extensions>
          <ns3:TrackPointExtension>
            <ns3:atemp>23.0</ns3:atemp>
            <ns3:hr>140</ns3:hr>
          </ns3:TrackPointExtension>
        </extensions>
      </trkpt>
      <trkpt lat="47.0262975990772247314453125" lon="6.980107985436916351318359375">
        <ele>633.20001220703125</ele>
        <time>2019-06-14T10:30:04.000Z</time>
        <extensions>
          <ns3:TrackPointExtension>
            <ns3:atemp>23.0</ns3:atemp>
            <ns3:hr>139</ns3:hr>
          </ns3:TrackPointExtension>
        </extensions>
      </trkpt>
      <trkpt lat="47.02646129764616489410400390625" lon="6.98030185885727405548095703125">
        <ele>633.5999755859375</ele>
        <time>2019-06-14T10:30:07.000Z</time>
        <extensions>
          <ns3:TrackPointExtension>
            <ns3:atemp>22.0</ns3:atemp>
            <ns3:hr>140</ns3:hr>
          </ns3:TrackPointExtension>
        </extensions>
      </trkpt>
      <trkpt lat="47.02655383385717868804931640625" lon="6.9803448580205440521240234375">
        <ele>633.79998779296875</ele>
        <time>2019-06-14T10:30:09.000Z</time>
        <extensions>
          <ns3:TrackPointExtension>
            <ns3:atemp>22.0</ns3:atemp>
            <ns3:hr>140</ns3:hr>
          </ns3:TrackPointExtension>
        </extensions>
      </trkpt>
      <trkpt lat="47.0266001857817173004150390625" lon="6.98035952635109424591064453125">
        <ele>633.79998779296875</ele>
        <time>2019-06-14T10:30:10.000Z</time>
        <extensions>
          <ns3:TrackPointExtension>
            <ns3:atemp>22.0</ns3:atemp>
            <ns3:hr>140</ns3:hr>
          </ns3:TrackPointExtension>
        </extensions>
      </trkpt>
      <trkpt lat="47.026674449443817138671875" lon="6.980481483042240142822265625">
        <ele>634.20001220703125</ele>
        <time>2019-06-14T10:30:13.000Z</time>
        <extensions>
          <ns3:TrackPointExtension>
            <ns3:atemp>22.0</ns3:atemp>
            <ns3:hr>141</ns3:hr>
          </ns3:TrackPointExtension>
        </extensions>
      </trkpt>
      <trkpt lat="47.0266806520521640777587890625" lon="6.9805594347417354583740234375">
        <ele>634.4000244140625</ele>
        <time>2019-06-14T10:30:15.000Z</time>
        <extensions>
          <ns3:TrackPointExtension>
            <ns3:atemp>22.0</ns3:atemp>
            <ns3:hr>138</ns3:hr>
          </ns3:TrackPointExtension>
        </extensions>
      </trkpt>
      <trkpt lat="47.02668677084147930145263671875" lon="6.98059581220149993896484375">
        <ele>634.5999755859375</ele>
        <time>2019-06-14T10:30:16.000Z</time>
        <extensions>
          <ns3:TrackPointExtension>
            <ns3:atemp>22.0</ns3:atemp>
            <ns3:hr>139</ns3:hr>
          </ns3:TrackPointExtension>
        </extensions>
      </trkpt>
      <trkpt lat="47.0266436040401458740234375" lon="6.980614252388477325439453125">
        <ele>634.5999755859375</ele>
        <time>2019-06-14T10:30:17.000Z</time>
        <extensions>
          <ns3:TrackPointExtension>
            <ns3:atemp>22.0</ns3:atemp>
            <ns3:hr>139</ns3:hr>
          </ns3:TrackPointExtension>
        </extensions>
      </trkpt>
      <trkpt lat="47.02647722326219081878662109375" lon="6.980630345642566680908203125">
        <ele>634.4000244140625</ele>
        <time>2019-06-14T10:30:19.000Z</time>
        <extensions>
          <ns3:TrackPointExtension>
            <ns3:atemp>22.0</ns3:atemp>
            <ns3:hr>138</ns3:hr>
          </ns3:TrackPointExtension>
        </extensions>
      </trkpt>
      <trkpt lat="47.026340849697589874267578125" lon="6.980665884912014007568359375">
        <ele>634.20001220703125</ele>
        <time>2019-06-14T10:30:22.000Z</time>
        <extensions>
          <ns3:TrackPointExtension>
            <ns3:atemp>22.0</ns3:atemp>
            <ns3:hr>138</ns3:hr>
          </ns3:TrackPointExtension>
        </extensions>
      </trkpt>
      <trkpt lat="47.0263111777603626251220703125" lon="6.98072321712970733642578125">
        <ele>633.79998779296875</ele>
        <time>2019-06-14T10:30:24.000Z</time>
        <extensions>
          <ns3:TrackPointExtension>
            <ns3:atemp>22.0</ns3:atemp>
            <ns3:hr>138</ns3:hr>
          </ns3:TrackPointExtension>
        </extensions>
      </trkpt>
      <trkpt lat="47.02624998986721038818359375" lon="6.98076755739748477935791015625">
        <ele>633.4000244140625</ele>
        <time>2019-06-14T10:30:26.000Z</time>
        <extensions>
          <ns3:TrackPointExtension>
            <ns3:atemp>22.0</ns3:atemp>
            <ns3:hr>137</ns3:hr>
          </ns3:TrackPointExtension>
        </extensions>
      </trkpt>
      <trkpt lat="47.0261841081082820892333984375" lon="6.980842240154743194580078125">
        <ele>632.5999755859375</ele>
        <time>2019-06-14T10:30:29.000Z</time>
        <extensions>
          <ns3:TrackPointExtension>
            <ns3:atemp>22.0</ns3:atemp>
            <ns3:hr>139</ns3:hr>
          </ns3:TrackPointExtension>
        </extensions>
      </trkpt>
      <trkpt lat="47.026175558567047119140625" lon="6.98088473640382289886474609375">
        <ele>632.5999755859375</ele>
        <time>2019-06-14T10:30:30.000Z</time>
        <extensions>
          <ns3:TrackPointExtension>
            <ns3:atemp>22.0</ns3:atemp>
            <ns3:hr>140</ns3:hr>
          </ns3:TrackPointExtension>
        </extensions>
      </trkpt>
      <trkpt lat="47.02602677978575229644775390625" lon="6.98103175498545169830322265625">
        <ele>632</ele>
        <time>2019-06-14T10:30:34.000Z</time>
        <extensions>
          <ns3:TrackPointExtension>
            <ns3:atemp>22.0</ns3:atemp>
            <ns3:hr>140</ns3:hr>
          </ns3:TrackPointExtension>
        </extensions>
      </trkpt>
      <trkpt lat="47.02587255276739597320556640625" lon="6.9810851477086544036865234375">
        <ele>632</ele>
        <time>2019-06-14T10:30:36.000Z</time>
        <extensions>
          <ns3:TrackPointExtension>
            <ns3:atemp>22.0</ns3:atemp>
            <ns3:hr>140</ns3:hr>
          </ns3:TrackPointExtension>
        </extensions>
      </trkpt>
      <trkpt lat="47.0255269668996334075927734375" lon="6.98127700947225093841552734375">
        <ele>631.4000244140625</ele>
        <time>2019-06-14T10:30:40.000Z</time>
        <extensions>
          <ns3:TrackPointExtension>
            <ns3:atemp>22.0</ns3:atemp>
            <ns3:hr>139</ns3:hr>
          </ns3:TrackPointExtension>
        </extensions>
      </trkpt>
      <trkpt lat="47.02548514120280742645263671875" lon="6.98133970610797405242919921875">
        <ele>631.20001220703125</ele>
        <time>2019-06-14T10:30:41.000Z</time>
        <extensions>
          <ns3:TrackPointExtension>
            <ns3:atemp>22.0</ns3:atemp>
            <ns3:hr>139</ns3:hr>
          </ns3:TrackPointExtension>
        </extensions>
      </trkpt>
      <trkpt lat="47.02543887309730052947998046875" lon="6.98142788372933864593505859375">
        <ele>630.20001220703125</ele>
        <time>2019-06-14T10:30:43.000Z</time>
        <extensions>
          <ns3:TrackPointExtension>
            <ns3:atemp>22.0</ns3:atemp>
            <ns3:hr>138</ns3:hr>
          </ns3:TrackPointExtension>
        </extensions>
      </trkpt>
      <trkpt lat="47.02540769241750240325927734375" lon="6.981438361108303070068359375">
        <ele>629.5999755859375</ele>
        <time>2019-06-14T10:30:44.000Z</time>
        <extensions>
          <ns3:TrackPointExtension>
            <ns3:atemp>22.0</ns3:atemp>
            <ns3:hr>138</ns3:hr>
          </ns3:TrackPointExtension>
        </extensions>
      </trkpt>
      <trkpt lat="47.0253606699407100677490234375" lon="6.98145738802850246429443359375">
        <ele>629.20001220703125</ele>
        <time>2019-06-14T10:30:45.000Z</time>
        <extensions>
          <ns3:TrackPointExtension>
            <ns3:atemp>22.0</ns3:atemp>
            <ns3:hr>137</ns3:hr>
          </ns3:TrackPointExtension>
        </extensions>
      </trkpt>
      <trkpt lat="47.02522748149931430816650390625" lon="6.98149225674569606781005859375">
        <ele>627.4000244140625</ele>
        <time>2019-06-14T10:30:47.000Z</time>
        <extensions>
          <ns3:TrackPointExtension>
            <ns3:atemp>22.0</ns3:atemp>
            <ns3:hr>136</ns3:hr>
          </ns3:TrackPointExtension>
        </extensions>
      </trkpt>
      <trkpt lat="47.02511583454906940460205078125" lon="6.9815096072852611541748046875">
        <ele>626.20001220703125</ele>
        <time>2019-06-14T10:30:49.000Z</time>
        <extensions>
          <ns3:TrackPointExtension>
            <ns3:atemp>22.0</ns3:atemp>
            <ns3:hr>136</ns3:hr>
          </ns3:TrackPointExtension>
        </extensions>
      </trkpt>
      <trkpt lat="47.0249962247908115386962890625" lon="6.981522850692272186279296875">
        <ele>624.5999755859375</ele>
        <time>2019-06-14T10:30:51.000Z</time>
        <extensions>
          <ns3:TrackPointExtension>
            <ns3:atemp>22.0</ns3:atemp>
            <ns3:hr>133</ns3:hr>
          </ns3:TrackPointExtension>
        </extensions>
      </trkpt>
      <trkpt lat="47.02490712516009807586669921875" lon="6.981545984745025634765625">
        <ele>623.5999755859375</ele>
        <time>2019-06-14T10:30:53.000Z</time>
        <extensions>
          <ns3:TrackPointExtension>
            <ns3:atemp>22.0</ns3:atemp>
            <ns3:hr>132</ns3:hr>
          </ns3:TrackPointExtension>
        </extensions>
      </trkpt>
      <trkpt lat="47.0248282514512538909912109375" lon="6.981544308364391326904296875">
        <ele>622.5999755859375</ele>
        <time>2019-06-14T10:30:55.000Z</time>
        <extensions>
          <ns3:TrackPointExtension>
            <ns3:atemp>22.0</ns3:atemp>
            <ns3:hr>134</ns3:hr>
          </ns3:TrackPointExtension>
        </extensions>
      </trkpt>
      <trkpt lat="47.024759687483310699462890625" lon="6.981524862349033355712890625">
        <ele>622.20001220703125</ele>
        <time>2019-06-14T10:30:56.000Z</time>
        <extensions>
          <ns3:TrackPointExtension>
            <ns3:atemp>22.0</ns3:atemp>
            <ns3:hr>135</ns3:hr>
          </ns3:TrackPointExtension>
        </extensions>
      </trkpt>
      <trkpt lat="47.0246951468288898468017578125" lon="6.98146618902683258056640625">
        <ele>621.4000244140625</ele>
        <time>2019-06-14T10:30:58.000Z</time>
        <extensions>
          <ns3:TrackPointExtension>
            <ns3:atemp>22.0</ns3:atemp>
            <ns3:hr>137</ns3:hr>
          </ns3:TrackPointExtension>
        </extensions>
      </trkpt>
      <trkpt lat="47.024628929793834686279296875" lon="6.98145638220012187957763671875">
        <ele>620.5999755859375</ele>
        <time>2019-06-14T10:30:59.000Z</time>
        <extensions>
          <ns3:TrackPointExtension>
            <ns3:atemp>22.0</ns3:atemp>
            <ns3:hr>137</ns3:hr>
          </ns3:TrackPointExtension>
        </extensions>
      </trkpt>
      <trkpt lat="47.0245975814759731292724609375" lon="6.98144280351698398590087890625">
        <ele>619.5999755859375</ele>
        <time>2019-06-14T10:31:00.000Z</time>
        <extensions>
          <ns3:TrackPointExtension>
            <ns3:atemp>22.0</ns3:atemp>
            <ns3:hr>138</ns3:hr>
          </ns3:TrackPointExtension>
        </extensions>
      </trkpt>
      <trkpt lat="47.0245311968028545379638671875" lon="6.98144297115504741668701171875">
        <ele>618.20001220703125</ele>
        <time>2019-06-14T10:31:02.000Z</time>
        <extensions>
          <ns3:TrackPointExtension>
            <ns3:atemp>22.0</ns3:atemp>
            <ns3:hr>137</ns3:hr>
          </ns3:TrackPointExtension>
        </extensions>
      </trkpt>
      <trkpt lat="47.02440706081688404083251953125" lon="6.98145252652466297149658203125">
        <ele>617</ele>
        <time>2019-06-14T10:31:04.000Z</time>
        <extensions>
          <ns3:TrackPointExtension>
            <ns3:atemp>22.0</ns3:atemp>
            <ns3:hr>139</ns3:hr>
          </ns3:TrackPointExtension>
        </extensions>
      </trkpt>
      <trkpt lat="47.02432818710803985595703125" lon="6.9814502634108066558837890625">
        <ele>616.20001220703125</ele>
        <time>2019-06-14T10:31:05.000Z</time>
        <extensions>
          <ns3:TrackPointExtension>
            <ns3:atemp>22.0</ns3:atemp>
            <ns3:hr>140</ns3:hr>
          </ns3:TrackPointExtension>
        </extensions>
      </trkpt>
      <trkpt lat="47.02426272444427013397216796875" lon="6.9814512692391872406005859375">
        <ele>615.20001220703125</ele>
        <time>2019-06-14T10:31:06.000Z</time>
        <extensions>
          <ns3:TrackPointExtension>
            <ns3:atemp>22.0</ns3:atemp>
            <ns3:hr>139</ns3:hr>
          </ns3:TrackPointExtension>
        </extensions>
      </trkpt>
      <trkpt lat="47.024191729724407196044921875" lon="6.9814217649400234222412109375">
        <ele>613.4000244140625</ele>
        <time>2019-06-14T10:31:08.000Z</time>
        <extensions>
          <ns3:TrackPointExtension>
            <ns3:atemp>22.0</ns3:atemp>
            <ns3:hr>141</ns3:hr>
          </ns3:TrackPointExtension>
        </extensions>
      </trkpt>
      <trkpt lat="47.02412894926965236663818359375" lon="6.98140039108693599700927734375">
        <ele>612.5999755859375</ele>
        <time>2019-06-14T10:31:09.000Z</time>
        <extensions>
          <ns3:TrackPointExtension>
            <ns3:atemp>22.0</ns3:atemp>
            <ns3:hr>143</ns3:hr>
          </ns3:TrackPointExtension>
        </extensions>
      </trkpt>
      <trkpt lat="47.02407748438417911529541015625" lon="6.981377340853214263916015625">
        <ele>611.79998779296875</ele>
        <time>2019-06-14T10:31:10.000Z</time>
        <extensions>
          <ns3:TrackPointExtension>
            <ns3:atemp>22.0</ns3:atemp>
            <ns3:hr>142</ns3:hr>
          </ns3:TrackPointExtension>
        </extensions>
      </trkpt>
      <trkpt lat="47.024005316197872161865234375" lon="6.9813205115497112274169921875">
        <ele>610.5999755859375</ele>
        <time>2019-06-14T10:31:12.000Z</time>
        <extensions>
          <ns3:TrackPointExtension>
            <ns3:atemp>22.0</ns3:atemp>
            <ns3:hr>142</ns3:hr>
          </ns3:TrackPointExtension>
        </extensions>
      </trkpt>
      <trkpt lat="47.0239639095962047576904296875" lon="6.98130584321916103363037109375">
        <ele>610</ele>
        <time>2019-06-14T10:31:13.000Z</time>
        <extensions>
          <ns3:TrackPointExtension>
            <ns3:atemp>22.0</ns3:atemp>
            <ns3:hr>141</ns3:hr>
          </ns3:TrackPointExtension>
        </extensions>
      </trkpt>
      <trkpt lat="47.0239198207855224609375" lon="6.981290169060230255126953125">
        <ele>609.4000244140625</ele>
        <time>2019-06-14T10:31:14.000Z</time>
        <extensions>
          <ns3:TrackPointExtension>
            <ns3:atemp>22.0</ns3:atemp>
            <ns3:hr>141</ns3:hr>
          </ns3:TrackPointExtension>
        </extensions>
      </trkpt>
      <trkpt lat="47.02387648634612560272216796875" lon="6.981264688074588775634765625">
        <ele>609.20001220703125</ele>
        <time>2019-06-14T10:31:15.000Z</time>
        <extensions>
          <ns3:TrackPointExtension>
            <ns3:atemp>22.0</ns3:atemp>
            <ns3:hr>138</ns3:hr>
          </ns3:TrackPointExtension>
        </extensions>
      </trkpt>
      <trkpt lat="47.0237842015922069549560546875" lon="6.98122152127325534820556640625">
        <ele>608</ele>
        <time>2019-06-14T10:31:17.000Z</time>
        <extensions>
          <ns3:TrackPointExtension>
            <ns3:atemp>22.0</ns3:atemp>
            <ns3:hr>140</ns3:hr>
          </ns3:TrackPointExtension>
        </extensions>
      </trkpt>
      <trkpt lat="47.02373533509671688079833984375" lon="6.98119838722050189971923828125">
        <ele>606.79998779296875</ele>
        <time>2019-06-14T10:31:19.000Z</time>
        <extensions>
          <ns3:TrackPointExtension>
            <ns3:atemp>22.0</ns3:atemp>
            <ns3:hr>138</ns3:hr>
          </ns3:TrackPointExtension>
        </extensions>
      </trkpt>
      <trkpt lat="47.02370801009237766265869140625" lon="6.981185562908649444580078125">
        <ele>606.4000244140625</ele>
        <time>2019-06-14T10:31:20.000Z</time>
        <extensions>
          <ns3:TrackPointExtension>
            <ns3:atemp>22.0</ns3:atemp>
            <ns3:hr>138</ns3:hr>
          </ns3:TrackPointExtension>
        </extensions>
      </trkpt>
      <trkpt lat="47.02367062680423259735107421875" lon="6.98117206804454326629638671875">
        <ele>605.5999755859375</ele>
        <time>2019-06-14T10:31:22.000Z</time>
        <extensions>
          <ns3:TrackPointExtension>
            <ns3:atemp>22.0</ns3:atemp>
            <ns3:hr>137</ns3:hr>
          </ns3:TrackPointExtension>
        </extensions>
      </trkpt>
      <trkpt lat="47.02360826544463634490966796875" lon="6.98113284073770046234130859375">
        <ele>604.20001220703125</ele>
        <time>2019-06-14T10:31:24.000Z</time>
        <extensions>
          <ns3:TrackPointExtension>
            <ns3:atemp>22.0</ns3:atemp>
            <ns3:hr>136</ns3:hr>
          </ns3:TrackPointExtension>
        </extensions>
      </trkpt>
      <trkpt lat="47.0235723070800304412841796875" lon="6.98110082186758518218994140625">
        <ele>603.4000244140625</ele>
        <time>2019-06-14T10:31:25.000Z</time>
        <extensions>
          <ns3:TrackPointExtension>
            <ns3:atemp>22.0</ns3:atemp>
            <ns3:hr>134</ns3:hr>
          </ns3:TrackPointExtension>
        </extensions>
      </trkpt>
      <trkpt lat="47.02356350608170032501220703125" lon="6.9810744188725948333740234375">
        <ele>603</ele>
        <time>2019-06-14T10:31:26.000Z</time>
        <extensions>
          <ns3:TrackPointExtension>
            <ns3:atemp>22.0</ns3:atemp>
            <ns3:hr>133</ns3:hr>
          </ns3:TrackPointExtension>
        </extensions>
      </trkpt>
      <trkpt lat="47.02348018996417522430419921875" lon="6.981061510741710662841796875">
        <ele>601.5999755859375</ele>
        <time>2019-06-14T10:31:28.000Z</time>
        <extensions>
          <ns3:TrackPointExtension>
            <ns3:atemp>22.0</ns3:atemp>
            <ns3:hr>133</ns3:hr>
          </ns3:TrackPointExtension>
        </extensions>
      </trkpt>
      <trkpt lat="47.02341045252978801727294921875" lon="6.98104583658277988433837890625">
        <ele>601</ele>
        <time>2019-06-14T10:31:29.000Z</time>
        <extensions>
          <ns3:TrackPointExtension>
            <ns3:atemp>22.0</ns3:atemp>
            <ns3:hr>133</ns3:hr>
          </ns3:TrackPointExtension>
        </extensions>
      </trkpt>
      <trkpt lat="47.02334188856184482574462890625" lon="6.98102253489196300506591796875">
        <ele>600.4000244140625</ele>
        <time>2019-06-14T10:31:30.000Z</time>
        <extensions>
          <ns3:TrackPointExtension>
            <ns3:atemp>22.0</ns3:atemp>
            <ns3:hr>133</ns3:hr>
          </ns3:TrackPointExtension>
        </extensions>
      </trkpt>
      <trkpt lat="47.02325421385467052459716796875" lon="6.9809768535196781158447265625">
        <ele>599.20001220703125</ele>
        <time>2019-06-14T10:31:33.000Z</time>
        <extensions>
          <ns3:TrackPointExtension>
            <ns3:atemp>22.0</ns3:atemp>
            <ns3:hr>134</ns3:hr>
          </ns3:TrackPointExtension>
        </extensions>
      </trkpt>
      <trkpt lat="47.0232252962887287139892578125" lon="6.98097609914839267730712890625">
        <ele>599</ele>
        <time>2019-06-14T10:31:34.000Z</time>
        <extensions>
          <ns3:TrackPointExtension>
            <ns3:atemp>22.0</ns3:atemp>
            <ns3:hr>137</ns3:hr>
          </ns3:TrackPointExtension>
        </extensions>
      </trkpt>
      <trkpt lat="47.02308506704866886138916015625" lon="6.98099546134471893310546875">
        <ele>598.79998779296875</ele>
        <time>2019-06-14T10:31:36.000Z</time>
        <extensions>
          <ns3:TrackPointExtension>
            <ns3:atemp>22.0</ns3:atemp>
            <ns3:hr>138</ns3:hr>
          </ns3:TrackPointExtension>
        </extensions>
      </trkpt>
      <trkpt lat="47.02302035875618457794189453125" lon="6.98103309608995914459228515625">
        <ele>598.4000244140625</ele>
        <time>2019-06-14T10:31:40.000Z</time>
        <extensions>
          <ns3:TrackPointExtension>
            <ns3:atemp>22.0</ns3:atemp>
            <ns3:hr>138</ns3:hr>
          </ns3:TrackPointExtension>
        </extensions>
      </trkpt>
      <trkpt lat="47.0230630226433277130126953125" lon="6.9810925237834453582763671875">
        <ele>598</ele>
        <time>2019-06-14T10:31:43.000Z</time>
        <extensions>
          <ns3:TrackPointExtension>
            <ns3:atemp>22.0</ns3:atemp>
            <ns3:hr>137</ns3:hr>
          </ns3:TrackPointExtension>
        </extensions>
      </trkpt>
      <trkpt lat="47.023108117282390594482421875" lon="6.9811780191957950592041015625">
        <ele>597.79998779296875</ele>
        <time>2019-06-14T10:31:45.000Z</time>
        <extensions>
          <ns3:TrackPointExtension>
            <ns3:atemp>22.0</ns3:atemp>
            <ns3:hr>140</ns3:hr>
          </ns3:TrackPointExtension>
        </extensions>
      </trkpt>
      <trkpt lat="47.02313686721026897430419921875" lon="6.9812185876071453094482421875">
        <ele>597.79998779296875</ele>
        <time>2019-06-14T10:31:46.000Z</time>
        <extensions>
          <ns3:TrackPointExtension>
            <ns3:atemp>22.0</ns3:atemp>
            <ns3:hr>144</ns3:hr>
          </ns3:TrackPointExtension>
        </extensions>
      </trkpt>
      <trkpt lat="47.02319336123764514923095703125" lon="6.98130534030497074127197265625">
        <ele>597.4000244140625</ele>
        <time>2019-06-14T10:31:48.000Z</time>
        <extensions>
          <ns3:TrackPointExtension>
            <ns3:atemp>22.0</ns3:atemp>
            <ns3:hr>147</ns3:hr>
          </ns3:TrackPointExtension>
        </extensions>
      </trkpt>
      <trkpt lat="47.02328640036284923553466796875" lon="6.9814454019069671630859375">
        <ele>597</ele>
        <time>2019-06-14T10:31:51.000Z</time>
        <extensions>
          <ns3:TrackPointExtension>
            <ns3:atemp>22.0</ns3:atemp>
            <ns3:hr>150</ns3:hr>
          </ns3:TrackPointExtension>
        </extensions>
      </trkpt>
      <trkpt lat="47.0233131386339664459228515625" lon="6.98148362338542938232421875">
        <ele>596.79998779296875</ele>
        <time>2019-06-14T10:31:52.000Z</time>
        <extensions>
          <ns3:TrackPointExtension>
            <ns3:atemp>22.0</ns3:atemp>
            <ns3:hr>151</ns3:hr>
          </ns3:TrackPointExtension>
        </extensions>
      </trkpt>
      <trkpt lat="47.0235324092209339141845703125" lon="6.98176584206521511077880859375">
        <ele>597</ele>
        <time>2019-06-14T10:31:59.000Z</time>
        <extensions>
          <ns3:TrackPointExtension>
            <ns3:atemp>22.0</ns3:atemp>
            <ns3:hr>147</ns3:hr>
          </ns3:TrackPointExtension>
        </extensions>
      </trkpt>
      <trkpt lat="47.02357725240290164947509765625" lon="6.98183356784284114837646484375">
        <ele>596.79998779296875</ele>
        <time>2019-06-14T10:32:00.000Z</time>
        <extensions>
          <ns3:TrackPointExtension>
            <ns3:atemp>22.0</ns3:atemp>
            <ns3:hr>144</ns3:hr>
          </ns3:TrackPointExtension>
        </extensions>
      </trkpt>
      <trkpt lat="47.02361849136650562286376953125" lon="6.98188687674701213836669921875">
        <ele>596.5999755859375</ele>
        <time>2019-06-14T10:32:01.000Z</time>
        <extensions>
          <ns3:TrackPointExtension>
            <ns3:atemp>22.0</ns3:atemp>
            <ns3:hr>141</ns3:hr>
          </ns3:TrackPointExtension>
        </extensions>
      </trkpt>
      <trkpt lat="47.0236581377685070037841796875" lon="6.98193146847188472747802734375">
        <ele>596.5999755859375</ele>
        <time>2019-06-14T10:32:02.000Z</time>
        <extensions>
          <ns3:TrackPointExtension>
            <ns3:atemp>22.0</ns3:atemp>
            <ns3:hr>136</ns3:hr>
          </ns3:TrackPointExtension>
        </extensions>
      </trkpt>
      <trkpt lat="47.02369677834212779998779296875" lon="6.981978155672550201416015625">
        <ele>596.4000244140625</ele>
        <time>2019-06-14T10:32:03.000Z</time>
        <extensions>
          <ns3:TrackPointExtension>
            <ns3:atemp>22.0</ns3:atemp>
            <ns3:hr>131</ns3:hr>
          </ns3:TrackPointExtension>
        </extensions>
      </trkpt>
      <trkpt lat="47.02386072836816310882568359375" lon="6.98218476958572864532470703125">
        <ele>596.5999755859375</ele>
        <time>2019-06-14T10:32:07.000Z</time>
        <extensions>
          <ns3:TrackPointExtension>
            <ns3:atemp>22.0</ns3:atemp>
            <ns3:hr>129</ns3:hr>
          </ns3:TrackPointExtension>
        </extensions>
      </trkpt>
      <trkpt lat="47.0240242592990398406982421875" lon="6.98238861747086048126220703125">
        <ele>597</ele>
        <time>2019-06-14T10:32:11.000Z</time>
        <extensions>
          <ns3:TrackPointExtension>
            <ns3:atemp>22.0</ns3:atemp>
            <ns3:hr>130</ns3:hr>
          </ns3:TrackPointExtension>
        </extensions>
      </trkpt>
      <trkpt lat="47.02411235310137271881103515625" lon="6.98248366825282573699951171875">
        <ele>597</ele>
        <time>2019-06-14T10:32:13.000Z</time>
        <extensions>
          <ns3:TrackPointExtension>
            <ns3:atemp>22.0</ns3:atemp>
            <ns3:hr>129</ns3:hr>
          </ns3:TrackPointExtension>
        </extensions>
      </trkpt>
      <trkpt lat="47.0244104973971843719482421875" lon="6.9827652163803577423095703125">
        <ele>596.4000244140625</ele>
        <time>2019-06-14T10:32:20.000Z</time>
        <extensions>
          <ns3:TrackPointExtension>
            <ns3:atemp>22.0</ns3:atemp>
            <ns3:hr>129</ns3:hr>
          </ns3:TrackPointExtension>
        </extensions>
      </trkpt>
      <trkpt lat="47.02468969859182834625244140625" lon="6.98311532847583293914794921875">
        <ele>595.79998779296875</ele>
        <time>2019-06-14T10:32:26.000Z</time>
        <extensions>
          <ns3:TrackPointExtension>
            <ns3:atemp>22.0</ns3:atemp>
            <ns3:hr>130</ns3:hr>
          </ns3:TrackPointExtension>
        </extensions>
      </trkpt>
      <trkpt lat="47.02473261393606662750244140625" lon="6.98317903093993663787841796875">
        <ele>595.79998779296875</ele>
        <time>2019-06-14T10:32:27.000Z</time>
        <extensions>
          <ns3:TrackPointExtension>
            <ns3:atemp>22.0</ns3:atemp>
            <ns3:hr>130</ns3:hr>
          </ns3:TrackPointExtension>
        </extensions>
      </trkpt>
      <trkpt lat="47.0249653793871402740478515625" lon="6.9835598208010196685791015625">
        <ele>594.79998779296875</ele>
        <time>2019-06-14T10:32:33.000Z</time>
        <extensions>
          <ns3:TrackPointExtension>
            <ns3:atemp>22.0</ns3:atemp>
            <ns3:hr>129</ns3:hr>
          </ns3:TrackPointExtension>
        </extensions>
      </trkpt>
      <trkpt lat="47.02504995279014110565185546875" lon="6.98368831537663936614990234375">
        <ele>594.5999755859375</ele>
        <time>2019-06-14T10:32:35.000Z</time>
        <extensions>
          <ns3:TrackPointExtension>
            <ns3:atemp>22.0</ns3:atemp>
            <ns3:hr>130</ns3:hr>
          </ns3:TrackPointExtension>
        </extensions>
      </trkpt>
      <trkpt lat="47.025396041572093963623046875" lon="6.98410992510616779327392578125">
        <ele>594</ele>
        <time>2019-06-14T10:32:42.000Z</time>
        <extensions>
          <ns3:TrackPointExtension>
            <ns3:atemp>22.0</ns3:atemp>
            <ns3:hr>129</ns3:hr>
          </ns3:TrackPointExtension>
        </extensions>
      </trkpt>
      <trkpt lat="47.02586987055838108062744140625" lon="6.9846330396831035614013671875">
        <ele>594.20001220703125</ele>
        <time>2019-06-14T10:32:52.000Z</time>
        <extensions>
          <ns3:TrackPointExtension>
            <ns3:atemp>22.0</ns3:atemp>
            <ns3:hr>129</ns3:hr>
          </ns3:TrackPointExtension>
        </extensions>
      </trkpt>
      <trkpt lat="47.0261918194591999053955078125" lon="6.98500192724168300628662109375">
        <ele>593.79998779296875</ele>
        <time>2019-06-14T10:32:59.000Z</time>
        <extensions>
          <ns3:TrackPointExtension>
            <ns3:atemp>22.0</ns3:atemp>
            <ns3:hr>128</ns3:hr>
          </ns3:TrackPointExtension>
        </extensions>
      </trkpt>
      <trkpt lat="47.0264947414398193359375" lon="6.98533200658857822418212890625">
        <ele>592.5999755859375</ele>
        <time>2019-06-14T10:33:05.000Z</time>
        <extensions>
          <ns3:TrackPointExtension>
            <ns3:atemp>22.0</ns3:atemp>
            <ns3:hr>130</ns3:hr>
          </ns3:TrackPointExtension>
        </extensions>
      </trkpt>
      <trkpt lat="47.0266585238277912139892578125" lon="6.98549277149140834808349609375">
        <ele>592</ele>
        <time>2019-06-14T10:33:08.000Z</time>
        <extensions>
          <ns3:TrackPointExtension>
            <ns3:atemp>22.0</ns3:atemp>
            <ns3:hr>130</ns3:hr>
          </ns3:TrackPointExtension>
        </extensions>
      </trkpt>
      <trkpt lat="47.02677863650023937225341796875" lon="6.98560626246035099029541015625">
        <ele>591.4000244140625</ele>
        <time>2019-06-14T10:33:10.000Z</time>
        <extensions>
          <ns3:TrackPointExtension>
            <ns3:atemp>22.0</ns3:atemp>
            <ns3:hr>130</ns3:hr>
          </ns3:TrackPointExtension>
        </extensions>
      </trkpt>
      <trkpt lat="47.0269042812287807464599609375" lon="6.98573626577854156494140625">
        <ele>590</ele>
        <time>2019-06-14T10:33:12.000Z</time>
        <extensions>
          <ns3:TrackPointExtension>
            <ns3:atemp>22.0</ns3:atemp>
            <ns3:hr>129</ns3:hr>
          </ns3:TrackPointExtension>
        </extensions>
      </trkpt>
      <trkpt lat="47.02702908776700496673583984375" lon="6.98588051833212375640869140625">
        <ele>588.79998779296875</ele>
        <time>2019-06-14T10:33:14.000Z</time>
        <extensions>
          <ns3:TrackPointExtension>
            <ns3:atemp>22.0</ns3:atemp>
            <ns3:hr>128</ns3:hr>
          </ns3:TrackPointExtension>
        </extensions>
      </trkpt>
      <trkpt lat="47.02721617184579372406005859375" lon="6.98608889244496822357177734375">
        <ele>587.79998779296875</ele>
        <time>2019-06-14T10:33:17.000Z</time>
        <extensions>
          <ns3:TrackPointExtension>
            <ns3:atemp>22.0</ns3:atemp>
            <ns3:hr>128</ns3:hr>
          </ns3:TrackPointExtension>
        </extensions>
      </trkpt>
      <trkpt lat="47.027510292828083038330078125" lon="6.9864710234105587005615234375">
        <ele>586.5999755859375</ele>
        <time>2019-06-14T10:33:22.000Z</time>
        <extensions>
          <ns3:TrackPointExtension>
            <ns3:atemp>22.0</ns3:atemp>
            <ns3:hr>129</ns3:hr>
          </ns3:TrackPointExtension>
        </extensions>
      </trkpt>
      <trkpt lat="47.02782352454960346221923828125" lon="6.9869075529277324676513671875">
        <ele>586.20001220703125</ele>
        <time>2019-06-14T10:33:28.000Z</time>
        <extensions>
          <ns3:TrackPointExtension>
            <ns3:atemp>22.0</ns3:atemp>
            <ns3:hr>127</ns3:hr>
          </ns3:TrackPointExtension>
        </extensions>
      </trkpt>
      <trkpt lat="47.02817321754992008209228515625" lon="6.9873893447220325469970703125">
        <ele>586.5999755859375</ele>
        <time>2019-06-14T10:33:36.000Z</time>
        <extensions>
          <ns3:TrackPointExtension>
            <ns3:atemp>22.0</ns3:atemp>
            <ns3:hr>125</ns3:hr>
          </ns3:TrackPointExtension>
        </extensions>
      </trkpt>
      <trkpt lat="47.028388045728206634521484375" lon="6.98765563778579235076904296875">
        <ele>586.79998779296875</ele>
        <time>2019-06-14T10:33:41.000Z</time>
        <extensions>
          <ns3:TrackPointExtension>
            <ns3:atemp>22.0</ns3:atemp>
            <ns3:hr>123</ns3:hr>
          </ns3:TrackPointExtension>
        </extensions>
      </trkpt>
      <trkpt lat="47.02843406237661838531494140625" lon="6.98769788257777690887451171875">
        <ele>586.5999755859375</ele>
        <time>2019-06-14T10:33:42.000Z</time>
        <extensions>
          <ns3:TrackPointExtension>
            <ns3:atemp>22.0</ns3:atemp>
            <ns3:hr>123</ns3:hr>
          </ns3:TrackPointExtension>
        </extensions>
      </trkpt>
      <trkpt lat="47.02862374484539031982421875" lon="6.98786887340247631072998046875">
        <ele>587.4000244140625</ele>
        <time>2019-06-14T10:33:47.000Z</time>
        <extensions>
          <ns3:TrackPointExtension>
            <ns3:atemp>22.0</ns3:atemp>
            <ns3:hr>121</ns3:hr>
          </ns3:TrackPointExtension>
        </extensions>
      </trkpt>
      <trkpt lat="47.0286537520587444305419921875" lon="6.987889744341373443603515625">
        <ele>588.4000244140625</ele>
        <time>2019-06-14T10:33:48.000Z</time>
        <extensions>
          <ns3:TrackPointExtension>
            <ns3:atemp>22.0</ns3:atemp>
            <ns3:hr>122</ns3:hr>
          </ns3:TrackPointExtension>
        </extensions>
      </trkpt>
      <trkpt lat="47.02873237431049346923828125" lon="6.987964846193790435791015625">
        <ele>589.5999755859375</ele>
        <time>2019-06-14T10:33:51.000Z</time>
        <extensions>
          <ns3:TrackPointExtension>
            <ns3:atemp>22.0</ns3:atemp>
            <ns3:hr>123</ns3:hr>
          </ns3:TrackPointExtension>
        </extensions>
      </trkpt>
      <trkpt lat="47.0288103260099887847900390625" lon="6.98804824613034725189208984375">
        <ele>590.20001220703125</ele>
        <time>2019-06-14T10:33:54.000Z</time>
        <extensions>
          <ns3:TrackPointExtension>
            <ns3:atemp>22.0</ns3:atemp>
            <ns3:hr>122</ns3:hr>
          </ns3:TrackPointExtension>
        </extensions>
      </trkpt>
      <trkpt lat="47.0288572646677494049072265625" lon="6.98808210901916027069091796875">
        <ele>590.79998779296875</ele>
        <time>2019-06-14T10:33:56.000Z</time>
        <extensions>
          <ns3:TrackPointExtension>
            <ns3:atemp>22.0</ns3:atemp>
            <ns3:hr>123</ns3:hr>
          </ns3:TrackPointExtension>
        </extensions>
      </trkpt>
      <trkpt lat="47.02898106537759304046630859375" lon="6.98812971822917461395263671875">
        <ele>591.79998779296875</ele>
        <time>2019-06-14T10:34:01.000Z</time>
        <extensions>
          <ns3:TrackPointExtension>
            <ns3:atemp>22.0</ns3:atemp>
            <ns3:hr>124</ns3:hr>
          </ns3:TrackPointExtension>
        </extensions>
      </trkpt>
      <trkpt lat="47.0290061272680759429931640625" lon="6.988125778734683990478515625">
        <ele>592.20001220703125</ele>
        <time>2019-06-14T10:34:02.000Z</time>
        <extensions>
          <ns3:TrackPointExtension>
            <ns3:atemp>22.0</ns3:atemp>
            <ns3:hr>124</ns3:hr>
          </ns3:TrackPointExtension>
        </extensions>
      </trkpt>
      <trkpt lat="47.02907703816890716552734375" lon="6.9881075061857700347900390625">
        <ele>593</ele>
        <time>2019-06-14T10:34:05.000Z</time>
        <extensions>
          <ns3:TrackPointExtension>
            <ns3:atemp>22.0</ns3:atemp>
            <ns3:hr>123</ns3:hr>
          </ns3:TrackPointExtension>
        </extensions>
      </trkpt>
      <trkpt lat="47.02913696877658367156982421875" lon="6.988090239465236663818359375">
        <ele>593.4000244140625</ele>
        <time>2019-06-14T10:34:08.000Z</time>
        <extensions>
          <ns3:TrackPointExtension>
            <ns3:atemp>22.0</ns3:atemp>
            <ns3:hr>127</ns3:hr>
          </ns3:TrackPointExtension>
        </extensions>
      </trkpt>
      <trkpt lat="47.02917820774018764495849609375" lon="6.9880790077149868011474609375">
        <ele>594.20001220703125</ele>
        <time>2019-06-14T10:34:10.000Z</time>
        <extensions>
          <ns3:TrackPointExtension>
            <ns3:atemp>22.0</ns3:atemp>
            <ns3:hr>130</ns3:hr>
          </ns3:TrackPointExtension>
        </extensions>
      </trkpt>
      <trkpt lat="47.029249370098114013671875" lon="6.98807842098176479339599609375">
        <ele>595.20001220703125</ele>
        <time>2019-06-14T10:34:14.000Z</time>
        <extensions>
          <ns3:TrackPointExtension>
            <ns3:atemp>22.0</ns3:atemp>
            <ns3:hr>133</ns3:hr>
          </ns3:TrackPointExtension>
        </extensions>
      </trkpt>
      <trkpt lat="47.02936680056154727935791015625" lon="6.98808847926557064056396484375">
        <ele>596.4000244140625</ele>
        <time>2019-06-14T10:34:20.000Z</time>
        <extensions>
          <ns3:TrackPointExtension>
            <ns3:atemp>22.0</ns3:atemp>
            <ns3:hr>134</ns3:hr>
          </ns3:TrackPointExtension>
        </extensions>
      </trkpt>
      <trkpt lat="47.02949688769876956939697265625" lon="6.988069452345371246337890625">
        <ele>597.4000244140625</ele>
        <time>2019-06-14T10:34:26.000Z</time>
        <extensions>
          <ns3:TrackPointExtension>
            <ns3:atemp>22.0</ns3:atemp>
            <ns3:hr>134</ns3:hr>
          </ns3:TrackPointExtension>
        </extensions>
      </trkpt>
      <trkpt lat="47.02953896485269069671630859375" lon="6.9880686141550540924072265625">
        <ele>597.5999755859375</ele>
        <time>2019-06-14T10:34:28.000Z</time>
        <extensions>
          <ns3:TrackPointExtension>
            <ns3:atemp>22.0</ns3:atemp>
            <ns3:hr>134</ns3:hr>
          </ns3:TrackPointExtension>
        </extensions>
      </trkpt>
      <trkpt lat="47.0296401344239711761474609375" lon="6.98809501715004444122314453125">
        <ele>598.5999755859375</ele>
        <time>2019-06-14T10:34:33.000Z</time>
        <extensions>
          <ns3:TrackPointExtension>
            <ns3:atemp>22.0</ns3:atemp>
            <ns3:hr>136</ns3:hr>
          </ns3:TrackPointExtension>
        </extensions>
      </trkpt>
      <trkpt lat="47.02970475889742374420166015625" lon="6.98812737129628658294677734375">
        <ele>599.20001220703125</ele>
        <time>2019-06-14T10:34:36.000Z</time>
        <extensions>
          <ns3:TrackPointExtension>
            <ns3:atemp>22.0</ns3:atemp>
            <ns3:hr>137</ns3:hr>
          </ns3:TrackPointExtension>
        </extensions>
      </trkpt>
      <trkpt lat="47.0298640988767147064208984375" lon="6.98821621946990489959716796875">
        <ele>599.5999755859375</ele>
        <time>2019-06-14T10:34:43.000Z</time>
        <extensions>
          <ns3:TrackPointExtension>
            <ns3:atemp>22.0</ns3:atemp>
            <ns3:hr>139</ns3:hr>
          </ns3:TrackPointExtension>
        </extensions>
      </trkpt>
      <trkpt lat="47.029994688928127288818359375" lon="6.9882474839687347412109375">
        <ele>600.79998779296875</ele>
        <time>2019-06-14T10:34:49.000Z</time>
        <extensions>
          <ns3:TrackPointExtension>
            <ns3:atemp>22.0</ns3:atemp>
            <ns3:hr>139</ns3:hr>
          </ns3:TrackPointExtension>
        </extensions>
      </trkpt>
      <trkpt lat="47.03001338057219982147216796875" lon="6.988251172006130218505859375">
        <ele>600.79998779296875</ele>
        <time>2019-06-14T10:34:50.000Z</time>
        <extensions>
          <ns3:TrackPointExtension>
            <ns3:atemp>22.0</ns3:atemp>
            <ns3:hr>139</ns3:hr>
          </ns3:TrackPointExtension>
        </extensions>
      </trkpt>
      <trkpt lat="47.03009895980358123779296875" lon="6.98828436434268951416015625">
        <ele>601.79998779296875</ele>
        <time>2019-06-14T10:34:54.000Z</time>
        <extensions>
          <ns3:TrackPointExtension>
            <ns3:atemp>23.0</ns3:atemp>
            <ns3:hr>140</ns3:hr>
          </ns3:TrackPointExtension>
        </extensions>
      </trkpt>
      <trkpt lat="47.0301772467792034149169921875" lon="6.9882909022271633148193359375">
        <ele>602</ele>
        <time>2019-06-14T10:34:58.000Z</time>
        <extensions>
          <ns3:TrackPointExtension>
            <ns3:atemp>23.0</ns3:atemp>
            <ns3:hr>140</ns3:hr>
          </ns3:TrackPointExtension>
        </extensions>
      </trkpt>
      <trkpt lat="47.0303251035511493682861328125" lon="6.98843783698976039886474609375">
        <ele>602.5999755859375</ele>
        <time>2019-06-14T10:35:04.000Z</time>
        <extensions>
          <ns3:TrackPointExtension>
            <ns3:atemp>23.0</ns3:atemp>
            <ns3:hr>138</ns3:hr>
          </ns3:TrackPointExtension>
        </extensions>
      </trkpt>
      <trkpt lat="47.0303690247237682342529296875" lon="6.98846147395670413970947265625">
        <ele>603</ele>
        <time>2019-06-14T10:35:06.000Z</time>
        <extensions>
          <ns3:TrackPointExtension>
            <ns3:atemp>23.0</ns3:atemp>
            <ns3:hr>138</ns3:hr>
          </ns3:TrackPointExtension>
        </extensions>
      </trkpt>
      <trkpt lat="47.03050187788903713226318359375" lon="6.98852618224918842315673828125">
        <ele>604</ele>
        <time>2019-06-14T10:35:12.000Z</time>
        <extensions>
          <ns3:TrackPointExtension>
            <ns3:atemp>23.0</ns3:atemp>
            <ns3:hr>141</ns3:hr>
          </ns3:TrackPointExtension>
        </extensions>
      </trkpt>
      <trkpt lat="47.0306141115725040435791015625" lon="6.98861687444150447845458984375">
        <ele>605</ele>
        <time>2019-06-14T10:35:18.000Z</time>
        <extensions>
          <ns3:TrackPointExtension>
            <ns3:atemp>23.0</ns3:atemp>
            <ns3:hr>139</ns3:hr>
          </ns3:TrackPointExtension>
        </extensions>
      </trkpt>
      <trkpt lat="47.03063137829303741455078125" lon="6.988627351820468902587890625">
        <ele>605.20001220703125</ele>
        <time>2019-06-14T10:35:19.000Z</time>
        <extensions>
          <ns3:TrackPointExtension>
            <ns3:atemp>23.0</ns3:atemp>
            <ns3:hr>138</ns3:hr>
          </ns3:TrackPointExtension>
        </extensions>
      </trkpt>
      <trkpt lat="47.0307522453367710113525390625" lon="6.9886700995266437530517578125">
        <ele>605.4000244140625</ele>
        <time>2019-06-14T10:35:25.000Z</time>
        <extensions>
          <ns3:TrackPointExtension>
            <ns3:atemp>23.0</ns3:atemp>
            <ns3:hr>140</ns3:hr>
          </ns3:TrackPointExtension>
        </extensions>
      </trkpt>
      <trkpt lat="47.03083346597850322723388671875" lon="6.988686025142669677734375">
        <ele>606.20001220703125</ele>
        <time>2019-06-14T10:35:30.000Z</time>
        <extensions>
          <ns3:TrackPointExtension>
            <ns3:atemp>23.0</ns3:atemp>
            <ns3:hr>139</ns3:hr>
          </ns3:TrackPointExtension>
        </extensions>
      </trkpt>
      <trkpt lat="47.03084670938551425933837890625" lon="6.98868677951395511627197265625">
        <ele>606.4000244140625</ele>
        <time>2019-06-14T10:35:31.000Z</time>
        <extensions>
          <ns3:TrackPointExtension>
            <ns3:atemp>23.0</ns3:atemp>
            <ns3:hr>139</ns3:hr>
          </ns3:TrackPointExtension>
        </extensions>
      </trkpt>
      <trkpt lat="47.03095232136547565460205078125" lon="6.98872986249625682830810546875">
        <ele>606.79998779296875</ele>
        <time>2019-06-14T10:35:36.000Z</time>
        <extensions>
          <ns3:TrackPointExtension>
            <ns3:atemp>23.0</ns3:atemp>
            <ns3:hr>140</ns3:hr>
          </ns3:TrackPointExtension>
        </extensions>
      </trkpt>
      <trkpt lat="47.03097277320921421051025390625" lon="6.98872089385986328125">
        <ele>606.79998779296875</ele>
        <time>2019-06-14T10:35:37.000Z</time>
        <extensions>
          <ns3:TrackPointExtension>
            <ns3:atemp>23.0</ns3:atemp>
            <ns3:hr>140</ns3:hr>
          </ns3:TrackPointExtension>
        </extensions>
      </trkpt>
      <trkpt lat="47.0310308597981929779052734375" lon="6.98873153887689113616943359375">
        <ele>606.79998779296875</ele>
        <time>2019-06-14T10:35:40.000Z</time>
        <extensions>
          <ns3:TrackPointExtension>
            <ns3:atemp>23.0</ns3:atemp>
            <ns3:hr>141</ns3:hr>
          </ns3:TrackPointExtension>
        </extensions>
      </trkpt>
      <trkpt lat="47.03105089254677295684814453125" lon="6.98875735513865947723388671875">
        <ele>607</ele>
        <time>2019-06-14T10:35:41.000Z</time>
        <extensions>
          <ns3:TrackPointExtension>
            <ns3:atemp>23.0</ns3:atemp>
            <ns3:hr>141</ns3:hr>
          </ns3:TrackPointExtension>
        </extensions>
      </trkpt>
      <trkpt lat="47.03109280206263065338134765625" lon="6.988758109509944915771484375">
        <ele>607.4000244140625</ele>
        <time>2019-06-14T10:35:43.000Z</time>
        <extensions>
          <ns3:TrackPointExtension>
            <ns3:atemp>23.0</ns3:atemp>
            <ns3:hr>142</ns3:hr>
          </ns3:TrackPointExtension>
        </extensions>
      </trkpt>
      <trkpt lat="47.0311770401895046234130859375" lon="6.98876841925084590911865234375">
        <ele>607.79998779296875</ele>
        <time>2019-06-14T10:35:47.000Z</time>
        <extensions>
          <ns3:TrackPointExtension>
            <ns3:atemp>23.0</ns3:atemp>
            <ns3:hr>141</ns3:hr>
          </ns3:TrackPointExtension>
        </extensions>
      </trkpt>
      <trkpt lat="47.03126915730535984039306640625" lon="6.9888082332909107208251953125">
        <ele>608.5999755859375</ele>
        <time>2019-06-14T10:35:52.000Z</time>
        <extensions>
          <ns3:TrackPointExtension>
            <ns3:atemp>23.0</ns3:atemp>
            <ns3:hr>140</ns3:hr>
          </ns3:TrackPointExtension>
        </extensions>
      </trkpt>
      <trkpt lat="47.0313067920506000518798828125" lon="6.98880848474800586700439453125">
        <ele>609.20001220703125</ele>
        <time>2019-06-14T10:35:54.000Z</time>
        <extensions>
          <ns3:TrackPointExtension>
            <ns3:atemp>23.0</ns3:atemp>
            <ns3:hr>141</ns3:hr>
          </ns3:TrackPointExtension>
        </extensions>
      </trkpt>
      <trkpt lat="47.0313198678195476531982421875" lon="6.9888161122798919677734375">
        <ele>609.4000244140625</ele>
        <time>2019-06-14T10:35:55.000Z</time>
        <extensions>
          <ns3:TrackPointExtension>
            <ns3:atemp>23.0</ns3:atemp>
            <ns3:hr>141</ns3:hr>
          </ns3:TrackPointExtension>
        </extensions>
      </trkpt>
      <trkpt lat="47.03141030855476856231689453125" lon="6.98882642202079296112060546875">
        <ele>609.5999755859375</ele>
        <time>2019-06-14T10:35:59.000Z</time>
        <extensions>
          <ns3:TrackPointExtension>
            <ns3:atemp>23.0</ns3:atemp>
            <ns3:hr>140</ns3:hr>
          </ns3:TrackPointExtension>
        </extensions>
      </trkpt>
      <trkpt lat="47.03151592053472995758056640625" lon="6.9888672418892383575439453125">
        <ele>609.79998779296875</ele>
        <time>2019-06-14T10:36:03.000Z</time>
        <extensions>
          <ns3:TrackPointExtension>
            <ns3:atemp>23.0</ns3:atemp>
            <ns3:hr>140</ns3:hr>
          </ns3:TrackPointExtension>
        </extensions>
      </trkpt>
      <trkpt lat="47.03155263327062129974365234375" lon="6.98887973092496395111083984375">
        <ele>610</ele>
        <time>2019-06-14T10:36:05.000Z</time>
        <extensions>
          <ns3:TrackPointExtension>
            <ns3:atemp>23.0</ns3:atemp>
            <ns3:hr>139</ns3:hr>
          </ns3:TrackPointExtension>
        </extensions>
      </trkpt>
      <trkpt lat="47.0316459238529205322265625" lon="6.98890864849090576171875">
        <ele>610.79998779296875</ele>
        <time>2019-06-14T10:36:10.000Z</time>
        <extensions>
          <ns3:TrackPointExtension>
            <ns3:atemp>23.0</ns3:atemp>
            <ns3:hr>140</ns3:hr>
          </ns3:TrackPointExtension>
        </extensions>
      </trkpt>
      <trkpt lat="47.03167350031435489654541015625" lon="6.988916359841823577880859375">
        <ele>610.79998779296875</ele>
        <time>2019-06-14T10:36:11.000Z</time>
        <extensions>
          <ns3:TrackPointExtension>
            <ns3:atemp>23.0</ns3:atemp>
            <ns3:hr>140</ns3:hr>
          </ns3:TrackPointExtension>
        </extensions>
      </trkpt>
      <trkpt lat="47.0318117178976535797119140625" lon="6.9889931380748748779296875">
        <ele>611.5999755859375</ele>
        <time>2019-06-14T10:36:17.000Z</time>
        <extensions>
          <ns3:TrackPointExtension>
            <ns3:atemp>23.0</ns3:atemp>
            <ns3:hr>141</ns3:hr>
          </ns3:TrackPointExtension>
        </extensions>
      </trkpt>
      <trkpt lat="47.0318465866148471832275390625" lon="6.988991796970367431640625">
        <ele>612</ele>
        <time>2019-06-14T10:36:19.000Z</time>
        <extensions>
          <ns3:TrackPointExtension>
            <ns3:atemp>23.0</ns3:atemp>
            <ns3:hr>139</ns3:hr>
          </ns3:TrackPointExtension>
        </extensions>
      </trkpt>
      <trkpt lat="47.031918503344058990478515625" lon="6.98902733623981475830078125">
        <ele>612.20001220703125</ele>
        <time>2019-06-14T10:36:23.000Z</time>
        <extensions>
          <ns3:TrackPointExtension>
            <ns3:atemp>23.0</ns3:atemp>
            <ns3:hr>138</ns3:hr>
          </ns3:TrackPointExtension>
        </extensions>
      </trkpt>
      <trkpt lat="47.0320323295891284942626953125" lon="6.989128924906253814697265625">
        <ele>612.79998779296875</ele>
        <time>2019-06-14T10:36:28.000Z</time>
        <extensions>
          <ns3:TrackPointExtension>
            <ns3:atemp>23.0</ns3:atemp>
            <ns3:hr>139</ns3:hr>
          </ns3:TrackPointExtension>
        </extensions>
      </trkpt>
      <trkpt lat="47.03216199763119220733642578125" lon="6.98916354216635227203369140625">
        <ele>612.5999755859375</ele>
        <time>2019-06-14T10:36:33.000Z</time>
        <extensions>
          <ns3:TrackPointExtension>
            <ns3:atemp>23.0</ns3:atemp>
            <ns3:hr>139</ns3:hr>
          </ns3:TrackPointExtension>
        </extensions>
      </trkpt>
      <trkpt lat="47.03230348415672779083251953125" lon="6.9891974888741970062255859375">
        <ele>612.20001220703125</ele>
        <time>2019-06-14T10:36:39.000Z</time>
        <extensions>
          <ns3:TrackPointExtension>
            <ns3:atemp>23.0</ns3:atemp>
            <ns3:hr>137</ns3:hr>
          </ns3:TrackPointExtension>
        </extensions>
      </trkpt>
      <trkpt lat="47.03244497068226337432861328125" lon="6.989262364804744720458984375">
        <ele>612.20001220703125</ele>
        <time>2019-06-14T10:36:45.000Z</time>
        <extensions>
          <ns3:TrackPointExtension>
            <ns3:atemp>23.0</ns3:atemp>
            <ns3:hr>136</ns3:hr>
          </ns3:TrackPointExtension>
        </extensions>
      </trkpt>
      <trkpt lat="47.0325825177133083343505859375" lon="6.9893440045416355133056640625">
        <ele>612.5999755859375</ele>
        <time>2019-06-14T10:36:51.000Z</time>
        <extensions>
          <ns3:TrackPointExtension>
            <ns3:atemp>23.0</ns3:atemp>
            <ns3:hr>135</ns3:hr>
          </ns3:TrackPointExtension>
        </extensions>
      </trkpt>
      <trkpt lat="47.03263406641781330108642578125" lon="6.98942824266850948333740234375">
        <ele>612.79998779296875</ele>
        <time>2019-06-14T10:36:53.000Z</time>
        <extensions>
          <ns3:TrackPointExtension>
            <ns3:atemp>23.0</ns3:atemp>
            <ns3:hr>135</ns3:hr>
          </ns3:TrackPointExtension>
        </extensions>
      </trkpt>
      <trkpt lat="47.0327253453433513641357421875" lon="6.98948859237134456634521484375">
        <ele>613</ele>
        <time>2019-06-14T10:36:56.000Z</time>
        <extensions>
          <ns3:TrackPointExtension>
            <ns3:atemp>23.0</ns3:atemp>
            <ns3:hr>134</ns3:hr>
          </ns3:TrackPointExtension>
        </extensions>
      </trkpt>
      <trkpt lat="47.0327590405941009521484375" lon="6.98950217105448246002197265625">
        <ele>613</ele>
        <time>2019-06-14T10:36:57.000Z</time>
        <extensions>
          <ns3:TrackPointExtension>
            <ns3:atemp>23.0</ns3:atemp>
            <ns3:hr>135</ns3:hr>
          </ns3:TrackPointExtension>
        </extensions>
      </trkpt>
      <trkpt lat="47.03285886906087398529052734375" lon="6.98955263011157512664794921875">
        <ele>613.4000244140625</ele>
        <time>2019-06-14T10:37:02.000Z</time>
        <extensions>
          <ns3:TrackPointExtension>
            <ns3:atemp>23.0</ns3:atemp>
            <ns3:hr>137</ns3:hr>
          </ns3:TrackPointExtension>
        </extensions>
      </trkpt>
      <trkpt lat="47.03299230895936489105224609375" lon="6.98962354101240634918212890625">
        <ele>614</ele>
        <time>2019-06-14T10:37:08.000Z</time>
        <extensions>
          <ns3:TrackPointExtension>
            <ns3:atemp>23.0</ns3:atemp>
            <ns3:hr>134</ns3:hr>
          </ns3:TrackPointExtension>
        </extensions>
      </trkpt>
      <trkpt lat="47.03307361342012882232666015625" lon="6.9897201843559741973876953125">
        <ele>614.4000244140625</ele>
        <time>2019-06-14T10:37:12.000Z</time>
        <extensions>
          <ns3:TrackPointExtension>
            <ns3:atemp>23.0</ns3:atemp>
            <ns3:hr>135</ns3:hr>
          </ns3:TrackPointExtension>
        </extensions>
      </trkpt>
      <trkpt lat="47.03320587985217571258544921875" lon="6.9898794405162334442138671875">
        <ele>614.79998779296875</ele>
        <time>2019-06-14T10:37:18.000Z</time>
        <extensions>
          <ns3:TrackPointExtension>
            <ns3:atemp>23.0</ns3:atemp>
            <ns3:hr>135</ns3:hr>
          </ns3:TrackPointExtension>
        </extensions>
      </trkpt>
      <trkpt lat="47.03327343799173831939697265625" lon="6.98995043523609638214111328125">
        <ele>615</ele>
        <time>2019-06-14T10:37:21.000Z</time>
        <extensions>
          <ns3:TrackPointExtension>
            <ns3:atemp>23.0</ns3:atemp>
            <ns3:hr>134</ns3:hr>
          </ns3:TrackPointExtension>
        </extensions>
      </trkpt>
      <trkpt lat="47.03336128033697605133056640625" lon="6.9900309853255748748779296875">
        <ele>615.4000244140625</ele>
        <time>2019-06-14T10:37:24.000Z</time>
        <extensions>
          <ns3:TrackPointExtension>
            <ns3:atemp>23.0</ns3:atemp>
            <ns3:hr>133</ns3:hr>
          </ns3:TrackPointExtension>
        </extensions>
      </trkpt>
      <trkpt lat="47.033489607274532318115234375" lon="6.99012838304042816162109375">
        <ele>615.20001220703125</ele>
        <time>2019-06-14T10:37:30.000Z</time>
        <extensions>
          <ns3:TrackPointExtension>
            <ns3:atemp>23.0</ns3:atemp>
            <ns3:hr>134</ns3:hr>
          </ns3:TrackPointExtension>
        </extensions>
      </trkpt>
      <trkpt lat="47.03362933360040187835693359375" lon="6.99023575522005558013916015625">
        <ele>615.4000244140625</ele>
        <time>2019-06-14T10:37:35.000Z</time>
        <extensions>
          <ns3:TrackPointExtension>
            <ns3:atemp>23.0</ns3:atemp>
            <ns3:hr>134</ns3:hr>
          </ns3:TrackPointExtension>
        </extensions>
      </trkpt>
      <trkpt lat="47.03379906713962554931640625" lon="6.99036919511854648590087890625">
        <ele>615.79998779296875</ele>
        <time>2019-06-14T10:37:40.000Z</time>
        <extensions>
          <ns3:TrackPointExtension>
            <ns3:atemp>23.0</ns3:atemp>
            <ns3:hr>134</ns3:hr>
          </ns3:TrackPointExtension>
        </extensions>
      </trkpt>
      <trkpt lat="47.0339239574968814849853515625" lon="6.99047564528882503509521484375">
        <ele>615.4000244140625</ele>
        <time>2019-06-14T10:37:44.000Z</time>
        <extensions>
          <ns3:TrackPointExtension>
            <ns3:atemp>23.0</ns3:atemp>
            <ns3:hr>135</ns3:hr>
          </ns3:TrackPointExtension>
        </extensions>
      </trkpt>
      <trkpt lat="47.03406318090856075286865234375" lon="6.9905898906290531158447265625">
        <ele>615.5999755859375</ele>
        <time>2019-06-14T10:37:49.000Z</time>
        <extensions>
          <ns3:TrackPointExtension>
            <ns3:atemp>23.0</ns3:atemp>
            <ns3:hr>135</ns3:hr>
          </ns3:TrackPointExtension>
        </extensions>
      </trkpt>
      <trkpt lat="47.03419947065412998199462890625" lon="6.990759037435054779052734375">
        <ele>615.79998779296875</ele>
        <time>2019-06-14T10:37:54.000Z</time>
        <extensions>
          <ns3:TrackPointExtension>
            <ns3:atemp>23.0</ns3:atemp>
            <ns3:hr>136</ns3:hr>
          </ns3:TrackPointExtension>
        </extensions>
      </trkpt>
      <trkpt lat="47.03426216728985309600830078125" lon="6.9908165372908115386962890625">
        <ele>616.20001220703125</ele>
        <time>2019-06-14T10:37:57.000Z</time>
        <extensions>
          <ns3:TrackPointExtension>
            <ns3:atemp>23.0</ns3:atemp>
            <ns3:hr>136</ns3:hr>
          </ns3:TrackPointExtension>
        </extensions>
      </trkpt>
      <trkpt lat="47.0343112014234066009521484375" lon="6.990847885608673095703125">
        <ele>616.20001220703125</ele>
        <time>2019-06-14T10:37:59.000Z</time>
        <extensions>
          <ns3:TrackPointExtension>
            <ns3:atemp>23.0</ns3:atemp>
            <ns3:hr>136</ns3:hr>
          </ns3:TrackPointExtension>
        </extensions>
      </trkpt>
      <trkpt lat="47.034449167549610137939453125" lon="6.9909868575632572174072265625">
        <ele>616.20001220703125</ele>
        <time>2019-06-14T10:38:04.000Z</time>
        <extensions>
          <ns3:TrackPointExtension>
            <ns3:atemp>23.0</ns3:atemp>
            <ns3:hr>134</ns3:hr>
          </ns3:TrackPointExtension>
        </extensions>
      </trkpt>
      <trkpt lat="47.03467539511620998382568359375" lon="6.991180144250392913818359375">
        <ele>616</ele>
        <time>2019-06-14T10:38:11.000Z</time>
        <extensions>
          <ns3:TrackPointExtension>
            <ns3:atemp>23.0</ns3:atemp>
            <ns3:hr>135</ns3:hr>
          </ns3:TrackPointExtension>
        </extensions>
      </trkpt>
      <trkpt lat="47.034903131425380706787109375" lon="6.9913311861455440521240234375">
        <ele>615.4000244140625</ele>
        <time>2019-06-14T10:38:18.000Z</time>
        <extensions>
          <ns3:TrackPointExtension>
            <ns3:atemp>23.0</ns3:atemp>
            <ns3:hr>136</ns3:hr>
          </ns3:TrackPointExtension>
        </extensions>
      </trkpt>
      <trkpt lat="47.0351218990981578826904296875" lon="6.991404779255390167236328125">
        <ele>615.5999755859375</ele>
        <time>2019-06-14T10:38:24.000Z</time>
        <extensions>
          <ns3:TrackPointExtension>
            <ns3:atemp>23.0</ns3:atemp>
            <ns3:hr>134</ns3:hr>
          </ns3:TrackPointExtension>
        </extensions>
      </trkpt>
      <trkpt lat="47.0352938957512378692626953125" lon="6.9914451800286769866943359375">
        <ele>615.4000244140625</ele>
        <time>2019-06-14T10:38:30.000Z</time>
        <extensions>
          <ns3:TrackPointExtension>
            <ns3:atemp>23.0</ns3:atemp>
            <ns3:hr>135</ns3:hr>
          </ns3:TrackPointExtension>
        </extensions>
      </trkpt>
      <trkpt lat="47.035387940704822540283203125" lon="6.99143587611615657806396484375">
        <ele>616.20001220703125</ele>
        <time>2019-06-14T10:38:36.000Z</time>
        <extensions>
          <ns3:TrackPointExtension>
            <ns3:atemp>23.0</ns3:atemp>
            <ns3:hr>136</ns3:hr>
          </ns3:TrackPointExtension>
        </extensions>
      </trkpt>
      <trkpt lat="47.0354846678674221038818359375" lon="6.991371922194957733154296875">
        <ele>616.79998779296875</ele>
        <time>2019-06-14T10:38:41.000Z</time>
        <extensions>
          <ns3:TrackPointExtension>
            <ns3:atemp>23.0</ns3:atemp>
            <ns3:hr>137</ns3:hr>
          </ns3:TrackPointExtension>
        </extensions>
      </trkpt>
      <trkpt lat="47.03553990460932254791259765625" lon="6.991306878626346588134765625">
        <ele>617.20001220703125</ele>
        <time>2019-06-14T10:38:45.000Z</time>
        <extensions>
          <ns3:TrackPointExtension>
            <ns3:atemp>23.0</ns3:atemp>
            <ns3:hr>137</ns3:hr>
          </ns3:TrackPointExtension>
        </extensions>
      </trkpt>
      <trkpt lat="47.0357042737305164337158203125" lon="6.99118693359196186065673828125">
        <ele>617.5999755859375</ele>
        <time>2019-06-14T10:38:49.000Z</time>
        <extensions>
          <ns3:TrackPointExtension>
            <ns3:atemp>23.0</ns3:atemp>
            <ns3:hr>138</ns3:hr>
          </ns3:TrackPointExtension>
        </extensions>
      </trkpt>
      <trkpt lat="47.03579152934253215789794921875" lon="6.9911457784473896026611328125">
        <ele>618</ele>
        <time>2019-06-14T10:38:53.000Z</time>
        <extensions>
          <ns3:TrackPointExtension>
            <ns3:atemp>23.0</ns3:atemp>
            <ns3:hr>137</ns3:hr>
          </ns3:TrackPointExtension>
        </extensions>
      </trkpt>
      <trkpt lat="47.03580946661531925201416015625" lon="6.99113412760198116302490234375">
        <ele>618.4000244140625</ele>
        <time>2019-06-14T10:38:54.000Z</time>
        <extensions>
          <ns3:TrackPointExtension>
            <ns3:atemp>23.0</ns3:atemp>
            <ns3:hr>137</ns3:hr>
          </ns3:TrackPointExtension>
        </extensions>
      </trkpt>
      <trkpt lat="47.03594089485704898834228515625" lon="6.99101946316659450531005859375">
        <ele>618.79998779296875</ele>
        <time>2019-06-14T10:38:57.000Z</time>
        <extensions>
          <ns3:TrackPointExtension>
            <ns3:atemp>23.0</ns3:atemp>
            <ns3:hr>136</ns3:hr>
          </ns3:TrackPointExtension>
        </extensions>
      </trkpt>
      <trkpt lat="47.03612026758491992950439453125" lon="6.99091921560466289520263671875">
        <ele>619</ele>
        <time>2019-06-14T10:39:02.000Z</time>
        <extensions>
          <ns3:TrackPointExtension>
            <ns3:atemp>23.0</ns3:atemp>
            <ns3:hr>137</ns3:hr>
          </ns3:TrackPointExtension>
        </extensions>
      </trkpt>
      <trkpt lat="47.03625865280628204345703125" lon="6.99092105962336063385009765625">
        <ele>619.5999755859375</ele>
        <time>2019-06-14T10:39:07.000Z</time>
        <extensions>
          <ns3:TrackPointExtension>
            <ns3:atemp>23.0</ns3:atemp>
            <ns3:hr>138</ns3:hr>
          </ns3:TrackPointExtension>
        </extensions>
      </trkpt>
      <trkpt lat="47.03646744601428508758544921875" lon="6.99106120504438877105712890625">
        <ele>619.79998779296875</ele>
        <time>2019-06-14T10:39:14.000Z</time>
        <extensions>
          <ns3:TrackPointExtension>
            <ns3:atemp>23.0</ns3:atemp>
            <ns3:hr>138</ns3:hr>
          </ns3:TrackPointExtension>
        </extensions>
      </trkpt>
      <trkpt lat="47.03661940991878509521484375" lon="6.991127841174602508544921875">
        <ele>620.20001220703125</ele>
        <time>2019-06-14T10:39:20.000Z</time>
        <extensions>
          <ns3:TrackPointExtension>
            <ns3:atemp>23.0</ns3:atemp>
            <ns3:hr>136</ns3:hr>
          </ns3:TrackPointExtension>
        </extensions>
      </trkpt>
      <trkpt lat="47.0367419533431529998779296875" lon="6.99117167852818965911865234375">
        <ele>620.20001220703125</ele>
        <time>2019-06-14T10:39:25.000Z</time>
        <extensions>
          <ns3:TrackPointExtension>
            <ns3:atemp>23.0</ns3:atemp>
            <ns3:hr>138</ns3:hr>
          </ns3:TrackPointExtension>
        </extensions>
      </trkpt>
      <trkpt lat="47.036796100437641143798828125" lon="6.99117888696491718292236328125">
        <ele>620.4000244140625</ele>
        <time>2019-06-14T10:39:28.000Z</time>
        <extensions>
          <ns3:TrackPointExtension>
            <ns3:atemp>23.0</ns3:atemp>
            <ns3:hr>137</ns3:hr>
          </ns3:TrackPointExtension>
        </extensions>
      </trkpt>
      <trkpt lat="47.036807499825954437255859375" lon="6.99117067269980907440185546875">
        <ele>620.4000244140625</ele>
        <time>2019-06-14T10:39:29.000Z</time>
        <extensions>
          <ns3:TrackPointExtension>
            <ns3:atemp>23.0</ns3:atemp>
            <ns3:hr>137</ns3:hr>
          </ns3:TrackPointExtension>
        </extensions>
      </trkpt>
      <trkpt lat="47.0368190668523311614990234375" lon="6.9911736063659191131591796875">
        <ele>620.5999755859375</ele>
        <time>2019-06-14T10:39:30.000Z</time>
        <extensions>
          <ns3:TrackPointExtension>
            <ns3:atemp>23.0</ns3:atemp>
            <ns3:hr>138</ns3:hr>
          </ns3:TrackPointExtension>
        </extensions>
      </trkpt>
      <trkpt lat="47.0368574559688568115234375" lon="6.99117972515523433685302734375">
        <ele>620.79998779296875</ele>
        <time>2019-06-14T10:39:33.000Z</time>
        <extensions>
          <ns3:TrackPointExtension>
            <ns3:atemp>23.0</ns3:atemp>
            <ns3:hr>138</ns3:hr>
          </ns3:TrackPointExtension>
        </extensions>
      </trkpt>
      <trkpt lat="47.03686826862394809722900390625" lon="6.9911695830523967742919921875">
        <ele>620.79998779296875</ele>
        <time>2019-06-14T10:39:34.000Z</time>
        <extensions>
          <ns3:TrackPointExtension>
            <ns3:atemp>23.0</ns3:atemp>
            <ns3:hr>138</ns3:hr>
          </ns3:TrackPointExtension>
        </extensions>
      </trkpt>
      <trkpt lat="47.036889307200908660888671875" lon="6.9911531545221805572509765625">
        <ele>621</ele>
        <time>2019-06-14T10:39:35.000Z</time>
        <extensions>
          <ns3:TrackPointExtension>
            <ns3:atemp>23.0</ns3:atemp>
            <ns3:hr>138</ns3:hr>
          </ns3:TrackPointExtension>
        </extensions>
      </trkpt>
      <trkpt lat="47.0369913987815380096435546875" lon="6.991155333817005157470703125">
        <ele>621.79998779296875</ele>
        <time>2019-06-14T10:39:39.000Z</time>
        <extensions>
          <ns3:TrackPointExtension>
            <ns3:atemp>23.0</ns3:atemp>
            <ns3:hr>139</ns3:hr>
          </ns3:TrackPointExtension>
        </extensions>
      </trkpt>
      <trkpt lat="47.03702199272811412811279296875" lon="6.99115826748311519622802734375">
        <ele>622</ele>
        <time>2019-06-14T10:39:40.000Z</time>
        <extensions>
          <ns3:TrackPointExtension>
            <ns3:atemp>23.0</ns3:atemp>
            <ns3:hr>139</ns3:hr>
          </ns3:TrackPointExtension>
        </extensions>
      </trkpt>
      <trkpt lat="47.03719918616116046905517578125" lon="6.991237811744213104248046875">
        <ele>622.79998779296875</ele>
        <time>2019-06-14T10:39:47.000Z</time>
        <extensions>
          <ns3:TrackPointExtension>
            <ns3:atemp>23.0</ns3:atemp>
            <ns3:hr>140</ns3:hr>
          </ns3:TrackPointExtension>
        </extensions>
      </trkpt>
      <trkpt lat="47.03721326775848865509033203125" lon="6.99124820530414581298828125">
        <ele>623</ele>
        <time>2019-06-14T10:39:48.000Z</time>
        <extensions>
          <ns3:TrackPointExtension>
            <ns3:atemp>23.0</ns3:atemp>
            <ns3:hr>139</ns3:hr>
          </ns3:TrackPointExtension>
        </extensions>
      </trkpt>
      <trkpt lat="47.03730261884629726409912109375" lon="6.99129581451416015625">
        <ele>624</ele>
        <time>2019-06-14T10:39:53.000Z</time>
        <extensions>
          <ns3:TrackPointExtension>
            <ns3:atemp>23.0</ns3:atemp>
            <ns3:hr>139</ns3:hr>
          </ns3:TrackPointExtension>
        </extensions>
      </trkpt>
      <trkpt lat="47.0373400859534740447998046875" lon="6.9913050346076488494873046875">
        <ele>624.79998779296875</ele>
        <time>2019-06-14T10:39:57.000Z</time>
        <extensions>
          <ns3:TrackPointExtension>
            <ns3:atemp>23.0</ns3:atemp>
            <ns3:hr>142</ns3:hr>
          </ns3:TrackPointExtension>
        </extensions>
      </trkpt>
      <trkpt lat="47.03737906180322170257568359375" lon="6.99133747257292270660400390625">
        <ele>625.4000244140625</ele>
        <time>2019-06-14T10:40:00.000Z</time>
        <extensions>
          <ns3:TrackPointExtension>
            <ns3:atemp>23.0</ns3:atemp>
            <ns3:hr>141</ns3:hr>
          </ns3:TrackPointExtension>
        </extensions>
      </trkpt>
      <trkpt lat="47.037421055138111114501953125" lon="6.99139597825706005096435546875">
        <ele>626.4000244140625</ele>
        <time>2019-06-14T10:40:03.000Z</time>
        <extensions>
          <ns3:TrackPointExtension>
            <ns3:atemp>23.0</ns3:atemp>
            <ns3:hr>141</ns3:hr>
          </ns3:TrackPointExtension>
        </extensions>
      </trkpt>
      <trkpt lat="47.03744712285697460174560546875" lon="6.99141927994787693023681640625">
        <ele>626.79998779296875</ele>
        <time>2019-06-14T10:40:05.000Z</time>
        <extensions>
          <ns3:TrackPointExtension>
            <ns3:atemp>23.0</ns3:atemp>
            <ns3:hr>142</ns3:hr>
          </ns3:TrackPointExtension>
        </extensions>
      </trkpt>
      <trkpt lat="47.03756111674010753631591796875" lon="6.991478540003299713134765625">
        <ele>627.5999755859375</ele>
        <time>2019-06-14T10:40:12.000Z</time>
        <extensions>
          <ns3:TrackPointExtension>
            <ns3:atemp>23.0</ns3:atemp>
            <ns3:hr>144</ns3:hr>
          </ns3:TrackPointExtension>
        </extensions>
      </trkpt>
      <trkpt lat="47.037599086761474609375" lon="6.99151776731014251708984375">
        <ele>628.20001220703125</ele>
        <time>2019-06-14T10:40:15.000Z</time>
        <extensions>
          <ns3:TrackPointExtension>
            <ns3:atemp>23.0</ns3:atemp>
            <ns3:hr>144</ns3:hr>
          </ns3:TrackPointExtension>
        </extensions>
      </trkpt>
      <trkpt lat="47.03767754137516021728515625" lon="6.99161608703434467315673828125">
        <ele>628.20001220703125</ele>
        <time>2019-06-14T10:40:19.000Z</time>
        <extensions>
          <ns3:TrackPointExtension>
            <ns3:atemp>23.0</ns3:atemp>
            <ns3:hr>145</ns3:hr>
          </ns3:TrackPointExtension>
        </extensions>
      </trkpt>
      <trkpt lat="47.037875354290008544921875" lon="6.9918320886790752410888671875">
        <ele>627</ele>
        <time>2019-06-14T10:40:25.000Z</time>
        <extensions>
          <ns3:TrackPointExtension>
            <ns3:atemp>23.0</ns3:atemp>
            <ns3:hr>146</ns3:hr>
          </ns3:TrackPointExtension>
        </extensions>
      </trkpt>
      <trkpt lat="47.0379102230072021484375" lon="6.99187441729009151458740234375">
        <ele>626.5999755859375</ele>
        <time>2019-06-14T10:40:26.000Z</time>
        <extensions>
          <ns3:TrackPointExtension>
            <ns3:atemp>23.0</ns3:atemp>
            <ns3:hr>146</ns3:hr>
          </ns3:TrackPointExtension>
        </extensions>
      </trkpt>
      <trkpt lat="47.03796847723424434661865234375" lon="6.9920161552727222442626953125">
        <ele>626</ele>
        <time>2019-06-14T10:40:29.000Z</time>
        <extensions>
          <ns3:TrackPointExtension>
            <ns3:atemp>23.0</ns3:atemp>
            <ns3:hr>144</ns3:hr>
          </ns3:TrackPointExtension>
        </extensions>
      </trkpt>
      <trkpt lat="47.03809998929500579833984375" lon="6.9922857172787189483642578125">
        <ele>626.4000244140625</ele>
        <time>2019-06-14T10:40:35.000Z</time>
        <extensions>
          <ns3:TrackPointExtension>
            <ns3:atemp>23.0</ns3:atemp>
            <ns3:hr>143</ns3:hr>
          </ns3:TrackPointExtension>
        </extensions>
      </trkpt>
      <trkpt lat="47.03817953355610370635986328125" lon="6.99253960512578487396240234375">
        <ele>627</ele>
        <time>2019-06-14T10:40:41.000Z</time>
        <extensions>
          <ns3:TrackPointExtension>
            <ns3:atemp>23.0</ns3:atemp>
            <ns3:hr>142</ns3:hr>
          </ns3:TrackPointExtension>
        </extensions>
      </trkpt>
      <trkpt lat="47.0382778532803058624267578125" lon="6.99278645217418670654296875">
        <ele>627.4000244140625</ele>
        <time>2019-06-14T10:40:47.000Z</time>
        <extensions>
          <ns3:TrackPointExtension>
            <ns3:atemp>23.0</ns3:atemp>
            <ns3:hr>143</ns3:hr>
          </ns3:TrackPointExtension>
        </extensions>
      </trkpt>
      <trkpt lat="47.0383033342659473419189453125" lon="6.99286557734012603759765625">
        <ele>627.79998779296875</ele>
        <time>2019-06-14T10:40:49.000Z</time>
        <extensions>
          <ns3:TrackPointExtension>
            <ns3:atemp>23.0</ns3:atemp>
            <ns3:hr>142</ns3:hr>
          </ns3:TrackPointExtension>
        </extensions>
      </trkpt>
      <trkpt lat="47.03838321380317211151123046875" lon="6.99304251931607723236083984375">
        <ele>628.79998779296875</ele>
        <time>2019-06-14T10:40:54.000Z</time>
        <extensions>
          <ns3:TrackPointExtension>
            <ns3:atemp>23.0</ns3:atemp>
            <ns3:hr>141</ns3:hr>
          </ns3:TrackPointExtension>
        </extensions>
      </trkpt>
      <trkpt lat="47.03838673420250415802001953125" lon="6.99307202361524105072021484375">
        <ele>629</ele>
        <time>2019-06-14T10:40:55.000Z</time>
        <extensions>
          <ns3:TrackPointExtension>
            <ns3:atemp>23.0</ns3:atemp>
            <ns3:hr>141</ns3:hr>
          </ns3:TrackPointExtension>
        </extensions>
      </trkpt>
      <trkpt lat="47.03844062983989715576171875" lon="6.99323513545095920562744140625">
        <ele>629.79998779296875</ele>
        <time>2019-06-14T10:41:00.000Z</time>
        <extensions>
          <ns3:TrackPointExtension>
            <ns3:atemp>23.0</ns3:atemp>
            <ns3:hr>142</ns3:hr>
          </ns3:TrackPointExtension>
        </extensions>
      </trkpt>
      <trkpt lat="47.03846342861652374267578125" lon="6.99329162947833538055419921875">
        <ele>630</ele>
        <time>2019-06-14T10:41:02.000Z</time>
        <extensions>
          <ns3:TrackPointExtension>
            <ns3:atemp>23.0</ns3:atemp>
            <ns3:hr>141</ns3:hr>
          </ns3:TrackPointExtension>
        </extensions>
      </trkpt>
      <trkpt lat="47.03849402256309986114501953125" lon="6.99341065250337123870849609375">
        <ele>630.79998779296875</ele>
        <time>2019-06-14T10:41:07.000Z</time>
        <extensions>
          <ns3:TrackPointExtension>
            <ns3:atemp>23.0</ns3:atemp>
            <ns3:hr>143</ns3:hr>
          </ns3:TrackPointExtension>
        </extensions>
      </trkpt>
      <trkpt lat="47.038491927087306976318359375" lon="6.9934340380132198333740234375">
        <ele>631</ele>
        <time>2019-06-14T10:41:08.000Z</time>
        <extensions>
          <ns3:TrackPointExtension>
            <ns3:atemp>23.0</ns3:atemp>
            <ns3:hr>143</ns3:hr>
          </ns3:TrackPointExtension>
        </extensions>
      </trkpt>
      <trkpt lat="47.03852788545191287994384765625" lon="6.9935493730008602142333984375">
        <ele>632.20001220703125</ele>
        <time>2019-06-14T10:41:14.000Z</time>
        <extensions>
          <ns3:TrackPointExtension>
            <ns3:atemp>23.0</ns3:atemp>
            <ns3:hr>143</ns3:hr>
          </ns3:TrackPointExtension>
        </extensions>
      </trkpt>
      <trkpt lat="47.03858655877411365509033203125" lon="6.99366562999784946441650390625">
        <ele>633.4000244140625</ele>
        <time>2019-06-14T10:41:18.000Z</time>
        <extensions>
          <ns3:TrackPointExtension>
            <ns3:atemp>23.0</ns3:atemp>
            <ns3:hr>143</ns3:hr>
          </ns3:TrackPointExtension>
        </extensions>
      </trkpt>
      <trkpt lat="47.03861924819648265838623046875" lon="6.99371072463691234588623046875">
        <ele>633.5999755859375</ele>
        <time>2019-06-14T10:41:20.000Z</time>
        <extensions>
          <ns3:TrackPointExtension>
            <ns3:atemp>23.0</ns3:atemp>
            <ns3:hr>143</ns3:hr>
          </ns3:TrackPointExtension>
        </extensions>
      </trkpt>
      <trkpt lat="47.03870977275073528289794921875" lon="6.9938424043357372283935546875">
        <ele>634.5999755859375</ele>
        <time>2019-06-14T10:41:26.000Z</time>
        <extensions>
          <ns3:TrackPointExtension>
            <ns3:atemp>23.0</ns3:atemp>
            <ns3:hr>145</ns3:hr>
          </ns3:TrackPointExtension>
        </extensions>
      </trkpt>
      <trkpt lat="47.03877188265323638916015625" lon="6.99401381425559520721435546875">
        <ele>635.20001220703125</ele>
        <time>2019-06-14T10:41:33.000Z</time>
        <extensions>
          <ns3:TrackPointExtension>
            <ns3:atemp>23.0</ns3:atemp>
            <ns3:hr>146</ns3:hr>
          </ns3:TrackPointExtension>
        </extensions>
      </trkpt>
      <trkpt lat="47.03886969946324825286865234375" lon="6.99429980479180812835693359375">
        <ele>635.4000244140625</ele>
        <time>2019-06-14T10:41:41.000Z</time>
        <extensions>
          <ns3:TrackPointExtension>
            <ns3:atemp>23.0</ns3:atemp>
            <ns3:hr>145</ns3:hr>
          </ns3:TrackPointExtension>
        </extensions>
      </trkpt>
      <trkpt lat="47.0388981141149997711181640625" lon="6.99436702765524387359619140625">
        <ele>635.5999755859375</ele>
        <time>2019-06-14T10:41:46.000Z</time>
        <extensions>
          <ns3:TrackPointExtension>
            <ns3:atemp>23.0</ns3:atemp>
            <ns3:hr>143</ns3:hr>
          </ns3:TrackPointExtension>
        </extensions>
      </trkpt>
      <trkpt lat="47.03889752738177776336669921875" lon="6.99436719529330730438232421875">
        <ele>635.79998779296875</ele>
        <time>2019-06-14T10:41:47.000Z</time>
        <extensions>
          <ns3:TrackPointExtension>
            <ns3:atemp>23.0</ns3:atemp>
            <ns3:hr>143</ns3:hr>
          </ns3:TrackPointExtension>
        </extensions>
      </trkpt>
      <trkpt lat="47.0388932526111602783203125" lon="6.994477920234203338623046875">
        <ele>635.20001220703125</ele>
        <time>2019-06-14T10:44:38.000Z</time>
        <extensions>
          <ns3:TrackPointExtension>
            <ns3:atemp>23.0</ns3:atemp>
            <ns3:hr>115</ns3:hr>
          </ns3:TrackPointExtension>
        </extensions>
      </trkpt>
      <trkpt lat="47.03889300115406513214111328125" lon="6.99447582475841045379638671875">
        <ele>635.20001220703125</ele>
        <time>2019-06-14T10:44:39.000Z</time>
        <extensions>
          <ns3:TrackPointExtension>
            <ns3:atemp>23.0</ns3:atemp>
            <ns3:hr>115</ns3:hr>
          </ns3:TrackPointExtension>
        </extensions>
      </trkpt>
      <trkpt lat="47.038894258439540863037109375" lon="6.9944626651704311370849609375">
        <ele>635.5999755859375</ele>
        <time>2019-06-14T10:44:49.000Z</time>
        <extensions>
          <ns3:TrackPointExtension>
            <ns3:atemp>23.0</ns3:atemp>
            <ns3:hr>117</ns3:hr>
          </ns3:TrackPointExtension>
        </extensions>
      </trkpt>
      <trkpt lat="47.03890331089496612548828125" lon="6.99439737014472484588623046875">
        <ele>636</ele>
        <time>2019-06-14T10:44:52.000Z</time>
        <extensions>
          <ns3:TrackPointExtension>
            <ns3:atemp>23.0</ns3:atemp>
            <ns3:hr>120</ns3:hr>
          </ns3:TrackPointExtension>
        </extensions>
      </trkpt>
      <trkpt lat="47.0389028079807758331298828125" lon="6.9943253695964813232421875">
        <ele>636.4000244140625</ele>
        <time>2019-06-14T10:44:55.000Z</time>
        <extensions>
          <ns3:TrackPointExtension>
            <ns3:atemp>23.0</ns3:atemp>
            <ns3:hr>122</ns3:hr>
          </ns3:TrackPointExtension>
        </extensions>
      </trkpt>
      <trkpt lat="47.03890155069530010223388671875" lon="6.9942819513380527496337890625">
        <ele>636.79998779296875</ele>
        <time>2019-06-14T10:44:57.000Z</time>
        <extensions>
          <ns3:TrackPointExtension>
            <ns3:atemp>23.0</ns3:atemp>
            <ns3:hr>123</ns3:hr>
          </ns3:TrackPointExtension>
        </extensions>
      </trkpt>
      <trkpt lat="47.03890490345656871795654296875" lon="6.99422570876777172088623046875">
        <ele>637.4000244140625</ele>
        <time>2019-06-14T10:44:59.000Z</time>
        <extensions>
          <ns3:TrackPointExtension>
            <ns3:atemp>23.0</ns3:atemp>
            <ns3:hr>124</ns3:hr>
          </ns3:TrackPointExtension>
        </extensions>
      </trkpt>
      <trkpt lat="47.03891336917877197265625" lon="6.99420190416276454925537109375">
        <ele>637.4000244140625</ele>
        <time>2019-06-14T10:45:00.000Z</time>
        <extensions>
          <ns3:TrackPointExtension>
            <ns3:atemp>23.0</ns3:atemp>
            <ns3:hr>124</ns3:hr>
          </ns3:TrackPointExtension>
        </extensions>
      </trkpt>
      <trkpt lat="47.0389386825263500213623046875" lon="6.994107104837894439697265625">
        <ele>638</ele>
        <time>2019-06-14T10:45:04.000Z</time>
        <extensions>
          <ns3:TrackPointExtension>
            <ns3:atemp>23.0</ns3:atemp>
            <ns3:hr>124</ns3:hr>
          </ns3:TrackPointExtension>
        </extensions>
      </trkpt>
      <trkpt lat="47.03894161619246006011962890625" lon="6.9940616749227046966552734375">
        <ele>638.79998779296875</ele>
        <time>2019-06-14T10:45:07.000Z</time>
        <extensions>
          <ns3:TrackPointExtension>
            <ns3:atemp>24.0</ns3:atemp>
            <ns3:hr>123</ns3:hr>
          </ns3:TrackPointExtension>
        </extensions>
      </trkpt>
      <trkpt lat="47.03894547186791896820068359375" lon="6.99404709041118621826171875">
        <ele>639</ele>
        <time>2019-06-14T10:45:08.000Z</time>
        <extensions>
          <ns3:TrackPointExtension>
            <ns3:atemp>24.0</ns3:atemp>
            <ns3:hr>123</ns3:hr>
          </ns3:TrackPointExtension>
        </extensions>
      </trkpt>
      <trkpt lat="47.0389735512435436248779296875" lon="6.9940224476158618927001953125">
        <ele>639.4000244140625</ele>
        <time>2019-06-14T10:45:10.000Z</time>
        <extensions>
          <ns3:TrackPointExtension>
            <ns3:atemp>24.0</ns3:atemp>
            <ns3:hr>125</ns3:hr>
          </ns3:TrackPointExtension>
        </extensions>
      </trkpt>
      <trkpt lat="47.0390064083039760589599609375" lon="6.99399302713572978973388671875">
        <ele>639.5999755859375</ele>
        <time>2019-06-14T10:45:13.000Z</time>
        <extensions>
          <ns3:TrackPointExtension>
            <ns3:atemp>24.0</ns3:atemp>
            <ns3:hr>126</ns3:hr>
          </ns3:TrackPointExtension>
        </extensions>
      </trkpt>
      <trkpt lat="47.03903968445956707000732421875" lon="6.99396955780684947967529296875">
        <ele>640</ele>
        <time>2019-06-14T10:45:15.000Z</time>
        <extensions>
          <ns3:TrackPointExtension>
            <ns3:atemp>24.0</ns3:atemp>
            <ns3:hr>127</ns3:hr>
          </ns3:TrackPointExtension>
        </extensions>
      </trkpt>
      <trkpt lat="47.039059884846210479736328125" lon="6.9939584098756313323974609375">
        <ele>640.79998779296875</ele>
        <time>2019-06-14T10:45:18.000Z</time>
        <extensions>
          <ns3:TrackPointExtension>
            <ns3:atemp>24.0</ns3:atemp>
            <ns3:hr>128</ns3:hr>
          </ns3:TrackPointExtension>
        </extensions>
      </trkpt>
      <trkpt lat="47.03911512158811092376708984375" lon="6.993943154811859130859375">
        <ele>641.20001220703125</ele>
        <time>2019-06-14T10:45:21.000Z</time>
        <extensions>
          <ns3:TrackPointExtension>
            <ns3:atemp>24.0</ns3:atemp>
            <ns3:hr>129</ns3:hr>
          </ns3:TrackPointExtension>
        </extensions>
      </trkpt>
      <trkpt lat="47.03919089399278163909912109375" lon="6.99393720366060733795166015625">
        <ele>641.79998779296875</ele>
        <time>2019-06-14T10:45:24.000Z</time>
        <extensions>
          <ns3:TrackPointExtension>
            <ns3:atemp>24.0</ns3:atemp>
            <ns3:hr>129</ns3:hr>
          </ns3:TrackPointExtension>
        </extensions>
      </trkpt>
      <trkpt lat="47.0392097532749176025390625" lon="6.9939423166215419769287109375">
        <ele>642</ele>
        <time>2019-06-14T10:45:25.000Z</time>
        <extensions>
          <ns3:TrackPointExtension>
            <ns3:atemp>24.0</ns3:atemp>
            <ns3:hr>129</ns3:hr>
          </ns3:TrackPointExtension>
        </extensions>
      </trkpt>
      <trkpt lat="47.0392602123320102691650390625" lon="6.99393041431903839111328125">
        <ele>642.4000244140625</ele>
        <time>2019-06-14T10:45:28.000Z</time>
        <extensions>
          <ns3:TrackPointExtension>
            <ns3:atemp>24.0</ns3:atemp>
            <ns3:hr>128</ns3:hr>
          </ns3:TrackPointExtension>
        </extensions>
      </trkpt>
      <trkpt lat="47.03930161893367767333984375" lon="6.9939198531210422515869140625">
        <ele>643</ele>
        <time>2019-06-14T10:45:30.000Z</time>
        <extensions>
          <ns3:TrackPointExtension>
            <ns3:atemp>24.0</ns3:atemp>
            <ns3:hr>130</ns3:hr>
          </ns3:TrackPointExtension>
        </extensions>
      </trkpt>
      <trkpt lat="47.039319388568401336669921875" lon="6.993907280266284942626953125">
        <ele>643.5999755859375</ele>
        <time>2019-06-14T10:45:32.000Z</time>
        <extensions>
          <ns3:TrackPointExtension>
            <ns3:atemp>24.0</ns3:atemp>
            <ns3:hr>131</ns3:hr>
          </ns3:TrackPointExtension>
        </extensions>
      </trkpt>
      <trkpt lat="47.03934277407824993133544921875" lon="6.99389227665960788726806640625">
        <ele>643.79998779296875</ele>
        <time>2019-06-14T10:45:34.000Z</time>
        <extensions>
          <ns3:TrackPointExtension>
            <ns3:atemp>24.0</ns3:atemp>
            <ns3:hr>133</ns3:hr>
          </ns3:TrackPointExtension>
        </extensions>
      </trkpt>
      <trkpt lat="47.03935668803751468658447265625" lon="6.99388439767062664031982421875">
        <ele>643.79998779296875</ele>
        <time>2019-06-14T10:45:35.000Z</time>
        <extensions>
          <ns3:TrackPointExtension>
            <ns3:atemp>24.0</ns3:atemp>
            <ns3:hr>133</ns3:hr>
          </ns3:TrackPointExtension>
        </extensions>
      </trkpt>
      <trkpt lat="47.0393678359687328338623046875" lon="6.993879787623882293701171875">
        <ele>644</ele>
        <time>2019-06-14T10:45:36.000Z</time>
        <extensions>
          <ns3:TrackPointExtension>
            <ns3:atemp>24.0</ns3:atemp>
            <ns3:hr>133</ns3:hr>
          </ns3:TrackPointExtension>
        </extensions>
      </trkpt>
      <trkpt lat="47.03939817845821380615234375" lon="6.99385925196111202239990234375">
        <ele>644.5999755859375</ele>
        <time>2019-06-14T10:45:40.000Z</time>
        <extensions>
          <ns3:TrackPointExtension>
            <ns3:atemp>24.0</ns3:atemp>
            <ns3:hr>134</ns3:hr>
          </ns3:TrackPointExtension>
        </extensions>
      </trkpt>
      <trkpt lat="47.0394229888916015625" lon="6.9938497804105281829833984375">
        <ele>645</ele>
        <time>2019-06-14T10:45:42.000Z</time>
        <extensions>
          <ns3:TrackPointExtension>
            <ns3:atemp>24.0</ns3:atemp>
            <ns3:hr>134</ns3:hr>
          </ns3:TrackPointExtension>
        </extensions>
      </trkpt>
      <trkpt lat="47.0394422672688961029052734375" lon="6.9938266463577747344970703125">
        <ele>645.5999755859375</ele>
        <time>2019-06-14T10:45:44.000Z</time>
        <extensions>
          <ns3:TrackPointExtension>
            <ns3:atemp>24.0</ns3:atemp>
            <ns3:hr>135</ns3:hr>
          </ns3:TrackPointExtension>
        </extensions>
      </trkpt>
      <trkpt lat="47.03944687731564044952392578125" lon="6.99381549842655658721923828125">
        <ele>645.79998779296875</ele>
        <time>2019-06-14T10:45:45.000Z</time>
        <extensions>
          <ns3:TrackPointExtension>
            <ns3:atemp>24.0</ns3:atemp>
            <ns3:hr>135</ns3:hr>
          </ns3:TrackPointExtension>
        </extensions>
      </trkpt>
      <trkpt lat="47.039483003318309783935546875" lon="6.99376353062689304351806640625">
        <ele>646.4000244140625</ele>
        <time>2019-06-14T10:45:48.000Z</time>
        <extensions>
          <ns3:TrackPointExtension>
            <ns3:atemp>24.0</ns3:atemp>
            <ns3:hr>135</ns3:hr>
          </ns3:TrackPointExtension>
        </extensions>
      </trkpt>
      <trkpt lat="47.03948727808892726898193359375" lon="6.9937414862215518951416015625">
        <ele>646.5999755859375</ele>
        <time>2019-06-14T10:45:49.000Z</time>
        <extensions>
          <ns3:TrackPointExtension>
            <ns3:atemp>24.0</ns3:atemp>
            <ns3:hr>136</ns3:hr>
          </ns3:TrackPointExtension>
        </extensions>
      </trkpt>
      <trkpt lat="47.03950303606688976287841796875" lon="6.9936831481754779815673828125">
        <ele>647</ele>
        <time>2019-06-14T10:45:52.000Z</time>
        <extensions>
          <ns3:TrackPointExtension>
            <ns3:atemp>24.0</ns3:atemp>
            <ns3:hr>136</ns3:hr>
          </ns3:TrackPointExtension>
        </extensions>
      </trkpt>
      <trkpt lat="47.03952558338642120361328125" lon="6.99362623505294322967529296875">
        <ele>647.4000244140625</ele>
        <time>2019-06-14T10:45:55.000Z</time>
        <extensions>
          <ns3:TrackPointExtension>
            <ns3:atemp>24.0</ns3:atemp>
            <ns3:hr>138</ns3:hr>
          </ns3:TrackPointExtension>
        </extensions>
      </trkpt>
      <trkpt lat="47.039519213140010833740234375" lon="6.99357502162456512451171875">
        <ele>648.20001220703125</ele>
        <time>2019-06-14T10:45:58.000Z</time>
        <extensions>
          <ns3:TrackPointExtension>
            <ns3:atemp>24.0</ns3:atemp>
            <ns3:hr>139</ns3:hr>
          </ns3:TrackPointExtension>
        </extensions>
      </trkpt>
      <trkpt lat="47.03954880125820636749267578125" lon="6.99352045543491840362548828125">
        <ele>648.5999755859375</ele>
        <time>2019-06-14T10:46:01.000Z</time>
        <extensions>
          <ns3:TrackPointExtension>
            <ns3:atemp>24.0</ns3:atemp>
            <ns3:hr>140</ns3:hr>
          </ns3:TrackPointExtension>
        </extensions>
      </trkpt>
      <trkpt lat="47.03958283178508281707763671875" lon="6.99348743073642253875732421875">
        <ele>649</ele>
        <time>2019-06-14T10:46:02.000Z</time>
        <extensions>
          <ns3:TrackPointExtension>
            <ns3:atemp>24.0</ns3:atemp>
            <ns3:hr>140</ns3:hr>
          </ns3:TrackPointExtension>
        </extensions>
      </trkpt>
      <trkpt lat="47.0396008528769016265869140625" lon="6.993458680808544158935546875">
        <ele>649.20001220703125</ele>
        <time>2019-06-14T10:46:03.000Z</time>
        <extensions>
          <ns3:TrackPointExtension>
            <ns3:atemp>24.0</ns3:atemp>
            <ns3:hr>141</ns3:hr>
          </ns3:TrackPointExtension>
        </extensions>
      </trkpt>
      <trkpt lat="47.03964804299175739288330078125" lon="6.99337209574878215789794921875">
        <ele>649.79998779296875</ele>
        <time>2019-06-14T10:46:06.000Z</time>
        <extensions>
          <ns3:TrackPointExtension>
            <ns3:atemp>24.0</ns3:atemp>
            <ns3:hr>141</ns3:hr>
          </ns3:TrackPointExtension>
        </extensions>
      </trkpt>
      <trkpt lat="47.039668746292591094970703125" lon="6.9933307729661464691162109375">
        <ele>650.20001220703125</ele>
        <time>2019-06-14T10:46:08.000Z</time>
        <extensions>
          <ns3:TrackPointExtension>
            <ns3:atemp>24.0</ns3:atemp>
            <ns3:hr>141</ns3:hr>
          </ns3:TrackPointExtension>
        </extensions>
      </trkpt>
      <trkpt lat="47.0396803133189678192138671875" lon="6.99331409297883510589599609375">
        <ele>650.20001220703125</ele>
        <time>2019-06-14T10:46:09.000Z</time>
        <extensions>
          <ns3:TrackPointExtension>
            <ns3:atemp>24.0</ns3:atemp>
            <ns3:hr>141</ns3:hr>
          </ns3:TrackPointExtension>
        </extensions>
      </trkpt>
      <trkpt lat="47.03969414345920085906982421875" lon="6.9932623766362667083740234375">
        <ele>650.5999755859375</ele>
        <time>2019-06-14T10:46:11.000Z</time>
        <extensions>
          <ns3:TrackPointExtension>
            <ns3:atemp>24.0</ns3:atemp>
            <ns3:hr>141</ns3:hr>
          </ns3:TrackPointExtension>
        </extensions>
      </trkpt>
      <trkpt lat="47.03967469744384288787841796875" lon="6.99313513934612274169921875">
        <ele>651.20001220703125</ele>
        <time>2019-06-14T10:46:15.000Z</time>
        <extensions>
          <ns3:TrackPointExtension>
            <ns3:atemp>24.0</ns3:atemp>
            <ns3:hr>141</ns3:hr>
          </ns3:TrackPointExtension>
        </extensions>
      </trkpt>
      <trkpt lat="47.03967712819576263427734375" lon="6.99309616349637508392333984375">
        <ele>651.79998779296875</ele>
        <time>2019-06-14T10:46:17.000Z</time>
        <extensions>
          <ns3:TrackPointExtension>
            <ns3:atemp>24.0</ns3:atemp>
            <ns3:hr>141</ns3:hr>
          </ns3:TrackPointExtension>
        </extensions>
      </trkpt>
      <trkpt lat="47.0396833308041095733642578125" lon="6.9930451177060604095458984375">
        <ele>652.4000244140625</ele>
        <time>2019-06-14T10:46:21.000Z</time>
        <extensions>
          <ns3:TrackPointExtension>
            <ns3:atemp>24.0</ns3:atemp>
            <ns3:hr>141</ns3:hr>
          </ns3:TrackPointExtension>
        </extensions>
      </trkpt>
      <trkpt lat="47.03967737965285778045654296875" lon="6.99303321540355682373046875">
        <ele>652.5999755859375</ele>
        <time>2019-06-14T10:46:22.000Z</time>
        <extensions>
          <ns3:TrackPointExtension>
            <ns3:atemp>24.0</ns3:atemp>
            <ns3:hr>141</ns3:hr>
          </ns3:TrackPointExtension>
        </extensions>
      </trkpt>
      <trkpt lat="47.03966111876070499420166015625" lon="6.9929321296513080596923828125">
        <ele>653.4000244140625</ele>
        <time>2019-06-14T10:46:27.000Z</time>
        <extensions>
          <ns3:TrackPointExtension>
            <ns3:atemp>24.0</ns3:atemp>
            <ns3:hr>142</ns3:hr>
          </ns3:TrackPointExtension>
        </extensions>
      </trkpt>
      <trkpt lat="47.03967302106320858001708984375" lon="6.99292383156716823577880859375">
        <ele>653.5999755859375</ele>
        <time>2019-06-14T10:46:28.000Z</time>
        <extensions>
          <ns3:TrackPointExtension>
            <ns3:atemp>24.0</ns3:atemp>
            <ns3:hr>143</ns3:hr>
          </ns3:TrackPointExtension>
        </extensions>
      </trkpt>
      <trkpt lat="47.0396886952221393585205078125" lon="6.99286046437919139862060546875">
        <ele>654.4000244140625</ele>
        <time>2019-06-14T10:46:32.000Z</time>
        <extensions>
          <ns3:TrackPointExtension>
            <ns3:atemp>24.0</ns3:atemp>
            <ns3:hr>142</ns3:hr>
          </ns3:TrackPointExtension>
        </extensions>
      </trkpt>
      <trkpt lat="47.039701603353023529052734375" lon="6.99286063201725482940673828125">
        <ele>654.5999755859375</ele>
        <time>2019-06-14T10:46:33.000Z</time>
        <extensions>
          <ns3:TrackPointExtension>
            <ns3:atemp>24.0</ns3:atemp>
            <ns3:hr>141</ns3:hr>
          </ns3:TrackPointExtension>
        </extensions>
      </trkpt>
      <trkpt lat="47.03969858586788177490234375" lon="6.99284923262894153594970703125">
        <ele>654.79998779296875</ele>
        <time>2019-06-14T10:46:34.000Z</time>
        <extensions>
          <ns3:TrackPointExtension>
            <ns3:atemp>24.0</ns3:atemp>
            <ns3:hr>141</ns3:hr>
          </ns3:TrackPointExtension>
        </extensions>
      </trkpt>
      <trkpt lat="47.0396912097930908203125" lon="6.9928018748760223388671875">
        <ele>655</ele>
        <time>2019-06-14T10:46:36.000Z</time>
        <extensions>
          <ns3:TrackPointExtension>
            <ns3:atemp>24.0</ns3:atemp>
            <ns3:hr>142</ns3:hr>
          </ns3:TrackPointExtension>
        </extensions>
      </trkpt>
      <trkpt lat="47.0396829955279827117919921875" lon="6.9927809201180934906005859375">
        <ele>655</ele>
        <time>2019-06-14T10:46:37.000Z</time>
        <extensions>
          <ns3:TrackPointExtension>
            <ns3:atemp>24.0</ns3:atemp>
            <ns3:hr>142</ns3:hr>
          </ns3:TrackPointExtension>
        </extensions>
      </trkpt>
      <trkpt lat="47.0396791398525238037109375" lon="6.9927654974162578582763671875">
        <ele>655.20001220703125</ele>
        <time>2019-06-14T10:46:38.000Z</time>
        <extensions>
          <ns3:TrackPointExtension>
            <ns3:atemp>24.0</ns3:atemp>
            <ns3:hr>143</ns3:hr>
          </ns3:TrackPointExtension>
        </extensions>
      </trkpt>
      <trkpt lat="47.03969028778374195098876953125" lon="6.99271964840590953826904296875">
        <ele>655.5999755859375</ele>
        <time>2019-06-14T10:46:40.000Z</time>
        <extensions>
          <ns3:TrackPointExtension>
            <ns3:atemp>24.0</ns3:atemp>
            <ns3:hr>143</ns3:hr>
          </ns3:TrackPointExtension>
        </extensions>
      </trkpt>
      <trkpt lat="47.0396880246698856353759765625" lon="6.99268712662160396575927734375">
        <ele>655.79998779296875</ele>
        <time>2019-06-14T10:46:42.000Z</time>
        <extensions>
          <ns3:TrackPointExtension>
            <ns3:atemp>24.0</ns3:atemp>
            <ns3:hr>143</ns3:hr>
          </ns3:TrackPointExtension>
        </extensions>
      </trkpt>
      <trkpt lat="47.03970571048557758331298828125" lon="6.99261881411075592041015625">
        <ele>656.4000244140625</ele>
        <time>2019-06-14T10:46:46.000Z</time>
        <extensions>
          <ns3:TrackPointExtension>
            <ns3:atemp>24.0</ns3:atemp>
            <ns3:hr>142</ns3:hr>
          </ns3:TrackPointExtension>
        </extensions>
      </trkpt>
      <trkpt lat="47.0397168584167957305908203125" lon="6.99260003864765167236328125">
        <ele>656.5999755859375</ele>
        <time>2019-06-14T10:46:47.000Z</time>
        <extensions>
          <ns3:TrackPointExtension>
            <ns3:atemp>24.0</ns3:atemp>
            <ns3:hr>142</ns3:hr>
          </ns3:TrackPointExtension>
        </extensions>
      </trkpt>
      <trkpt lat="47.03971962444484233856201171875" lon="6.99254111386835575103759765625">
        <ele>657.20001220703125</ele>
        <time>2019-06-14T10:46:50.000Z</time>
        <extensions>
          <ns3:TrackPointExtension>
            <ns3:atemp>24.0</ns3:atemp>
            <ns3:hr>143</ns3:hr>
          </ns3:TrackPointExtension>
        </extensions>
      </trkpt>
      <trkpt lat="47.0396826602518558502197265625" lon="6.992470957338809967041015625">
        <ele>657.79998779296875</ele>
        <time>2019-06-14T10:46:53.000Z</time>
        <extensions>
          <ns3:TrackPointExtension>
            <ns3:atemp>24.0</ns3:atemp>
            <ns3:hr>143</ns3:hr>
          </ns3:TrackPointExtension>
        </extensions>
      </trkpt>
      <trkpt lat="47.0397084765136241912841796875" lon="6.99237129651010036468505859375">
        <ele>658.5999755859375</ele>
        <time>2019-06-14T10:46:58.000Z</time>
        <extensions>
          <ns3:TrackPointExtension>
            <ns3:atemp>24.0</ns3:atemp>
            <ns3:hr>144</ns3:hr>
          </ns3:TrackPointExtension>
        </extensions>
      </trkpt>
      <trkpt lat="47.03972515650093555450439453125" lon="6.99235419742763042449951171875">
        <ele>658.79998779296875</ele>
        <time>2019-06-14T10:46:59.000Z</time>
        <extensions>
          <ns3:TrackPointExtension>
            <ns3:atemp>24.0</ns3:atemp>
            <ns3:hr>144</ns3:hr>
          </ns3:TrackPointExtension>
        </extensions>
      </trkpt>
      <trkpt lat="47.039738483726978302001953125" lon="6.99232385493814945220947265625">
        <ele>659</ele>
        <time>2019-06-14T10:47:01.000Z</time>
        <extensions>
          <ns3:TrackPointExtension>
            <ns3:atemp>24.0</ns3:atemp>
            <ns3:hr>144</ns3:hr>
          </ns3:TrackPointExtension>
        </extensions>
      </trkpt>
      <trkpt lat="47.0397862605750560760498046875" lon="6.9922806881368160247802734375">
        <ele>659.4000244140625</ele>
        <time>2019-06-14T10:47:04.000Z</time>
        <extensions>
          <ns3:TrackPointExtension>
            <ns3:atemp>24.0</ns3:atemp>
            <ns3:hr>145</ns3:hr>
          </ns3:TrackPointExtension>
        </extensions>
      </trkpt>
      <trkpt lat="47.03979724086821079254150390625" lon="6.99222930707037448883056640625">
        <ele>660</ele>
        <time>2019-06-14T10:47:07.000Z</time>
        <extensions>
          <ns3:TrackPointExtension>
            <ns3:atemp>24.0</ns3:atemp>
            <ns3:hr>146</ns3:hr>
          </ns3:TrackPointExtension>
        </extensions>
      </trkpt>
      <trkpt lat="47.03979975543916225433349609375" lon="6.9921653531491756439208984375">
        <ele>660.5999755859375</ele>
        <time>2019-06-14T10:47:10.000Z</time>
        <extensions>
          <ns3:TrackPointExtension>
            <ns3:atemp>24.0</ns3:atemp>
            <ns3:hr>146</ns3:hr>
          </ns3:TrackPointExtension>
        </extensions>
      </trkpt>
      <trkpt lat="47.03978349454700946807861328125" lon="6.9921194203197956085205078125">
        <ele>661</ele>
        <time>2019-06-14T10:47:12.000Z</time>
        <extensions>
          <ns3:TrackPointExtension>
            <ns3:atemp>24.0</ns3:atemp>
            <ns3:hr>146</ns3:hr>
          </ns3:TrackPointExtension>
        </extensions>
      </trkpt>
      <trkpt lat="47.0397570915520191192626953125" lon="6.99208765290677547454833984375">
        <ele>661.20001220703125</ele>
        <time>2019-06-14T10:47:13.000Z</time>
        <extensions>
          <ns3:TrackPointExtension>
            <ns3:atemp>24.0</ns3:atemp>
            <ns3:hr>146</ns3:hr>
          </ns3:TrackPointExtension>
        </extensions>
      </trkpt>
      <trkpt lat="47.03972901217639446258544921875" lon="6.992016993463039398193359375">
        <ele>661.20001220703125</ele>
        <time>2019-06-14T10:47:15.000Z</time>
        <extensions>
          <ns3:TrackPointExtension>
            <ns3:atemp>24.0</ns3:atemp>
            <ns3:hr>146</ns3:hr>
          </ns3:TrackPointExtension>
        </extensions>
      </trkpt>
      <trkpt lat="47.03968341462314128875732421875" lon="6.9919179193675518035888671875">
        <ele>662</ele>
        <time>2019-06-14T10:47:19.000Z</time>
        <extensions>
          <ns3:TrackPointExtension>
            <ns3:atemp>24.0</ns3:atemp>
            <ns3:hr>146</ns3:hr>
          </ns3:TrackPointExtension>
        </extensions>
      </trkpt>
      <trkpt lat="47.039671428501605987548828125" lon="6.991865448653697967529296875">
        <ele>662.4000244140625</ele>
        <time>2019-06-14T10:47:21.000Z</time>
        <extensions>
          <ns3:TrackPointExtension>
            <ns3:atemp>24.0</ns3:atemp>
            <ns3:hr>147</ns3:hr>
          </ns3:TrackPointExtension>
        </extensions>
      </trkpt>
      <trkpt lat="47.03964821062982082366943359375" lon="6.99181708507239818572998046875">
        <ele>663</ele>
        <time>2019-06-14T10:47:24.000Z</time>
        <extensions>
          <ns3:TrackPointExtension>
            <ns3:atemp>24.0</ns3:atemp>
            <ns3:hr>147</ns3:hr>
          </ns3:TrackPointExtension>
        </extensions>
      </trkpt>
      <trkpt lat="47.039643265306949615478515625" lon="6.9917747564613819122314453125">
        <ele>663.4000244140625</ele>
        <time>2019-06-14T10:47:26.000Z</time>
        <extensions>
          <ns3:TrackPointExtension>
            <ns3:atemp>24.0</ns3:atemp>
            <ns3:hr>147</ns3:hr>
          </ns3:TrackPointExtension>
        </extensions>
      </trkpt>
      <trkpt lat="47.039640583097934722900390625" lon="6.991751454770565032958984375">
        <ele>663.5999755859375</ele>
        <time>2019-06-14T10:47:27.000Z</time>
        <extensions>
          <ns3:TrackPointExtension>
            <ns3:atemp>24.0</ns3:atemp>
            <ns3:hr>147</ns3:hr>
          </ns3:TrackPointExtension>
        </extensions>
      </trkpt>
      <trkpt lat="47.03964284621179103851318359375" lon="6.99169613420963287353515625">
        <ele>664</ele>
        <time>2019-06-14T10:47:30.000Z</time>
        <extensions>
          <ns3:TrackPointExtension>
            <ns3:atemp>24.0</ns3:atemp>
            <ns3:hr>146</ns3:hr>
          </ns3:TrackPointExtension>
        </extensions>
      </trkpt>
      <trkpt lat="47.039650976657867431640625" lon="6.99168364517390727996826171875">
        <ele>664</ele>
        <time>2019-06-14T10:47:31.000Z</time>
        <extensions>
          <ns3:TrackPointExtension>
            <ns3:atemp>24.0</ns3:atemp>
            <ns3:hr>146</ns3:hr>
          </ns3:TrackPointExtension>
        </extensions>
      </trkpt>
      <trkpt lat="47.03963815234601497650146484375" lon="6.99166671372950077056884765625">
        <ele>664</ele>
        <time>2019-06-14T10:47:32.000Z</time>
        <extensions>
          <ns3:TrackPointExtension>
            <ns3:atemp>24.0</ns3:atemp>
            <ns3:hr>146</ns3:hr>
          </ns3:TrackPointExtension>
        </extensions>
      </trkpt>
      <trkpt lat="47.03964888118207454681396484375" lon="6.9916389696300029754638671875">
        <ele>664.5999755859375</ele>
        <time>2019-06-14T10:47:34.000Z</time>
        <extensions>
          <ns3:TrackPointExtension>
            <ns3:atemp>24.0</ns3:atemp>
            <ns3:hr>146</ns3:hr>
          </ns3:TrackPointExtension>
        </extensions>
      </trkpt>
      <trkpt lat="47.0396833308041095733642578125" lon="6.99154718779027462005615234375">
        <ele>665.4000244140625</ele>
        <time>2019-06-14T10:47:39.000Z</time>
        <extensions>
          <ns3:TrackPointExtension>
            <ns3:atemp>24.0</ns3:atemp>
            <ns3:hr>146</ns3:hr>
          </ns3:TrackPointExtension>
        </extensions>
      </trkpt>
      <trkpt lat="47.0396840013563632965087890625" lon="6.99151114560663700103759765625">
        <ele>665.5999755859375</ele>
        <time>2019-06-14T10:47:41.000Z</time>
        <extensions>
          <ns3:TrackPointExtension>
            <ns3:atemp>24.0</ns3:atemp>
            <ns3:hr>146</ns3:hr>
          </ns3:TrackPointExtension>
        </extensions>
      </trkpt>
      <trkpt lat="47.03968584537506103515625" lon="6.99143738485872745513916015625">
        <ele>666.20001220703125</ele>
        <time>2019-06-14T10:47:45.000Z</time>
        <extensions>
          <ns3:TrackPointExtension>
            <ns3:atemp>24.0</ns3:atemp>
            <ns3:hr>145</ns3:hr>
          </ns3:TrackPointExtension>
        </extensions>
      </trkpt>
      <trkpt lat="47.03967151232063770294189453125" lon="6.9913905300199985504150390625">
        <ele>666.79998779296875</ele>
        <time>2019-06-14T10:47:47.000Z</time>
        <extensions>
          <ns3:TrackPointExtension>
            <ns3:atemp>24.0</ns3:atemp>
            <ns3:hr>146</ns3:hr>
          </ns3:TrackPointExtension>
        </extensions>
      </trkpt>
      <trkpt lat="47.03965877182781696319580078125" lon="6.99134551919996738433837890625">
        <ele>667.4000244140625</ele>
        <time>2019-06-14T10:47:49.000Z</time>
        <extensions>
          <ns3:TrackPointExtension>
            <ns3:atemp>24.0</ns3:atemp>
            <ns3:hr>146</ns3:hr>
          </ns3:TrackPointExtension>
        </extensions>
      </trkpt>
      <trkpt lat="47.03962608240544795989990234375" lon="6.9912953115999698638916015625">
        <ele>667.79998779296875</ele>
        <time>2019-06-14T10:47:51.000Z</time>
        <extensions>
          <ns3:TrackPointExtension>
            <ns3:atemp>24.0</ns3:atemp>
            <ns3:hr>146</ns3:hr>
          </ns3:TrackPointExtension>
        </extensions>
      </trkpt>
      <trkpt lat="47.0396013557910919189453125" lon="6.99124895967543125152587890625">
        <ele>668</ele>
        <time>2019-06-14T10:47:53.000Z</time>
        <extensions>
          <ns3:TrackPointExtension>
            <ns3:atemp>24.0</ns3:atemp>
            <ns3:hr>146</ns3:hr>
          </ns3:TrackPointExtension>
        </extensions>
      </trkpt>
      <trkpt lat="47.039543688297271728515625" lon="6.99115776456892490386962890625">
        <ele>668.4000244140625</ele>
        <time>2019-06-14T10:47:57.000Z</time>
        <extensions>
          <ns3:TrackPointExtension>
            <ns3:atemp>24.0</ns3:atemp>
            <ns3:hr>145</ns3:hr>
          </ns3:TrackPointExtension>
        </extensions>
      </trkpt>
      <trkpt lat="47.0395116694271564483642578125" lon="6.9910985045135021209716796875">
        <ele>668.79998779296875</ele>
        <time>2019-06-14T10:48:01.000Z</time>
        <extensions>
          <ns3:TrackPointExtension>
            <ns3:atemp>24.0</ns3:atemp>
            <ns3:hr>145</ns3:hr>
          </ns3:TrackPointExtension>
        </extensions>
      </trkpt>
      <trkpt lat="47.03949431888759136199951171875" lon="6.9910917989909648895263671875">
        <ele>669</ele>
        <time>2019-06-14T10:48:02.000Z</time>
        <extensions>
          <ns3:TrackPointExtension>
            <ns3:atemp>24.0</ns3:atemp>
            <ns3:hr>145</ns3:hr>
          </ns3:TrackPointExtension>
        </extensions>
      </trkpt>
      <trkpt lat="47.03945106826722621917724609375" lon="6.99104511179029941558837890625">
        <ele>669.79998779296875</ele>
        <time>2019-06-14T10:48:08.000Z</time>
        <extensions>
          <ns3:TrackPointExtension>
            <ns3:atemp>24.0</ns3:atemp>
            <ns3:hr>144</ns3:hr>
          </ns3:TrackPointExtension>
        </extensions>
      </trkpt>
      <trkpt lat="47.03942776657640933990478515625" lon="6.99103840626776218414306640625">
        <ele>669.79998779296875</ele>
        <time>2019-06-14T10:48:09.000Z</time>
        <extensions>
          <ns3:TrackPointExtension>
            <ns3:atemp>24.0</ns3:atemp>
            <ns3:hr>144</ns3:hr>
          </ns3:TrackPointExtension>
        </extensions>
      </trkpt>
      <trkpt lat="47.039401195943355560302734375" lon="6.9909650646150112152099609375">
        <ele>670.5999755859375</ele>
        <time>2019-06-14T10:48:13.000Z</time>
        <extensions>
          <ns3:TrackPointExtension>
            <ns3:atemp>24.0</ns3:atemp>
            <ns3:hr>145</ns3:hr>
          </ns3:TrackPointExtension>
        </extensions>
      </trkpt>
      <trkpt lat="47.03940211795270442962646484375" lon="6.990913935005664825439453125">
        <ele>671</ele>
        <time>2019-06-14T10:48:16.000Z</time>
        <extensions>
          <ns3:TrackPointExtension>
            <ns3:atemp>24.0</ns3:atemp>
            <ns3:hr>145</ns3:hr>
          </ns3:TrackPointExtension>
        </extensions>
      </trkpt>
      <trkpt lat="47.03939675353467464447021484375" lon="6.9908617995679378509521484375">
        <ele>671.5999755859375</ele>
        <time>2019-06-14T10:48:20.000Z</time>
        <extensions>
          <ns3:TrackPointExtension>
            <ns3:atemp>24.0</ns3:atemp>
            <ns3:hr>145</ns3:hr>
          </ns3:TrackPointExtension>
        </extensions>
      </trkpt>
      <trkpt lat="47.039419971406459808349609375" lon="6.9908322952687740325927734375">
        <ele>672</ele>
        <time>2019-06-14T10:48:21.000Z</time>
        <extensions>
          <ns3:TrackPointExtension>
            <ns3:atemp>24.0</ns3:atemp>
            <ns3:hr>145</ns3:hr>
          </ns3:TrackPointExtension>
        </extensions>
      </trkpt>
      <trkpt lat="47.0394285209476947784423828125" lon="6.9907716102898120880126953125">
        <ele>672.4000244140625</ele>
        <time>2019-06-14T10:48:25.000Z</time>
        <extensions>
          <ns3:TrackPointExtension>
            <ns3:atemp>24.0</ns3:atemp>
            <ns3:hr>146</ns3:hr>
          </ns3:TrackPointExtension>
        </extensions>
      </trkpt>
      <trkpt lat="47.0394060574471950531005859375" lon="6.990699358284473419189453125">
        <ele>673</ele>
        <time>2019-06-14T10:48:29.000Z</time>
        <extensions>
          <ns3:TrackPointExtension>
            <ns3:atemp>24.0</ns3:atemp>
            <ns3:hr>145</ns3:hr>
          </ns3:TrackPointExtension>
        </extensions>
      </trkpt>
      <trkpt lat="47.03938971273601055145263671875" lon="6.99068066664040088653564453125">
        <ele>673</ele>
        <time>2019-06-14T10:48:30.000Z</time>
        <extensions>
          <ns3:TrackPointExtension>
            <ns3:atemp>24.0</ns3:atemp>
            <ns3:hr>145</ns3:hr>
          </ns3:TrackPointExtension>
        </extensions>
      </trkpt>
      <trkpt lat="47.03936171717941761016845703125" lon="6.99061009101569652557373046875">
        <ele>673.5999755859375</ele>
        <time>2019-06-14T10:48:33.000Z</time>
        <extensions>
          <ns3:TrackPointExtension>
            <ns3:atemp>24.0</ns3:atemp>
            <ns3:hr>145</ns3:hr>
          </ns3:TrackPointExtension>
        </extensions>
      </trkpt>
      <trkpt lat="47.03936138190329074859619140625" lon="6.99058913625776767730712890625">
        <ele>673.79998779296875</ele>
        <time>2019-06-14T10:48:34.000Z</time>
        <extensions>
          <ns3:TrackPointExtension>
            <ns3:atemp>24.0</ns3:atemp>
            <ns3:hr>145</ns3:hr>
          </ns3:TrackPointExtension>
        </extensions>
      </trkpt>
      <trkpt lat="47.0393510721623897552490234375" lon="6.99055661447346210479736328125">
        <ele>674</ele>
        <time>2019-06-14T10:48:36.000Z</time>
        <extensions>
          <ns3:TrackPointExtension>
            <ns3:atemp>24.0</ns3:atemp>
            <ns3:hr>145</ns3:hr>
          </ns3:TrackPointExtension>
        </extensions>
      </trkpt>
      <trkpt lat="47.0392471365630626678466796875" lon="6.9905191473662853240966796875">
        <ele>674.79998779296875</ele>
        <time>2019-06-14T10:48:40.000Z</time>
        <extensions>
          <ns3:TrackPointExtension>
            <ns3:atemp>24.0</ns3:atemp>
            <ns3:hr>145</ns3:hr>
          </ns3:TrackPointExtension>
        </extensions>
      </trkpt>
      <trkpt lat="47.03922777436673641204833984375" lon="6.99048469774425029754638671875">
        <ele>675.20001220703125</ele>
        <time>2019-06-14T10:48:42.000Z</time>
        <extensions>
          <ns3:TrackPointExtension>
            <ns3:atemp>24.0</ns3:atemp>
            <ns3:hr>145</ns3:hr>
          </ns3:TrackPointExtension>
        </extensions>
      </trkpt>
      <trkpt lat="47.03920715488493442535400390625" lon="6.99044144712388515472412109375">
        <ele>675.79998779296875</ele>
        <time>2019-06-14T10:48:45.000Z</time>
        <extensions>
          <ns3:TrackPointExtension>
            <ns3:atemp>24.0</ns3:atemp>
            <ns3:hr>144</ns3:hr>
          </ns3:TrackPointExtension>
        </extensions>
      </trkpt>
      <trkpt lat="47.0391683466732501983642578125" lon="6.99039987288415431976318359375">
        <ele>676.20001220703125</ele>
        <time>2019-06-14T10:48:47.000Z</time>
        <extensions>
          <ns3:TrackPointExtension>
            <ns3:atemp>24.0</ns3:atemp>
            <ns3:hr>144</ns3:hr>
          </ns3:TrackPointExtension>
        </extensions>
      </trkpt>
      <trkpt lat="47.03915049321949481964111328125" lon="6.9903830252587795257568359375">
        <ele>676.4000244140625</ele>
        <time>2019-06-14T10:48:49.000Z</time>
        <extensions>
          <ns3:TrackPointExtension>
            <ns3:atemp>24.0</ns3:atemp>
            <ns3:hr>144</ns3:hr>
          </ns3:TrackPointExtension>
        </extensions>
      </trkpt>
      <trkpt lat="47.03917480073869228363037109375" lon="6.990338265895843505859375">
        <ele>676.4000244140625</ele>
        <time>2019-06-14T10:48:51.000Z</time>
        <extensions>
          <ns3:TrackPointExtension>
            <ns3:atemp>24.0</ns3:atemp>
            <ns3:hr>144</ns3:hr>
          </ns3:TrackPointExtension>
        </extensions>
      </trkpt>
      <trkpt lat="47.03915535472333431243896484375" lon="6.9902750663459300994873046875">
        <ele>676.79998779296875</ele>
        <time>2019-06-14T10:48:54.000Z</time>
        <extensions>
          <ns3:TrackPointExtension>
            <ns3:atemp>24.0</ns3:atemp>
            <ns3:hr>145</ns3:hr>
          </ns3:TrackPointExtension>
        </extensions>
      </trkpt>
      <trkpt lat="47.0391193963587284088134765625" lon="6.99026023037731647491455078125">
        <ele>677.4000244140625</ele>
        <time>2019-06-14T10:48:56.000Z</time>
        <extensions>
          <ns3:TrackPointExtension>
            <ns3:atemp>24.0</ns3:atemp>
            <ns3:hr>145</ns3:hr>
          </ns3:TrackPointExtension>
        </extensions>
      </trkpt>
      <trkpt lat="47.0390972681343555450439453125" lon="6.99023759923875331878662109375">
        <ele>678</ele>
        <time>2019-06-14T10:48:58.000Z</time>
        <extensions>
          <ns3:TrackPointExtension>
            <ns3:atemp>24.0</ns3:atemp>
            <ns3:hr>146</ns3:hr>
          </ns3:TrackPointExtension>
        </extensions>
      </trkpt>
      <trkpt lat="47.0390878804028034210205078125" lon="6.99021262116730213165283203125">
        <ele>678.20001220703125</ele>
        <time>2019-06-14T10:48:59.000Z</time>
        <extensions>
          <ns3:TrackPointExtension>
            <ns3:atemp>24.0</ns3:atemp>
            <ns3:hr>146</ns3:hr>
          </ns3:TrackPointExtension>
        </extensions>
      </trkpt>
      <trkpt lat="47.0390892215073108673095703125" lon="6.99013852514326572418212890625">
        <ele>678.4000244140625</ele>
        <time>2019-06-14T10:49:01.000Z</time>
        <extensions>
          <ns3:TrackPointExtension>
            <ns3:atemp>24.0</ns3:atemp>
            <ns3:hr>146</ns3:hr>
          </ns3:TrackPointExtension>
        </extensions>
      </trkpt>
      <trkpt lat="47.0390908978879451751708984375" lon="6.99011589400470256805419921875">
        <ele>678.5999755859375</ele>
        <time>2019-06-14T10:49:02.000Z</time>
        <extensions>
          <ns3:TrackPointExtension>
            <ns3:atemp>24.0</ns3:atemp>
            <ns3:hr>146</ns3:hr>
          </ns3:TrackPointExtension>
        </extensions>
      </trkpt>
      <trkpt lat="47.03907656483352184295654296875" lon="6.99010415934026241302490234375">
        <ele>678.5999755859375</ele>
        <time>2019-06-14T10:49:03.000Z</time>
        <extensions>
          <ns3:TrackPointExtension>
            <ns3:atemp>24.0</ns3:atemp>
            <ns3:hr>145</ns3:hr>
          </ns3:TrackPointExtension>
        </extensions>
      </trkpt>
      <trkpt lat="47.03903398476541042327880859375" lon="6.99007683433592319488525390625">
        <ele>679</ele>
        <time>2019-06-14T10:49:05.000Z</time>
        <extensions>
          <ns3:TrackPointExtension>
            <ns3:atemp>24.0</ns3:atemp>
            <ns3:hr>145</ns3:hr>
          </ns3:TrackPointExtension>
        </extensions>
      </trkpt>
      <trkpt lat="47.03900121152400970458984375" lon="6.9900293089449405670166015625">
        <ele>679.20001220703125</ele>
        <time>2019-06-14T10:49:07.000Z</time>
        <extensions>
          <ns3:TrackPointExtension>
            <ns3:atemp>24.0</ns3:atemp>
            <ns3:hr>144</ns3:hr>
          </ns3:TrackPointExtension>
        </extensions>
      </trkpt>
      <trkpt lat="47.03894966281950473785400390625" lon="6.98997859843075275421142578125">
        <ele>679.5999755859375</ele>
        <time>2019-06-14T10:49:10.000Z</time>
        <extensions>
          <ns3:TrackPointExtension>
            <ns3:atemp>24.0</ns3:atemp>
            <ns3:hr>144</ns3:hr>
          </ns3:TrackPointExtension>
        </extensions>
      </trkpt>
      <trkpt lat="47.03889065422117710113525390625" lon="6.98993132449686527252197265625">
        <ele>680.20001220703125</ele>
        <time>2019-06-14T10:49:13.000Z</time>
        <extensions>
          <ns3:TrackPointExtension>
            <ns3:atemp>24.0</ns3:atemp>
            <ns3:hr>143</ns3:hr>
          </ns3:TrackPointExtension>
        </extensions>
      </trkpt>
      <trkpt lat="47.03883047215640544891357421875" lon="6.989907436072826385498046875">
        <ele>680.79998779296875</ele>
        <time>2019-06-14T10:49:16.000Z</time>
        <extensions>
          <ns3:TrackPointExtension>
            <ns3:atemp>24.0</ns3:atemp>
            <ns3:hr>143</ns3:hr>
          </ns3:TrackPointExtension>
        </extensions>
      </trkpt>
      <trkpt lat="47.03879174776375293731689453125" lon="6.989843063056468963623046875">
        <ele>681.20001220703125</ele>
        <time>2019-06-14T10:49:19.000Z</time>
        <extensions>
          <ns3:TrackPointExtension>
            <ns3:atemp>24.0</ns3:atemp>
            <ns3:hr>143</ns3:hr>
          </ns3:TrackPointExtension>
        </extensions>
      </trkpt>
      <trkpt lat="47.03876651823520660400390625" lon="6.9897795282304286956787109375">
        <ele>681.4000244140625</ele>
        <time>2019-06-14T10:49:22.000Z</time>
        <extensions>
          <ns3:TrackPointExtension>
            <ns3:atemp>24.0</ns3:atemp>
            <ns3:hr>143</ns3:hr>
          </ns3:TrackPointExtension>
        </extensions>
      </trkpt>
      <trkpt lat="47.03874598257243633270263671875" lon="6.98973569087684154510498046875">
        <ele>681.5999755859375</ele>
        <time>2019-06-14T10:49:24.000Z</time>
        <extensions>
          <ns3:TrackPointExtension>
            <ns3:atemp>24.0</ns3:atemp>
            <ns3:hr>143</ns3:hr>
          </ns3:TrackPointExtension>
        </extensions>
      </trkpt>
      <trkpt lat="47.03871211968362331390380859375" lon="6.9897205196321010589599609375">
        <ele>681.79998779296875</ele>
        <time>2019-06-14T10:49:26.000Z</time>
        <extensions>
          <ns3:TrackPointExtension>
            <ns3:atemp>24.0</ns3:atemp>
            <ns3:hr>143</ns3:hr>
          </ns3:TrackPointExtension>
        </extensions>
      </trkpt>
      <trkpt lat="47.03867339529097080230712890625" lon="6.9896621815860271453857421875">
        <ele>682.5999755859375</ele>
        <time>2019-06-14T10:49:30.000Z</time>
        <extensions>
          <ns3:TrackPointExtension>
            <ns3:atemp>24.0</ns3:atemp>
            <ns3:hr>142</ns3:hr>
          </ns3:TrackPointExtension>
        </extensions>
      </trkpt>
      <trkpt lat="47.038663588464260101318359375" lon="6.98965472169220447540283203125">
        <ele>682.79998779296875</ele>
        <time>2019-06-14T10:49:31.000Z</time>
        <extensions>
          <ns3:TrackPointExtension>
            <ns3:atemp>24.0</ns3:atemp>
            <ns3:hr>142</ns3:hr>
          </ns3:TrackPointExtension>
        </extensions>
      </trkpt>
      <trkpt lat="47.03861220739781856536865234375" lon="6.9896075315773487091064453125">
        <ele>683.4000244140625</ele>
        <time>2019-06-14T10:49:36.000Z</time>
        <extensions>
          <ns3:TrackPointExtension>
            <ns3:atemp>24.0</ns3:atemp>
            <ns3:hr>142</ns3:hr>
          </ns3:TrackPointExtension>
        </extensions>
      </trkpt>
      <trkpt lat="47.0386007241904735565185546875" lon="6.98959521017968654632568359375">
        <ele>683.79998779296875</ele>
        <time>2019-06-14T10:49:38.000Z</time>
        <extensions>
          <ns3:TrackPointExtension>
            <ns3:atemp>24.0</ns3:atemp>
            <ns3:hr>142</ns3:hr>
          </ns3:TrackPointExtension>
        </extensions>
      </trkpt>
      <trkpt lat="47.03859351575374603271484375" lon="6.9895166717469692230224609375">
        <ele>684.4000244140625</ele>
        <time>2019-06-14T10:49:42.000Z</time>
        <extensions>
          <ns3:TrackPointExtension>
            <ns3:atemp>24.0</ns3:atemp>
            <ns3:hr>143</ns3:hr>
          </ns3:TrackPointExtension>
        </extensions>
      </trkpt>
      <trkpt lat="47.03860692679882049560546875" lon="6.98947124183177947998046875">
        <ele>684.79998779296875</ele>
        <time>2019-06-14T10:49:44.000Z</time>
        <extensions>
          <ns3:TrackPointExtension>
            <ns3:atemp>24.0</ns3:atemp>
            <ns3:hr>142</ns3:hr>
          </ns3:TrackPointExtension>
        </extensions>
      </trkpt>
      <trkpt lat="47.038595862686634063720703125" lon="6.98942187242209911346435546875">
        <ele>685.20001220703125</ele>
        <time>2019-06-14T10:49:46.000Z</time>
        <extensions>
          <ns3:TrackPointExtension>
            <ns3:atemp>24.0</ns3:atemp>
            <ns3:hr>142</ns3:hr>
          </ns3:TrackPointExtension>
        </extensions>
      </trkpt>
      <trkpt lat="47.03855621628463268280029296875" lon="6.98934693820774555206298828125">
        <ele>685.79998779296875</ele>
        <time>2019-06-14T10:49:50.000Z</time>
        <extensions>
          <ns3:TrackPointExtension>
            <ns3:atemp>24.0</ns3:atemp>
            <ns3:hr>143</ns3:hr>
          </ns3:TrackPointExtension>
        </extensions>
      </trkpt>
      <trkpt lat="47.03853811137378215789794921875" lon="6.989291198551654815673828125">
        <ele>686.20001220703125</ele>
        <time>2019-06-14T10:49:53.000Z</time>
        <extensions>
          <ns3:TrackPointExtension>
            <ns3:atemp>24.0</ns3:atemp>
            <ns3:hr>142</ns3:hr>
          </ns3:TrackPointExtension>
        </extensions>
      </trkpt>
      <trkpt lat="47.038493938744068145751953125" lon="6.98920209892094135284423828125">
        <ele>687</ele>
        <time>2019-06-14T10:49:59.000Z</time>
        <extensions>
          <ns3:TrackPointExtension>
            <ns3:atemp>24.0</ns3:atemp>
            <ns3:hr>143</ns3:hr>
          </ns3:TrackPointExtension>
        </extensions>
      </trkpt>
      <trkpt lat="47.03837432898581027984619140625" lon="6.989149712026119232177734375">
        <ele>687.79998779296875</ele>
        <time>2019-06-14T10:50:05.000Z</time>
        <extensions>
          <ns3:TrackPointExtension>
            <ns3:atemp>24.0</ns3:atemp>
            <ns3:hr>143</ns3:hr>
          </ns3:TrackPointExtension>
        </extensions>
      </trkpt>
      <trkpt lat="47.03830827958881855010986328125" lon="6.98916018940508365631103515625">
        <ele>688.20001220703125</ele>
        <time>2019-06-14T10:50:07.000Z</time>
        <extensions>
          <ns3:TrackPointExtension>
            <ns3:atemp>24.0</ns3:atemp>
            <ns3:hr>143</ns3:hr>
          </ns3:TrackPointExtension>
        </extensions>
      </trkpt>
      <trkpt lat="47.03823141753673553466796875" lon="6.98915817774832248687744140625">
        <ele>688.5999755859375</ele>
        <time>2019-06-14T10:50:10.000Z</time>
        <extensions>
          <ns3:TrackPointExtension>
            <ns3:atemp>24.0</ns3:atemp>
            <ns3:hr>144</ns3:hr>
          </ns3:TrackPointExtension>
        </extensions>
      </trkpt>
      <trkpt lat="47.038174755871295928955078125" lon="6.9891351275146007537841796875">
        <ele>689.20001220703125</ele>
        <time>2019-06-14T10:50:13.000Z</time>
        <extensions>
          <ns3:TrackPointExtension>
            <ns3:atemp>24.0</ns3:atemp>
            <ns3:hr>143</ns3:hr>
          </ns3:TrackPointExtension>
        </extensions>
      </trkpt>
      <trkpt lat="47.03817869536578655242919921875" lon="6.98909598402678966522216796875">
        <ele>689.5999755859375</ele>
        <time>2019-06-14T10:50:15.000Z</time>
        <extensions>
          <ns3:TrackPointExtension>
            <ns3:atemp>24.0</ns3:atemp>
            <ns3:hr>143</ns3:hr>
          </ns3:TrackPointExtension>
        </extensions>
      </trkpt>
      <trkpt lat="47.03819177113473415374755859375" lon="6.9890640489757061004638671875">
        <ele>689.79998779296875</ele>
        <time>2019-06-14T10:50:16.000Z</time>
        <extensions>
          <ns3:TrackPointExtension>
            <ns3:atemp>24.0</ns3:atemp>
            <ns3:hr>142</ns3:hr>
          </ns3:TrackPointExtension>
        </extensions>
      </trkpt>
      <trkpt lat="47.03818355686962604522705078125" lon="6.9890345446765422821044921875">
        <ele>690.20001220703125</ele>
        <time>2019-06-14T10:50:19.000Z</time>
        <extensions>
          <ns3:TrackPointExtension>
            <ns3:atemp>25.0</ns3:atemp>
            <ns3:hr>142</ns3:hr>
          </ns3:TrackPointExtension>
        </extensions>
      </trkpt>
      <trkpt lat="47.03816913999617099761962890625" lon="6.98903412558138370513916015625">
        <ele>690.4000244140625</ele>
        <time>2019-06-14T10:50:20.000Z</time>
        <extensions>
          <ns3:TrackPointExtension>
            <ns3:atemp>25.0</ns3:atemp>
            <ns3:hr>142</ns3:hr>
          </ns3:TrackPointExtension>
        </extensions>
      </trkpt>
      <trkpt lat="47.0381712354719638824462890625" lon="6.98899858631193637847900390625">
        <ele>690.4000244140625</ele>
        <time>2019-06-14T10:50:22.000Z</time>
        <extensions>
          <ns3:TrackPointExtension>
            <ns3:atemp>25.0</ns3:atemp>
            <ns3:hr>143</ns3:hr>
          </ns3:TrackPointExtension>
        </extensions>
      </trkpt>
      <trkpt lat="47.03815606422722339630126953125" lon="6.98897838592529296875">
        <ele>690.4000244140625</ele>
        <time>2019-06-14T10:50:24.000Z</time>
        <extensions>
          <ns3:TrackPointExtension>
            <ns3:atemp>25.0</ns3:atemp>
            <ns3:hr>143</ns3:hr>
          </ns3:TrackPointExtension>
        </extensions>
      </trkpt>
      <trkpt lat="47.03815153799951076507568359375" lon="6.9889624603092670440673828125">
        <ele>690.79998779296875</ele>
        <time>2019-06-14T10:50:25.000Z</time>
        <extensions>
          <ns3:TrackPointExtension>
            <ns3:atemp>25.0</ns3:atemp>
            <ns3:hr>143</ns3:hr>
          </ns3:TrackPointExtension>
        </extensions>
      </trkpt>
      <trkpt lat="47.038145251572132110595703125" lon="6.98887453414499759674072265625">
        <ele>691.4000244140625</ele>
        <time>2019-06-14T10:50:29.000Z</time>
        <extensions>
          <ns3:TrackPointExtension>
            <ns3:atemp>25.0</ns3:atemp>
            <ns3:hr>144</ns3:hr>
          </ns3:TrackPointExtension>
        </extensions>
      </trkpt>
      <trkpt lat="47.0381279848515987396240234375" lon="6.98882390744984149932861328125">
        <ele>692</ele>
        <time>2019-06-14T10:50:32.000Z</time>
        <extensions>
          <ns3:TrackPointExtension>
            <ns3:atemp>25.0</ns3:atemp>
            <ns3:hr>144</ns3:hr>
          </ns3:TrackPointExtension>
        </extensions>
      </trkpt>
      <trkpt lat="47.03810040839016437530517578125" lon="6.98879322968423366546630859375">
        <ele>692.20001220703125</ele>
        <time>2019-06-14T10:50:34.000Z</time>
        <extensions>
          <ns3:TrackPointExtension>
            <ns3:atemp>25.0</ns3:atemp>
            <ns3:hr>143</ns3:hr>
          </ns3:TrackPointExtension>
        </extensions>
      </trkpt>
      <trkpt lat="47.03808129765093326568603515625" lon="6.98875098489224910736083984375">
        <ele>692.4000244140625</ele>
        <time>2019-06-14T10:50:36.000Z</time>
        <extensions>
          <ns3:TrackPointExtension>
            <ns3:atemp>25.0</ns3:atemp>
            <ns3:hr>143</ns3:hr>
          </ns3:TrackPointExtension>
        </extensions>
      </trkpt>
      <trkpt lat="47.03804559074342250823974609375" lon="6.98865744285285472869873046875">
        <ele>693.20001220703125</ele>
        <time>2019-06-14T10:50:40.000Z</time>
        <extensions>
          <ns3:TrackPointExtension>
            <ns3:atemp>25.0</ns3:atemp>
            <ns3:hr>144</ns3:hr>
          </ns3:TrackPointExtension>
        </extensions>
      </trkpt>
      <trkpt lat="47.03805036842823028564453125" lon="6.98863380588591098785400390625">
        <ele>693.20001220703125</ele>
        <time>2019-06-14T10:50:41.000Z</time>
        <extensions>
          <ns3:TrackPointExtension>
            <ns3:atemp>25.0</ns3:atemp>
            <ns3:hr>144</ns3:hr>
          </ns3:TrackPointExtension>
        </extensions>
      </trkpt>
      <trkpt lat="47.03804626129567623138427734375" lon="6.98857597075402736663818359375">
        <ele>693.4000244140625</ele>
        <time>2019-06-14T10:50:43.000Z</time>
        <extensions>
          <ns3:TrackPointExtension>
            <ns3:atemp>25.0</ns3:atemp>
            <ns3:hr>144</ns3:hr>
          </ns3:TrackPointExtension>
        </extensions>
      </trkpt>
      <trkpt lat="47.03803536482155323028564453125" lon="6.988526098430156707763671875">
        <ele>693.79998779296875</ele>
        <time>2019-06-14T10:50:45.000Z</time>
        <extensions>
          <ns3:TrackPointExtension>
            <ns3:atemp>25.0</ns3:atemp>
            <ns3:hr>144</ns3:hr>
          </ns3:TrackPointExtension>
        </extensions>
      </trkpt>
      <trkpt lat="47.03801608644425868988037109375" lon="6.98848326690495014190673828125">
        <ele>694.20001220703125</ele>
        <time>2019-06-14T10:50:47.000Z</time>
        <extensions>
          <ns3:TrackPointExtension>
            <ns3:atemp>25.0</ns3:atemp>
            <ns3:hr>144</ns3:hr>
          </ns3:TrackPointExtension>
        </extensions>
      </trkpt>
      <trkpt lat="47.03800384886562824249267578125" lon="6.9884675927460193634033203125">
        <ele>694.5999755859375</ele>
        <time>2019-06-14T10:50:48.000Z</time>
        <extensions>
          <ns3:TrackPointExtension>
            <ns3:atemp>25.0</ns3:atemp>
            <ns3:hr>145</ns3:hr>
          </ns3:TrackPointExtension>
        </extensions>
      </trkpt>
      <trkpt lat="47.03797719441354274749755859375" lon="6.98842920362949371337890625">
        <ele>695</ele>
        <time>2019-06-14T10:50:51.000Z</time>
        <extensions>
          <ns3:TrackPointExtension>
            <ns3:atemp>25.0</ns3:atemp>
            <ns3:hr>145</ns3:hr>
          </ns3:TrackPointExtension>
        </extensions>
      </trkpt>
      <trkpt lat="47.03793914057314395904541015625" lon="6.988402716815471649169921875">
        <ele>695.5999755859375</ele>
        <time>2019-06-14T10:50:54.000Z</time>
        <extensions>
          <ns3:TrackPointExtension>
            <ns3:atemp>25.0</ns3:atemp>
            <ns3:hr>146</ns3:hr>
          </ns3:TrackPointExtension>
        </extensions>
      </trkpt>
      <trkpt lat="47.03790745697915554046630859375" lon="6.98837245814502239227294921875">
        <ele>696.20001220703125</ele>
        <time>2019-06-14T10:50:57.000Z</time>
        <extensions>
          <ns3:TrackPointExtension>
            <ns3:atemp>25.0</ns3:atemp>
            <ns3:hr>146</ns3:hr>
          </ns3:TrackPointExtension>
        </extensions>
      </trkpt>
      <trkpt lat="47.03789656050503253936767578125" lon="6.98832753114402294158935546875">
        <ele>696.5999755859375</ele>
        <time>2019-06-14T10:51:00.000Z</time>
        <extensions>
          <ns3:TrackPointExtension>
            <ns3:atemp>25.0</ns3:atemp>
            <ns3:hr>146</ns3:hr>
          </ns3:TrackPointExtension>
        </extensions>
      </trkpt>
      <trkpt lat="47.0378738455474376678466796875" lon="6.9883199036121368408203125">
        <ele>697</ele>
        <time>2019-06-14T10:51:02.000Z</time>
        <extensions>
          <ns3:TrackPointExtension>
            <ns3:atemp>25.0</ns3:atemp>
            <ns3:hr>145</ns3:hr>
          </ns3:TrackPointExtension>
        </extensions>
      </trkpt>
      <trkpt lat="47.03776831738650798797607421875" lon="6.98827824555337429046630859375">
        <ele>697.5999755859375</ele>
        <time>2019-06-14T10:51:07.000Z</time>
        <extensions>
          <ns3:TrackPointExtension>
            <ns3:atemp>25.0</ns3:atemp>
            <ns3:hr>145</ns3:hr>
          </ns3:TrackPointExtension>
        </extensions>
      </trkpt>
      <trkpt lat="47.03775130212306976318359375" lon="6.9882630743086338043212890625">
        <ele>697.79998779296875</ele>
        <time>2019-06-14T10:51:08.000Z</time>
        <extensions>
          <ns3:TrackPointExtension>
            <ns3:atemp>25.0</ns3:atemp>
            <ns3:hr>145</ns3:hr>
          </ns3:TrackPointExtension>
        </extensions>
      </trkpt>
      <trkpt lat="47.0377078838646411895751953125" lon="6.988203562796115875244140625">
        <ele>698.4000244140625</ele>
        <time>2019-06-14T10:51:12.000Z</time>
        <extensions>
          <ns3:TrackPointExtension>
            <ns3:atemp>25.0</ns3:atemp>
            <ns3:hr>145</ns3:hr>
          </ns3:TrackPointExtension>
        </extensions>
      </trkpt>
      <trkpt lat="47.037696652114391326904296875" lon="6.98816006071865558624267578125">
        <ele>698.79998779296875</ele>
        <time>2019-06-14T10:51:14.000Z</time>
        <extensions>
          <ns3:TrackPointExtension>
            <ns3:atemp>25.0</ns3:atemp>
            <ns3:hr>145</ns3:hr>
          </ns3:TrackPointExtension>
        </extensions>
      </trkpt>
      <trkpt lat="47.03764828853309154510498046875" lon="6.98811043985188007354736328125">
        <ele>699.5999755859375</ele>
        <time>2019-06-14T10:51:18.000Z</time>
        <extensions>
          <ns3:TrackPointExtension>
            <ns3:atemp>25.0</ns3:atemp>
            <ns3:hr>145</ns3:hr>
          </ns3:TrackPointExtension>
        </extensions>
      </trkpt>
      <trkpt lat="47.0376156829297542572021484375" lon="6.9880919158458709716796875">
        <ele>699.79998779296875</ele>
        <time>2019-06-14T10:51:20.000Z</time>
        <extensions>
          <ns3:TrackPointExtension>
            <ns3:atemp>25.0</ns3:atemp>
            <ns3:hr>144</ns3:hr>
          </ns3:TrackPointExtension>
        </extensions>
      </trkpt>
      <trkpt lat="47.037592045962810516357421875" lon="6.98803114704787731170654296875">
        <ele>700.4000244140625</ele>
        <time>2019-06-14T10:51:24.000Z</time>
        <extensions>
          <ns3:TrackPointExtension>
            <ns3:atemp>25.0</ns3:atemp>
            <ns3:hr>145</ns3:hr>
          </ns3:TrackPointExtension>
        </extensions>
      </trkpt>
      <trkpt lat="47.03761593438684940338134765625" lon="6.98795788921415805816650390625">
        <ele>700.79998779296875</ele>
        <time>2019-06-14T10:51:26.000Z</time>
        <extensions>
          <ns3:TrackPointExtension>
            <ns3:atemp>25.0</ns3:atemp>
            <ns3:hr>146</ns3:hr>
          </ns3:TrackPointExtension>
        </extensions>
      </trkpt>
      <trkpt lat="47.03761450946331024169921875" lon="6.9879234395921230316162109375">
        <ele>701</ele>
        <time>2019-06-14T10:51:27.000Z</time>
        <extensions>
          <ns3:TrackPointExtension>
            <ns3:atemp>25.0</ns3:atemp>
            <ns3:hr>145</ns3:hr>
          </ns3:TrackPointExtension>
        </extensions>
      </trkpt>
      <trkpt lat="47.03761325217783451080322265625" lon="6.98786350898444652557373046875">
        <ele>701.4000244140625</ele>
        <time>2019-06-14T10:51:29.000Z</time>
        <extensions>
          <ns3:TrackPointExtension>
            <ns3:atemp>25.0</ns3:atemp>
            <ns3:hr>145</ns3:hr>
          </ns3:TrackPointExtension>
        </extensions>
      </trkpt>
      <trkpt lat="47.03761459328234195709228515625" lon="6.98781791143119335174560546875">
        <ele>701.4000244140625</ele>
        <time>2019-06-14T10:51:31.000Z</time>
        <extensions>
          <ns3:TrackPointExtension>
            <ns3:atemp>25.0</ns3:atemp>
            <ns3:hr>144</ns3:hr>
          </ns3:TrackPointExtension>
        </extensions>
      </trkpt>
      <trkpt lat="47.03755508176982402801513671875" lon="6.98776812292635440826416015625">
        <ele>701.5999755859375</ele>
        <time>2019-06-14T10:51:34.000Z</time>
        <extensions>
          <ns3:TrackPointExtension>
            <ns3:atemp>25.0</ns3:atemp>
            <ns3:hr>144</ns3:hr>
          </ns3:TrackPointExtension>
        </extensions>
      </trkpt>
      <trkpt lat="47.0375006832182407379150390625" lon="6.9877298176288604736328125">
        <ele>702</ele>
        <time>2019-06-14T10:51:37.000Z</time>
        <extensions>
          <ns3:TrackPointExtension>
            <ns3:atemp>25.0</ns3:atemp>
            <ns3:hr>144</ns3:hr>
          </ns3:TrackPointExtension>
        </extensions>
      </trkpt>
      <trkpt lat="47.03744175843894481658935546875" lon="6.98766469024121761322021484375">
        <ele>702.79998779296875</ele>
        <time>2019-06-14T10:51:41.000Z</time>
        <extensions>
          <ns3:TrackPointExtension>
            <ns3:atemp>25.0</ns3:atemp>
            <ns3:hr>144</ns3:hr>
          </ns3:TrackPointExtension>
        </extensions>
      </trkpt>
      <trkpt lat="47.037425078451633453369140625" lon="6.98763133026659488677978515625">
        <ele>703.20001220703125</ele>
        <time>2019-06-14T10:51:43.000Z</time>
        <extensions>
          <ns3:TrackPointExtension>
            <ns3:atemp>25.0</ns3:atemp>
            <ns3:hr>143</ns3:hr>
          </ns3:TrackPointExtension>
        </extensions>
      </trkpt>
      <trkpt lat="47.03735031187534332275390625" lon="6.98758254759013652801513671875">
        <ele>703.4000244140625</ele>
        <time>2019-06-14T10:51:47.000Z</time>
        <extensions>
          <ns3:TrackPointExtension>
            <ns3:atemp>25.0</ns3:atemp>
            <ns3:hr>143</ns3:hr>
          </ns3:TrackPointExtension>
        </extensions>
      </trkpt>
      <trkpt lat="47.03726959414780139923095703125" lon="6.9875127263367176055908203125">
        <ele>704.20001220703125</ele>
        <time>2019-06-14T10:51:52.000Z</time>
        <extensions>
          <ns3:TrackPointExtension>
            <ns3:atemp>25.0</ns3:atemp>
            <ns3:hr>143</ns3:hr>
          </ns3:TrackPointExtension>
        </extensions>
      </trkpt>
      <trkpt lat="47.03726037405431270599365234375" lon="6.98749621398746967315673828125">
        <ele>704.4000244140625</ele>
        <time>2019-06-14T10:51:53.000Z</time>
        <extensions>
          <ns3:TrackPointExtension>
            <ns3:atemp>25.0</ns3:atemp>
            <ns3:hr>143</ns3:hr>
          </ns3:TrackPointExtension>
        </extensions>
      </trkpt>
      <trkpt lat="47.037238664925098419189453125" lon="6.98746721260249614715576171875">
        <ele>704.5999755859375</ele>
        <time>2019-06-14T10:51:56.000Z</time>
        <extensions>
          <ns3:TrackPointExtension>
            <ns3:atemp>25.0</ns3:atemp>
            <ns3:hr>143</ns3:hr>
          </ns3:TrackPointExtension>
        </extensions>
      </trkpt>
      <trkpt lat="47.03721997328102588653564453125" lon="6.98743946850299835205078125">
        <ele>705</ele>
        <time>2019-06-14T10:51:58.000Z</time>
        <extensions>
          <ns3:TrackPointExtension>
            <ns3:atemp>25.0</ns3:atemp>
            <ns3:hr>143</ns3:hr>
          </ns3:TrackPointExtension>
        </extensions>
      </trkpt>
      <trkpt lat="47.03720991499722003936767578125" lon="6.987410970032215118408203125">
        <ele>705.20001220703125</ele>
        <time>2019-06-14T10:52:00.000Z</time>
        <extensions>
          <ns3:TrackPointExtension>
            <ns3:atemp>25.0</ns3:atemp>
            <ns3:hr>143</ns3:hr>
          </ns3:TrackPointExtension>
        </extensions>
      </trkpt>
      <trkpt lat="47.0371811650693416595458984375" lon="6.98735539801418781280517578125">
        <ele>706.4000244140625</ele>
        <time>2019-06-14T10:52:04.000Z</time>
        <extensions>
          <ns3:TrackPointExtension>
            <ns3:atemp>25.0</ns3:atemp>
            <ns3:hr>144</ns3:hr>
          </ns3:TrackPointExtension>
        </extensions>
      </trkpt>
      <trkpt lat="47.03717957250773906707763671875" lon="6.9873363710939884185791015625">
        <ele>706.5999755859375</ele>
        <time>2019-06-14T10:52:05.000Z</time>
        <extensions>
          <ns3:TrackPointExtension>
            <ns3:atemp>25.0</ns3:atemp>
            <ns3:hr>144</ns3:hr>
          </ns3:TrackPointExtension>
        </extensions>
      </trkpt>
      <trkpt lat="47.03713305294513702392578125" lon="6.9872223772108554840087890625">
        <ele>707.4000244140625</ele>
        <time>2019-06-14T10:52:12.000Z</time>
        <extensions>
          <ns3:TrackPointExtension>
            <ns3:atemp>25.0</ns3:atemp>
            <ns3:hr>144</ns3:hr>
          </ns3:TrackPointExtension>
        </extensions>
      </trkpt>
      <trkpt lat="47.037091813981533050537109375" lon="6.98718122206628322601318359375">
        <ele>707.5999755859375</ele>
        <time>2019-06-14T10:52:15.000Z</time>
        <extensions>
          <ns3:TrackPointExtension>
            <ns3:atemp>25.0</ns3:atemp>
            <ns3:hr>144</ns3:hr>
          </ns3:TrackPointExtension>
        </extensions>
      </trkpt>
      <trkpt lat="47.0370386727154254913330078125" lon="6.98714987374842166900634765625">
        <ele>707.79998779296875</ele>
        <time>2019-06-14T10:52:17.000Z</time>
        <extensions>
          <ns3:TrackPointExtension>
            <ns3:atemp>25.0</ns3:atemp>
            <ns3:hr>144</ns3:hr>
          </ns3:TrackPointExtension>
        </extensions>
      </trkpt>
      <trkpt lat="47.03696851618587970733642578125" lon="6.98708818294107913970947265625">
        <ele>708.5999755859375</ele>
        <time>2019-06-14T10:52:21.000Z</time>
        <extensions>
          <ns3:TrackPointExtension>
            <ns3:atemp>25.0</ns3:atemp>
            <ns3:hr>144</ns3:hr>
          </ns3:TrackPointExtension>
        </extensions>
      </trkpt>
      <trkpt lat="47.03697304241359233856201171875" lon="6.98706119321286678314208984375">
        <ele>708.5999755859375</ele>
        <time>2019-06-14T10:52:22.000Z</time>
        <extensions>
          <ns3:TrackPointExtension>
            <ns3:atemp>25.0</ns3:atemp>
            <ns3:hr>144</ns3:hr>
          </ns3:TrackPointExtension>
        </extensions>
      </trkpt>
      <trkpt lat="47.03693230636417865753173828125" lon="6.98700000531971454620361328125">
        <ele>709.20001220703125</ele>
        <time>2019-06-14T10:52:26.000Z</time>
        <extensions>
          <ns3:TrackPointExtension>
            <ns3:atemp>25.0</ns3:atemp>
            <ns3:hr>144</ns3:hr>
          </ns3:TrackPointExtension>
        </extensions>
      </trkpt>
      <trkpt lat="47.03690481372177600860595703125" lon="6.9869608618319034576416015625">
        <ele>709.4000244140625</ele>
        <time>2019-06-14T10:52:28.000Z</time>
        <extensions>
          <ns3:TrackPointExtension>
            <ns3:atemp>25.0</ns3:atemp>
            <ns3:hr>144</ns3:hr>
          </ns3:TrackPointExtension>
        </extensions>
      </trkpt>
      <trkpt lat="47.03688469715416431427001953125" lon="6.98685784824192523956298828125">
        <ele>709.5999755859375</ele>
        <time>2019-06-14T10:52:31.000Z</time>
        <extensions>
          <ns3:TrackPointExtension>
            <ns3:atemp>25.0</ns3:atemp>
            <ns3:hr>144</ns3:hr>
          </ns3:TrackPointExtension>
        </extensions>
      </trkpt>
      <trkpt lat="47.0368757285177707672119140625" lon="6.9868274219334125518798828125">
        <ele>709.5999755859375</ele>
        <time>2019-06-14T10:52:32.000Z</time>
        <extensions>
          <ns3:TrackPointExtension>
            <ns3:atemp>25.0</ns3:atemp>
            <ns3:hr>144</ns3:hr>
          </ns3:TrackPointExtension>
        </extensions>
      </trkpt>
      <trkpt lat="47.03677640296518802642822265625" lon="6.9867506437003612518310546875">
        <ele>710.20001220703125</ele>
        <time>2019-06-14T10:52:37.000Z</time>
        <extensions>
          <ns3:TrackPointExtension>
            <ns3:atemp>25.0</ns3:atemp>
            <ns3:hr>144</ns3:hr>
          </ns3:TrackPointExtension>
        </extensions>
      </trkpt>
      <trkpt lat="47.0367396064102649688720703125" lon="6.986682079732418060302734375">
        <ele>710.79998779296875</ele>
        <time>2019-06-14T10:52:41.000Z</time>
        <extensions>
          <ns3:TrackPointExtension>
            <ns3:atemp>25.0</ns3:atemp>
            <ns3:hr>144</ns3:hr>
          </ns3:TrackPointExtension>
        </extensions>
      </trkpt>
      <trkpt lat="47.03671253286302089691162109375" lon="6.9866457022726535797119140625">
        <ele>710.79998779296875</ele>
        <time>2019-06-14T10:52:43.000Z</time>
        <extensions>
          <ns3:TrackPointExtension>
            <ns3:atemp>25.0</ns3:atemp>
            <ns3:hr>143</ns3:hr>
          </ns3:TrackPointExtension>
        </extensions>
      </trkpt>
      <trkpt lat="47.0366883091628551483154296875" lon="6.98662634007632732391357421875">
        <ele>711</ele>
        <time>2019-06-14T10:52:44.000Z</time>
        <extensions>
          <ns3:TrackPointExtension>
            <ns3:atemp>25.0</ns3:atemp>
            <ns3:hr>143</ns3:hr>
          </ns3:TrackPointExtension>
        </extensions>
      </trkpt>
      <trkpt lat="47.03665964305400848388671875" lon="6.98657638393342494964599609375">
        <ele>711.20001220703125</ele>
        <time>2019-06-14T10:52:47.000Z</time>
        <extensions>
          <ns3:TrackPointExtension>
            <ns3:atemp>25.0</ns3:atemp>
            <ns3:hr>143</ns3:hr>
          </ns3:TrackPointExtension>
        </extensions>
      </trkpt>
      <trkpt lat="47.03661664389073848724365234375" lon="6.98652810417115688323974609375">
        <ele>711.5999755859375</ele>
        <time>2019-06-14T10:52:51.000Z</time>
        <extensions>
          <ns3:TrackPointExtension>
            <ns3:atemp>25.0</ns3:atemp>
            <ns3:hr>143</ns3:hr>
          </ns3:TrackPointExtension>
        </extensions>
      </trkpt>
      <trkpt lat="47.0366085134446620941162109375" lon="6.9865209795534610748291015625">
        <ele>711.79998779296875</ele>
        <time>2019-06-14T10:52:52.000Z</time>
        <extensions>
          <ns3:TrackPointExtension>
            <ns3:atemp>25.0</ns3:atemp>
            <ns3:hr>143</ns3:hr>
          </ns3:TrackPointExtension>
        </extensions>
      </trkpt>
      <trkpt lat="47.036591582000255584716796875" lon="6.98651134036481380462646484375">
        <ele>712.79998779296875</ele>
        <time>2019-06-14T10:52:55.000Z</time>
        <extensions>
          <ns3:TrackPointExtension>
            <ns3:atemp>25.0</ns3:atemp>
            <ns3:hr>142</ns3:hr>
          </ns3:TrackPointExtension>
        </extensions>
      </trkpt>
      <trkpt lat="47.036571465432643890380859375" lon="6.98649072088301181793212890625">
        <ele>712.79998779296875</ele>
        <time>2019-06-14T10:52:57.000Z</time>
        <extensions>
          <ns3:TrackPointExtension>
            <ns3:atemp>25.0</ns3:atemp>
            <ns3:hr>142</ns3:hr>
          </ns3:TrackPointExtension>
        </extensions>
      </trkpt>
      <trkpt lat="47.0365655981004238128662109375" lon="6.98646322824060916900634765625">
        <ele>713</ele>
        <time>2019-06-14T10:52:58.000Z</time>
        <extensions>
          <ns3:TrackPointExtension>
            <ns3:atemp>25.0</ns3:atemp>
            <ns3:hr>142</ns3:hr>
          </ns3:TrackPointExtension>
        </extensions>
      </trkpt>
      <trkpt lat="47.0365337468683719635009765625" lon="6.986427940428256988525390625">
        <ele>713.20001220703125</ele>
        <time>2019-06-14T10:53:00.000Z</time>
        <extensions>
          <ns3:TrackPointExtension>
            <ns3:atemp>25.0</ns3:atemp>
            <ns3:hr>143</ns3:hr>
          </ns3:TrackPointExtension>
        </extensions>
      </trkpt>
      <trkpt lat="47.036500386893749237060546875" lon="6.98636817745864391326904296875">
        <ele>714</ele>
        <time>2019-06-14T10:53:03.000Z</time>
        <extensions>
          <ns3:TrackPointExtension>
            <ns3:atemp>25.0</ns3:atemp>
            <ns3:hr>143</ns3:hr>
          </ns3:TrackPointExtension>
        </extensions>
      </trkpt>
      <trkpt lat="47.03642226755619049072265625" lon="6.98627849109470844268798828125">
        <ele>714.79998779296875</ele>
        <time>2019-06-14T10:53:08.000Z</time>
        <extensions>
          <ns3:TrackPointExtension>
            <ns3:atemp>25.0</ns3:atemp>
            <ns3:hr>144</ns3:hr>
          </ns3:TrackPointExtension>
        </extensions>
      </trkpt>
      <trkpt lat="47.03643743880093097686767578125" lon="6.986233480274677276611328125">
        <ele>715</ele>
        <time>2019-06-14T10:53:09.000Z</time>
        <extensions>
          <ns3:TrackPointExtension>
            <ns3:atemp>25.0</ns3:atemp>
            <ns3:hr>144</ns3:hr>
          </ns3:TrackPointExtension>
        </extensions>
      </trkpt>
      <trkpt lat="47.03636736609041690826416015625" lon="6.98614873923361301422119140625">
        <ele>716</ele>
        <time>2019-06-14T10:53:14.000Z</time>
        <extensions>
          <ns3:TrackPointExtension>
            <ns3:atemp>25.0</ns3:atemp>
            <ns3:hr>144</ns3:hr>
          </ns3:TrackPointExtension>
        </extensions>
      </trkpt>
      <trkpt lat="47.03634138219058513641357421875" lon="6.9861223362386226654052734375">
        <ele>716.4000244140625</ele>
        <time>2019-06-14T10:53:16.000Z</time>
        <extensions>
          <ns3:TrackPointExtension>
            <ns3:atemp>25.0</ns3:atemp>
            <ns3:hr>144</ns3:hr>
          </ns3:TrackPointExtension>
        </extensions>
      </trkpt>
      <trkpt lat="47.0363272167742252349853515625" lon="6.98607833124697208404541015625">
        <ele>717.20001220703125</ele>
        <time>2019-06-14T10:53:19.000Z</time>
        <extensions>
          <ns3:TrackPointExtension>
            <ns3:atemp>25.0</ns3:atemp>
            <ns3:hr>144</ns3:hr>
          </ns3:TrackPointExtension>
        </extensions>
      </trkpt>
      <trkpt lat="47.0363138057291507720947265625" lon="6.9860700331628322601318359375">
        <ele>717.4000244140625</ele>
        <time>2019-06-14T10:53:20.000Z</time>
        <extensions>
          <ns3:TrackPointExtension>
            <ns3:atemp>25.0</ns3:atemp>
            <ns3:hr>144</ns3:hr>
          </ns3:TrackPointExtension>
        </extensions>
      </trkpt>
      <trkpt lat="47.03630835749208927154541015625" lon="6.9860375113785266876220703125">
        <ele>717.79998779296875</ele>
        <time>2019-06-14T10:53:22.000Z</time>
        <extensions>
          <ns3:TrackPointExtension>
            <ns3:atemp>25.0</ns3:atemp>
            <ns3:hr>145</ns3:hr>
          </ns3:TrackPointExtension>
        </extensions>
      </trkpt>
      <trkpt lat="47.036298550665378570556640625" lon="6.9860254414379596710205078125">
        <ele>717.79998779296875</ele>
        <time>2019-06-14T10:53:23.000Z</time>
        <extensions>
          <ns3:TrackPointExtension>
            <ns3:atemp>25.0</ns3:atemp>
            <ns3:hr>145</ns3:hr>
          </ns3:TrackPointExtension>
        </extensions>
      </trkpt>
      <trkpt lat="47.0363134704530239105224609375" lon="6.9859583862125873565673828125">
        <ele>718</ele>
        <time>2019-06-14T10:53:25.000Z</time>
        <extensions>
          <ns3:TrackPointExtension>
            <ns3:atemp>25.0</ns3:atemp>
            <ns3:hr>146</ns3:hr>
          </ns3:TrackPointExtension>
        </extensions>
      </trkpt>
      <trkpt lat="47.03631363809108734130859375" lon="6.98593114502727985382080078125">
        <ele>718.20001220703125</ele>
        <time>2019-06-14T10:53:26.000Z</time>
        <extensions>
          <ns3:TrackPointExtension>
            <ns3:atemp>25.0</ns3:atemp>
            <ns3:hr>146</ns3:hr>
          </ns3:TrackPointExtension>
        </extensions>
      </trkpt>
      <trkpt lat="47.03630961477756500244140625" lon="6.98588244616985321044921875">
        <ele>718.4000244140625</ele>
        <time>2019-06-14T10:53:28.000Z</time>
        <extensions>
          <ns3:TrackPointExtension>
            <ns3:atemp>25.0</ns3:atemp>
            <ns3:hr>146</ns3:hr>
          </ns3:TrackPointExtension>
        </extensions>
      </trkpt>
      <trkpt lat="47.03628187067806720733642578125" lon="6.98584749363362789154052734375">
        <ele>718.79998779296875</ele>
        <time>2019-06-14T10:53:31.000Z</time>
        <extensions>
          <ns3:TrackPointExtension>
            <ns3:atemp>25.0</ns3:atemp>
            <ns3:hr>146</ns3:hr>
          </ns3:TrackPointExtension>
        </extensions>
      </trkpt>
      <trkpt lat="47.03625731170177459716796875" lon="6.98583123274147510528564453125">
        <ele>719.20001220703125</ele>
        <time>2019-06-14T10:53:33.000Z</time>
        <extensions>
          <ns3:TrackPointExtension>
            <ns3:atemp>25.0</ns3:atemp>
            <ns3:hr>146</ns3:hr>
          </ns3:TrackPointExtension>
        </extensions>
      </trkpt>
      <trkpt lat="47.0362410508096218109130859375" lon="6.985822431743144989013671875">
        <ele>719.4000244140625</ele>
        <time>2019-06-14T10:53:34.000Z</time>
        <extensions>
          <ns3:TrackPointExtension>
            <ns3:atemp>25.0</ns3:atemp>
            <ns3:hr>146</ns3:hr>
          </ns3:TrackPointExtension>
        </extensions>
      </trkpt>
      <trkpt lat="47.0362299866974353790283203125" lon="6.9858081825077533721923828125">
        <ele>719.5999755859375</ele>
        <time>2019-06-14T10:53:35.000Z</time>
        <extensions>
          <ns3:TrackPointExtension>
            <ns3:atemp>25.0</ns3:atemp>
            <ns3:hr>145</ns3:hr>
          </ns3:TrackPointExtension>
        </extensions>
      </trkpt>
      <trkpt lat="47.03621682710945606231689453125" lon="6.9857984595000743865966796875">
        <ele>719.79998779296875</ele>
        <time>2019-06-14T10:53:36.000Z</time>
        <extensions>
          <ns3:TrackPointExtension>
            <ns3:atemp>25.0</ns3:atemp>
            <ns3:hr>145</ns3:hr>
          </ns3:TrackPointExtension>
        </extensions>
      </trkpt>
      <trkpt lat="47.0361766777932643890380859375" lon="6.98578588664531707763671875">
        <ele>720.4000244140625</ele>
        <time>2019-06-14T10:53:38.000Z</time>
        <extensions>
          <ns3:TrackPointExtension>
            <ns3:atemp>25.0</ns3:atemp>
            <ns3:hr>145</ns3:hr>
          </ns3:TrackPointExtension>
        </extensions>
      </trkpt>
      <trkpt lat="47.03615630976855754852294921875" lon="6.98577792383730411529541015625">
        <ele>720.4000244140625</ele>
        <time>2019-06-14T10:53:39.000Z</time>
        <extensions>
          <ns3:TrackPointExtension>
            <ns3:atemp>25.0</ns3:atemp>
            <ns3:hr>146</ns3:hr>
          </ns3:TrackPointExtension>
        </extensions>
      </trkpt>
      <trkpt lat="47.0361351035535335540771484375" lon="6.98577457107603549957275390625">
        <ele>720.5999755859375</ele>
        <time>2019-06-14T10:53:40.000Z</time>
        <extensions>
          <ns3:TrackPointExtension>
            <ns3:atemp>25.0</ns3:atemp>
            <ns3:hr>146</ns3:hr>
          </ns3:TrackPointExtension>
        </extensions>
      </trkpt>
      <trkpt lat="47.03609528951346874237060546875" lon="6.9856975413858890533447265625">
        <ele>721.5999755859375</ele>
        <time>2019-06-14T10:53:45.000Z</time>
        <extensions>
          <ns3:TrackPointExtension>
            <ns3:atemp>25.0</ns3:atemp>
            <ns3:hr>147</ns3:hr>
          </ns3:TrackPointExtension>
        </extensions>
      </trkpt>
      <trkpt lat="47.0360874943435192108154296875" lon="6.9856767542660236358642578125">
        <ele>721.5999755859375</ele>
        <time>2019-06-14T10:53:46.000Z</time>
        <extensions>
          <ns3:TrackPointExtension>
            <ns3:atemp>25.0</ns3:atemp>
            <ns3:hr>147</ns3:hr>
          </ns3:TrackPointExtension>
        </extensions>
      </trkpt>
      <trkpt lat="47.03604432754218578338623046875" lon="6.985621266067028045654296875">
        <ele>722.5999755859375</ele>
        <time>2019-06-14T10:53:50.000Z</time>
        <extensions>
          <ns3:TrackPointExtension>
            <ns3:atemp>25.0</ns3:atemp>
            <ns3:hr>146</ns3:hr>
          </ns3:TrackPointExtension>
        </extensions>
      </trkpt>
      <trkpt lat="47.03603066504001617431640625" lon="6.9855768419802188873291015625">
        <ele>723</ele>
        <time>2019-06-14T10:53:52.000Z</time>
        <extensions>
          <ns3:TrackPointExtension>
            <ns3:atemp>25.0</ns3:atemp>
            <ns3:hr>146</ns3:hr>
          </ns3:TrackPointExtension>
        </extensions>
      </trkpt>
      <trkpt lat="47.03598682768642902374267578125" lon="6.98547516949474811553955078125">
        <ele>723.79998779296875</ele>
        <time>2019-06-14T10:53:57.000Z</time>
        <extensions>
          <ns3:TrackPointExtension>
            <ns3:atemp>25.0</ns3:atemp>
            <ns3:hr>147</ns3:hr>
          </ns3:TrackPointExtension>
        </extensions>
      </trkpt>
      <trkpt lat="47.0359818823635578155517578125" lon="6.9854353554546833038330078125">
        <ele>724</ele>
        <time>2019-06-14T10:53:59.000Z</time>
        <extensions>
          <ns3:TrackPointExtension>
            <ns3:atemp>25.0</ns3:atemp>
            <ns3:hr>147</ns3:hr>
          </ns3:TrackPointExtension>
        </extensions>
      </trkpt>
      <trkpt lat="47.035979367792606353759765625" lon="6.9853404723107814788818359375">
        <ele>724.79998779296875</ele>
        <time>2019-06-14T10:54:03.000Z</time>
        <extensions>
          <ns3:TrackPointExtension>
            <ns3:atemp>25.0</ns3:atemp>
            <ns3:hr>147</ns3:hr>
          </ns3:TrackPointExtension>
        </extensions>
      </trkpt>
      <trkpt lat="47.03597509302198886871337890625" lon="6.98531624861061573028564453125">
        <ele>725</ele>
        <time>2019-06-14T10:54:04.000Z</time>
        <extensions>
          <ns3:TrackPointExtension>
            <ns3:atemp>25.0</ns3:atemp>
            <ns3:hr>147</ns3:hr>
          </ns3:TrackPointExtension>
        </extensions>
      </trkpt>
      <trkpt lat="47.03595179133117198944091796875" lon="6.9852291606366634368896484375">
        <ele>725.79998779296875</ele>
        <time>2019-06-14T10:54:09.000Z</time>
        <extensions>
          <ns3:TrackPointExtension>
            <ns3:atemp>25.0</ns3:atemp>
            <ns3:hr>148</ns3:hr>
          </ns3:TrackPointExtension>
        </extensions>
      </trkpt>
      <trkpt lat="47.035944163799285888671875" lon="6.985217593610286712646484375">
        <ele>726</ele>
        <time>2019-06-14T10:54:10.000Z</time>
        <extensions>
          <ns3:TrackPointExtension>
            <ns3:atemp>25.0</ns3:atemp>
            <ns3:hr>149</ns3:hr>
          </ns3:TrackPointExtension>
        </extensions>
      </trkpt>
      <trkpt lat="47.0359272323548793792724609375" lon="6.98517845012247562408447265625">
        <ele>726.4000244140625</ele>
        <time>2019-06-14T10:54:13.000Z</time>
        <extensions>
          <ns3:TrackPointExtension>
            <ns3:atemp>25.0</ns3:atemp>
            <ns3:hr>149</ns3:hr>
          </ns3:TrackPointExtension>
        </extensions>
      </trkpt>
      <trkpt lat="47.03593469224870204925537109375" lon="6.9851577468216419219970703125">
        <ele>726.5999755859375</ele>
        <time>2019-06-14T10:54:14.000Z</time>
        <extensions>
          <ns3:TrackPointExtension>
            <ns3:atemp>25.0</ns3:atemp>
            <ns3:hr>149</ns3:hr>
          </ns3:TrackPointExtension>
        </extensions>
      </trkpt>
      <trkpt lat="47.0359238795936107635498046875" lon="6.9851361215114593505859375">
        <ele>726.5999755859375</ele>
        <time>2019-06-14T10:54:15.000Z</time>
        <extensions>
          <ns3:TrackPointExtension>
            <ns3:atemp>25.0</ns3:atemp>
            <ns3:hr>149</ns3:hr>
          </ns3:TrackPointExtension>
        </extensions>
      </trkpt>
      <trkpt lat="47.0359097979962825775146484375" lon="6.9851245544850826263427734375">
        <ele>726.79998779296875</ele>
        <time>2019-06-14T10:54:16.000Z</time>
        <extensions>
          <ns3:TrackPointExtension>
            <ns3:atemp>25.0</ns3:atemp>
            <ns3:hr>149</ns3:hr>
          </ns3:TrackPointExtension>
        </extensions>
      </trkpt>
      <trkpt lat="47.0359071157872676849365234375" lon="6.98510636575520038604736328125">
        <ele>727.20001220703125</ele>
        <time>2019-06-14T10:54:17.000Z</time>
        <extensions>
          <ns3:TrackPointExtension>
            <ns3:atemp>25.0</ns3:atemp>
            <ns3:hr>149</ns3:hr>
          </ns3:TrackPointExtension>
        </extensions>
      </trkpt>
      <trkpt lat="47.03590351156890392303466796875" lon="6.985088847577571868896484375">
        <ele>727.4000244140625</ele>
        <time>2019-06-14T10:54:18.000Z</time>
        <extensions>
          <ns3:TrackPointExtension>
            <ns3:atemp>25.0</ns3:atemp>
            <ns3:hr>149</ns3:hr>
          </ns3:TrackPointExtension>
        </extensions>
      </trkpt>
      <trkpt lat="47.03587082214653491973876953125" lon="6.98503553867340087890625">
        <ele>728</ele>
        <time>2019-06-14T10:54:21.000Z</time>
        <extensions>
          <ns3:TrackPointExtension>
            <ns3:atemp>25.0</ns3:atemp>
            <ns3:hr>149</ns3:hr>
          </ns3:TrackPointExtension>
        </extensions>
      </trkpt>
      <trkpt lat="47.03586210496723651885986328125" lon="6.9850102253258228302001953125">
        <ele>728.20001220703125</ele>
        <time>2019-06-14T10:54:22.000Z</time>
        <extensions>
          <ns3:TrackPointExtension>
            <ns3:atemp>25.0</ns3:atemp>
            <ns3:hr>149</ns3:hr>
          </ns3:TrackPointExtension>
        </extensions>
      </trkpt>
      <trkpt lat="47.03584366478025913238525390625" lon="6.98497912846505641937255859375">
        <ele>728.4000244140625</ele>
        <time>2019-06-14T10:54:24.000Z</time>
        <extensions>
          <ns3:TrackPointExtension>
            <ns3:atemp>25.0</ns3:atemp>
            <ns3:hr>149</ns3:hr>
          </ns3:TrackPointExtension>
        </extensions>
      </trkpt>
      <trkpt lat="47.03581868670880794525146484375" lon="6.98493537493050098419189453125">
        <ele>728.79998779296875</ele>
        <time>2019-06-14T10:54:27.000Z</time>
        <extensions>
          <ns3:TrackPointExtension>
            <ns3:atemp>25.0</ns3:atemp>
            <ns3:hr>149</ns3:hr>
          </ns3:TrackPointExtension>
        </extensions>
      </trkpt>
      <trkpt lat="47.0358219556510448455810546875" lon="6.984892375767230987548828125">
        <ele>729</ele>
        <time>2019-06-14T10:54:29.000Z</time>
        <extensions>
          <ns3:TrackPointExtension>
            <ns3:atemp>25.0</ns3:atemp>
            <ns3:hr>148</ns3:hr>
          </ns3:TrackPointExtension>
        </extensions>
      </trkpt>
      <trkpt lat="47.03581801615655422210693359375" lon="6.98487661778926849365234375">
        <ele>729.20001220703125</ele>
        <time>2019-06-14T10:54:30.000Z</time>
        <extensions>
          <ns3:TrackPointExtension>
            <ns3:atemp>25.0</ns3:atemp>
            <ns3:hr>148</ns3:hr>
          </ns3:TrackPointExtension>
        </extensions>
      </trkpt>
      <trkpt lat="47.03579203225672245025634765625" lon="6.98480076156556606292724609375">
        <ele>730</ele>
        <time>2019-06-14T10:54:35.000Z</time>
        <extensions>
          <ns3:TrackPointExtension>
            <ns3:atemp>25.0</ns3:atemp>
            <ns3:hr>148</ns3:hr>
          </ns3:TrackPointExtension>
        </extensions>
      </trkpt>
      <trkpt lat="47.03577895648777484893798828125" lon="6.98478165082633495330810546875">
        <ele>730.4000244140625</ele>
        <time>2019-06-14T10:54:36.000Z</time>
        <extensions>
          <ns3:TrackPointExtension>
            <ns3:atemp>25.0</ns3:atemp>
            <ns3:hr>148</ns3:hr>
          </ns3:TrackPointExtension>
        </extensions>
      </trkpt>
      <trkpt lat="47.0356885157525539398193359375" lon="6.984754242002964019775390625">
        <ele>731</ele>
        <time>2019-06-14T10:54:41.000Z</time>
        <extensions>
          <ns3:TrackPointExtension>
            <ns3:atemp>25.0</ns3:atemp>
            <ns3:hr>148</ns3:hr>
          </ns3:TrackPointExtension>
        </extensions>
      </trkpt>
      <trkpt lat="47.03567837364971637725830078125" lon="6.98469062335789203643798828125">
        <ele>731.5999755859375</ele>
        <time>2019-06-14T10:54:44.000Z</time>
        <extensions>
          <ns3:TrackPointExtension>
            <ns3:atemp>25.0</ns3:atemp>
            <ns3:hr>149</ns3:hr>
          </ns3:TrackPointExtension>
        </extensions>
      </trkpt>
      <trkpt lat="47.035613246262073516845703125" lon="6.9846283458173274993896484375">
        <ele>731.79998779296875</ele>
        <time>2019-06-14T10:54:47.000Z</time>
        <extensions>
          <ns3:TrackPointExtension>
            <ns3:atemp>25.0</ns3:atemp>
            <ns3:hr>149</ns3:hr>
          </ns3:TrackPointExtension>
        </extensions>
      </trkpt>
      <trkpt lat="47.035564295947551727294921875" lon="6.984619796276092529296875">
        <ele>732.20001220703125</ele>
        <time>2019-06-14T10:54:49.000Z</time>
        <extensions>
          <ns3:TrackPointExtension>
            <ns3:atemp>25.0</ns3:atemp>
            <ns3:hr>149</ns3:hr>
          </ns3:TrackPointExtension>
        </extensions>
      </trkpt>
      <trkpt lat="47.03554920852184295654296875" lon="6.98458828032016754150390625">
        <ele>732.5999755859375</ele>
        <time>2019-06-14T10:54:51.000Z</time>
        <extensions>
          <ns3:TrackPointExtension>
            <ns3:atemp>26.0</ns3:atemp>
            <ns3:hr>150</ns3:hr>
          </ns3:TrackPointExtension>
        </extensions>
      </trkpt>
      <trkpt lat="47.035541832447052001953125" lon="6.98457344435155391693115234375">
        <ele>732.79998779296875</ele>
        <time>2019-06-14T10:54:52.000Z</time>
        <extensions>
          <ns3:TrackPointExtension>
            <ns3:atemp>26.0</ns3:atemp>
            <ns3:hr>150</ns3:hr>
          </ns3:TrackPointExtension>
        </extensions>
      </trkpt>
      <trkpt lat="47.03547586686909198760986328125" lon="6.9844923913478851318359375">
        <ele>733.79998779296875</ele>
        <time>2019-06-14T10:54:57.000Z</time>
        <extensions>
          <ns3:TrackPointExtension>
            <ns3:atemp>26.0</ns3:atemp>
            <ns3:hr>150</ns3:hr>
          </ns3:TrackPointExtension>
        </extensions>
      </trkpt>
      <trkpt lat="47.03547905199229717254638671875" lon="6.98447135277092456817626953125">
        <ele>734</ele>
        <time>2019-06-14T10:54:58.000Z</time>
        <extensions>
          <ns3:TrackPointExtension>
            <ns3:atemp>26.0</ns3:atemp>
            <ns3:hr>150</ns3:hr>
          </ns3:TrackPointExtension>
        </extensions>
      </trkpt>
      <trkpt lat="47.03544594347476959228515625" lon="6.984431706368923187255859375">
        <ele>735</ele>
        <time>2019-06-14T10:55:02.000Z</time>
        <extensions>
          <ns3:TrackPointExtension>
            <ns3:atemp>26.0</ns3:atemp>
            <ns3:hr>151</ns3:hr>
          </ns3:TrackPointExtension>
        </extensions>
      </trkpt>
      <trkpt lat="47.035435549914836883544921875" lon="6.98442072607576847076416015625">
        <ele>735.20001220703125</ele>
        <time>2019-06-14T10:55:03.000Z</time>
        <extensions>
          <ns3:TrackPointExtension>
            <ns3:atemp>26.0</ns3:atemp>
            <ns3:hr>151</ns3:hr>
          </ns3:TrackPointExtension>
        </extensions>
      </trkpt>
      <trkpt lat="47.03541082330048084259033203125" lon="6.98433372192084789276123046875">
        <ele>735.79998779296875</ele>
        <time>2019-06-14T10:55:08.000Z</time>
        <extensions>
          <ns3:TrackPointExtension>
            <ns3:atemp>26.0</ns3:atemp>
            <ns3:hr>151</ns3:hr>
          </ns3:TrackPointExtension>
        </extensions>
      </trkpt>
      <trkpt lat="47.035392634570598602294921875" lon="6.9843162037432193756103515625">
        <ele>736.20001220703125</ele>
        <time>2019-06-14T10:55:10.000Z</time>
        <extensions>
          <ns3:TrackPointExtension>
            <ns3:atemp>26.0</ns3:atemp>
            <ns3:hr>151</ns3:hr>
          </ns3:TrackPointExtension>
        </extensions>
      </trkpt>
      <trkpt lat="47.0353527367115020751953125" lon="6.9842856936156749725341796875">
        <ele>736.79998779296875</ele>
        <time>2019-06-14T10:55:13.000Z</time>
        <extensions>
          <ns3:TrackPointExtension>
            <ns3:atemp>26.0</ns3:atemp>
            <ns3:hr>150</ns3:hr>
          </ns3:TrackPointExtension>
        </extensions>
      </trkpt>
      <trkpt lat="47.03530269674956798553466796875" lon="6.98425912298262119293212890625">
        <ele>737.20001220703125</ele>
        <time>2019-06-14T10:55:17.000Z</time>
        <extensions>
          <ns3:TrackPointExtension>
            <ns3:atemp>26.0</ns3:atemp>
            <ns3:hr>149</ns3:hr>
          </ns3:TrackPointExtension>
        </extensions>
      </trkpt>
      <trkpt lat="47.0352881960570812225341796875" lon="6.98424671776592731475830078125">
        <ele>737.79998779296875</ele>
        <time>2019-06-14T10:55:19.000Z</time>
        <extensions>
          <ns3:TrackPointExtension>
            <ns3:atemp>26.0</ns3:atemp>
            <ns3:hr>149</ns3:hr>
          </ns3:TrackPointExtension>
        </extensions>
      </trkpt>
      <trkpt lat="47.0352749526500701904296875" lon="6.984239928424358367919921875">
        <ele>738</ele>
        <time>2019-06-14T10:55:20.000Z</time>
        <extensions>
          <ns3:TrackPointExtension>
            <ns3:atemp>26.0</ns3:atemp>
            <ns3:hr>149</ns3:hr>
          </ns3:TrackPointExtension>
        </extensions>
      </trkpt>
      <trkpt lat="47.03523849137127399444580078125" lon="6.98417580686509609222412109375">
        <ele>738.4000244140625</ele>
        <time>2019-06-14T10:55:24.000Z</time>
        <extensions>
          <ns3:TrackPointExtension>
            <ns3:atemp>26.0</ns3:atemp>
            <ns3:hr>150</ns3:hr>
          </ns3:TrackPointExtension>
        </extensions>
      </trkpt>
      <trkpt lat="47.03524670563638210296630859375" lon="6.98415577411651611328125">
        <ele>738.79998779296875</ele>
        <time>2019-06-14T10:55:25.000Z</time>
        <extensions>
          <ns3:TrackPointExtension>
            <ns3:atemp>26.0</ns3:atemp>
            <ns3:hr>150</ns3:hr>
          </ns3:TrackPointExtension>
        </extensions>
      </trkpt>
      <trkpt lat="47.03521301038563251495361328125" lon="6.98407136835157871246337890625">
        <ele>739.5999755859375</ele>
        <time>2019-06-14T10:55:30.000Z</time>
        <extensions>
          <ns3:TrackPointExtension>
            <ns3:atemp>26.0</ns3:atemp>
            <ns3:hr>150</ns3:hr>
          </ns3:TrackPointExtension>
        </extensions>
      </trkpt>
      <trkpt lat="47.03519758768379688262939453125" lon="6.984044797718524932861328125">
        <ele>739.79998779296875</ele>
        <time>2019-06-14T10:55:32.000Z</time>
        <extensions>
          <ns3:TrackPointExtension>
            <ns3:atemp>26.0</ns3:atemp>
            <ns3:hr>150</ns3:hr>
          </ns3:TrackPointExtension>
        </extensions>
      </trkpt>
      <trkpt lat="47.035184763371944427490234375" lon="6.98399257846176624298095703125">
        <ele>740.4000244140625</ele>
        <time>2019-06-14T10:55:35.000Z</time>
        <extensions>
          <ns3:TrackPointExtension>
            <ns3:atemp>26.0</ns3:atemp>
            <ns3:hr>150</ns3:hr>
          </ns3:TrackPointExtension>
        </extensions>
      </trkpt>
      <trkpt lat="47.0351735316216945648193359375" lon="6.98393113911151885986328125">
        <ele>740.79998779296875</ele>
        <time>2019-06-14T10:55:38.000Z</time>
        <extensions>
          <ns3:TrackPointExtension>
            <ns3:atemp>26.0</ns3:atemp>
            <ns3:hr>150</ns3:hr>
          </ns3:TrackPointExtension>
        </extensions>
      </trkpt>
      <trkpt lat="47.03516699373722076416015625" lon="6.983910687267780303955078125">
        <ele>741</ele>
        <time>2019-06-14T10:55:39.000Z</time>
        <extensions>
          <ns3:TrackPointExtension>
            <ns3:atemp>26.0</ns3:atemp>
            <ns3:hr>150</ns3:hr>
          </ns3:TrackPointExtension>
        </extensions>
      </trkpt>
      <trkpt lat="47.035145871341228485107421875" lon="6.9838870503008365631103515625">
        <ele>741.4000244140625</ele>
        <time>2019-06-14T10:55:41.000Z</time>
        <extensions>
          <ns3:TrackPointExtension>
            <ns3:atemp>26.0</ns3:atemp>
            <ns3:hr>150</ns3:hr>
          </ns3:TrackPointExtension>
        </extensions>
      </trkpt>
      <trkpt lat="47.03512734733521938323974609375" lon="6.98387824930250644683837890625">
        <ele>741.5999755859375</ele>
        <time>2019-06-14T10:55:42.000Z</time>
        <extensions>
          <ns3:TrackPointExtension>
            <ns3:atemp>26.0</ns3:atemp>
            <ns3:hr>149</ns3:hr>
          </ns3:TrackPointExtension>
        </extensions>
      </trkpt>
      <trkpt lat="47.0351178757846355438232421875" lon="6.983859725296497344970703125">
        <ele>741.79998779296875</ele>
        <time>2019-06-14T10:55:43.000Z</time>
        <extensions>
          <ns3:TrackPointExtension>
            <ns3:atemp>26.0</ns3:atemp>
            <ns3:hr>149</ns3:hr>
          </ns3:TrackPointExtension>
        </extensions>
      </trkpt>
      <trkpt lat="47.03510488383471965789794921875" lon="6.98384522460401058197021484375">
        <ele>741.79998779296875</ele>
        <time>2019-06-14T10:55:44.000Z</time>
        <extensions>
          <ns3:TrackPointExtension>
            <ns3:atemp>26.0</ns3:atemp>
            <ns3:hr>149</ns3:hr>
          </ns3:TrackPointExtension>
        </extensions>
      </trkpt>
      <trkpt lat="47.0351086556911468505859375" lon="6.98377800174057483673095703125">
        <ele>742.20001220703125</ele>
        <time>2019-06-14T10:55:47.000Z</time>
        <extensions>
          <ns3:TrackPointExtension>
            <ns3:atemp>26.0</ns3:atemp>
            <ns3:hr>149</ns3:hr>
          </ns3:TrackPointExtension>
        </extensions>
      </trkpt>
      <trkpt lat="47.0350980944931507110595703125" lon="6.98374874889850616455078125">
        <ele>742.79998779296875</ele>
        <time>2019-06-14T10:55:49.000Z</time>
        <extensions>
          <ns3:TrackPointExtension>
            <ns3:atemp>26.0</ns3:atemp>
            <ns3:hr>150</ns3:hr>
          </ns3:TrackPointExtension>
        </extensions>
      </trkpt>
      <trkpt lat="47.03508275561034679412841796875" lon="6.9837304763495922088623046875">
        <ele>743.4000244140625</ele>
        <time>2019-06-14T10:55:52.000Z</time>
        <extensions>
          <ns3:TrackPointExtension>
            <ns3:atemp>26.0</ns3:atemp>
            <ns3:hr>150</ns3:hr>
          </ns3:TrackPointExtension>
        </extensions>
      </trkpt>
      <trkpt lat="47.0350684225559234619140625" lon="6.98371580801904201507568359375">
        <ele>743.5999755859375</ele>
        <time>2019-06-14T10:55:53.000Z</time>
        <extensions>
          <ns3:TrackPointExtension>
            <ns3:atemp>26.0</ns3:atemp>
            <ns3:hr>150</ns3:hr>
          </ns3:TrackPointExtension>
        </extensions>
      </trkpt>
      <trkpt lat="47.03503883443772792816162109375" lon="6.9836868904531002044677734375">
        <ele>743.79998779296875</ele>
        <time>2019-06-14T10:55:55.000Z</time>
        <extensions>
          <ns3:TrackPointExtension>
            <ns3:atemp>26.0</ns3:atemp>
            <ns3:hr>150</ns3:hr>
          </ns3:TrackPointExtension>
        </extensions>
      </trkpt>
      <trkpt lat="47.03502751886844635009765625" lon="6.9836768321692943572998046875">
        <ele>743.79998779296875</ele>
        <time>2019-06-14T10:55:56.000Z</time>
        <extensions>
          <ns3:TrackPointExtension>
            <ns3:atemp>26.0</ns3:atemp>
            <ns3:hr>149</ns3:hr>
          </ns3:TrackPointExtension>
        </extensions>
      </trkpt>
      <trkpt lat="47.03502072952687740325927734375" lon="6.98366786353290081024169921875">
        <ele>743.79998779296875</ele>
        <time>2019-06-14T10:55:57.000Z</time>
        <extensions>
          <ns3:TrackPointExtension>
            <ns3:atemp>26.0</ns3:atemp>
            <ns3:hr>149</ns3:hr>
          </ns3:TrackPointExtension>
        </extensions>
      </trkpt>
      <trkpt lat="47.034973539412021636962890625" lon="6.98361740447580814361572265625">
        <ele>744.79998779296875</ele>
        <time>2019-06-14T10:56:02.000Z</time>
        <extensions>
          <ns3:TrackPointExtension>
            <ns3:atemp>26.0</ns3:atemp>
            <ns3:hr>150</ns3:hr>
          </ns3:TrackPointExtension>
        </extensions>
      </trkpt>
      <trkpt lat="47.0349472202360630035400390625" lon="6.983613632619380950927734375">
        <ele>745</ele>
        <time>2019-06-14T10:56:03.000Z</time>
        <extensions>
          <ns3:TrackPointExtension>
            <ns3:atemp>26.0</ns3:atemp>
            <ns3:hr>150</ns3:hr>
          </ns3:TrackPointExtension>
        </extensions>
      </trkpt>
      <trkpt lat="47.03492986969649791717529296875" lon="6.983606927096843719482421875">
        <ele>745.20001220703125</ele>
        <time>2019-06-14T10:56:04.000Z</time>
        <extensions>
          <ns3:TrackPointExtension>
            <ns3:atemp>26.0</ns3:atemp>
            <ns3:hr>149</ns3:hr>
          </ns3:TrackPointExtension>
        </extensions>
      </trkpt>
      <trkpt lat="47.0348620600998401641845703125" lon="6.9835648499429225921630859375">
        <ele>746</ele>
        <time>2019-06-14T10:56:08.000Z</time>
        <extensions>
          <ns3:TrackPointExtension>
            <ns3:atemp>26.0</ns3:atemp>
            <ns3:hr>148</ns3:hr>
          </ns3:TrackPointExtension>
        </extensions>
      </trkpt>
      <trkpt lat="47.03484605066478252410888671875" lon="6.98354087769985198974609375">
        <ele>746.4000244140625</ele>
        <time>2019-06-14T10:56:10.000Z</time>
        <extensions>
          <ns3:TrackPointExtension>
            <ns3:atemp>26.0</ns3:atemp>
            <ns3:hr>148</ns3:hr>
          </ns3:TrackPointExtension>
        </extensions>
      </trkpt>
      <trkpt lat="47.0348231680691242218017578125" lon="6.98352185077965259552001953125">
        <ele>746.5999755859375</ele>
        <time>2019-06-14T10:56:12.000Z</time>
        <extensions>
          <ns3:TrackPointExtension>
            <ns3:atemp>26.0</ns3:atemp>
            <ns3:hr>149</ns3:hr>
          </ns3:TrackPointExtension>
        </extensions>
      </trkpt>
      <trkpt lat="47.03480380587279796600341796875" lon="6.983498297631740570068359375">
        <ele>747</ele>
        <time>2019-06-14T10:56:14.000Z</time>
        <extensions>
          <ns3:TrackPointExtension>
            <ns3:atemp>26.0</ns3:atemp>
            <ns3:hr>149</ns3:hr>
          </ns3:TrackPointExtension>
        </extensions>
      </trkpt>
      <trkpt lat="47.03480330295860767364501953125" lon="6.98348027653992176055908203125">
        <ele>747</ele>
        <time>2019-06-14T10:56:15.000Z</time>
        <extensions>
          <ns3:TrackPointExtension>
            <ns3:atemp>26.0</ns3:atemp>
            <ns3:hr>149</ns3:hr>
          </ns3:TrackPointExtension>
        </extensions>
      </trkpt>
      <trkpt lat="47.0348100923001766204833984375" lon="6.98345613665878772735595703125">
        <ele>747.20001220703125</ele>
        <time>2019-06-14T10:56:16.000Z</time>
        <extensions>
          <ns3:TrackPointExtension>
            <ns3:atemp>26.0</ns3:atemp>
            <ns3:hr>150</ns3:hr>
          </ns3:TrackPointExtension>
        </extensions>
      </trkpt>
      <trkpt lat="47.03478888608515262603759765625" lon="6.983386985957622528076171875">
        <ele>748.20001220703125</ele>
        <time>2019-06-14T10:56:21.000Z</time>
        <extensions>
          <ns3:TrackPointExtension>
            <ns3:atemp>26.0</ns3:atemp>
            <ns3:hr>151</ns3:hr>
          </ns3:TrackPointExtension>
        </extensions>
      </trkpt>
      <trkpt lat="47.03466131351888179779052734375" lon="6.98334239423274993896484375">
        <ele>749.20001220703125</ele>
        <time>2019-06-14T10:56:27.000Z</time>
        <extensions>
          <ns3:TrackPointExtension>
            <ns3:atemp>26.0</ns3:atemp>
            <ns3:hr>150</ns3:hr>
          </ns3:TrackPointExtension>
        </extensions>
      </trkpt>
      <trkpt lat="47.03464572317898273468017578125" lon="6.9833341799676418304443359375">
        <ele>749.20001220703125</ele>
        <time>2019-06-14T10:56:28.000Z</time>
        <extensions>
          <ns3:TrackPointExtension>
            <ns3:atemp>26.0</ns3:atemp>
            <ns3:hr>150</ns3:hr>
          </ns3:TrackPointExtension>
        </extensions>
      </trkpt>
      <trkpt lat="47.03460104763507843017578125" lon="6.9832252152264118194580078125">
        <ele>750.20001220703125</ele>
        <time>2019-06-14T10:56:35.000Z</time>
        <extensions>
          <ns3:TrackPointExtension>
            <ns3:atemp>26.0</ns3:atemp>
            <ns3:hr>149</ns3:hr>
          </ns3:TrackPointExtension>
        </extensions>
      </trkpt>
      <trkpt lat="47.034594006836414337158203125" lon="6.98321373201906681060791015625">
        <ele>750.4000244140625</ele>
        <time>2019-06-14T10:56:36.000Z</time>
        <extensions>
          <ns3:TrackPointExtension>
            <ns3:atemp>26.0</ns3:atemp>
            <ns3:hr>149</ns3:hr>
          </ns3:TrackPointExtension>
        </extensions>
      </trkpt>
      <trkpt lat="47.03459576703608036041259765625" lon="6.98312521912157535552978515625">
        <ele>751.4000244140625</ele>
        <time>2019-06-14T10:56:40.000Z</time>
        <extensions>
          <ns3:TrackPointExtension>
            <ns3:atemp>26.0</ns3:atemp>
            <ns3:hr>150</ns3:hr>
          </ns3:TrackPointExtension>
        </extensions>
      </trkpt>
      <trkpt lat="47.03460414893925189971923828125" lon="6.98309001512825489044189453125">
        <ele>751.79998779296875</ele>
        <time>2019-06-14T10:56:42.000Z</time>
        <extensions>
          <ns3:TrackPointExtension>
            <ns3:atemp>26.0</ns3:atemp>
            <ns3:hr>150</ns3:hr>
          </ns3:TrackPointExtension>
        </extensions>
      </trkpt>
      <trkpt lat="47.03458839096128940582275390625" lon="6.98303016833961009979248046875">
        <ele>752.4000244140625</ele>
        <time>2019-06-14T10:56:46.000Z</time>
        <extensions>
          <ns3:TrackPointExtension>
            <ns3:atemp>26.0</ns3:atemp>
            <ns3:hr>150</ns3:hr>
          </ns3:TrackPointExtension>
        </extensions>
      </trkpt>
      <trkpt lat="47.03457682393491268157958984375" lon="6.98302195407450199127197265625">
        <ele>752.5999755859375</ele>
        <time>2019-06-14T10:56:47.000Z</time>
        <extensions>
          <ns3:TrackPointExtension>
            <ns3:atemp>26.0</ns3:atemp>
            <ns3:hr>150</ns3:hr>
          </ns3:TrackPointExtension>
        </extensions>
      </trkpt>
      <trkpt lat="47.03456089831888675689697265625" lon="6.983012147247791290283203125">
        <ele>752.5999755859375</ele>
        <time>2019-06-14T10:56:48.000Z</time>
        <extensions>
          <ns3:TrackPointExtension>
            <ns3:atemp>26.0</ns3:atemp>
            <ns3:hr>150</ns3:hr>
          </ns3:TrackPointExtension>
        </extensions>
      </trkpt>
      <trkpt lat="47.03456626273691654205322265625" lon="6.98294785805046558380126953125">
        <ele>753.20001220703125</ele>
        <time>2019-06-14T10:56:51.000Z</time>
        <extensions>
          <ns3:TrackPointExtension>
            <ns3:atemp>26.0</ns3:atemp>
            <ns3:hr>149</ns3:hr>
          </ns3:TrackPointExtension>
        </extensions>
      </trkpt>
      <trkpt lat="47.03455000184476375579833984375" lon="6.9829217903316020965576171875">
        <ele>753.4000244140625</ele>
        <time>2019-06-14T10:56:53.000Z</time>
        <extensions>
          <ns3:TrackPointExtension>
            <ns3:atemp>26.0</ns3:atemp>
            <ns3:hr>148</ns3:hr>
          </ns3:TrackPointExtension>
        </extensions>
      </trkpt>
      <trkpt lat="47.034555785357952117919921875" lon="6.9828979857265949249267578125">
        <ele>753.5999755859375</ele>
        <time>2019-06-14T10:56:54.000Z</time>
        <extensions>
          <ns3:TrackPointExtension>
            <ns3:atemp>26.0</ns3:atemp>
            <ns3:hr>148</ns3:hr>
          </ns3:TrackPointExtension>
        </extensions>
      </trkpt>
      <trkpt lat="47.03447976149618625640869140625" lon="6.9828294217586517333984375">
        <ele>754.5999755859375</ele>
        <time>2019-06-14T10:57:00.000Z</time>
        <extensions>
          <ns3:TrackPointExtension>
            <ns3:atemp>26.0</ns3:atemp>
            <ns3:hr>149</ns3:hr>
          </ns3:TrackPointExtension>
        </extensions>
      </trkpt>
      <trkpt lat="47.03443952836096286773681640625" lon="6.98279648087918758392333984375">
        <ele>755</ele>
        <time>2019-06-14T10:57:03.000Z</time>
        <extensions>
          <ns3:TrackPointExtension>
            <ns3:atemp>26.0</ns3:atemp>
            <ns3:hr>148</ns3:hr>
          </ns3:TrackPointExtension>
        </extensions>
      </trkpt>
      <trkpt lat="47.034426033496856689453125" lon="6.98275088332593441009521484375">
        <ele>755.79998779296875</ele>
        <time>2019-06-14T10:57:06.000Z</time>
        <extensions>
          <ns3:TrackPointExtension>
            <ns3:atemp>26.0</ns3:atemp>
            <ns3:hr>148</ns3:hr>
          </ns3:TrackPointExtension>
        </extensions>
      </trkpt>
      <trkpt lat="47.0344198308885097503662109375" lon="6.98273847810924053192138671875">
        <ele>756</ele>
        <time>2019-06-14T10:57:07.000Z</time>
        <extensions>
          <ns3:TrackPointExtension>
            <ns3:atemp>26.0</ns3:atemp>
            <ns3:hr>148</ns3:hr>
          </ns3:TrackPointExtension>
        </extensions>
      </trkpt>
      <trkpt lat="47.03440926969051361083984375" lon="6.98272355832159519195556640625">
        <ele>756.20001220703125</ele>
        <time>2019-06-14T10:57:08.000Z</time>
        <extensions>
          <ns3:TrackPointExtension>
            <ns3:atemp>26.0</ns3:atemp>
            <ns3:hr>148</ns3:hr>
          </ns3:TrackPointExtension>
        </extensions>
      </trkpt>
      <trkpt lat="47.0343775860965251922607421875" lon="6.98266454972326755523681640625">
        <ele>756.5999755859375</ele>
        <time>2019-06-14T10:57:12.000Z</time>
        <extensions>
          <ns3:TrackPointExtension>
            <ns3:atemp>26.0</ns3:atemp>
            <ns3:hr>149</ns3:hr>
          </ns3:TrackPointExtension>
        </extensions>
      </trkpt>
      <trkpt lat="47.0343737304210662841796875" lon="6.98263429105281829833984375">
        <ele>756.79998779296875</ele>
        <time>2019-06-14T10:57:14.000Z</time>
        <extensions>
          <ns3:TrackPointExtension>
            <ns3:atemp>26.0</ns3:atemp>
            <ns3:hr>149</ns3:hr>
          </ns3:TrackPointExtension>
        </extensions>
      </trkpt>
      <trkpt lat="47.034355290234088897705078125" lon="6.98259799741208553314208984375">
        <ele>757.79998779296875</ele>
        <time>2019-06-14T10:57:18.000Z</time>
        <extensions>
          <ns3:TrackPointExtension>
            <ns3:atemp>26.0</ns3:atemp>
            <ns3:hr>149</ns3:hr>
          </ns3:TrackPointExtension>
        </extensions>
      </trkpt>
      <trkpt lat="47.0343598164618015289306640625" lon="6.98257955722510814666748046875">
        <ele>758</ele>
        <time>2019-06-14T10:57:19.000Z</time>
        <extensions>
          <ns3:TrackPointExtension>
            <ns3:atemp>26.0</ns3:atemp>
            <ns3:hr>149</ns3:hr>
          </ns3:TrackPointExtension>
        </extensions>
      </trkpt>
      <trkpt lat="47.03436124138534069061279296875" lon="6.982561536133289337158203125">
        <ele>758.20001220703125</ele>
        <time>2019-06-14T10:57:20.000Z</time>
        <extensions>
          <ns3:TrackPointExtension>
            <ns3:atemp>26.0</ns3:atemp>
            <ns3:hr>149</ns3:hr>
          </ns3:TrackPointExtension>
        </extensions>
      </trkpt>
      <trkpt lat="47.03433022834360599517822265625" lon="6.9824949838221073150634765625">
        <ele>758.5999755859375</ele>
        <time>2019-06-14T10:57:24.000Z</time>
        <extensions>
          <ns3:TrackPointExtension>
            <ns3:atemp>26.0</ns3:atemp>
            <ns3:hr>149</ns3:hr>
          </ns3:TrackPointExtension>
        </extensions>
      </trkpt>
      <trkpt lat="47.034311704337596893310546875" lon="6.98248551227152347564697265625">
        <ele>758.79998779296875</ele>
        <time>2019-06-14T10:57:25.000Z</time>
        <extensions>
          <ns3:TrackPointExtension>
            <ns3:atemp>26.0</ns3:atemp>
            <ns3:hr>148</ns3:hr>
          </ns3:TrackPointExtension>
        </extensions>
      </trkpt>
      <trkpt lat="47.034278847277164459228515625" lon="6.98246891610324382781982421875">
        <ele>759</ele>
        <time>2019-06-14T10:57:27.000Z</time>
        <extensions>
          <ns3:TrackPointExtension>
            <ns3:atemp>26.0</ns3:atemp>
            <ns3:hr>149</ns3:hr>
          </ns3:TrackPointExtension>
        </extensions>
      </trkpt>
      <trkpt lat="47.0342545397579669952392578125" lon="6.98245449922978878021240234375">
        <ele>759.4000244140625</ele>
        <time>2019-06-14T10:57:29.000Z</time>
        <extensions>
          <ns3:TrackPointExtension>
            <ns3:atemp>26.0</ns3:atemp>
            <ns3:hr>149</ns3:hr>
          </ns3:TrackPointExtension>
        </extensions>
      </trkpt>
      <trkpt lat="47.03424456529319286346435546875" lon="6.98241409845650196075439453125">
        <ele>759.79998779296875</ele>
        <time>2019-06-14T10:57:31.000Z</time>
        <extensions>
          <ns3:TrackPointExtension>
            <ns3:atemp>26.0</ns3:atemp>
            <ns3:hr>149</ns3:hr>
          </ns3:TrackPointExtension>
        </extensions>
      </trkpt>
      <trkpt lat="47.03421925194561481475830078125" lon="6.9823801517486572265625">
        <ele>760.20001220703125</ele>
        <time>2019-06-14T10:57:33.000Z</time>
        <extensions>
          <ns3:TrackPointExtension>
            <ns3:atemp>26.0</ns3:atemp>
            <ns3:hr>149</ns3:hr>
          </ns3:TrackPointExtension>
        </extensions>
      </trkpt>
      <trkpt lat="47.03414683230221271514892578125" lon="6.98235400021076202392578125">
        <ele>761</ele>
        <time>2019-06-14T10:57:37.000Z</time>
        <extensions>
          <ns3:TrackPointExtension>
            <ns3:atemp>26.0</ns3:atemp>
            <ns3:hr>150</ns3:hr>
          </ns3:TrackPointExtension>
        </extensions>
      </trkpt>
      <trkpt lat="47.0341224409639835357666015625" lon="6.9822985120117664337158203125">
        <ele>761.20001220703125</ele>
        <time>2019-06-14T10:57:41.000Z</time>
        <extensions>
          <ns3:TrackPointExtension>
            <ns3:atemp>26.0</ns3:atemp>
            <ns3:hr>151</ns3:hr>
          </ns3:TrackPointExtension>
        </extensions>
      </trkpt>
      <trkpt lat="47.0341143943369388580322265625" lon="6.9822840951383113861083984375">
        <ele>761.20001220703125</ele>
        <time>2019-06-14T10:57:42.000Z</time>
        <extensions>
          <ns3:TrackPointExtension>
            <ns3:atemp>26.0</ns3:atemp>
            <ns3:hr>151</ns3:hr>
          </ns3:TrackPointExtension>
        </extensions>
      </trkpt>
      <trkpt lat="47.03412093222141265869140625" lon="6.98220916092395782470703125">
        <ele>762</ele>
        <time>2019-06-14T10:57:46.000Z</time>
        <extensions>
          <ns3:TrackPointExtension>
            <ns3:atemp>26.0</ns3:atemp>
            <ns3:hr>150</ns3:hr>
          </ns3:TrackPointExtension>
        </extensions>
      </trkpt>
      <trkpt lat="47.03412495553493499755859375" lon="6.9821915589272975921630859375">
        <ele>762.20001220703125</ele>
        <time>2019-06-14T10:57:47.000Z</time>
        <extensions>
          <ns3:TrackPointExtension>
            <ns3:atemp>26.0</ns3:atemp>
            <ns3:hr>150</ns3:hr>
          </ns3:TrackPointExtension>
        </extensions>
      </trkpt>
      <trkpt lat="47.03411548398435115814208984375" lon="6.9821731187403202056884765625">
        <ele>762.4000244140625</ele>
        <time>2019-06-14T10:57:48.000Z</time>
        <extensions>
          <ns3:TrackPointExtension>
            <ns3:atemp>26.0</ns3:atemp>
            <ns3:hr>150</ns3:hr>
          </ns3:TrackPointExtension>
        </extensions>
      </trkpt>
      <trkpt lat="47.03410928137600421905517578125" lon="6.9821392558515071868896484375">
        <ele>762.79998779296875</ele>
        <time>2019-06-14T10:57:50.000Z</time>
        <extensions>
          <ns3:TrackPointExtension>
            <ns3:atemp>26.0</ns3:atemp>
            <ns3:hr>149</ns3:hr>
          </ns3:TrackPointExtension>
        </extensions>
      </trkpt>
      <trkpt lat="47.0341070182621479034423828125" lon="6.98212089948356151580810546875">
        <ele>762.79998779296875</ele>
        <time>2019-06-14T10:57:51.000Z</time>
        <extensions>
          <ns3:TrackPointExtension>
            <ns3:atemp>26.0</ns3:atemp>
            <ns3:hr>149</ns3:hr>
          </ns3:TrackPointExtension>
        </extensions>
      </trkpt>
      <trkpt lat="47.03409972600638866424560546875" lon="6.98207915760576725006103515625">
        <ele>763.4000244140625</ele>
        <time>2019-06-14T10:57:54.000Z</time>
        <extensions>
          <ns3:TrackPointExtension>
            <ns3:atemp>26.0</ns3:atemp>
            <ns3:hr>149</ns3:hr>
          </ns3:TrackPointExtension>
        </extensions>
      </trkpt>
      <trkpt lat="47.03409411013126373291015625" lon="6.98204462416470050811767578125">
        <ele>763.5999755859375</ele>
        <time>2019-06-14T10:57:56.000Z</time>
        <extensions>
          <ns3:TrackPointExtension>
            <ns3:atemp>26.0</ns3:atemp>
            <ns3:hr>149</ns3:hr>
          </ns3:TrackPointExtension>
        </extensions>
      </trkpt>
      <trkpt lat="47.03405194915831089019775390625" lon="6.98195678181946277618408203125">
        <ele>764.4000244140625</ele>
        <time>2019-06-14T10:58:01.000Z</time>
        <extensions>
          <ns3:TrackPointExtension>
            <ns3:atemp>26.0</ns3:atemp>
            <ns3:hr>149</ns3:hr>
          </ns3:TrackPointExtension>
        </extensions>
      </trkpt>
      <trkpt lat="47.03405882231891155242919921875" lon="6.981932558119297027587890625">
        <ele>764.5999755859375</ele>
        <time>2019-06-14T10:58:02.000Z</time>
        <extensions>
          <ns3:TrackPointExtension>
            <ns3:atemp>26.0</ns3:atemp>
            <ns3:hr>149</ns3:hr>
          </ns3:TrackPointExtension>
        </extensions>
      </trkpt>
      <trkpt lat="47.0340402983129024505615234375" lon="6.981881596148014068603515625">
        <ele>765</ele>
        <time>2019-06-14T10:58:05.000Z</time>
        <extensions>
          <ns3:TrackPointExtension>
            <ns3:atemp>26.0</ns3:atemp>
            <ns3:hr>148</ns3:hr>
          </ns3:TrackPointExtension>
        </extensions>
      </trkpt>
      <trkpt lat="47.03400702215731143951416015625" lon="6.98186575435101985931396484375">
        <ele>765.4000244140625</ele>
        <time>2019-06-14T10:58:07.000Z</time>
        <extensions>
          <ns3:TrackPointExtension>
            <ns3:atemp>26.0</ns3:atemp>
            <ns3:hr>148</ns3:hr>
          </ns3:TrackPointExtension>
        </extensions>
      </trkpt>
      <trkpt lat="47.033995203673839569091796875" lon="6.98185913264751434326171875">
        <ele>765.5999755859375</ele>
        <time>2019-06-14T10:58:08.000Z</time>
        <extensions>
          <ns3:TrackPointExtension>
            <ns3:atemp>26.0</ns3:atemp>
            <ns3:hr>148</ns3:hr>
          </ns3:TrackPointExtension>
        </extensions>
      </trkpt>
      <trkpt lat="47.03398070298135280609130859375" lon="6.9818432070314884185791015625">
        <ele>766.20001220703125</ele>
        <time>2019-06-14T10:58:10.000Z</time>
        <extensions>
          <ns3:TrackPointExtension>
            <ns3:atemp>26.0</ns3:atemp>
            <ns3:hr>148</ns3:hr>
          </ns3:TrackPointExtension>
        </extensions>
      </trkpt>
      <trkpt lat="47.03395505435764789581298828125" lon="6.98182669468224048614501953125">
        <ele>766.5999755859375</ele>
        <time>2019-06-14T10:58:12.000Z</time>
        <extensions>
          <ns3:TrackPointExtension>
            <ns3:atemp>27.0</ns3:atemp>
            <ns3:hr>148</ns3:hr>
          </ns3:TrackPointExtension>
        </extensions>
      </trkpt>
      <trkpt lat="47.0339041762053966522216796875" lon="6.98177372105419635772705078125">
        <ele>767</ele>
        <time>2019-06-14T10:58:16.000Z</time>
        <extensions>
          <ns3:TrackPointExtension>
            <ns3:atemp>27.0</ns3:atemp>
            <ns3:hr>148</ns3:hr>
          </ns3:TrackPointExtension>
        </extensions>
      </trkpt>
      <trkpt lat="47.03392622061073780059814453125" lon="6.98172770440578460693359375">
        <ele>767.20001220703125</ele>
        <time>2019-06-14T10:58:18.000Z</time>
        <extensions>
          <ns3:TrackPointExtension>
            <ns3:atemp>27.0</ns3:atemp>
            <ns3:hr>149</ns3:hr>
          </ns3:TrackPointExtension>
        </extensions>
      </trkpt>
      <trkpt lat="47.0339145697653293609619140625" lon="6.9817149639129638671875">
        <ele>767.4000244140625</ele>
        <time>2019-06-14T10:58:20.000Z</time>
        <extensions>
          <ns3:TrackPointExtension>
            <ns3:atemp>27.0</ns3:atemp>
            <ns3:hr>149</ns3:hr>
          </ns3:TrackPointExtension>
        </extensions>
      </trkpt>
      <trkpt lat="47.03389906324446201324462890625" lon="6.981707923114299774169921875">
        <ele>767.5999755859375</ele>
        <time>2019-06-14T10:58:21.000Z</time>
        <extensions>
          <ns3:TrackPointExtension>
            <ns3:atemp>27.0</ns3:atemp>
            <ns3:hr>148</ns3:hr>
          </ns3:TrackPointExtension>
        </extensions>
      </trkpt>
      <trkpt lat="47.03388162888586521148681640625" lon="6.98169107548892498016357421875">
        <ele>768</ele>
        <time>2019-06-14T10:58:23.000Z</time>
        <extensions>
          <ns3:TrackPointExtension>
            <ns3:atemp>27.0</ns3:atemp>
            <ns3:hr>148</ns3:hr>
          </ns3:TrackPointExtension>
        </extensions>
      </trkpt>
      <trkpt lat="47.03382446430623531341552734375" lon="6.98162536136806011199951171875">
        <ele>768.79998779296875</ele>
        <time>2019-06-14T10:58:28.000Z</time>
        <extensions>
          <ns3:TrackPointExtension>
            <ns3:atemp>27.0</ns3:atemp>
            <ns3:hr>148</ns3:hr>
          </ns3:TrackPointExtension>
        </extensions>
      </trkpt>
      <trkpt lat="47.03381189145147800445556640625" lon="6.98159518651664257049560546875">
        <ele>769.4000244140625</ele>
        <time>2019-06-14T10:58:30.000Z</time>
        <extensions>
          <ns3:TrackPointExtension>
            <ns3:atemp>27.0</ns3:atemp>
            <ns3:hr>148</ns3:hr>
          </ns3:TrackPointExtension>
        </extensions>
      </trkpt>
      <trkpt lat="47.0337875001132488250732421875" lon="6.98158395476639270782470703125">
        <ele>769.5999755859375</ele>
        <time>2019-06-14T10:58:31.000Z</time>
        <extensions>
          <ns3:TrackPointExtension>
            <ns3:atemp>27.0</ns3:atemp>
            <ns3:hr>150</ns3:hr>
          </ns3:TrackPointExtension>
        </extensions>
      </trkpt>
      <trkpt lat="47.03376344405114650726318359375" lon="6.98155176825821399688720703125">
        <ele>769.79998779296875</ele>
        <time>2019-06-14T10:58:33.000Z</time>
        <extensions>
          <ns3:TrackPointExtension>
            <ns3:atemp>27.0</ns3:atemp>
            <ns3:hr>150</ns3:hr>
          </ns3:TrackPointExtension>
        </extensions>
      </trkpt>
      <trkpt lat="47.0337586663663387298583984375" lon="6.98151455260813236236572265625">
        <ele>770.4000244140625</ele>
        <time>2019-06-14T10:58:35.000Z</time>
        <extensions>
          <ns3:TrackPointExtension>
            <ns3:atemp>27.0</ns3:atemp>
            <ns3:hr>149</ns3:hr>
          </ns3:TrackPointExtension>
        </extensions>
      </trkpt>
      <trkpt lat="47.0336993224918842315673828125" lon="6.98146258480846881866455078125">
        <ele>771</ele>
        <time>2019-06-14T10:58:40.000Z</time>
        <extensions>
          <ns3:TrackPointExtension>
            <ns3:atemp>27.0</ns3:atemp>
            <ns3:hr>147</ns3:hr>
          </ns3:TrackPointExtension>
        </extensions>
      </trkpt>
      <trkpt lat="47.0337258093059062957763671875" lon="6.98136049322783946990966796875">
        <ele>771.20001220703125</ele>
        <time>2019-06-14T10:58:45.000Z</time>
        <extensions>
          <ns3:TrackPointExtension>
            <ns3:atemp>27.0</ns3:atemp>
            <ns3:hr>148</ns3:hr>
          </ns3:TrackPointExtension>
        </extensions>
      </trkpt>
      <trkpt lat="47.03371457755565643310546875" lon="6.981274746358394622802734375">
        <ele>772.20001220703125</ele>
        <time>2019-06-14T10:58:50.000Z</time>
        <extensions>
          <ns3:TrackPointExtension>
            <ns3:atemp>27.0</ns3:atemp>
            <ns3:hr>149</ns3:hr>
          </ns3:TrackPointExtension>
        </extensions>
      </trkpt>
      <trkpt lat="47.03370225615799427032470703125" lon="6.9812415540218353271484375">
        <ele>772.5999755859375</ele>
        <time>2019-06-14T10:58:52.000Z</time>
        <extensions>
          <ns3:TrackPointExtension>
            <ns3:atemp>27.0</ns3:atemp>
            <ns3:hr>148</ns3:hr>
          </ns3:TrackPointExtension>
        </extensions>
      </trkpt>
      <trkpt lat="47.033701501786708831787109375" lon="6.98119587264955043792724609375">
        <ele>773</ele>
        <time>2019-06-14T10:58:54.000Z</time>
        <extensions>
          <ns3:TrackPointExtension>
            <ns3:atemp>27.0</ns3:atemp>
            <ns3:hr>148</ns3:hr>
          </ns3:TrackPointExtension>
        </extensions>
      </trkpt>
      <trkpt lat="47.033694796264171600341796875" lon="6.98118531145155429840087890625">
        <ele>773.20001220703125</ele>
        <time>2019-06-14T10:58:55.000Z</time>
        <extensions>
          <ns3:TrackPointExtension>
            <ns3:atemp>27.0</ns3:atemp>
            <ns3:hr>148</ns3:hr>
          </ns3:TrackPointExtension>
        </extensions>
      </trkpt>
      <trkpt lat="47.03368398360908031463623046875" lon="6.98117525316774845123291015625">
        <ele>773.20001220703125</ele>
        <time>2019-06-14T10:58:56.000Z</time>
        <extensions>
          <ns3:TrackPointExtension>
            <ns3:atemp>27.0</ns3:atemp>
            <ns3:hr>148</ns3:hr>
          </ns3:TrackPointExtension>
        </extensions>
      </trkpt>
      <trkpt lat="47.033637128770351409912109375" lon="6.9811438210308551788330078125">
        <ele>773.79998779296875</ele>
        <time>2019-06-14T10:59:00.000Z</time>
        <extensions>
          <ns3:TrackPointExtension>
            <ns3:atemp>27.0</ns3:atemp>
            <ns3:hr>148</ns3:hr>
          </ns3:TrackPointExtension>
        </extensions>
      </trkpt>
      <trkpt lat="47.03360770829021930694580078125" lon="6.98107282631099224090576171875">
        <ele>774.20001220703125</ele>
        <time>2019-06-14T10:59:04.000Z</time>
        <extensions>
          <ns3:TrackPointExtension>
            <ns3:atemp>27.0</ns3:atemp>
            <ns3:hr>148</ns3:hr>
          </ns3:TrackPointExtension>
        </extensions>
      </trkpt>
      <trkpt lat="47.0336118154227733612060546875" lon="6.98104181326925754547119140625">
        <ele>774.4000244140625</ele>
        <time>2019-06-14T10:59:05.000Z</time>
        <extensions>
          <ns3:TrackPointExtension>
            <ns3:atemp>27.0</ns3:atemp>
            <ns3:hr>148</ns3:hr>
          </ns3:TrackPointExtension>
        </extensions>
      </trkpt>
      <trkpt lat="47.03356705605983734130859375" lon="6.98097442276775836944580078125">
        <ele>775.4000244140625</ele>
        <time>2019-06-14T10:59:10.000Z</time>
        <extensions>
          <ns3:TrackPointExtension>
            <ns3:atemp>27.0</ns3:atemp>
            <ns3:hr>149</ns3:hr>
          </ns3:TrackPointExtension>
        </extensions>
      </trkpt>
      <trkpt lat="47.03356596641242504119873046875" lon="6.98094944469630718231201171875">
        <ele>775.4000244140625</ele>
        <time>2019-06-14T10:59:11.000Z</time>
        <extensions>
          <ns3:TrackPointExtension>
            <ns3:atemp>27.0</ns3:atemp>
            <ns3:hr>149</ns3:hr>
          </ns3:TrackPointExtension>
        </extensions>
      </trkpt>
      <trkpt lat="47.03354618512094020843505859375" lon="6.98085640557110309600830078125">
        <ele>776.4000244140625</ele>
        <time>2019-06-14T10:59:16.000Z</time>
        <extensions>
          <ns3:TrackPointExtension>
            <ns3:atemp>27.0</ns3:atemp>
            <ns3:hr>149</ns3:hr>
          </ns3:TrackPointExtension>
        </extensions>
      </trkpt>
      <trkpt lat="47.033550627529621124267578125" lon="6.98083830066025257110595703125">
        <ele>776.79998779296875</ele>
        <time>2019-06-14T10:59:17.000Z</time>
        <extensions>
          <ns3:TrackPointExtension>
            <ns3:atemp>27.0</ns3:atemp>
            <ns3:hr>149</ns3:hr>
          </ns3:TrackPointExtension>
        </extensions>
      </trkpt>
      <trkpt lat="47.0335575006902217864990234375" lon="6.98079186491668224334716796875">
        <ele>777.4000244140625</ele>
        <time>2019-06-14T10:59:21.000Z</time>
        <extensions>
          <ns3:TrackPointExtension>
            <ns3:atemp>27.0</ns3:atemp>
            <ns3:hr>148</ns3:hr>
          </ns3:TrackPointExtension>
        </extensions>
      </trkpt>
      <trkpt lat="47.03356839716434478759765625" lon="6.98075381107628345489501953125">
        <ele>777.5999755859375</ele>
        <time>2019-06-14T10:59:24.000Z</time>
        <extensions>
          <ns3:TrackPointExtension>
            <ns3:atemp>27.0</ns3:atemp>
            <ns3:hr>148</ns3:hr>
          </ns3:TrackPointExtension>
        </extensions>
      </trkpt>
      <trkpt lat="47.03356496058404445648193359375" lon="6.98074358515441417694091796875">
        <ele>777.79998779296875</ele>
        <time>2019-06-14T10:59:25.000Z</time>
        <extensions>
          <ns3:TrackPointExtension>
            <ns3:atemp>27.0</ns3:atemp>
            <ns3:hr>147</ns3:hr>
          </ns3:TrackPointExtension>
        </extensions>
      </trkpt>
      <trkpt lat="47.03355825506150722503662109375" lon="6.9807346165180206298828125">
        <ele>778</ele>
        <time>2019-06-14T10:59:26.000Z</time>
        <extensions>
          <ns3:TrackPointExtension>
            <ns3:atemp>27.0</ns3:atemp>
            <ns3:hr>147</ns3:hr>
          </ns3:TrackPointExtension>
        </extensions>
      </trkpt>
      <trkpt lat="47.03348281793296337127685546875" lon="6.98072296567261219024658203125">
        <ele>778.20001220703125</ele>
        <time>2019-06-14T10:59:28.000Z</time>
        <extensions>
          <ns3:TrackPointExtension>
            <ns3:atemp>27.0</ns3:atemp>
            <ns3:hr>146</ns3:hr>
          </ns3:TrackPointExtension>
        </extensions>
      </trkpt>
      <trkpt lat="47.033438645303249359130859375" lon="6.9806729257106781005859375">
        <ele>778.5999755859375</ele>
        <time>2019-06-14T10:59:31.000Z</time>
        <extensions>
          <ns3:TrackPointExtension>
            <ns3:atemp>27.0</ns3:atemp>
            <ns3:hr>146</ns3:hr>
          </ns3:TrackPointExtension>
        </extensions>
      </trkpt>
      <trkpt lat="47.0334264077246189117431640625" lon="6.98065456934273242950439453125">
        <ele>778.79998779296875</ele>
        <time>2019-06-14T10:59:32.000Z</time>
        <extensions>
          <ns3:TrackPointExtension>
            <ns3:atemp>27.0</ns3:atemp>
            <ns3:hr>146</ns3:hr>
          </ns3:TrackPointExtension>
        </extensions>
      </trkpt>
      <trkpt lat="47.0333922095596790313720703125" lon="6.98062598705291748046875">
        <ele>779</ele>
        <time>2019-06-14T10:59:34.000Z</time>
        <extensions>
          <ns3:TrackPointExtension>
            <ns3:atemp>27.0</ns3:atemp>
            <ns3:hr>147</ns3:hr>
          </ns3:TrackPointExtension>
        </extensions>
      </trkpt>
      <trkpt lat="47.03337184153497219085693359375" lon="6.98059539310634136199951171875">
        <ele>779.4000244140625</ele>
        <time>2019-06-14T10:59:36.000Z</time>
        <extensions>
          <ns3:TrackPointExtension>
            <ns3:atemp>27.0</ns3:atemp>
            <ns3:hr>147</ns3:hr>
          </ns3:TrackPointExtension>
        </extensions>
      </trkpt>
      <trkpt lat="47.0333637110888957977294921875" lon="6.980585418641567230224609375">
        <ele>779.5999755859375</ele>
        <time>2019-06-14T10:59:37.000Z</time>
        <extensions>
          <ns3:TrackPointExtension>
            <ns3:atemp>27.0</ns3:atemp>
            <ns3:hr>147</ns3:hr>
          </ns3:TrackPointExtension>
        </extensions>
      </trkpt>
      <trkpt lat="47.03330143354833126068115234375" lon="6.98055968619883060455322265625">
        <ele>780.5999755859375</ele>
        <time>2019-06-14T10:59:42.000Z</time>
        <extensions>
          <ns3:TrackPointExtension>
            <ns3:atemp>27.0</ns3:atemp>
            <ns3:hr>147</ns3:hr>
          </ns3:TrackPointExtension>
        </extensions>
      </trkpt>
      <trkpt lat="47.03329623676836490631103515625" lon="6.98055013082921504974365234375">
        <ele>781</ele>
        <time>2019-06-14T10:59:43.000Z</time>
        <extensions>
          <ns3:TrackPointExtension>
            <ns3:atemp>27.0</ns3:atemp>
            <ns3:hr>147</ns3:hr>
          </ns3:TrackPointExtension>
        </extensions>
      </trkpt>
      <trkpt lat="47.0332725159823894500732421875" lon="6.9805388152599334716796875">
        <ele>781.20001220703125</ele>
        <time>2019-06-14T10:59:45.000Z</time>
        <extensions>
          <ns3:TrackPointExtension>
            <ns3:atemp>27.0</ns3:atemp>
            <ns3:hr>146</ns3:hr>
          </ns3:TrackPointExtension>
        </extensions>
      </trkpt>
      <trkpt lat="47.033259607851505279541015625" lon="6.98049497790634632110595703125">
        <ele>781.4000244140625</ele>
        <time>2019-06-14T10:59:48.000Z</time>
        <extensions>
          <ns3:TrackPointExtension>
            <ns3:atemp>27.0</ns3:atemp>
            <ns3:hr>147</ns3:hr>
          </ns3:TrackPointExtension>
        </extensions>
      </trkpt>
      <trkpt lat="47.0332490466535091400146484375" lon="6.98045457713305950164794921875">
        <ele>781.79998779296875</ele>
        <time>2019-06-14T10:59:50.000Z</time>
        <extensions>
          <ns3:TrackPointExtension>
            <ns3:atemp>27.0</ns3:atemp>
            <ns3:hr>148</ns3:hr>
          </ns3:TrackPointExtension>
        </extensions>
      </trkpt>
      <trkpt lat="47.0332326181232929229736328125" lon="6.9803921319544315338134765625">
        <ele>782.20001220703125</ele>
        <time>2019-06-14T10:59:53.000Z</time>
        <extensions>
          <ns3:TrackPointExtension>
            <ns3:atemp>27.0</ns3:atemp>
            <ns3:hr>148</ns3:hr>
          </ns3:TrackPointExtension>
        </extensions>
      </trkpt>
      <trkpt lat="47.0332202129065990447998046875" lon="6.98035466484725475311279296875">
        <ele>782.79998779296875</ele>
        <time>2019-06-14T10:59:55.000Z</time>
        <extensions>
          <ns3:TrackPointExtension>
            <ns3:atemp>27.0</ns3:atemp>
            <ns3:hr>147</ns3:hr>
          </ns3:TrackPointExtension>
        </extensions>
      </trkpt>
      <trkpt lat="47.0331980846822261810302734375" lon="6.98034510947763919830322265625">
        <ele>783</ele>
        <time>2019-06-14T10:59:57.000Z</time>
        <extensions>
          <ns3:TrackPointExtension>
            <ns3:atemp>27.0</ns3:atemp>
            <ns3:hr>146</ns3:hr>
          </ns3:TrackPointExtension>
        </extensions>
      </trkpt>
      <trkpt lat="47.03320152126252651214599609375" lon="6.9802985899150371551513671875">
        <ele>783.20001220703125</ele>
        <time>2019-06-14T11:00:00.000Z</time>
        <extensions>
          <ns3:TrackPointExtension>
            <ns3:atemp>27.0</ns3:atemp>
            <ns3:hr>146</ns3:hr>
          </ns3:TrackPointExtension>
        </extensions>
      </trkpt>
      <trkpt lat="47.033208310604095458984375" lon="6.98027956299483776092529296875">
        <ele>783.20001220703125</ele>
        <time>2019-06-14T11:00:01.000Z</time>
        <extensions>
          <ns3:TrackPointExtension>
            <ns3:atemp>27.0</ns3:atemp>
            <ns3:hr>147</ns3:hr>
          </ns3:TrackPointExtension>
        </extensions>
      </trkpt>
      <trkpt lat="47.03319380991160869598388671875" lon="6.9802328757941722869873046875">
        <ele>783.5999755859375</ele>
        <time>2019-06-14T11:00:04.000Z</time>
        <extensions>
          <ns3:TrackPointExtension>
            <ns3:atemp>27.0</ns3:atemp>
            <ns3:hr>146</ns3:hr>
          </ns3:TrackPointExtension>
        </extensions>
      </trkpt>
      <trkpt lat="47.033191882073879241943359375" lon="6.98021703399717807769775390625">
        <ele>783.79998779296875</ele>
        <time>2019-06-14T11:00:05.000Z</time>
        <extensions>
          <ns3:TrackPointExtension>
            <ns3:atemp>27.0</ns3:atemp>
            <ns3:hr>146</ns3:hr>
          </ns3:TrackPointExtension>
        </extensions>
      </trkpt>
      <trkpt lat="47.0331826619803905487060546875" lon="6.9802037067711353302001953125">
        <ele>784</ele>
        <time>2019-06-14T11:00:06.000Z</time>
        <extensions>
          <ns3:TrackPointExtension>
            <ns3:atemp>27.0</ns3:atemp>
            <ns3:hr>146</ns3:hr>
          </ns3:TrackPointExtension>
        </extensions>
      </trkpt>
      <trkpt lat="47.03309901058673858642578125" lon="6.98011645115911960601806640625">
        <ele>785</ele>
        <time>2019-06-14T11:00:12.000Z</time>
        <extensions>
          <ns3:TrackPointExtension>
            <ns3:atemp>27.0</ns3:atemp>
            <ns3:hr>147</ns3:hr>
          </ns3:TrackPointExtension>
        </extensions>
      </trkpt>
      <trkpt lat="47.033086605370044708251953125" lon="6.98008946143090724945068359375">
        <ele>785.4000244140625</ele>
        <time>2019-06-14T11:00:15.000Z</time>
        <extensions>
          <ns3:TrackPointExtension>
            <ns3:atemp>27.0</ns3:atemp>
            <ns3:hr>147</ns3:hr>
          </ns3:TrackPointExtension>
        </extensions>
      </trkpt>
      <trkpt lat="47.033059783279895782470703125" lon="6.980065740644931793212890625">
        <ele>785.5999755859375</ele>
        <time>2019-06-14T11:00:17.000Z</time>
        <extensions>
          <ns3:TrackPointExtension>
            <ns3:atemp>27.0</ns3:atemp>
            <ns3:hr>147</ns3:hr>
          </ns3:TrackPointExtension>
        </extensions>
      </trkpt>
      <trkpt lat="47.0330264233052730560302734375" lon="6.9800481386482715606689453125">
        <ele>786</ele>
        <time>2019-06-14T11:00:19.000Z</time>
        <extensions>
          <ns3:TrackPointExtension>
            <ns3:atemp>27.0</ns3:atemp>
            <ns3:hr>148</ns3:hr>
          </ns3:TrackPointExtension>
        </extensions>
      </trkpt>
      <trkpt lat="47.03292994759976863861083984375" lon="6.9800296984612941741943359375">
        <ele>786.79998779296875</ele>
        <time>2019-06-14T11:00:23.000Z</time>
        <extensions>
          <ns3:TrackPointExtension>
            <ns3:atemp>27.0</ns3:atemp>
            <ns3:hr>148</ns3:hr>
          </ns3:TrackPointExtension>
        </extensions>
      </trkpt>
      <trkpt lat="47.03290991485118865966796875" lon="6.980009414255619049072265625">
        <ele>787</ele>
        <time>2019-06-14T11:00:25.000Z</time>
        <extensions>
          <ns3:TrackPointExtension>
            <ns3:atemp>27.0</ns3:atemp>
            <ns3:hr>148</ns3:hr>
          </ns3:TrackPointExtension>
        </extensions>
      </trkpt>
      <trkpt lat="47.032895497977733612060546875" lon="6.98000513948500156402587890625">
        <ele>787</ele>
        <time>2019-06-14T11:00:26.000Z</time>
        <extensions>
          <ns3:TrackPointExtension>
            <ns3:atemp>27.0</ns3:atemp>
            <ns3:hr>148</ns3:hr>
          </ns3:TrackPointExtension>
        </extensions>
      </trkpt>
      <trkpt lat="47.03286892734467983245849609375" lon="6.97997345589101314544677734375">
        <ele>787.4000244140625</ele>
        <time>2019-06-14T11:00:28.000Z</time>
        <extensions>
          <ns3:TrackPointExtension>
            <ns3:atemp>27.0</ns3:atemp>
            <ns3:hr>148</ns3:hr>
          </ns3:TrackPointExtension>
        </extensions>
      </trkpt>
      <trkpt lat="47.03283003531396389007568359375" lon="6.97991344146430492401123046875">
        <ele>788</ele>
        <time>2019-06-14T11:00:32.000Z</time>
        <extensions>
          <ns3:TrackPointExtension>
            <ns3:atemp>27.0</ns3:atemp>
            <ns3:hr>148</ns3:hr>
          </ns3:TrackPointExtension>
        </extensions>
      </trkpt>
      <trkpt lat="47.0328027941286563873291015625" lon="6.979888379573822021484375">
        <ele>788.4000244140625</ele>
        <time>2019-06-14T11:00:34.000Z</time>
        <extensions>
          <ns3:TrackPointExtension>
            <ns3:atemp>27.0</ns3:atemp>
            <ns3:hr>148</ns3:hr>
          </ns3:TrackPointExtension>
        </extensions>
      </trkpt>
      <trkpt lat="47.03277840279042720794677734375" lon="6.97975896298885345458984375">
        <ele>789.20001220703125</ele>
        <time>2019-06-14T11:00:40.000Z</time>
        <extensions>
          <ns3:TrackPointExtension>
            <ns3:atemp>27.0</ns3:atemp>
            <ns3:hr>147</ns3:hr>
          </ns3:TrackPointExtension>
        </extensions>
      </trkpt>
      <trkpt lat="47.0327729545533657073974609375" lon="6.97973884642124176025390625">
        <ele>789.20001220703125</ele>
        <time>2019-06-14T11:00:41.000Z</time>
        <extensions>
          <ns3:TrackPointExtension>
            <ns3:atemp>27.0</ns3:atemp>
            <ns3:hr>147</ns3:hr>
          </ns3:TrackPointExtension>
        </extensions>
      </trkpt>
      <trkpt lat="47.03273029066622257232666015625" lon="6.9796960987150669097900390625">
        <ele>790.4000244140625</ele>
        <time>2019-06-14T11:00:45.000Z</time>
        <extensions>
          <ns3:TrackPointExtension>
            <ns3:atemp>27.0</ns3:atemp>
            <ns3:hr>147</ns3:hr>
          </ns3:TrackPointExtension>
        </extensions>
      </trkpt>
      <trkpt lat="47.0327028818428516387939453125" lon="6.9796672649681568145751953125">
        <ele>790.5999755859375</ele>
        <time>2019-06-14T11:00:48.000Z</time>
        <extensions>
          <ns3:TrackPointExtension>
            <ns3:atemp>27.0</ns3:atemp>
            <ns3:hr>147</ns3:hr>
          </ns3:TrackPointExtension>
        </extensions>
      </trkpt>
      <trkpt lat="47.0326810888946056365966796875" lon="6.979647986590862274169921875">
        <ele>790.79998779296875</ele>
        <time>2019-06-14T11:00:50.000Z</time>
        <extensions>
          <ns3:TrackPointExtension>
            <ns3:atemp>27.0</ns3:atemp>
            <ns3:hr>147</ns3:hr>
          </ns3:TrackPointExtension>
        </extensions>
      </trkpt>
      <trkpt lat="47.0326727069914340972900390625" lon="6.9796052388846874237060546875">
        <ele>791.20001220703125</ele>
        <time>2019-06-14T11:00:52.000Z</time>
        <extensions>
          <ns3:TrackPointExtension>
            <ns3:atemp>27.0</ns3:atemp>
            <ns3:hr>147</ns3:hr>
          </ns3:TrackPointExtension>
        </extensions>
      </trkpt>
      <trkpt lat="47.03266893513500690460205078125" lon="6.9795878045260906219482421875">
        <ele>791.20001220703125</ele>
        <time>2019-06-14T11:00:53.000Z</time>
        <extensions>
          <ns3:TrackPointExtension>
            <ns3:atemp>27.0</ns3:atemp>
            <ns3:hr>147</ns3:hr>
          </ns3:TrackPointExtension>
        </extensions>
      </trkpt>
      <trkpt lat="47.03268737532198429107666015625" lon="6.97954748757183551788330078125">
        <ele>791.4000244140625</ele>
        <time>2019-06-14T11:00:54.000Z</time>
        <extensions>
          <ns3:TrackPointExtension>
            <ns3:atemp>27.0</ns3:atemp>
            <ns3:hr>147</ns3:hr>
          </ns3:TrackPointExtension>
        </extensions>
      </trkpt>
      <trkpt lat="47.0326552726328372955322265625" lon="6.9794634170830249786376953125">
        <ele>792.20001220703125</ele>
        <time>2019-06-14T11:00:58.000Z</time>
        <extensions>
          <ns3:TrackPointExtension>
            <ns3:atemp>27.0</ns3:atemp>
            <ns3:hr>147</ns3:hr>
          </ns3:TrackPointExtension>
        </extensions>
      </trkpt>
      <trkpt lat="47.0326522551476955413818359375" lon="6.97942511178553104400634765625">
        <ele>792.5999755859375</ele>
        <time>2019-06-14T11:01:00.000Z</time>
        <extensions>
          <ns3:TrackPointExtension>
            <ns3:atemp>27.0</ns3:atemp>
            <ns3:hr>147</ns3:hr>
          </ns3:TrackPointExtension>
        </extensions>
      </trkpt>
      <trkpt lat="47.0326445437967777252197265625" lon="6.9793801009654998779296875">
        <ele>793.4000244140625</ele>
        <time>2019-06-14T11:01:03.000Z</time>
        <extensions>
          <ns3:TrackPointExtension>
            <ns3:atemp>27.0</ns3:atemp>
            <ns3:hr>148</ns3:hr>
          </ns3:TrackPointExtension>
        </extensions>
      </trkpt>
      <trkpt lat="47.03264161013066768646240234375" lon="6.97936224751174449920654296875">
        <ele>793.5999755859375</ele>
        <time>2019-06-14T11:01:04.000Z</time>
        <extensions>
          <ns3:TrackPointExtension>
            <ns3:atemp>27.0</ns3:atemp>
            <ns3:hr>148</ns3:hr>
          </ns3:TrackPointExtension>
        </extensions>
      </trkpt>
      <trkpt lat="47.03265753574669361114501953125" lon="6.97923484258353710174560546875">
        <ele>794.4000244140625</ele>
        <time>2019-06-14T11:01:10.000Z</time>
        <extensions>
          <ns3:TrackPointExtension>
            <ns3:atemp>27.0</ns3:atemp>
            <ns3:hr>148</ns3:hr>
          </ns3:TrackPointExtension>
        </extensions>
      </trkpt>
      <trkpt lat="47.03265569172799587249755859375" lon="6.97921170853078365325927734375">
        <ele>794.5999755859375</ele>
        <time>2019-06-14T11:01:11.000Z</time>
        <extensions>
          <ns3:TrackPointExtension>
            <ns3:atemp>27.0</ns3:atemp>
            <ns3:hr>148</ns3:hr>
          </ns3:TrackPointExtension>
        </extensions>
      </trkpt>
      <trkpt lat="47.0326515845954418182373046875" lon="6.979194693267345428466796875">
        <ele>794.5999755859375</ele>
        <time>2019-06-14T11:01:12.000Z</time>
        <extensions>
          <ns3:TrackPointExtension>
            <ns3:atemp>27.0</ns3:atemp>
            <ns3:hr>148</ns3:hr>
          </ns3:TrackPointExtension>
        </extensions>
      </trkpt>
      <trkpt lat="47.032631970942020416259765625" lon="6.97918589226901531219482421875">
        <ele>794.5999755859375</ele>
        <time>2019-06-14T11:01:13.000Z</time>
        <extensions>
          <ns3:TrackPointExtension>
            <ns3:atemp>27.0</ns3:atemp>
            <ns3:hr>148</ns3:hr>
          </ns3:TrackPointExtension>
        </extensions>
      </trkpt>
      <trkpt lat="47.03261478804051876068115234375" lon="6.9791338406503200531005859375">
        <ele>795</ele>
        <time>2019-06-14T11:01:16.000Z</time>
        <extensions>
          <ns3:TrackPointExtension>
            <ns3:atemp>27.0</ns3:atemp>
            <ns3:hr>148</ns3:hr>
          </ns3:TrackPointExtension>
        </extensions>
      </trkpt>
      <trkpt lat="47.03258276917040348052978515625" lon="6.97913266718387603759765625">
        <ele>795.20001220703125</ele>
        <time>2019-06-14T11:01:17.000Z</time>
        <extensions>
          <ns3:TrackPointExtension>
            <ns3:atemp>27.0</ns3:atemp>
            <ns3:hr>148</ns3:hr>
          </ns3:TrackPointExtension>
        </extensions>
      </trkpt>
      <trkpt lat="47.032534740865230560302734375" lon="6.97908363305032253265380859375">
        <ele>795.79998779296875</ele>
        <time>2019-06-14T11:01:21.000Z</time>
        <extensions>
          <ns3:TrackPointExtension>
            <ns3:atemp>27.0</ns3:atemp>
            <ns3:hr>149</ns3:hr>
          </ns3:TrackPointExtension>
        </extensions>
      </trkpt>
      <trkpt lat="47.0325184799730777740478515625" lon="6.97908044792711734771728515625">
        <ele>796</ele>
        <time>2019-06-14T11:01:22.000Z</time>
        <extensions>
          <ns3:TrackPointExtension>
            <ns3:atemp>27.0</ns3:atemp>
            <ns3:hr>149</ns3:hr>
          </ns3:TrackPointExtension>
        </extensions>
      </trkpt>
      <trkpt lat="47.032462991774082183837890625" lon="6.9789863191545009613037109375">
        <ele>796.79998779296875</ele>
        <time>2019-06-14T11:01:28.000Z</time>
        <extensions>
          <ns3:TrackPointExtension>
            <ns3:atemp>27.0</ns3:atemp>
            <ns3:hr>149</ns3:hr>
          </ns3:TrackPointExtension>
        </extensions>
      </trkpt>
      <trkpt lat="47.0324594713747501373291015625" lon="6.97896771132946014404296875">
        <ele>797</ele>
        <time>2019-06-14T11:01:29.000Z</time>
        <extensions>
          <ns3:TrackPointExtension>
            <ns3:atemp>27.0</ns3:atemp>
            <ns3:hr>149</ns3:hr>
          </ns3:TrackPointExtension>
        </extensions>
      </trkpt>
      <trkpt lat="47.03242368064820766448974609375" lon="6.978950612246990203857421875">
        <ele>797.79998779296875</ele>
        <time>2019-06-14T11:01:32.000Z</time>
        <extensions>
          <ns3:TrackPointExtension>
            <ns3:atemp>27.0</ns3:atemp>
            <ns3:hr>149</ns3:hr>
          </ns3:TrackPointExtension>
        </extensions>
      </trkpt>
      <trkpt lat="47.0324189029633998870849609375" lon="6.9789323396980762481689453125">
        <ele>798</ele>
        <time>2019-06-14T11:01:33.000Z</time>
        <extensions>
          <ns3:TrackPointExtension>
            <ns3:atemp>27.0</ns3:atemp>
            <ns3:hr>149</ns3:hr>
          </ns3:TrackPointExtension>
        </extensions>
      </trkpt>
      <trkpt lat="47.032419405877590179443359375" lon="6.97889856062829494476318359375">
        <ele>798.20001220703125</ele>
        <time>2019-06-14T11:01:34.000Z</time>
        <extensions>
          <ns3:TrackPointExtension>
            <ns3:atemp>27.0</ns3:atemp>
            <ns3:hr>148</ns3:hr>
          </ns3:TrackPointExtension>
        </extensions>
      </trkpt>
      <trkpt lat="47.032369785010814666748046875" lon="6.9788114726543426513671875">
        <ele>799</ele>
        <time>2019-06-14T11:01:40.000Z</time>
        <extensions>
          <ns3:TrackPointExtension>
            <ns3:atemp>27.0</ns3:atemp>
            <ns3:hr>149</ns3:hr>
          </ns3:TrackPointExtension>
        </extensions>
      </trkpt>
      <trkpt lat="47.03236014582216739654541015625" lon="6.97880065999925136566162109375">
        <ele>799.20001220703125</ele>
        <time>2019-06-14T11:01:41.000Z</time>
        <extensions>
          <ns3:TrackPointExtension>
            <ns3:atemp>27.0</ns3:atemp>
            <ns3:hr>149</ns3:hr>
          </ns3:TrackPointExtension>
        </extensions>
      </trkpt>
      <trkpt lat="47.0323293842375278472900390625" lon="6.97873829863965511322021484375">
        <ele>800</ele>
        <time>2019-06-14T11:01:46.000Z</time>
        <extensions>
          <ns3:TrackPointExtension>
            <ns3:atemp>27.0</ns3:atemp>
            <ns3:hr>149</ns3:hr>
          </ns3:TrackPointExtension>
        </extensions>
      </trkpt>
      <trkpt lat="47.032324858009815216064453125" lon="6.97868616320192813873291015625">
        <ele>800.20001220703125</ele>
        <time>2019-06-14T11:01:49.000Z</time>
        <extensions>
          <ns3:TrackPointExtension>
            <ns3:atemp>27.0</ns3:atemp>
            <ns3:hr>149</ns3:hr>
          </ns3:TrackPointExtension>
        </extensions>
      </trkpt>
      <trkpt lat="47.0323370955884456634521484375" lon="6.97866386733949184417724609375">
        <ele>800.20001220703125</ele>
        <time>2019-06-14T11:01:50.000Z</time>
        <extensions>
          <ns3:TrackPointExtension>
            <ns3:atemp>27.0</ns3:atemp>
            <ns3:hr>149</ns3:hr>
          </ns3:TrackPointExtension>
        </extensions>
      </trkpt>
      <trkpt lat="47.0323364250361919403076171875" lon="6.97864643298089504241943359375">
        <ele>800.20001220703125</ele>
        <time>2019-06-14T11:01:51.000Z</time>
        <extensions>
          <ns3:TrackPointExtension>
            <ns3:atemp>27.0</ns3:atemp>
            <ns3:hr>149</ns3:hr>
          </ns3:TrackPointExtension>
        </extensions>
      </trkpt>
      <trkpt lat="47.03232980333268642425537109375" lon="6.9786312617361545562744140625">
        <ele>800.5999755859375</ele>
        <time>2019-06-14T11:01:52.000Z</time>
        <extensions>
          <ns3:TrackPointExtension>
            <ns3:atemp>27.0</ns3:atemp>
            <ns3:hr>150</ns3:hr>
          </ns3:TrackPointExtension>
        </extensions>
      </trkpt>
      <trkpt lat="47.03232343308627605438232421875" lon="6.9785836525261402130126953125">
        <ele>801.4000244140625</ele>
        <time>2019-06-14T11:01:54.000Z</time>
        <extensions>
          <ns3:TrackPointExtension>
            <ns3:atemp>27.0</ns3:atemp>
            <ns3:hr>150</ns3:hr>
          </ns3:TrackPointExtension>
        </extensions>
      </trkpt>
      <trkpt lat="47.0323312282562255859375" lon="6.978530175983905792236328125">
        <ele>802</ele>
        <time>2019-06-14T11:01:57.000Z</time>
        <extensions>
          <ns3:TrackPointExtension>
            <ns3:atemp>27.0</ns3:atemp>
            <ns3:hr>150</ns3:hr>
          </ns3:TrackPointExtension>
        </extensions>
      </trkpt>
      <trkpt lat="47.032323181629180908203125" lon="6.9784998334944248199462890625">
        <ele>802.20001220703125</ele>
        <time>2019-06-14T11:01:58.000Z</time>
        <extensions>
          <ns3:TrackPointExtension>
            <ns3:atemp>27.0</ns3:atemp>
            <ns3:hr>150</ns3:hr>
          </ns3:TrackPointExtension>
        </extensions>
      </trkpt>
      <trkpt lat="47.03233315609395503997802734375" lon="6.97843437083065509796142578125">
        <ele>802.20001220703125</ele>
        <time>2019-06-14T11:02:00.000Z</time>
        <extensions>
          <ns3:TrackPointExtension>
            <ns3:atemp>27.0</ns3:atemp>
            <ns3:hr>150</ns3:hr>
          </ns3:TrackPointExtension>
        </extensions>
      </trkpt>
      <trkpt lat="47.03235469758510589599609375" lon="6.9783734343945980072021484375">
        <ele>802.4000244140625</ele>
        <time>2019-06-14T11:02:02.000Z</time>
        <extensions>
          <ns3:TrackPointExtension>
            <ns3:atemp>27.0</ns3:atemp>
            <ns3:hr>150</ns3:hr>
          </ns3:TrackPointExtension>
        </extensions>
      </trkpt>
      <trkpt lat="47.03235360793769359588623046875" lon="6.97835926897823810577392578125">
        <ele>802.4000244140625</ele>
        <time>2019-06-14T11:02:03.000Z</time>
        <extensions>
          <ns3:TrackPointExtension>
            <ns3:atemp>27.0</ns3:atemp>
            <ns3:hr>150</ns3:hr>
          </ns3:TrackPointExtension>
        </extensions>
      </trkpt>
      <trkpt lat="47.03232192434370517730712890625" lon="6.97833948768675327301025390625">
        <ele>802.79998779296875</ele>
        <time>2019-06-14T11:02:05.000Z</time>
        <extensions>
          <ns3:TrackPointExtension>
            <ns3:atemp>27.0</ns3:atemp>
            <ns3:hr>151</ns3:hr>
          </ns3:TrackPointExtension>
        </extensions>
      </trkpt>
      <trkpt lat="47.0323111116886138916015625" lon="6.97828534059226512908935546875">
        <ele>803.20001220703125</ele>
        <time>2019-06-14T11:02:07.000Z</time>
        <extensions>
          <ns3:TrackPointExtension>
            <ns3:atemp>27.0</ns3:atemp>
            <ns3:hr>151</ns3:hr>
          </ns3:TrackPointExtension>
        </extensions>
      </trkpt>
      <trkpt lat="47.03229191713035106658935546875" lon="6.97825650684535503387451171875">
        <ele>803.4000244140625</ele>
        <time>2019-06-14T11:02:09.000Z</time>
        <extensions>
          <ns3:TrackPointExtension>
            <ns3:atemp>27.0</ns3:atemp>
            <ns3:hr>151</ns3:hr>
          </ns3:TrackPointExtension>
        </extensions>
      </trkpt>
      <trkpt lat="47.03225285746157169342041015625" lon="6.97821845300495624542236328125">
        <ele>804.4000244140625</ele>
        <time>2019-06-14T11:02:13.000Z</time>
        <extensions>
          <ns3:TrackPointExtension>
            <ns3:atemp>27.0</ns3:atemp>
            <ns3:hr>150</ns3:hr>
          </ns3:TrackPointExtension>
        </extensions>
      </trkpt>
      <trkpt lat="47.0322440564632415771484375" lon="6.9782074727118015289306640625">
        <ele>804.5999755859375</ele>
        <time>2019-06-14T11:02:14.000Z</time>
        <extensions>
          <ns3:TrackPointExtension>
            <ns3:atemp>27.0</ns3:atemp>
            <ns3:hr>150</ns3:hr>
          </ns3:TrackPointExtension>
        </extensions>
      </trkpt>
      <trkpt lat="47.03217909671366214752197265625" lon="6.9781541638076305389404296875">
        <ele>805.5999755859375</ele>
        <time>2019-06-14T11:02:19.000Z</time>
        <extensions>
          <ns3:TrackPointExtension>
            <ns3:atemp>27.0</ns3:atemp>
            <ns3:hr>150</ns3:hr>
          </ns3:TrackPointExtension>
        </extensions>
      </trkpt>
      <trkpt lat="47.032163254916667938232421875" lon="6.9781511463224887847900390625">
        <ele>805.79998779296875</ele>
        <time>2019-06-14T11:02:20.000Z</time>
        <extensions>
          <ns3:TrackPointExtension>
            <ns3:atemp>27.0</ns3:atemp>
            <ns3:hr>150</ns3:hr>
          </ns3:TrackPointExtension>
        </extensions>
      </trkpt>
      <trkpt lat="47.0321754924952983856201171875" lon="6.9780753739178180694580078125">
        <ele>806</ele>
        <time>2019-06-14T11:02:23.000Z</time>
        <extensions>
          <ns3:TrackPointExtension>
            <ns3:atemp>27.0</ns3:atemp>
            <ns3:hr>150</ns3:hr>
          </ns3:TrackPointExtension>
        </extensions>
      </trkpt>
      <trkpt lat="47.0321600697934627532958984375" lon="6.97806037031114101409912109375">
        <ele>806.20001220703125</ele>
        <time>2019-06-14T11:02:24.000Z</time>
        <extensions>
          <ns3:TrackPointExtension>
            <ns3:atemp>27.0</ns3:atemp>
            <ns3:hr>150</ns3:hr>
          </ns3:TrackPointExtension>
        </extensions>
      </trkpt>
      <trkpt lat="47.032118327915668487548828125" lon="6.978019215166568756103515625">
        <ele>806.79998779296875</ele>
        <time>2019-06-14T11:02:27.000Z</time>
        <extensions>
          <ns3:TrackPointExtension>
            <ns3:atemp>27.0</ns3:atemp>
            <ns3:hr>150</ns3:hr>
          </ns3:TrackPointExtension>
        </extensions>
      </trkpt>
      <trkpt lat="47.03209360130131244659423828125" lon="6.97795995511114597320556640625">
        <ele>807.5999755859375</ele>
        <time>2019-06-14T11:02:31.000Z</time>
        <extensions>
          <ns3:TrackPointExtension>
            <ns3:atemp>27.0</ns3:atemp>
            <ns3:hr>150</ns3:hr>
          </ns3:TrackPointExtension>
        </extensions>
      </trkpt>
      <trkpt lat="47.03207868151366710662841796875" lon="6.97794654406607151031494140625">
        <ele>807.79998779296875</ele>
        <time>2019-06-14T11:02:32.000Z</time>
        <extensions>
          <ns3:TrackPointExtension>
            <ns3:atemp>27.0</ns3:atemp>
            <ns3:hr>150</ns3:hr>
          </ns3:TrackPointExtension>
        </extensions>
      </trkpt>
      <trkpt lat="47.0320678688585758209228515625" lon="6.97793547995388507843017578125">
        <ele>808</ele>
        <time>2019-06-14T11:02:33.000Z</time>
        <extensions>
          <ns3:TrackPointExtension>
            <ns3:atemp>27.0</ns3:atemp>
            <ns3:hr>150</ns3:hr>
          </ns3:TrackPointExtension>
        </extensions>
      </trkpt>
      <trkpt lat="47.03201397322118282318115234375" lon="6.977869682013988494873046875">
        <ele>808.4000244140625</ele>
        <time>2019-06-14T11:02:37.000Z</time>
        <extensions>
          <ns3:TrackPointExtension>
            <ns3:atemp>27.0</ns3:atemp>
            <ns3:hr>150</ns3:hr>
          </ns3:TrackPointExtension>
        </extensions>
      </trkpt>
      <trkpt lat="47.03198497183620929718017578125" lon="6.9778322987258434295654296875">
        <ele>808.79998779296875</ele>
        <time>2019-06-14T11:02:39.000Z</time>
        <extensions>
          <ns3:TrackPointExtension>
            <ns3:atemp>27.0</ns3:atemp>
            <ns3:hr>150</ns3:hr>
          </ns3:TrackPointExtension>
        </extensions>
      </trkpt>
      <trkpt lat="47.0319495163857936859130859375" lon="6.9777887128293514251708984375">
        <ele>809.20001220703125</ele>
        <time>2019-06-14T11:02:42.000Z</time>
        <extensions>
          <ns3:TrackPointExtension>
            <ns3:atemp>27.0</ns3:atemp>
            <ns3:hr>150</ns3:hr>
          </ns3:TrackPointExtension>
        </extensions>
      </trkpt>
      <trkpt lat="47.031941302120685577392578125" lon="6.9777761399745941162109375">
        <ele>809.4000244140625</ele>
        <time>2019-06-14T11:02:43.000Z</time>
        <extensions>
          <ns3:TrackPointExtension>
            <ns3:atemp>27.0</ns3:atemp>
            <ns3:hr>150</ns3:hr>
          </ns3:TrackPointExtension>
        </extensions>
      </trkpt>
      <trkpt lat="47.031919173896312713623046875" lon="6.9777172990143299102783203125">
        <ele>810</ele>
        <time>2019-06-14T11:02:46.000Z</time>
        <extensions>
          <ns3:TrackPointExtension>
            <ns3:atemp>27.0</ns3:atemp>
            <ns3:hr>151</ns3:hr>
          </ns3:TrackPointExtension>
        </extensions>
      </trkpt>
      <trkpt lat="47.0318895019590854644775390625" lon="6.9776929914951324462890625">
        <ele>810.5999755859375</ele>
        <time>2019-06-14T11:02:49.000Z</time>
        <extensions>
          <ns3:TrackPointExtension>
            <ns3:atemp>27.0</ns3:atemp>
            <ns3:hr>151</ns3:hr>
          </ns3:TrackPointExtension>
        </extensions>
      </trkpt>
      <trkpt lat="47.03184180893003940582275390625" lon="6.97766206227242946624755859375">
        <ele>811.20001220703125</ele>
        <time>2019-06-14T11:02:53.000Z</time>
        <extensions>
          <ns3:TrackPointExtension>
            <ns3:atemp>27.0</ns3:atemp>
            <ns3:hr>150</ns3:hr>
          </ns3:TrackPointExtension>
        </extensions>
      </trkpt>
      <trkpt lat="47.03179956413805484771728515625" lon="6.97765468619763851165771484375">
        <ele>811.5999755859375</ele>
        <time>2019-06-14T11:02:55.000Z</time>
        <extensions>
          <ns3:TrackPointExtension>
            <ns3:atemp>27.0</ns3:atemp>
            <ns3:hr>150</ns3:hr>
          </ns3:TrackPointExtension>
        </extensions>
      </trkpt>
      <trkpt lat="47.0317456685006618499755859375" lon="6.97761579416692256927490234375">
        <ele>812.4000244140625</ele>
        <time>2019-06-14T11:02:59.000Z</time>
        <extensions>
          <ns3:TrackPointExtension>
            <ns3:atemp>27.0</ns3:atemp>
            <ns3:hr>149</ns3:hr>
          </ns3:TrackPointExtension>
        </extensions>
      </trkpt>
      <trkpt lat="47.03172261826694011688232421875" lon="6.97757841087877750396728515625">
        <ele>812.5999755859375</ele>
        <time>2019-06-14T11:03:01.000Z</time>
        <extensions>
          <ns3:TrackPointExtension>
            <ns3:atemp>27.0</ns3:atemp>
            <ns3:hr>150</ns3:hr>
          </ns3:TrackPointExtension>
        </extensions>
      </trkpt>
      <trkpt lat="47.03165019862353801727294921875" lon="6.97755309753119945526123046875">
        <ele>813.4000244140625</ele>
        <time>2019-06-14T11:03:05.000Z</time>
        <extensions>
          <ns3:TrackPointExtension>
            <ns3:atemp>27.0</ns3:atemp>
            <ns3:hr>150</ns3:hr>
          </ns3:TrackPointExtension>
        </extensions>
      </trkpt>
      <trkpt lat="47.0316289924085140228271484375" lon="6.9774822704493999481201171875">
        <ele>813.5999755859375</ele>
        <time>2019-06-14T11:03:08.000Z</time>
        <extensions>
          <ns3:TrackPointExtension>
            <ns3:atemp>27.0</ns3:atemp>
            <ns3:hr>151</ns3:hr>
          </ns3:TrackPointExtension>
        </extensions>
      </trkpt>
      <trkpt lat="47.031615413725376129150390625" lon="6.9773810170590877532958984375">
        <ele>814.4000244140625</ele>
        <time>2019-06-14T11:03:13.000Z</time>
        <extensions>
          <ns3:TrackPointExtension>
            <ns3:atemp>27.0</ns3:atemp>
            <ns3:hr>152</ns3:hr>
          </ns3:TrackPointExtension>
        </extensions>
      </trkpt>
      <trkpt lat="47.03160409815609455108642578125" lon="6.97728705592453479766845703125">
        <ele>815.20001220703125</ele>
        <time>2019-06-14T11:03:18.000Z</time>
        <extensions>
          <ns3:TrackPointExtension>
            <ns3:atemp>27.0</ns3:atemp>
            <ns3:hr>151</ns3:hr>
          </ns3:TrackPointExtension>
        </extensions>
      </trkpt>
      <trkpt lat="47.03159420751035213470458984375" lon="6.97726744227111339569091796875">
        <ele>815.4000244140625</ele>
        <time>2019-06-14T11:03:19.000Z</time>
        <extensions>
          <ns3:TrackPointExtension>
            <ns3:atemp>27.0</ns3:atemp>
            <ns3:hr>151</ns3:hr>
          </ns3:TrackPointExtension>
        </extensions>
      </trkpt>
      <trkpt lat="47.03158834017813205718994140625" lon="6.977179683744907379150390625">
        <ele>816</ele>
        <time>2019-06-14T11:03:23.000Z</time>
        <extensions>
          <ns3:TrackPointExtension>
            <ns3:atemp>27.0</ns3:atemp>
            <ns3:hr>151</ns3:hr>
          </ns3:TrackPointExtension>
        </extensions>
      </trkpt>
      <trkpt lat="47.03156570903956890106201171875" lon="6.9771258719265460968017578125">
        <ele>816.5999755859375</ele>
        <time>2019-06-14T11:03:27.000Z</time>
        <extensions>
          <ns3:TrackPointExtension>
            <ns3:atemp>27.0</ns3:atemp>
            <ns3:hr>151</ns3:hr>
          </ns3:TrackPointExtension>
        </extensions>
      </trkpt>
      <trkpt lat="47.03155732713639736175537109375" lon="6.9770859740674495697021484375">
        <ele>817.20001220703125</ele>
        <time>2019-06-14T11:03:30.000Z</time>
        <extensions>
          <ns3:TrackPointExtension>
            <ns3:atemp>27.0</ns3:atemp>
            <ns3:hr>151</ns3:hr>
          </ns3:TrackPointExtension>
        </extensions>
      </trkpt>
      <trkpt lat="47.031547017395496368408203125" lon="6.97707499377429485321044921875">
        <ele>817.20001220703125</ele>
        <time>2019-06-14T11:03:31.000Z</time>
        <extensions>
          <ns3:TrackPointExtension>
            <ns3:atemp>27.0</ns3:atemp>
            <ns3:hr>151</ns3:hr>
          </ns3:TrackPointExtension>
        </extensions>
      </trkpt>
      <trkpt lat="47.03151541762053966522216796875" lon="6.97702738456428050994873046875">
        <ele>817.5999755859375</ele>
        <time>2019-06-14T11:03:35.000Z</time>
        <extensions>
          <ns3:TrackPointExtension>
            <ns3:atemp>27.0</ns3:atemp>
            <ns3:hr>150</ns3:hr>
          </ns3:TrackPointExtension>
        </extensions>
      </trkpt>
      <trkpt lat="47.03149815090000629425048828125" lon="6.97702369652688503265380859375">
        <ele>817.79998779296875</ele>
        <time>2019-06-14T11:03:36.000Z</time>
        <extensions>
          <ns3:TrackPointExtension>
            <ns3:atemp>27.0</ns3:atemp>
            <ns3:hr>149</ns3:hr>
          </ns3:TrackPointExtension>
        </extensions>
      </trkpt>
      <trkpt lat="47.0314442552626132965087890625" lon="6.976940967142581939697265625">
        <ele>818.79998779296875</ele>
        <time>2019-06-14T11:03:42.000Z</time>
        <extensions>
          <ns3:TrackPointExtension>
            <ns3:atemp>27.0</ns3:atemp>
            <ns3:hr>149</ns3:hr>
          </ns3:TrackPointExtension>
        </extensions>
      </trkpt>
      <trkpt lat="47.03143469989299774169921875" lon="6.9768958725035190582275390625">
        <ele>819.20001220703125</ele>
        <time>2019-06-14T11:03:45.000Z</time>
        <extensions>
          <ns3:TrackPointExtension>
            <ns3:atemp>27.0</ns3:atemp>
            <ns3:hr>150</ns3:hr>
          </ns3:TrackPointExtension>
        </extensions>
      </trkpt>
      <trkpt lat="47.031426317989826202392578125" lon="6.97687516920268535614013671875">
        <ele>819.4000244140625</ele>
        <time>2019-06-14T11:03:46.000Z</time>
        <extensions>
          <ns3:TrackPointExtension>
            <ns3:atemp>27.0</ns3:atemp>
            <ns3:hr>150</ns3:hr>
          </ns3:TrackPointExtension>
        </extensions>
      </trkpt>
      <trkpt lat="47.03141718171536922454833984375" lon="6.97685153223574161529541015625">
        <ele>819.79998779296875</ele>
        <time>2019-06-14T11:03:48.000Z</time>
        <extensions>
          <ns3:TrackPointExtension>
            <ns3:atemp>27.0</ns3:atemp>
            <ns3:hr>150</ns3:hr>
          </ns3:TrackPointExtension>
        </extensions>
      </trkpt>
      <trkpt lat="47.03140192665159702301025390625" lon="6.97682655416429042816162109375">
        <ele>820.20001220703125</ele>
        <time>2019-06-14T11:03:50.000Z</time>
        <extensions>
          <ns3:TrackPointExtension>
            <ns3:atemp>27.0</ns3:atemp>
            <ns3:hr>149</ns3:hr>
          </ns3:TrackPointExtension>
        </extensions>
      </trkpt>
      <trkpt lat="47.03139706514775753021240234375" lon="6.97679579257965087890625">
        <ele>820.20001220703125</ele>
        <time>2019-06-14T11:03:51.000Z</time>
        <extensions>
          <ns3:TrackPointExtension>
            <ns3:atemp>27.0</ns3:atemp>
            <ns3:hr>149</ns3:hr>
          </ns3:TrackPointExtension>
        </extensions>
      </trkpt>
      <trkpt lat="47.0313889347016811370849609375" lon="6.976769976317882537841796875">
        <ele>820.4000244140625</ele>
        <time>2019-06-14T11:03:52.000Z</time>
        <extensions>
          <ns3:TrackPointExtension>
            <ns3:atemp>27.0</ns3:atemp>
            <ns3:hr>149</ns3:hr>
          </ns3:TrackPointExtension>
        </extensions>
      </trkpt>
      <trkpt lat="47.031369321048259735107421875" lon="6.976719014346599578857421875">
        <ele>820.79998779296875</ele>
        <time>2019-06-14T11:03:55.000Z</time>
        <extensions>
          <ns3:TrackPointExtension>
            <ns3:atemp>27.0</ns3:atemp>
            <ns3:hr>149</ns3:hr>
          </ns3:TrackPointExtension>
        </extensions>
      </trkpt>
      <trkpt lat="47.0313617773354053497314453125" lon="6.9766886718571186065673828125">
        <ele>821.20001220703125</ele>
        <time>2019-06-14T11:03:56.000Z</time>
        <extensions>
          <ns3:TrackPointExtension>
            <ns3:atemp>27.0</ns3:atemp>
            <ns3:hr>149</ns3:hr>
          </ns3:TrackPointExtension>
        </extensions>
      </trkpt>
      <trkpt lat="47.03135582618415355682373046875" lon="6.97664751671254634857177734375">
        <ele>821.20001220703125</ele>
        <time>2019-06-14T11:03:57.000Z</time>
        <extensions>
          <ns3:TrackPointExtension>
            <ns3:atemp>27.0</ns3:atemp>
            <ns3:hr>149</ns3:hr>
          </ns3:TrackPointExtension>
        </extensions>
      </trkpt>
      <trkpt lat="47.03131458722054958343505859375" lon="6.97659035213291645050048828125">
        <ele>822</ele>
        <time>2019-06-14T11:04:01.000Z</time>
        <extensions>
          <ns3:TrackPointExtension>
            <ns3:atemp>27.0</ns3:atemp>
            <ns3:hr>150</ns3:hr>
          </ns3:TrackPointExtension>
        </extensions>
      </trkpt>
      <trkpt lat="47.03130737878382205963134765625" lon="6.976566128432750701904296875">
        <ele>822.20001220703125</ele>
        <time>2019-06-14T11:04:02.000Z</time>
        <extensions>
          <ns3:TrackPointExtension>
            <ns3:atemp>27.0</ns3:atemp>
            <ns3:hr>150</ns3:hr>
          </ns3:TrackPointExtension>
        </extensions>
      </trkpt>
      <trkpt lat="47.03122205100953578948974609375" lon="6.97646395303308963775634765625">
        <ele>823</ele>
        <time>2019-06-14T11:04:08.000Z</time>
        <extensions>
          <ns3:TrackPointExtension>
            <ns3:atemp>27.0</ns3:atemp>
            <ns3:hr>149</ns3:hr>
          </ns3:TrackPointExtension>
        </extensions>
      </trkpt>
      <trkpt lat="47.03120662830770015716552734375" lon="6.97645858861505985260009765625">
        <ele>823</ele>
        <time>2019-06-14T11:04:09.000Z</time>
        <extensions>
          <ns3:TrackPointExtension>
            <ns3:atemp>27.0</ns3:atemp>
            <ns3:hr>149</ns3:hr>
          </ns3:TrackPointExtension>
        </extensions>
      </trkpt>
      <trkpt lat="47.03118366189301013946533203125" lon="6.97643344290554523468017578125">
        <ele>823.5999755859375</ele>
        <time>2019-06-14T11:04:11.000Z</time>
        <extensions>
          <ns3:TrackPointExtension>
            <ns3:atemp>27.0</ns3:atemp>
            <ns3:hr>149</ns3:hr>
          </ns3:TrackPointExtension>
        </extensions>
      </trkpt>
      <trkpt lat="47.03114342875778675079345703125" lon="6.97638801299035549163818359375">
        <ele>824.20001220703125</ele>
        <time>2019-06-14T11:04:14.000Z</time>
        <extensions>
          <ns3:TrackPointExtension>
            <ns3:atemp>27.0</ns3:atemp>
            <ns3:hr>150</ns3:hr>
          </ns3:TrackPointExtension>
        </extensions>
      </trkpt>
      <trkpt lat="47.03104753978550434112548828125" lon="6.97630905546247959136962890625">
        <ele>824.79998779296875</ele>
        <time>2019-06-14T11:04:20.000Z</time>
        <extensions>
          <ns3:TrackPointExtension>
            <ns3:atemp>27.0</ns3:atemp>
            <ns3:hr>150</ns3:hr>
          </ns3:TrackPointExtension>
        </extensions>
      </trkpt>
      <trkpt lat="47.03102968633174896240234375" lon="6.97630285285413265228271484375">
        <ele>825</ele>
        <time>2019-06-14T11:04:21.000Z</time>
        <extensions>
          <ns3:TrackPointExtension>
            <ns3:atemp>27.0</ns3:atemp>
            <ns3:hr>150</ns3:hr>
          </ns3:TrackPointExtension>
        </extensions>
      </trkpt>
      <trkpt lat="47.0310021936893463134765625" lon="6.97628189809620380401611328125">
        <ele>825.20001220703125</ele>
        <time>2019-06-14T11:04:23.000Z</time>
        <extensions>
          <ns3:TrackPointExtension>
            <ns3:atemp>27.0</ns3:atemp>
            <ns3:hr>150</ns3:hr>
          </ns3:TrackPointExtension>
        </extensions>
      </trkpt>
      <trkpt lat="47.030973024666309356689453125" lon="6.97623051702976226806640625">
        <ele>825.79998779296875</ele>
        <time>2019-06-14T11:04:26.000Z</time>
        <extensions>
          <ns3:TrackPointExtension>
            <ns3:atemp>27.0</ns3:atemp>
            <ns3:hr>150</ns3:hr>
          </ns3:TrackPointExtension>
        </extensions>
      </trkpt>
      <trkpt lat="47.03096154145896434783935546875" lon="6.9762155972421169281005859375">
        <ele>825.79998779296875</ele>
        <time>2019-06-14T11:04:27.000Z</time>
        <extensions>
          <ns3:TrackPointExtension>
            <ns3:atemp>27.0</ns3:atemp>
            <ns3:hr>150</ns3:hr>
          </ns3:TrackPointExtension>
        </extensions>
      </trkpt>
      <trkpt lat="47.0309433527290821075439453125" lon="6.9761855900287628173828125">
        <ele>826.4000244140625</ele>
        <time>2019-06-14T11:04:29.000Z</time>
        <extensions>
          <ns3:TrackPointExtension>
            <ns3:atemp>27.0</ns3:atemp>
            <ns3:hr>150</ns3:hr>
          </ns3:TrackPointExtension>
        </extensions>
      </trkpt>
      <trkpt lat="47.03092549927532672882080078125" lon="6.97614259086549282073974609375">
        <ele>827</ele>
        <time>2019-06-14T11:04:31.000Z</time>
        <extensions>
          <ns3:TrackPointExtension>
            <ns3:atemp>27.0</ns3:atemp>
            <ns3:hr>150</ns3:hr>
          </ns3:TrackPointExtension>
        </extensions>
      </trkpt>
      <trkpt lat="47.0309098251163959503173828125" lon="6.97612716816365718841552734375">
        <ele>827.20001220703125</ele>
        <time>2019-06-14T11:04:32.000Z</time>
        <extensions>
          <ns3:TrackPointExtension>
            <ns3:atemp>27.0</ns3:atemp>
            <ns3:hr>150</ns3:hr>
          </ns3:TrackPointExtension>
        </extensions>
      </trkpt>
      <trkpt lat="47.030901610851287841796875" lon="6.976101435720920562744140625">
        <ele>827.4000244140625</ele>
        <time>2019-06-14T11:04:33.000Z</time>
        <extensions>
          <ns3:TrackPointExtension>
            <ns3:atemp>27.0</ns3:atemp>
            <ns3:hr>150</ns3:hr>
          </ns3:TrackPointExtension>
        </extensions>
      </trkpt>
      <trkpt lat="47.03089633025228977203369140625" lon="6.97605290450155735015869140625">
        <ele>827.79998779296875</ele>
        <time>2019-06-14T11:04:35.000Z</time>
        <extensions>
          <ns3:TrackPointExtension>
            <ns3:atemp>27.0</ns3:atemp>
            <ns3:hr>150</ns3:hr>
          </ns3:TrackPointExtension>
        </extensions>
      </trkpt>
      <trkpt lat="47.03084654174745082855224609375" lon="6.9759912975132465362548828125">
        <ele>828.5999755859375</ele>
        <time>2019-06-14T11:04:39.000Z</time>
        <extensions>
          <ns3:TrackPointExtension>
            <ns3:atemp>27.0</ns3:atemp>
            <ns3:hr>150</ns3:hr>
          </ns3:TrackPointExtension>
        </extensions>
      </trkpt>
      <trkpt lat="47.03083296306431293487548828125" lon="6.97592851705849170684814453125">
        <ele>829.4000244140625</ele>
        <time>2019-06-14T11:04:43.000Z</time>
        <extensions>
          <ns3:TrackPointExtension>
            <ns3:atemp>27.0</ns3:atemp>
            <ns3:hr>150</ns3:hr>
          </ns3:TrackPointExtension>
        </extensions>
      </trkpt>
      <trkpt lat="47.03082508407533168792724609375" lon="6.97590756230056285858154296875">
        <ele>829.5999755859375</ele>
        <time>2019-06-14T11:04:44.000Z</time>
        <extensions>
          <ns3:TrackPointExtension>
            <ns3:atemp>27.0</ns3:atemp>
            <ns3:hr>151</ns3:hr>
          </ns3:TrackPointExtension>
        </extensions>
      </trkpt>
      <trkpt lat="47.03078166581690311431884765625" lon="6.97584469802677631378173828125">
        <ele>830.4000244140625</ele>
        <time>2019-06-14T11:04:48.000Z</time>
        <extensions>
          <ns3:TrackPointExtension>
            <ns3:atemp>27.0</ns3:atemp>
            <ns3:hr>152</ns3:hr>
          </ns3:TrackPointExtension>
        </extensions>
      </trkpt>
      <trkpt lat="47.03077898360788822174072265625" lon="6.9758323766291141510009765625">
        <ele>830.5999755859375</ele>
        <time>2019-06-14T11:04:49.000Z</time>
        <extensions>
          <ns3:TrackPointExtension>
            <ns3:atemp>27.0</ns3:atemp>
            <ns3:hr>152</ns3:hr>
          </ns3:TrackPointExtension>
        </extensions>
      </trkpt>
      <trkpt lat="47.0307639800012111663818359375" lon="6.9757783971726894378662109375">
        <ele>831</ele>
        <time>2019-06-14T11:04:52.000Z</time>
        <extensions>
          <ns3:TrackPointExtension>
            <ns3:atemp>27.0</ns3:atemp>
            <ns3:hr>152</ns3:hr>
          </ns3:TrackPointExtension>
        </extensions>
      </trkpt>
      <trkpt lat="47.03075802884995937347412109375" lon="6.97575232945382595062255859375">
        <ele>831</ele>
        <time>2019-06-14T11:04:53.000Z</time>
        <extensions>
          <ns3:TrackPointExtension>
            <ns3:atemp>27.0</ns3:atemp>
            <ns3:hr>152</ns3:hr>
          </ns3:TrackPointExtension>
        </extensions>
      </trkpt>
      <trkpt lat="47.0307411812245845794677734375" lon="6.97567018680274486541748046875">
        <ele>831.5999755859375</ele>
        <time>2019-06-14T11:04:56.000Z</time>
        <extensions>
          <ns3:TrackPointExtension>
            <ns3:atemp>27.0</ns3:atemp>
            <ns3:hr>152</ns3:hr>
          </ns3:TrackPointExtension>
        </extensions>
      </trkpt>
      <trkpt lat="47.0307096652686595916748046875" lon="6.9756312109529972076416015625">
        <ele>832.20001220703125</ele>
        <time>2019-06-14T11:04:59.000Z</time>
        <extensions>
          <ns3:TrackPointExtension>
            <ns3:atemp>27.0</ns3:atemp>
            <ns3:hr>152</ns3:hr>
          </ns3:TrackPointExtension>
        </extensions>
      </trkpt>
      <trkpt lat="47.03065375797450542449951171875" lon="6.97556130588054656982421875">
        <ele>832.79998779296875</ele>
        <time>2019-06-14T11:05:03.000Z</time>
        <extensions>
          <ns3:TrackPointExtension>
            <ns3:atemp>27.0</ns3:atemp>
            <ns3:hr>151</ns3:hr>
          </ns3:TrackPointExtension>
        </extensions>
      </trkpt>
      <trkpt lat="47.03046231530606746673583984375" lon="6.97571410797536373138427734375">
        <ele>833.20001220703125</ele>
        <time>2019-06-14T11:05:36.000Z</time>
        <extensions>
          <ns3:TrackPointExtension>
            <ns3:atemp>27.0</ns3:atemp>
            <ns3:hr>147</ns3:hr>
          </ns3:TrackPointExtension>
        </extensions>
      </trkpt>
      <trkpt lat="47.03045359812676906585693359375" lon="6.9757106713950634002685546875">
        <ele>833.20001220703125</ele>
        <time>2019-06-14T11:05:38.000Z</time>
        <extensions>
          <ns3:TrackPointExtension>
            <ns3:atemp>27.0</ns3:atemp>
            <ns3:hr>146</ns3:hr>
          </ns3:TrackPointExtension>
        </extensions>
      </trkpt>
      <trkpt lat="47.030432224273681640625" lon="6.97570572607219219207763671875">
        <ele>833.4000244140625</ele>
        <time>2019-06-14T11:05:41.000Z</time>
        <extensions>
          <ns3:TrackPointExtension>
            <ns3:atemp>27.0</ns3:atemp>
            <ns3:hr>145</ns3:hr>
          </ns3:TrackPointExtension>
        </extensions>
      </trkpt>
      <trkpt lat="47.03040783293545246124267578125" lon="6.9756892137229442596435546875">
        <ele>833.20001220703125</ele>
        <time>2019-06-14T11:05:43.000Z</time>
        <extensions>
          <ns3:TrackPointExtension>
            <ns3:atemp>27.0</ns3:atemp>
            <ns3:hr>144</ns3:hr>
          </ns3:TrackPointExtension>
        </extensions>
      </trkpt>
      <trkpt lat="47.03030222095549106597900390625" lon="6.97552886791527271270751953125">
        <ele>831.5999755859375</ele>
        <time>2019-06-14T11:05:47.000Z</time>
        <extensions>
          <ns3:TrackPointExtension>
            <ns3:atemp>27.0</ns3:atemp>
            <ns3:hr>144</ns3:hr>
          </ns3:TrackPointExtension>
        </extensions>
      </trkpt>
      <trkpt lat="47.03022946603596210479736328125" lon="6.97541403584182262420654296875">
        <ele>830.20001220703125</ele>
        <time>2019-06-14T11:05:49.000Z</time>
        <extensions>
          <ns3:TrackPointExtension>
            <ns3:atemp>27.0</ns3:atemp>
            <ns3:hr>143</ns3:hr>
          </ns3:TrackPointExtension>
        </extensions>
      </trkpt>
      <trkpt lat="47.03018470667302608489990234375" lon="6.97535502724349498748779296875">
        <ele>829.4000244140625</ele>
        <time>2019-06-14T11:05:50.000Z</time>
        <extensions>
          <ns3:TrackPointExtension>
            <ns3:atemp>27.0</ns3:atemp>
            <ns3:hr>143</ns3:hr>
          </ns3:TrackPointExtension>
        </extensions>
      </trkpt>
      <trkpt lat="47.030131816864013671875" lon="6.975293420255184173583984375">
        <ele>828.79998779296875</ele>
        <time>2019-06-14T11:05:51.000Z</time>
        <extensions>
          <ns3:TrackPointExtension>
            <ns3:atemp>27.0</ns3:atemp>
            <ns3:hr>143</ns3:hr>
          </ns3:TrackPointExtension>
        </extensions>
      </trkpt>
      <trkpt lat="47.03007624484598636627197265625" lon="6.97521639056503772735595703125">
        <ele>827.79998779296875</ele>
        <time>2019-06-14T11:05:52.000Z</time>
        <extensions>
          <ns3:TrackPointExtension>
            <ns3:atemp>27.0</ns3:atemp>
            <ns3:hr>143</ns3:hr>
          </ns3:TrackPointExtension>
        </extensions>
      </trkpt>
      <trkpt lat="47.0300176553428173065185546875" lon="6.97513424791395664215087890625">
        <ele>826.79998779296875</ele>
        <time>2019-06-14T11:05:53.000Z</time>
        <extensions>
          <ns3:TrackPointExtension>
            <ns3:atemp>27.0</ns3:atemp>
            <ns3:hr>143</ns3:hr>
          </ns3:TrackPointExtension>
        </extensions>
      </trkpt>
      <trkpt lat="47.02995940111577510833740234375" lon="6.975043974816799163818359375">
        <ele>826</ele>
        <time>2019-06-14T11:05:54.000Z</time>
        <extensions>
          <ns3:TrackPointExtension>
            <ns3:atemp>27.0</ns3:atemp>
            <ns3:hr>142</ns3:hr>
          </ns3:TrackPointExtension>
        </extensions>
      </trkpt>
      <trkpt lat="47.0298959501087665557861328125" lon="6.97495353408157825469970703125">
        <ele>825.20001220703125</ele>
        <time>2019-06-14T11:05:55.000Z</time>
        <extensions>
          <ns3:TrackPointExtension>
            <ns3:atemp>27.0</ns3:atemp>
            <ns3:hr>142</ns3:hr>
          </ns3:TrackPointExtension>
        </extensions>
      </trkpt>
      <trkpt lat="47.0297682099044322967529296875" lon="6.97476477362215518951416015625">
        <ele>823.79998779296875</ele>
        <time>2019-06-14T11:05:57.000Z</time>
        <extensions>
          <ns3:TrackPointExtension>
            <ns3:atemp>27.0</ns3:atemp>
            <ns3:hr>141</ns3:hr>
          </ns3:TrackPointExtension>
        </extensions>
      </trkpt>
      <trkpt lat="47.0297038368880748748779296875" lon="6.97466854937374591827392578125">
        <ele>822.79998779296875</ele>
        <time>2019-06-14T11:05:58.000Z</time>
        <extensions>
          <ns3:TrackPointExtension>
            <ns3:atemp>27.0</ns3:atemp>
            <ns3:hr>141</ns3:hr>
          </ns3:TrackPointExtension>
        </extensions>
      </trkpt>
      <trkpt lat="47.02964164316654205322265625" lon="6.974571906030178070068359375">
        <ele>821.4000244140625</ele>
        <time>2019-06-14T11:05:59.000Z</time>
        <extensions>
          <ns3:TrackPointExtension>
            <ns3:atemp>27.0</ns3:atemp>
            <ns3:hr>141</ns3:hr>
          </ns3:TrackPointExtension>
        </extensions>
      </trkpt>
      <trkpt lat="47.0295140706002712249755859375" lon="6.9743859954178333282470703125">
        <ele>820</ele>
        <time>2019-06-14T11:06:01.000Z</time>
        <extensions>
          <ns3:TrackPointExtension>
            <ns3:atemp>27.0</ns3:atemp>
            <ns3:hr>141</ns3:hr>
          </ns3:TrackPointExtension>
        </extensions>
      </trkpt>
      <trkpt lat="47.02944441698491573333740234375" lon="6.974310390651226043701171875">
        <ele>819.5999755859375</ele>
        <time>2019-06-14T11:06:02.000Z</time>
        <extensions>
          <ns3:TrackPointExtension>
            <ns3:atemp>26.0</ns3:atemp>
            <ns3:hr>141</ns3:hr>
          </ns3:TrackPointExtension>
        </extensions>
      </trkpt>
      <trkpt lat="47.0292823947966098785400390625" lon="6.97418139316141605377197265625">
        <ele>818.79998779296875</ele>
        <time>2019-06-14T11:06:04.000Z</time>
        <extensions>
          <ns3:TrackPointExtension>
            <ns3:atemp>26.0</ns3:atemp>
            <ns3:hr>140</ns3:hr>
          </ns3:TrackPointExtension>
        </extensions>
      </trkpt>
      <trkpt lat="47.029010988771915435791015625" lon="6.97400026023387908935546875">
        <ele>817.4000244140625</ele>
        <time>2019-06-14T11:06:07.000Z</time>
        <extensions>
          <ns3:TrackPointExtension>
            <ns3:atemp>26.0</ns3:atemp>
            <ns3:hr>139</ns3:hr>
          </ns3:TrackPointExtension>
        </extensions>
      </trkpt>
      <trkpt lat="47.02886774204671382904052734375" lon="6.9738301075994968414306640625">
        <ele>816.20001220703125</ele>
        <time>2019-06-14T11:06:09.000Z</time>
        <extensions>
          <ns3:TrackPointExtension>
            <ns3:atemp>26.0</ns3:atemp>
            <ns3:hr>138</ns3:hr>
          </ns3:TrackPointExtension>
        </extensions>
      </trkpt>
      <trkpt lat="47.02864344231784343719482421875" lon="6.9735303707420825958251953125">
        <ele>815.20001220703125</ele>
        <time>2019-06-14T11:06:12.000Z</time>
        <extensions>
          <ns3:TrackPointExtension>
            <ns3:atemp>26.0</ns3:atemp>
            <ns3:hr>137</ns3:hr>
          </ns3:TrackPointExtension>
        </extensions>
      </trkpt>
      <trkpt lat="47.02847261913120746612548828125" lon="6.97336055338382720947265625">
        <ele>813.4000244140625</ele>
        <time>2019-06-14T11:06:14.000Z</time>
        <extensions>
          <ns3:TrackPointExtension>
            <ns3:atemp>26.0</ns3:atemp>
            <ns3:hr>137</ns3:hr>
          </ns3:TrackPointExtension>
        </extensions>
      </trkpt>
      <trkpt lat="47.0283265225589275360107421875" lon="6.97317606769502162933349609375">
        <ele>812</ele>
        <time>2019-06-14T11:06:16.000Z</time>
        <extensions>
          <ns3:TrackPointExtension>
            <ns3:atemp>26.0</ns3:atemp>
            <ns3:hr>136</ns3:hr>
          </ns3:TrackPointExtension>
        </extensions>
      </trkpt>
      <trkpt lat="47.02818696387112140655517578125" lon="6.97300876490771770477294921875">
        <ele>810.4000244140625</ele>
        <time>2019-06-14T11:06:18.000Z</time>
        <extensions>
          <ns3:TrackPointExtension>
            <ns3:atemp>25.0</ns3:atemp>
            <ns3:hr>136</ns3:hr>
          </ns3:TrackPointExtension>
        </extensions>
      </trkpt>
      <trkpt lat="47.028050757944583892822265625" lon="6.9728695414960384368896484375">
        <ele>809.5999755859375</ele>
        <time>2019-06-14T11:06:20.000Z</time>
        <extensions>
          <ns3:TrackPointExtension>
            <ns3:atemp>25.0</ns3:atemp>
            <ns3:hr>136</ns3:hr>
          </ns3:TrackPointExtension>
        </extensions>
      </trkpt>
      <trkpt lat="47.02798764221370220184326171875" lon="6.9727998040616512298583984375">
        <ele>809.20001220703125</ele>
        <time>2019-06-14T11:06:21.000Z</time>
        <extensions>
          <ns3:TrackPointExtension>
            <ns3:atemp>25.0</ns3:atemp>
            <ns3:hr>136</ns3:hr>
          </ns3:TrackPointExtension>
        </extensions>
      </trkpt>
      <trkpt lat="47.0277904160320758819580078125" lon="6.97257508523762226104736328125">
        <ele>808</ele>
        <time>2019-06-14T11:06:24.000Z</time>
        <extensions>
          <ns3:TrackPointExtension>
            <ns3:atemp>25.0</ns3:atemp>
            <ns3:hr>135</ns3:hr>
          </ns3:TrackPointExtension>
        </extensions>
      </trkpt>
      <trkpt lat="47.02773056924343109130859375" lon="6.97250518016517162322998046875">
        <ele>807.4000244140625</ele>
        <time>2019-06-14T11:06:25.000Z</time>
        <extensions>
          <ns3:TrackPointExtension>
            <ns3:atemp>25.0</ns3:atemp>
            <ns3:hr>134</ns3:hr>
          </ns3:TrackPointExtension>
        </extensions>
      </trkpt>
      <trkpt lat="47.0276708900928497314453125" lon="6.97243074886500835418701171875">
        <ele>806.79998779296875</ele>
        <time>2019-06-14T11:06:26.000Z</time>
        <extensions>
          <ns3:TrackPointExtension>
            <ns3:atemp>25.0</ns3:atemp>
            <ns3:hr>134</ns3:hr>
          </ns3:TrackPointExtension>
        </extensions>
      </trkpt>
      <trkpt lat="47.02753636054694652557373046875" lon="6.97229110635817050933837890625">
        <ele>805.20001220703125</ele>
        <time>2019-06-14T11:06:28.000Z</time>
        <extensions>
          <ns3:TrackPointExtension>
            <ns3:atemp>25.0</ns3:atemp>
            <ns3:hr>133</ns3:hr>
          </ns3:TrackPointExtension>
        </extensions>
      </trkpt>
      <trkpt lat="47.02739923261106014251708984375" lon="6.97212246246635913848876953125">
        <ele>804</ele>
        <time>2019-06-14T11:06:30.000Z</time>
        <extensions>
          <ns3:TrackPointExtension>
            <ns3:atemp>25.0</ns3:atemp>
            <ns3:hr>133</ns3:hr>
          </ns3:TrackPointExtension>
        </extensions>
      </trkpt>
      <trkpt lat="47.02734491787850856781005859375" lon="6.972017101943492889404296875">
        <ele>803.4000244140625</ele>
        <time>2019-06-14T11:06:31.000Z</time>
        <extensions>
          <ns3:TrackPointExtension>
            <ns3:atemp>25.0</ns3:atemp>
            <ns3:hr>133</ns3:hr>
          </ns3:TrackPointExtension>
        </extensions>
      </trkpt>
      <trkpt lat="47.0272207818925380706787109375" lon="6.97181048803031444549560546875">
        <ele>802.5999755859375</ele>
        <time>2019-06-14T11:06:33.000Z</time>
        <extensions>
          <ns3:TrackPointExtension>
            <ns3:atemp>25.0</ns3:atemp>
            <ns3:hr>133</ns3:hr>
          </ns3:TrackPointExtension>
        </extensions>
      </trkpt>
      <trkpt lat="47.02715515159070491790771484375" lon="6.97171828709542751312255859375">
        <ele>802.20001220703125</ele>
        <time>2019-06-14T11:06:34.000Z</time>
        <extensions>
          <ns3:TrackPointExtension>
            <ns3:atemp>25.0</ns3:atemp>
            <ns3:hr>134</ns3:hr>
          </ns3:TrackPointExtension>
        </extensions>
      </trkpt>
      <trkpt lat="47.0270873419940471649169921875" lon="6.97163245640695095062255859375">
        <ele>801.4000244140625</ele>
        <time>2019-06-14T11:06:35.000Z</time>
        <extensions>
          <ns3:TrackPointExtension>
            <ns3:atemp>25.0</ns3:atemp>
            <ns3:hr>134</ns3:hr>
          </ns3:TrackPointExtension>
        </extensions>
      </trkpt>
      <trkpt lat="47.0270139165222644805908203125" lon="6.97155953384935855865478515625">
        <ele>800.5999755859375</ele>
        <time>2019-06-14T11:06:36.000Z</time>
        <extensions>
          <ns3:TrackPointExtension>
            <ns3:atemp>25.0</ns3:atemp>
            <ns3:hr>135</ns3:hr>
          </ns3:TrackPointExtension>
        </extensions>
      </trkpt>
      <trkpt lat="47.02694107778370380401611328125" lon="6.9714944064617156982421875">
        <ele>800.20001220703125</ele>
        <time>2019-06-14T11:06:37.000Z</time>
        <extensions>
          <ns3:TrackPointExtension>
            <ns3:atemp>25.0</ns3:atemp>
            <ns3:hr>135</ns3:hr>
          </ns3:TrackPointExtension>
        </extensions>
      </trkpt>
      <trkpt lat="47.02671593986451625823974609375" lon="6.97129751555621623992919921875">
        <ele>799</ele>
        <time>2019-06-14T11:06:40.000Z</time>
        <extensions>
          <ns3:TrackPointExtension>
            <ns3:atemp>24.0</ns3:atemp>
            <ns3:hr>133</ns3:hr>
          </ns3:TrackPointExtension>
        </extensions>
      </trkpt>
      <trkpt lat="47.0266353897750377655029296875" lon="6.97123012505471706390380859375">
        <ele>798.4000244140625</ele>
        <time>2019-06-14T11:06:41.000Z</time>
        <extensions>
          <ns3:TrackPointExtension>
            <ns3:atemp>24.0</ns3:atemp>
            <ns3:hr>133</ns3:hr>
          </ns3:TrackPointExtension>
        </extensions>
      </trkpt>
      <trkpt lat="47.0265519060194492340087890625" lon="6.97115435265004634857177734375">
        <ele>797.79998779296875</ele>
        <time>2019-06-14T11:06:42.000Z</time>
        <extensions>
          <ns3:TrackPointExtension>
            <ns3:atemp>24.0</ns3:atemp>
            <ns3:hr>133</ns3:hr>
          </ns3:TrackPointExtension>
        </extensions>
      </trkpt>
      <trkpt lat="47.02646993100643157958984375" lon="6.971068941056728363037109375">
        <ele>797</ele>
        <time>2019-06-14T11:06:43.000Z</time>
        <extensions>
          <ns3:TrackPointExtension>
            <ns3:atemp>24.0</ns3:atemp>
            <ns3:hr>133</ns3:hr>
          </ns3:TrackPointExtension>
        </extensions>
      </trkpt>
      <trkpt lat="47.0263956673443317413330078125" lon="6.9709847867488861083984375">
        <ele>796.4000244140625</ele>
        <time>2019-06-14T11:06:44.000Z</time>
        <extensions>
          <ns3:TrackPointExtension>
            <ns3:atemp>24.0</ns3:atemp>
            <ns3:hr>132</ns3:hr>
          </ns3:TrackPointExtension>
        </extensions>
      </trkpt>
      <trkpt lat="47.02632282860577106475830078125" lon="6.97091530077159404754638671875">
        <ele>796</ele>
        <time>2019-06-14T11:06:45.000Z</time>
        <extensions>
          <ns3:TrackPointExtension>
            <ns3:atemp>24.0</ns3:atemp>
            <ns3:hr>132</ns3:hr>
          </ns3:TrackPointExtension>
        </extensions>
      </trkpt>
      <trkpt lat="47.0261810906231403350830078125" lon="6.9707863032817840576171875">
        <ele>795</ele>
        <time>2019-06-14T11:06:47.000Z</time>
        <extensions>
          <ns3:TrackPointExtension>
            <ns3:atemp>24.0</ns3:atemp>
            <ns3:hr>131</ns3:hr>
          </ns3:TrackPointExtension>
        </extensions>
      </trkpt>
      <trkpt lat="47.0261187292635440826416015625" lon="6.9707180745899677276611328125">
        <ele>794.4000244140625</ele>
        <time>2019-06-14T11:06:48.000Z</time>
        <extensions>
          <ns3:TrackPointExtension>
            <ns3:atemp>24.0</ns3:atemp>
            <ns3:hr>131</ns3:hr>
          </ns3:TrackPointExtension>
        </extensions>
      </trkpt>
      <trkpt lat="47.02605393715202808380126953125" lon="6.97064104489982128143310546875">
        <ele>793.79998779296875</ele>
        <time>2019-06-14T11:06:49.000Z</time>
        <extensions>
          <ns3:TrackPointExtension>
            <ns3:atemp>24.0</ns3:atemp>
            <ns3:hr>131</ns3:hr>
          </ns3:TrackPointExtension>
        </extensions>
      </trkpt>
      <trkpt lat="47.02598822303116321563720703125" lon="6.97055236436426639556884765625">
        <ele>793.20001220703125</ele>
        <time>2019-06-14T11:06:50.000Z</time>
        <extensions>
          <ns3:TrackPointExtension>
            <ns3:atemp>24.0</ns3:atemp>
            <ns3:hr>131</ns3:hr>
          </ns3:TrackPointExtension>
        </extensions>
      </trkpt>
      <trkpt lat="47.02592234127223491668701171875" lon="6.97046586312353610992431640625">
        <ele>792.4000244140625</ele>
        <time>2019-06-14T11:06:51.000Z</time>
        <extensions>
          <ns3:TrackPointExtension>
            <ns3:atemp>24.0</ns3:atemp>
            <ns3:hr>131</ns3:hr>
          </ns3:TrackPointExtension>
        </extensions>
      </trkpt>
      <trkpt lat="47.02585704624652862548828125" lon="6.9703727401793003082275390625">
        <ele>791.79998779296875</ele>
        <time>2019-06-14T11:06:52.000Z</time>
        <extensions>
          <ns3:TrackPointExtension>
            <ns3:atemp>24.0</ns3:atemp>
            <ns3:hr>131</ns3:hr>
          </ns3:TrackPointExtension>
        </extensions>
      </trkpt>
      <trkpt lat="47.02579309232532978057861328125" lon="6.97028330527245998382568359375">
        <ele>790.79998779296875</ele>
        <time>2019-06-14T11:06:53.000Z</time>
        <extensions>
          <ns3:TrackPointExtension>
            <ns3:atemp>24.0</ns3:atemp>
            <ns3:hr>130</ns3:hr>
          </ns3:TrackPointExtension>
        </extensions>
      </trkpt>
      <trkpt lat="47.02564976178109645843505859375" lon="6.97010845877230167388916015625">
        <ele>789.20001220703125</ele>
        <time>2019-06-14T11:06:55.000Z</time>
        <extensions>
          <ns3:TrackPointExtension>
            <ns3:atemp>24.0</ns3:atemp>
            <ns3:hr>130</ns3:hr>
          </ns3:TrackPointExtension>
        </extensions>
      </trkpt>
      <trkpt lat="47.025570385158061981201171875" lon="6.9700210355222225189208984375">
        <ele>788.4000244140625</ele>
        <time>2019-06-14T11:06:56.000Z</time>
        <extensions>
          <ns3:TrackPointExtension>
            <ns3:atemp>24.0</ns3:atemp>
            <ns3:hr>130</ns3:hr>
          </ns3:TrackPointExtension>
        </extensions>
      </trkpt>
      <trkpt lat="47.02549763023853302001953125" lon="6.9699278287589550018310546875">
        <ele>787.79998779296875</ele>
        <time>2019-06-14T11:06:57.000Z</time>
        <extensions>
          <ns3:TrackPointExtension>
            <ns3:atemp>24.0</ns3:atemp>
            <ns3:hr>130</ns3:hr>
          </ns3:TrackPointExtension>
        </extensions>
      </trkpt>
      <trkpt lat="47.025343067944049835205078125" lon="6.96972188539803028106689453125">
        <ele>786.20001220703125</ele>
        <time>2019-06-14T11:06:59.000Z</time>
        <extensions>
          <ns3:TrackPointExtension>
            <ns3:atemp>24.0</ns3:atemp>
            <ns3:hr>130</ns3:hr>
          </ns3:TrackPointExtension>
        </extensions>
      </trkpt>
      <trkpt lat="47.02516344375908374786376953125" lon="6.9695305265486240386962890625">
        <ele>785</ele>
        <time>2019-06-14T11:07:01.000Z</time>
        <extensions>
          <ns3:TrackPointExtension>
            <ns3:atemp>24.0</ns3:atemp>
            <ns3:hr>130</ns3:hr>
          </ns3:TrackPointExtension>
        </extensions>
      </trkpt>
      <trkpt lat="47.02495020814239978790283203125" lon="6.9693754613399505615234375">
        <ele>783.79998779296875</ele>
        <time>2019-06-14T11:07:03.000Z</time>
        <extensions>
          <ns3:TrackPointExtension>
            <ns3:atemp>24.0</ns3:atemp>
            <ns3:hr>130</ns3:hr>
          </ns3:TrackPointExtension>
        </extensions>
      </trkpt>
      <trkpt lat="47.02475859783589839935302734375" lon="6.96921310387551784515380859375">
        <ele>782</ele>
        <time>2019-06-14T11:07:05.000Z</time>
        <extensions>
          <ns3:TrackPointExtension>
            <ns3:atemp>24.0</ns3:atemp>
            <ns3:hr>130</ns3:hr>
          </ns3:TrackPointExtension>
        </extensions>
      </trkpt>
      <trkpt lat="47.0245724357664585113525390625" lon="6.96905502118170261383056640625">
        <ele>781</ele>
        <time>2019-06-14T11:07:07.000Z</time>
        <extensions>
          <ns3:TrackPointExtension>
            <ns3:atemp>24.0</ns3:atemp>
            <ns3:hr>130</ns3:hr>
          </ns3:TrackPointExtension>
        </extensions>
      </trkpt>
      <trkpt lat="47.02448886819183826446533203125" lon="6.96899450384080410003662109375">
        <ele>780.5999755859375</ele>
        <time>2019-06-14T11:07:08.000Z</time>
        <extensions>
          <ns3:TrackPointExtension>
            <ns3:atemp>24.0</ns3:atemp>
            <ns3:hr>130</ns3:hr>
          </ns3:TrackPointExtension>
        </extensions>
      </trkpt>
      <trkpt lat="47.02433866448700428009033203125" lon="6.9689206592738628387451171875">
        <ele>779.79998779296875</ele>
        <time>2019-06-14T11:07:10.000Z</time>
        <extensions>
          <ns3:TrackPointExtension>
            <ns3:atemp>24.0</ns3:atemp>
            <ns3:hr>129</ns3:hr>
          </ns3:TrackPointExtension>
        </extensions>
      </trkpt>
      <trkpt lat="47.02427194453775882720947265625" lon="6.9689022190868854522705078125">
        <ele>779.20001220703125</ele>
        <time>2019-06-14T11:07:11.000Z</time>
        <extensions>
          <ns3:TrackPointExtension>
            <ns3:atemp>24.0</ns3:atemp>
            <ns3:hr>129</ns3:hr>
          </ns3:TrackPointExtension>
        </extensions>
      </trkpt>
      <trkpt lat="47.02421477995812892913818359375" lon="6.96890431456267833709716796875">
        <ele>778.20001220703125</ele>
        <time>2019-06-14T11:07:12.000Z</time>
        <extensions>
          <ns3:TrackPointExtension>
            <ns3:atemp>24.0</ns3:atemp>
            <ns3:hr>128</ns3:hr>
          </ns3:TrackPointExtension>
        </extensions>
      </trkpt>
      <trkpt lat="47.02414579689502716064453125" lon="6.96892761625349521636962890625">
        <ele>777.5999755859375</ele>
        <time>2019-06-14T11:07:13.000Z</time>
        <extensions>
          <ns3:TrackPointExtension>
            <ns3:atemp>23.0</ns3:atemp>
            <ns3:hr>128</ns3:hr>
          </ns3:TrackPointExtension>
        </extensions>
      </trkpt>
      <trkpt lat="47.02411168254911899566650390625" lon="6.96891755796968936920166015625">
        <ele>777.20001220703125</ele>
        <time>2019-06-14T11:07:14.000Z</time>
        <extensions>
          <ns3:TrackPointExtension>
            <ns3:atemp>23.0</ns3:atemp>
            <ns3:hr>128</ns3:hr>
          </ns3:TrackPointExtension>
        </extensions>
      </trkpt>
      <trkpt lat="47.02403909526765346527099609375" lon="6.96885771118104457855224609375">
        <ele>777</ele>
        <time>2019-06-14T11:07:16.000Z</time>
        <extensions>
          <ns3:TrackPointExtension>
            <ns3:atemp>23.0</ns3:atemp>
            <ns3:hr>128</ns3:hr>
          </ns3:TrackPointExtension>
        </extensions>
      </trkpt>
      <trkpt lat="47.0240007899701595306396484375" lon="6.96879669092595577239990234375">
        <ele>776.79998779296875</ele>
        <time>2019-06-14T11:07:17.000Z</time>
        <extensions>
          <ns3:TrackPointExtension>
            <ns3:atemp>23.0</ns3:atemp>
            <ns3:hr>128</ns3:hr>
          </ns3:TrackPointExtension>
        </extensions>
      </trkpt>
      <trkpt lat="47.023856453597545623779296875" lon="6.96855403482913970947265625">
        <ele>776.20001220703125</ele>
        <time>2019-06-14T11:07:20.000Z</time>
        <extensions>
          <ns3:TrackPointExtension>
            <ns3:atemp>23.0</ns3:atemp>
            <ns3:hr>127</ns3:hr>
          </ns3:TrackPointExtension>
        </extensions>
      </trkpt>
      <trkpt lat="47.023802809417247772216796875" lon="6.968478597700595855712890625">
        <ele>775</ele>
        <time>2019-06-14T11:07:21.000Z</time>
        <extensions>
          <ns3:TrackPointExtension>
            <ns3:atemp>23.0</ns3:atemp>
            <ns3:hr>127</ns3:hr>
          </ns3:TrackPointExtension>
        </extensions>
      </trkpt>
      <trkpt lat="47.0237339101731777191162109375" lon="6.96839218027889728546142578125">
        <ele>773.5999755859375</ele>
        <time>2019-06-14T11:07:22.000Z</time>
        <extensions>
          <ns3:TrackPointExtension>
            <ns3:atemp>23.0</ns3:atemp>
            <ns3:hr>127</ns3:hr>
          </ns3:TrackPointExtension>
        </extensions>
      </trkpt>
      <trkpt lat="47.023670375347137451171875" lon="6.9683047570288181304931640625">
        <ele>772.5999755859375</ele>
        <time>2019-06-14T11:07:23.000Z</time>
        <extensions>
          <ns3:TrackPointExtension>
            <ns3:atemp>23.0</ns3:atemp>
            <ns3:hr>127</ns3:hr>
          </ns3:TrackPointExtension>
        </extensions>
      </trkpt>
      <trkpt lat="47.02355093322694301605224609375" lon="6.96811976842582225799560546875">
        <ele>770.5999755859375</ele>
        <time>2019-06-14T11:07:25.000Z</time>
        <extensions>
          <ns3:TrackPointExtension>
            <ns3:atemp>23.0</ns3:atemp>
            <ns3:hr>127</ns3:hr>
          </ns3:TrackPointExtension>
        </extensions>
      </trkpt>
      <trkpt lat="47.02347666956484317779541015625" lon="6.9680224545300006866455078125">
        <ele>769.4000244140625</ele>
        <time>2019-06-14T11:07:26.000Z</time>
        <extensions>
          <ns3:TrackPointExtension>
            <ns3:atemp>23.0</ns3:atemp>
            <ns3:hr>127</ns3:hr>
          </ns3:TrackPointExtension>
        </extensions>
      </trkpt>
      <trkpt lat="47.0233979634940624237060546875" lon="6.96792128495872020721435546875">
        <ele>768.20001220703125</ele>
        <time>2019-06-14T11:07:27.000Z</time>
        <extensions>
          <ns3:TrackPointExtension>
            <ns3:atemp>23.0</ns3:atemp>
            <ns3:hr>126</ns3:hr>
          </ns3:TrackPointExtension>
        </extensions>
      </trkpt>
      <trkpt lat="47.02332093380391597747802734375" lon="6.9678326882421970367431640625">
        <ele>767.20001220703125</ele>
        <time>2019-06-14T11:07:28.000Z</time>
        <extensions>
          <ns3:TrackPointExtension>
            <ns3:atemp>23.0</ns3:atemp>
            <ns3:hr>126</ns3:hr>
          </ns3:TrackPointExtension>
        </extensions>
      </trkpt>
      <trkpt lat="47.023232840001583099365234375" lon="6.96775532327592372894287109375">
        <ele>766.4000244140625</ele>
        <time>2019-06-14T11:07:29.000Z</time>
        <extensions>
          <ns3:TrackPointExtension>
            <ns3:atemp>23.0</ns3:atemp>
            <ns3:hr>126</ns3:hr>
          </ns3:TrackPointExtension>
        </extensions>
      </trkpt>
      <trkpt lat="47.02315212227404117584228515625" lon="6.96767318062484264373779296875">
        <ele>765.5999755859375</ele>
        <time>2019-06-14T11:07:30.000Z</time>
        <extensions>
          <ns3:TrackPointExtension>
            <ns3:atemp>23.0</ns3:atemp>
            <ns3:hr>125</ns3:hr>
          </ns3:TrackPointExtension>
        </extensions>
      </trkpt>
      <trkpt lat="47.0229314267635345458984375" lon="6.9673847593367099761962890625">
        <ele>764.4000244140625</ele>
        <time>2019-06-14T11:07:33.000Z</time>
        <extensions>
          <ns3:TrackPointExtension>
            <ns3:atemp>23.0</ns3:atemp>
            <ns3:hr>125</ns3:hr>
          </ns3:TrackPointExtension>
        </extensions>
      </trkpt>
      <trkpt lat="47.0228628627955913543701171875" lon="6.9672875292599201202392578125">
        <ele>764</ele>
        <time>2019-06-14T11:07:34.000Z</time>
        <extensions>
          <ns3:TrackPointExtension>
            <ns3:atemp>23.0</ns3:atemp>
            <ns3:hr>125</ns3:hr>
          </ns3:TrackPointExtension>
        </extensions>
      </trkpt>
      <trkpt lat="47.0227180235087871551513671875" lon="6.96713154204189777374267578125">
        <ele>762.4000244140625</ele>
        <time>2019-06-14T11:07:36.000Z</time>
        <extensions>
          <ns3:TrackPointExtension>
            <ns3:atemp>23.0</ns3:atemp>
            <ns3:hr>126</ns3:hr>
          </ns3:TrackPointExtension>
        </extensions>
      </trkpt>
      <trkpt lat="47.0226417481899261474609375" lon="6.96706674993038177490234375">
        <ele>761.4000244140625</ele>
        <time>2019-06-14T11:07:37.000Z</time>
        <extensions>
          <ns3:TrackPointExtension>
            <ns3:atemp>23.0</ns3:atemp>
            <ns3:hr>126</ns3:hr>
          </ns3:TrackPointExtension>
        </extensions>
      </trkpt>
      <trkpt lat="47.022572346031665802001953125" lon="6.9670159555971622467041015625">
        <ele>760.4000244140625</ele>
        <time>2019-06-14T11:07:38.000Z</time>
        <extensions>
          <ns3:TrackPointExtension>
            <ns3:atemp>23.0</ns3:atemp>
            <ns3:hr>127</ns3:hr>
          </ns3:TrackPointExtension>
        </extensions>
      </trkpt>
      <trkpt lat="47.0225245691835880279541015625" lon="6.9669804163277149200439453125">
        <ele>759.79998779296875</ele>
        <time>2019-06-14T11:07:39.000Z</time>
        <extensions>
          <ns3:TrackPointExtension>
            <ns3:atemp>23.0</ns3:atemp>
            <ns3:hr>127</ns3:hr>
          </ns3:TrackPointExtension>
        </extensions>
      </trkpt>
      <trkpt lat="47.0224285125732421875" lon="6.966933310031890869140625">
        <ele>758.79998779296875</ele>
        <time>2019-06-14T11:07:41.000Z</time>
        <extensions>
          <ns3:TrackPointExtension>
            <ns3:atemp>23.0</ns3:atemp>
            <ns3:hr>128</ns3:hr>
          </ns3:TrackPointExtension>
        </extensions>
      </trkpt>
      <trkpt lat="47.02239875681698322296142578125" lon="6.9669177196919918060302734375">
        <ele>758.4000244140625</ele>
        <time>2019-06-14T11:07:42.000Z</time>
        <extensions>
          <ns3:TrackPointExtension>
            <ns3:atemp>23.0</ns3:atemp>
            <ns3:hr>128</ns3:hr>
          </ns3:TrackPointExtension>
        </extensions>
      </trkpt>
      <trkpt lat="47.02237545512616634368896484375" lon="6.96690355427563190460205078125">
        <ele>758.20001220703125</ele>
        <time>2019-06-14T11:07:43.000Z</time>
        <extensions>
          <ns3:TrackPointExtension>
            <ns3:atemp>23.0</ns3:atemp>
            <ns3:hr>128</ns3:hr>
          </ns3:TrackPointExtension>
        </extensions>
      </trkpt>
      <trkpt lat="47.02233455143868923187255859375" lon="6.96684638969600200653076171875">
        <ele>758</ele>
        <time>2019-06-14T11:07:45.000Z</time>
        <extensions>
          <ns3:TrackPointExtension>
            <ns3:atemp>23.0</ns3:atemp>
            <ns3:hr>127</ns3:hr>
          </ns3:TrackPointExtension>
        </extensions>
      </trkpt>
      <trkpt lat="47.02231946401298046112060546875" lon="6.96672434918582439422607421875">
        <ele>757.79998779296875</ele>
        <time>2019-06-14T11:07:49.000Z</time>
        <extensions>
          <ns3:TrackPointExtension>
            <ns3:atemp>23.0</ns3:atemp>
            <ns3:hr>126</ns3:hr>
          </ns3:TrackPointExtension>
        </extensions>
      </trkpt>
      <trkpt lat="47.02227503992617130279541015625" lon="6.966600380837917327880859375">
        <ele>758.5999755859375</ele>
        <time>2019-06-14T11:07:53.000Z</time>
        <extensions>
          <ns3:TrackPointExtension>
            <ns3:atemp>23.0</ns3:atemp>
            <ns3:hr>127</ns3:hr>
          </ns3:TrackPointExtension>
        </extensions>
      </trkpt>
      <trkpt lat="47.0221825875341892242431640625" lon="6.96644506417214870452880859375">
        <ele>759.4000244140625</ele>
        <time>2019-06-14T11:07:58.000Z</time>
        <extensions>
          <ns3:TrackPointExtension>
            <ns3:atemp>23.0</ns3:atemp>
            <ns3:hr>129</ns3:hr>
          </ns3:TrackPointExtension>
        </extensions>
      </trkpt>
      <trkpt lat="47.02215668745338916778564453125" lon="6.96638412773609161376953125">
        <ele>759.79998779296875</ele>
        <time>2019-06-14T11:08:00.000Z</time>
        <extensions>
          <ns3:TrackPointExtension>
            <ns3:atemp>23.0</ns3:atemp>
            <ns3:hr>129</ns3:hr>
          </ns3:TrackPointExtension>
        </extensions>
      </trkpt>
      <trkpt lat="47.02208720147609710693359375" lon="6.96622193790972232818603515625">
        <ele>760.20001220703125</ele>
        <time>2019-06-14T11:08:05.000Z</time>
        <extensions>
          <ns3:TrackPointExtension>
            <ns3:atemp>23.0</ns3:atemp>
            <ns3:hr>130</ns3:hr>
          </ns3:TrackPointExtension>
        </extensions>
      </trkpt>
      <trkpt lat="47.0220699347555637359619140625" lon="6.96620400063693523406982421875">
        <ele>760.4000244140625</ele>
        <time>2019-06-14T11:08:06.000Z</time>
        <extensions>
          <ns3:TrackPointExtension>
            <ns3:atemp>23.0</ns3:atemp>
            <ns3:hr>131</ns3:hr>
          </ns3:TrackPointExtension>
        </extensions>
      </trkpt>
      <trkpt lat="47.02205711044371128082275390625" lon="6.966176591813564300537109375">
        <ele>760.5999755859375</ele>
        <time>2019-06-14T11:08:07.000Z</time>
        <extensions>
          <ns3:TrackPointExtension>
            <ns3:atemp>23.0</ns3:atemp>
            <ns3:hr>131</ns3:hr>
          </ns3:TrackPointExtension>
        </extensions>
      </trkpt>
      <trkpt lat="47.021975219249725341796875" lon="6.966048516333103179931640625">
        <ele>761.79998779296875</ele>
        <time>2019-06-14T11:08:12.000Z</time>
        <extensions>
          <ns3:TrackPointExtension>
            <ns3:atemp>23.0</ns3:atemp>
            <ns3:hr>133</ns3:hr>
          </ns3:TrackPointExtension>
        </extensions>
      </trkpt>
      <trkpt lat="47.02185896225273609161376953125" lon="6.96590744890272617340087890625">
        <ele>762.20001220703125</ele>
        <time>2019-06-14T11:08:17.000Z</time>
        <extensions>
          <ns3:TrackPointExtension>
            <ns3:atemp>23.0</ns3:atemp>
            <ns3:hr>134</ns3:hr>
          </ns3:TrackPointExtension>
        </extensions>
      </trkpt>
      <trkpt lat="47.02177447266876697540283203125" lon="6.96579228155314922332763671875">
        <ele>762.79998779296875</ele>
        <time>2019-06-14T11:08:21.000Z</time>
        <extensions>
          <ns3:TrackPointExtension>
            <ns3:atemp>23.0</ns3:atemp>
            <ns3:hr>135</ns3:hr>
          </ns3:TrackPointExtension>
        </extensions>
      </trkpt>
      <trkpt lat="47.02172921039164066314697265625" lon="6.96565800346434116363525390625">
        <ele>763.5999755859375</ele>
        <time>2019-06-14T11:08:26.000Z</time>
        <extensions>
          <ns3:TrackPointExtension>
            <ns3:atemp>23.0</ns3:atemp>
            <ns3:hr>138</ns3:hr>
          </ns3:TrackPointExtension>
        </extensions>
      </trkpt>
      <trkpt lat="47.02170993201434612274169921875" lon="6.965644173324108123779296875">
        <ele>763.79998779296875</ele>
        <time>2019-06-14T11:08:27.000Z</time>
        <extensions>
          <ns3:TrackPointExtension>
            <ns3:atemp>23.0</ns3:atemp>
            <ns3:hr>138</ns3:hr>
          </ns3:TrackPointExtension>
        </extensions>
      </trkpt>
      <trkpt lat="47.02171948738396167755126953125" lon="6.9655977375805377960205078125">
        <ele>764</ele>
        <time>2019-06-14T11:08:28.000Z</time>
        <extensions>
          <ns3:TrackPointExtension>
            <ns3:atemp>23.0</ns3:atemp>
            <ns3:hr>138</ns3:hr>
          </ns3:TrackPointExtension>
        </extensions>
      </trkpt>
      <trkpt lat="47.0216826908290386199951171875" lon="6.96544962935149669647216796875">
        <ele>764.79998779296875</ele>
        <time>2019-06-14T11:08:32.000Z</time>
        <extensions>
          <ns3:TrackPointExtension>
            <ns3:atemp>23.0</ns3:atemp>
            <ns3:hr>140</ns3:hr>
          </ns3:TrackPointExtension>
        </extensions>
      </trkpt>
      <trkpt lat="47.02167623676359653472900390625" lon="6.96541056968271732330322265625">
        <ele>765</ele>
        <time>2019-06-14T11:08:33.000Z</time>
        <extensions>
          <ns3:TrackPointExtension>
            <ns3:atemp>23.0</ns3:atemp>
            <ns3:hr>140</ns3:hr>
          </ns3:TrackPointExtension>
        </extensions>
      </trkpt>
      <trkpt lat="47.02167003415524959564208984375" lon="6.965267658233642578125">
        <ele>766</ele>
        <time>2019-06-14T11:08:37.000Z</time>
        <extensions>
          <ns3:TrackPointExtension>
            <ns3:atemp>23.0</ns3:atemp>
            <ns3:hr>141</ns3:hr>
          </ns3:TrackPointExtension>
        </extensions>
      </trkpt>
      <trkpt lat="47.02166140079498291015625" lon="6.9652332924306392669677734375">
        <ele>766.20001220703125</ele>
        <time>2019-06-14T11:08:38.000Z</time>
        <extensions>
          <ns3:TrackPointExtension>
            <ns3:atemp>23.0</ns3:atemp>
            <ns3:hr>142</ns3:hr>
          </ns3:TrackPointExtension>
        </extensions>
      </trkpt>
      <trkpt lat="47.02162854373455047607421875" lon="6.9651119224727153778076171875">
        <ele>766.5999755859375</ele>
        <time>2019-06-14T11:08:42.000Z</time>
        <extensions>
          <ns3:TrackPointExtension>
            <ns3:atemp>24.0</ns3:atemp>
            <ns3:hr>143</ns3:hr>
          </ns3:TrackPointExtension>
        </extensions>
      </trkpt>
      <trkpt lat="47.021612785756587982177734375" lon="6.9650354795157909393310546875">
        <ele>767.20001220703125</ele>
        <time>2019-06-14T11:08:44.000Z</time>
        <extensions>
          <ns3:TrackPointExtension>
            <ns3:atemp>24.0</ns3:atemp>
            <ns3:hr>144</ns3:hr>
          </ns3:TrackPointExtension>
        </extensions>
      </trkpt>
      <trkpt lat="47.0215901546180248260498046875" lon="6.9648862816393375396728515625">
        <ele>768.4000244140625</ele>
        <time>2019-06-14T11:08:48.000Z</time>
        <extensions>
          <ns3:TrackPointExtension>
            <ns3:atemp>24.0</ns3:atemp>
            <ns3:hr>145</ns3:hr>
          </ns3:TrackPointExtension>
        </extensions>
      </trkpt>
      <trkpt lat="47.02153240330517292022705078125" lon="6.96480019949376583099365234375">
        <ele>769.4000244140625</ele>
        <time>2019-06-14T11:08:52.000Z</time>
        <extensions>
          <ns3:TrackPointExtension>
            <ns3:atemp>24.0</ns3:atemp>
            <ns3:hr>145</ns3:hr>
          </ns3:TrackPointExtension>
        </extensions>
      </trkpt>
      <trkpt lat="47.0214986242353916168212890625" lon="6.96475828997790813446044921875">
        <ele>769.79998779296875</ele>
        <time>2019-06-14T11:08:54.000Z</time>
        <extensions>
          <ns3:TrackPointExtension>
            <ns3:atemp>24.0</ns3:atemp>
            <ns3:hr>146</ns3:hr>
          </ns3:TrackPointExtension>
        </extensions>
      </trkpt>
      <trkpt lat="47.02147037722170352935791015625" lon="6.96470062248408794403076171875">
        <ele>770</ele>
        <time>2019-06-14T11:08:56.000Z</time>
        <extensions>
          <ns3:TrackPointExtension>
            <ns3:atemp>24.0</ns3:atemp>
            <ns3:hr>146</ns3:hr>
          </ns3:TrackPointExtension>
        </extensions>
      </trkpt>
      <trkpt lat="47.02145017683506011962890625" lon="6.964670531451702117919921875">
        <ele>770.20001220703125</ele>
        <time>2019-06-14T11:08:58.000Z</time>
        <extensions>
          <ns3:TrackPointExtension>
            <ns3:atemp>24.0</ns3:atemp>
            <ns3:hr>146</ns3:hr>
          </ns3:TrackPointExtension>
        </extensions>
      </trkpt>
      <trkpt lat="47.02144615352153778076171875" lon="6.96465217508375644683837890625">
        <ele>770.4000244140625</ele>
        <time>2019-06-14T11:08:59.000Z</time>
        <extensions>
          <ns3:TrackPointExtension>
            <ns3:atemp>24.0</ns3:atemp>
            <ns3:hr>147</ns3:hr>
          </ns3:TrackPointExtension>
        </extensions>
      </trkpt>
      <trkpt lat="47.02142192982137203216552734375" lon="6.96455419063568115234375">
        <ele>771.20001220703125</ele>
        <time>2019-06-14T11:09:02.000Z</time>
        <extensions>
          <ns3:TrackPointExtension>
            <ns3:atemp>24.0</ns3:atemp>
            <ns3:hr>147</ns3:hr>
          </ns3:TrackPointExtension>
        </extensions>
      </trkpt>
      <trkpt lat="47.02142092399299144744873046875" lon="6.9645285420119762420654296875">
        <ele>771.4000244140625</ele>
        <time>2019-06-14T11:09:03.000Z</time>
        <extensions>
          <ns3:TrackPointExtension>
            <ns3:atemp>24.0</ns3:atemp>
            <ns3:hr>147</ns3:hr>
          </ns3:TrackPointExtension>
        </extensions>
      </trkpt>
      <trkpt lat="47.0214084349572658538818359375" lon="6.9644356705248355865478515625">
        <ele>772.5999755859375</ele>
        <time>2019-06-14T11:09:07.000Z</time>
        <extensions>
          <ns3:TrackPointExtension>
            <ns3:atemp>24.0</ns3:atemp>
            <ns3:hr>148</ns3:hr>
          </ns3:TrackPointExtension>
        </extensions>
      </trkpt>
      <trkpt lat="47.02139292843639850616455078125" lon="6.96439552120864391326904296875">
        <ele>773</ele>
        <time>2019-06-14T11:09:09.000Z</time>
        <extensions>
          <ns3:TrackPointExtension>
            <ns3:atemp>24.0</ns3:atemp>
            <ns3:hr>149</ns3:hr>
          </ns3:TrackPointExtension>
        </extensions>
      </trkpt>
      <trkpt lat="47.02139108441770076751708984375" lon="6.96438848040997982025146484375">
        <ele>773.20001220703125</ele>
        <time>2019-06-14T11:09:10.000Z</time>
        <extensions>
          <ns3:TrackPointExtension>
            <ns3:atemp>24.0</ns3:atemp>
            <ns3:hr>149</ns3:hr>
          </ns3:TrackPointExtension>
        </extensions>
      </trkpt>
      <trkpt lat="47.02135571278631687164306640625" lon="6.96429510600864887237548828125">
        <ele>773.79998779296875</ele>
        <time>2019-06-14T11:09:14.000Z</time>
        <extensions>
          <ns3:TrackPointExtension>
            <ns3:atemp>24.0</ns3:atemp>
            <ns3:hr>150</ns3:hr>
          </ns3:TrackPointExtension>
        </extensions>
      </trkpt>
      <trkpt lat="47.02135068364441394805908203125" lon="6.9642757438123226165771484375">
        <ele>773.79998779296875</ele>
        <time>2019-06-14T11:09:15.000Z</time>
        <extensions>
          <ns3:TrackPointExtension>
            <ns3:atemp>24.0</ns3:atemp>
            <ns3:hr>150</ns3:hr>
          </ns3:TrackPointExtension>
        </extensions>
      </trkpt>
      <trkpt lat="47.02133995480835437774658203125" lon="6.9642291404306888580322265625">
        <ele>774.20001220703125</ele>
        <time>2019-06-14T11:09:17.000Z</time>
        <extensions>
          <ns3:TrackPointExtension>
            <ns3:atemp>24.0</ns3:atemp>
            <ns3:hr>149</ns3:hr>
          </ns3:TrackPointExtension>
        </extensions>
      </trkpt>
      <trkpt lat="47.0212791860103607177734375" lon="6.96412461809813976287841796875">
        <ele>774.79998779296875</ele>
        <time>2019-06-14T11:09:21.000Z</time>
        <extensions>
          <ns3:TrackPointExtension>
            <ns3:atemp>24.0</ns3:atemp>
            <ns3:hr>150</ns3:hr>
          </ns3:TrackPointExtension>
        </extensions>
      </trkpt>
      <trkpt lat="47.0212635956704616546630859375" lon="6.96392747573554515838623046875">
        <ele>776</ele>
        <time>2019-06-14T11:09:26.000Z</time>
        <extensions>
          <ns3:TrackPointExtension>
            <ns3:atemp>24.0</ns3:atemp>
            <ns3:hr>149</ns3:hr>
          </ns3:TrackPointExtension>
        </extensions>
      </trkpt>
      <trkpt lat="47.021262757480144500732421875" lon="6.963885314762592315673828125">
        <ele>776.20001220703125</ele>
        <time>2019-06-14T11:09:27.000Z</time>
        <extensions>
          <ns3:TrackPointExtension>
            <ns3:atemp>24.0</ns3:atemp>
            <ns3:hr>149</ns3:hr>
          </ns3:TrackPointExtension>
        </extensions>
      </trkpt>
      <trkpt lat="47.021235264837741851806640625" lon="6.9637741707265377044677734375">
        <ele>777</ele>
        <time>2019-06-14T11:09:32.000Z</time>
        <extensions>
          <ns3:TrackPointExtension>
            <ns3:atemp>24.0</ns3:atemp>
            <ns3:hr>150</ns3:hr>
          </ns3:TrackPointExtension>
        </extensions>
      </trkpt>
      <trkpt lat="47.02122780494391918182373046875" lon="6.96373687125742435455322265625">
        <ele>777</ele>
        <time>2019-06-14T11:09:34.000Z</time>
        <extensions>
          <ns3:TrackPointExtension>
            <ns3:atemp>24.0</ns3:atemp>
            <ns3:hr>150</ns3:hr>
          </ns3:TrackPointExtension>
        </extensions>
      </trkpt>
      <trkpt lat="47.0212169922888278961181640625" lon="6.96370971389114856719970703125">
        <ele>777</ele>
        <time>2019-06-14T11:09:35.000Z</time>
        <extensions>
          <ns3:TrackPointExtension>
            <ns3:atemp>24.0</ns3:atemp>
            <ns3:hr>150</ns3:hr>
          </ns3:TrackPointExtension>
        </extensions>
      </trkpt>
      <trkpt lat="47.02119863592088222503662109375" lon="6.963645257055759429931640625">
        <ele>777.5999755859375</ele>
        <time>2019-06-14T11:09:38.000Z</time>
        <extensions>
          <ns3:TrackPointExtension>
            <ns3:atemp>24.0</ns3:atemp>
            <ns3:hr>149</ns3:hr>
          </ns3:TrackPointExtension>
        </extensions>
      </trkpt>
      <trkpt lat="47.02116074971854686737060546875" lon="6.9635364599525928497314453125">
        <ele>778.20001220703125</ele>
        <time>2019-06-14T11:09:42.000Z</time>
        <extensions>
          <ns3:TrackPointExtension>
            <ns3:atemp>25.0</ns3:atemp>
            <ns3:hr>150</ns3:hr>
          </ns3:TrackPointExtension>
        </extensions>
      </trkpt>
      <trkpt lat="47.02116125263273715972900390625" lon="6.9635175168514251708984375">
        <ele>778.4000244140625</ele>
        <time>2019-06-14T11:09:43.000Z</time>
        <extensions>
          <ns3:TrackPointExtension>
            <ns3:atemp>25.0</ns3:atemp>
            <ns3:hr>150</ns3:hr>
          </ns3:TrackPointExtension>
        </extensions>
      </trkpt>
      <trkpt lat="47.02114633284509181976318359375" lon="6.9634777866303920745849609375">
        <ele>778.79998779296875</ele>
        <time>2019-06-14T11:09:45.000Z</time>
        <extensions>
          <ns3:TrackPointExtension>
            <ns3:atemp>25.0</ns3:atemp>
            <ns3:hr>150</ns3:hr>
          </ns3:TrackPointExtension>
        </extensions>
      </trkpt>
      <trkpt lat="47.021136023104190826416015625" lon="6.96345272473990917205810546875">
        <ele>779.5999755859375</ele>
        <time>2019-06-14T11:09:47.000Z</time>
        <extensions>
          <ns3:TrackPointExtension>
            <ns3:atemp>25.0</ns3:atemp>
            <ns3:hr>150</ns3:hr>
          </ns3:TrackPointExtension>
        </extensions>
      </trkpt>
      <trkpt lat="47.02110945247113704681396484375" lon="6.9633637927472591400146484375">
        <ele>780.20001220703125</ele>
        <time>2019-06-14T11:09:50.000Z</time>
        <extensions>
          <ns3:TrackPointExtension>
            <ns3:atemp>25.0</ns3:atemp>
            <ns3:hr>150</ns3:hr>
          </ns3:TrackPointExtension>
        </extensions>
      </trkpt>
      <trkpt lat="47.02109017409384250640869140625" lon="6.9633114896714687347412109375">
        <ele>780.4000244140625</ele>
        <time>2019-06-14T11:09:52.000Z</time>
        <extensions>
          <ns3:TrackPointExtension>
            <ns3:atemp>25.0</ns3:atemp>
            <ns3:hr>150</ns3:hr>
          </ns3:TrackPointExtension>
        </extensions>
      </trkpt>
      <trkpt lat="47.02108631841838359832763671875" lon="6.96329095400869846343994140625">
        <ele>780.5999755859375</ele>
        <time>2019-06-14T11:09:53.000Z</time>
        <extensions>
          <ns3:TrackPointExtension>
            <ns3:atemp>25.0</ns3:atemp>
            <ns3:hr>150</ns3:hr>
          </ns3:TrackPointExtension>
        </extensions>
      </trkpt>
      <trkpt lat="47.02107961289584636688232421875" lon="6.96327016688883304595947265625">
        <ele>780.79998779296875</ele>
        <time>2019-06-14T11:09:54.000Z</time>
        <extensions>
          <ns3:TrackPointExtension>
            <ns3:atemp>25.0</ns3:atemp>
            <ns3:hr>150</ns3:hr>
          </ns3:TrackPointExtension>
        </extensions>
      </trkpt>
      <trkpt lat="47.02107156626880168914794921875" lon="6.963214762508869171142578125">
        <ele>781.20001220703125</ele>
        <time>2019-06-14T11:09:57.000Z</time>
        <extensions>
          <ns3:TrackPointExtension>
            <ns3:atemp>25.0</ns3:atemp>
            <ns3:hr>149</ns3:hr>
          </ns3:TrackPointExtension>
        </extensions>
      </trkpt>
      <trkpt lat="47.02107190154492855072021484375" lon="6.9631971605122089385986328125">
        <ele>781.20001220703125</ele>
        <time>2019-06-14T11:09:58.000Z</time>
        <extensions>
          <ns3:TrackPointExtension>
            <ns3:atemp>25.0</ns3:atemp>
            <ns3:hr>149</ns3:hr>
          </ns3:TrackPointExtension>
        </extensions>
      </trkpt>
      <trkpt lat="47.021052874624729156494140625" lon="6.96309850551187992095947265625">
        <ele>781.5999755859375</ele>
        <time>2019-06-14T11:10:01.000Z</time>
        <extensions>
          <ns3:TrackPointExtension>
            <ns3:atemp>25.0</ns3:atemp>
            <ns3:hr>149</ns3:hr>
          </ns3:TrackPointExtension>
        </extensions>
      </trkpt>
      <trkpt lat="47.0210215263068675994873046875" lon="6.96303597651422023773193359375">
        <ele>782.4000244140625</ele>
        <time>2019-06-14T11:10:04.000Z</time>
        <extensions>
          <ns3:TrackPointExtension>
            <ns3:atemp>25.0</ns3:atemp>
            <ns3:hr>149</ns3:hr>
          </ns3:TrackPointExtension>
        </extensions>
      </trkpt>
      <trkpt lat="47.021003253757953643798828125" lon="6.96298182941973209381103515625">
        <ele>782.79998779296875</ele>
        <time>2019-06-14T11:10:07.000Z</time>
        <extensions>
          <ns3:TrackPointExtension>
            <ns3:atemp>25.0</ns3:atemp>
            <ns3:hr>149</ns3:hr>
          </ns3:TrackPointExtension>
        </extensions>
      </trkpt>
      <trkpt lat="47.0209886692464351654052734375" lon="6.96292768232524394989013671875">
        <ele>783.20001220703125</ele>
        <time>2019-06-14T11:10:10.000Z</time>
        <extensions>
          <ns3:TrackPointExtension>
            <ns3:atemp>25.0</ns3:atemp>
            <ns3:hr>149</ns3:hr>
          </ns3:TrackPointExtension>
        </extensions>
      </trkpt>
      <trkpt lat="47.02095841057598590850830078125" lon="6.962823159992694854736328125">
        <ele>783.79998779296875</ele>
        <time>2019-06-14T11:10:15.000Z</time>
        <extensions>
          <ns3:TrackPointExtension>
            <ns3:atemp>25.0</ns3:atemp>
            <ns3:hr>149</ns3:hr>
          </ns3:TrackPointExtension>
        </extensions>
      </trkpt>
      <trkpt lat="47.02093913219869136810302734375" lon="6.962778903543949127197265625">
        <ele>784</ele>
        <time>2019-06-14T11:10:17.000Z</time>
        <extensions>
          <ns3:TrackPointExtension>
            <ns3:atemp>25.0</ns3:atemp>
            <ns3:hr>149</ns3:hr>
          </ns3:TrackPointExtension>
        </extensions>
      </trkpt>
      <trkpt lat="47.0209331810474395751953125" lon="6.96275644004344940185546875">
        <ele>784.4000244140625</ele>
        <time>2019-06-14T11:10:18.000Z</time>
        <extensions>
          <ns3:TrackPointExtension>
            <ns3:atemp>25.0</ns3:atemp>
            <ns3:hr>149</ns3:hr>
          </ns3:TrackPointExtension>
        </extensions>
      </trkpt>
      <trkpt lat="47.0209246315062046051025390625" lon="6.96270757354795932769775390625">
        <ele>784.79998779296875</ele>
        <time>2019-06-14T11:10:20.000Z</time>
        <extensions>
          <ns3:TrackPointExtension>
            <ns3:atemp>25.0</ns3:atemp>
            <ns3:hr>149</ns3:hr>
          </ns3:TrackPointExtension>
        </extensions>
      </trkpt>
      <trkpt lat="47.020908705890178680419921875" lon="6.9626753032207489013671875">
        <ele>785</ele>
        <time>2019-06-14T11:10:21.000Z</time>
        <extensions>
          <ns3:TrackPointExtension>
            <ns3:atemp>25.0</ns3:atemp>
            <ns3:hr>149</ns3:hr>
          </ns3:TrackPointExtension>
        </extensions>
      </trkpt>
      <trkpt lat="47.0208736695349216461181640625" lon="6.96260489523410797119140625">
        <ele>785.20001220703125</ele>
        <time>2019-06-14T11:10:24.000Z</time>
        <extensions>
          <ns3:TrackPointExtension>
            <ns3:atemp>25.0</ns3:atemp>
            <ns3:hr>149</ns3:hr>
          </ns3:TrackPointExtension>
        </extensions>
      </trkpt>
      <trkpt lat="47.02086319215595722198486328125" lon="6.9625765644013881683349609375">
        <ele>785.20001220703125</ele>
        <time>2019-06-14T11:10:26.000Z</time>
        <extensions>
          <ns3:TrackPointExtension>
            <ns3:atemp>25.0</ns3:atemp>
            <ns3:hr>149</ns3:hr>
          </ns3:TrackPointExtension>
        </extensions>
      </trkpt>
      <trkpt lat="47.02085866592824459075927734375" lon="6.96252937428653240203857421875">
        <ele>785.5999755859375</ele>
        <time>2019-06-14T11:10:28.000Z</time>
        <extensions>
          <ns3:TrackPointExtension>
            <ns3:atemp>25.0</ns3:atemp>
            <ns3:hr>148</ns3:hr>
          </ns3:TrackPointExtension>
        </extensions>
      </trkpt>
      <trkpt lat="47.02084609307348728179931640625" lon="6.962480843067169189453125">
        <ele>786</ele>
        <time>2019-06-14T11:10:30.000Z</time>
        <extensions>
          <ns3:TrackPointExtension>
            <ns3:atemp>25.0</ns3:atemp>
            <ns3:hr>149</ns3:hr>
          </ns3:TrackPointExtension>
        </extensions>
      </trkpt>
      <trkpt lat="47.02081717550754547119140625" lon="6.96246114559471607208251953125">
        <ele>786.4000244140625</ele>
        <time>2019-06-14T11:10:31.000Z</time>
        <extensions>
          <ns3:TrackPointExtension>
            <ns3:atemp>25.0</ns3:atemp>
            <ns3:hr>148</ns3:hr>
          </ns3:TrackPointExtension>
        </extensions>
      </trkpt>
      <trkpt lat="47.0207891799509525299072265625" lon="6.9623911567032337188720703125">
        <ele>786.79998779296875</ele>
        <time>2019-06-14T11:10:34.000Z</time>
        <extensions>
          <ns3:TrackPointExtension>
            <ns3:atemp>25.0</ns3:atemp>
            <ns3:hr>149</ns3:hr>
          </ns3:TrackPointExtension>
        </extensions>
      </trkpt>
      <trkpt lat="47.02077149413526058197021484375" lon="6.96236081421375274658203125">
        <ele>787.20001220703125</ele>
        <time>2019-06-14T11:10:36.000Z</time>
        <extensions>
          <ns3:TrackPointExtension>
            <ns3:atemp>25.0</ns3:atemp>
            <ns3:hr>150</ns3:hr>
          </ns3:TrackPointExtension>
        </extensions>
      </trkpt>
      <trkpt lat="47.020761184394359588623046875" lon="6.96234530769288539886474609375">
        <ele>787.20001220703125</ele>
        <time>2019-06-14T11:10:37.000Z</time>
        <extensions>
          <ns3:TrackPointExtension>
            <ns3:atemp>25.0</ns3:atemp>
            <ns3:hr>150</ns3:hr>
          </ns3:TrackPointExtension>
        </extensions>
      </trkpt>
      <trkpt lat="47.02071466483175754547119140625" lon="6.962150596082210540771484375">
        <ele>788</ele>
        <time>2019-06-14T11:10:43.000Z</time>
        <extensions>
          <ns3:TrackPointExtension>
            <ns3:atemp>25.0</ns3:atemp>
            <ns3:hr>150</ns3:hr>
          </ns3:TrackPointExtension>
        </extensions>
      </trkpt>
      <trkpt lat="47.02070360071957111358642578125" lon="6.962123103439807891845703125">
        <ele>788.4000244140625</ele>
        <time>2019-06-14T11:10:44.000Z</time>
        <extensions>
          <ns3:TrackPointExtension>
            <ns3:atemp>25.0</ns3:atemp>
            <ns3:hr>150</ns3:hr>
          </ns3:TrackPointExtension>
        </extensions>
      </trkpt>
      <trkpt lat="47.0206731744110584259033203125" lon="6.96201212704181671142578125">
        <ele>789.4000244140625</ele>
        <time>2019-06-14T11:10:48.000Z</time>
        <extensions>
          <ns3:TrackPointExtension>
            <ns3:atemp>25.0</ns3:atemp>
            <ns3:hr>150</ns3:hr>
          </ns3:TrackPointExtension>
        </extensions>
      </trkpt>
      <trkpt lat="47.02066319994628429412841796875" lon="6.9619951955974102020263671875">
        <ele>789.79998779296875</ele>
        <time>2019-06-14T11:10:49.000Z</time>
        <extensions>
          <ns3:TrackPointExtension>
            <ns3:atemp>25.0</ns3:atemp>
            <ns3:hr>150</ns3:hr>
          </ns3:TrackPointExtension>
        </extensions>
      </trkpt>
      <trkpt lat="47.02065850608050823211669921875" lon="6.9619666971266269683837890625">
        <ele>789.79998779296875</ele>
        <time>2019-06-14T11:10:50.000Z</time>
        <extensions>
          <ns3:TrackPointExtension>
            <ns3:atemp>25.0</ns3:atemp>
            <ns3:hr>149</ns3:hr>
          </ns3:TrackPointExtension>
        </extensions>
      </trkpt>
      <trkpt lat="47.020646519958972930908203125" lon="6.9618553854525089263916015625">
        <ele>790.4000244140625</ele>
        <time>2019-06-14T11:10:54.000Z</time>
        <extensions>
          <ns3:TrackPointExtension>
            <ns3:atemp>25.0</ns3:atemp>
            <ns3:hr>149</ns3:hr>
          </ns3:TrackPointExtension>
        </extensions>
      </trkpt>
      <trkpt lat="47.0206302590668201446533203125" lon="6.9618143141269683837890625">
        <ele>790.5999755859375</ele>
        <time>2019-06-14T11:10:56.000Z</time>
        <extensions>
          <ns3:TrackPointExtension>
            <ns3:atemp>25.0</ns3:atemp>
            <ns3:hr>150</ns3:hr>
          </ns3:TrackPointExtension>
        </extensions>
      </trkpt>
      <trkpt lat="47.02057468704879283905029296875" lon="6.96174097247421741485595703125">
        <ele>791.4000244140625</ele>
        <time>2019-06-14T11:11:00.000Z</time>
        <extensions>
          <ns3:TrackPointExtension>
            <ns3:atemp>25.0</ns3:atemp>
            <ns3:hr>150</ns3:hr>
          </ns3:TrackPointExtension>
        </extensions>
      </trkpt>
      <trkpt lat="47.02054752968251705169677734375" lon="6.96173326112329959869384765625">
        <ele>791.5999755859375</ele>
        <time>2019-06-14T11:11:01.000Z</time>
        <extensions>
          <ns3:TrackPointExtension>
            <ns3:atemp>25.0</ns3:atemp>
            <ns3:hr>150</ns3:hr>
          </ns3:TrackPointExtension>
        </extensions>
      </trkpt>
      <trkpt lat="47.02050469815731048583984375" lon="6.9615975581109523773193359375">
        <ele>792.4000244140625</ele>
        <time>2019-06-14T11:11:06.000Z</time>
        <extensions>
          <ns3:TrackPointExtension>
            <ns3:atemp>25.0</ns3:atemp>
            <ns3:hr>150</ns3:hr>
          </ns3:TrackPointExtension>
        </extensions>
      </trkpt>
      <trkpt lat="47.0205005072057247161865234375" lon="6.96157601661980152130126953125">
        <ele>792.79998779296875</ele>
        <time>2019-06-14T11:11:07.000Z</time>
        <extensions>
          <ns3:TrackPointExtension>
            <ns3:atemp>25.0</ns3:atemp>
            <ns3:hr>151</ns3:hr>
          </ns3:TrackPointExtension>
        </extensions>
      </trkpt>
      <trkpt lat="47.02047360129654407501220703125" lon="6.96146571077406406402587890625">
        <ele>793.5999755859375</ele>
        <time>2019-06-14T11:11:12.000Z</time>
        <extensions>
          <ns3:TrackPointExtension>
            <ns3:atemp>25.0</ns3:atemp>
            <ns3:hr>151</ns3:hr>
          </ns3:TrackPointExtension>
        </extensions>
      </trkpt>
      <trkpt lat="47.020457424223423004150390625" lon="6.9614309258759021759033203125">
        <ele>793.79998779296875</ele>
        <time>2019-06-14T11:11:14.000Z</time>
        <extensions>
          <ns3:TrackPointExtension>
            <ns3:atemp>25.0</ns3:atemp>
            <ns3:hr>150</ns3:hr>
          </ns3:TrackPointExtension>
        </extensions>
      </trkpt>
      <trkpt lat="47.02042289078235626220703125" lon="6.96137652732431888580322265625">
        <ele>794.4000244140625</ele>
        <time>2019-06-14T11:11:17.000Z</time>
        <extensions>
          <ns3:TrackPointExtension>
            <ns3:atemp>25.0</ns3:atemp>
            <ns3:hr>150</ns3:hr>
          </ns3:TrackPointExtension>
        </extensions>
      </trkpt>
      <trkpt lat="47.02038274146616458892822265625" lon="6.9613031856715679168701171875">
        <ele>794.79998779296875</ele>
        <time>2019-06-14T11:11:20.000Z</time>
        <extensions>
          <ns3:TrackPointExtension>
            <ns3:atemp>25.0</ns3:atemp>
            <ns3:hr>150</ns3:hr>
          </ns3:TrackPointExtension>
        </extensions>
      </trkpt>
      <trkpt lat="47.02034116722643375396728515625" lon="6.96122732944786548614501953125">
        <ele>795.4000244140625</ele>
        <time>2019-06-14T11:11:23.000Z</time>
        <extensions>
          <ns3:TrackPointExtension>
            <ns3:atemp>25.0</ns3:atemp>
            <ns3:hr>150</ns3:hr>
          </ns3:TrackPointExtension>
        </extensions>
      </trkpt>
      <trkpt lat="47.02031635679304599761962890625" lon="6.96119078435003757476806640625">
        <ele>796</ele>
        <time>2019-06-14T11:11:25.000Z</time>
        <extensions>
          <ns3:TrackPointExtension>
            <ns3:atemp>25.0</ns3:atemp>
            <ns3:hr>150</ns3:hr>
          </ns3:TrackPointExtension>
        </extensions>
      </trkpt>
      <trkpt lat="47.02030361630022525787353515625" lon="6.96115189231932163238525390625">
        <ele>796.20001220703125</ele>
        <time>2019-06-14T11:11:27.000Z</time>
        <extensions>
          <ns3:TrackPointExtension>
            <ns3:atemp>25.0</ns3:atemp>
            <ns3:hr>150</ns3:hr>
          </ns3:TrackPointExtension>
        </extensions>
      </trkpt>
      <trkpt lat="47.02029808424413204193115234375" lon="6.96113294921815395355224609375">
        <ele>796.4000244140625</ele>
        <time>2019-06-14T11:11:28.000Z</time>
        <extensions>
          <ns3:TrackPointExtension>
            <ns3:atemp>25.0</ns3:atemp>
            <ns3:hr>150</ns3:hr>
          </ns3:TrackPointExtension>
        </extensions>
      </trkpt>
      <trkpt lat="47.020293809473514556884765625" lon="6.9610413350164890289306640625">
        <ele>797</ele>
        <time>2019-06-14T11:11:33.000Z</time>
        <extensions>
          <ns3:TrackPointExtension>
            <ns3:atemp>26.0</ns3:atemp>
            <ns3:hr>151</ns3:hr>
          </ns3:TrackPointExtension>
        </extensions>
      </trkpt>
      <trkpt lat="47.02029950916767120361328125" lon="6.96099129505455493927001953125">
        <ele>797.20001220703125</ele>
        <time>2019-06-14T11:11:35.000Z</time>
        <extensions>
          <ns3:TrackPointExtension>
            <ns3:atemp>26.0</ns3:atemp>
            <ns3:hr>152</ns3:hr>
          </ns3:TrackPointExtension>
        </extensions>
      </trkpt>
      <trkpt lat="47.020281739532947540283203125" lon="6.960834302008152008056640625">
        <ele>798</ele>
        <time>2019-06-14T11:11:39.000Z</time>
        <extensions>
          <ns3:TrackPointExtension>
            <ns3:atemp>26.0</ns3:atemp>
            <ns3:hr>152</ns3:hr>
          </ns3:TrackPointExtension>
        </extensions>
      </trkpt>
      <trkpt lat="47.02027578838169574737548828125" lon="6.96067848242819309234619140625">
        <ele>799.20001220703125</ele>
        <time>2019-06-14T11:11:44.000Z</time>
        <extensions>
          <ns3:TrackPointExtension>
            <ns3:atemp>26.0</ns3:atemp>
            <ns3:hr>152</ns3:hr>
          </ns3:TrackPointExtension>
        </extensions>
      </trkpt>
      <trkpt lat="47.0202758722007274627685546875" lon="6.96061578579246997833251953125">
        <ele>799.5999755859375</ele>
        <time>2019-06-14T11:11:46.000Z</time>
        <extensions>
          <ns3:TrackPointExtension>
            <ns3:atemp>26.0</ns3:atemp>
            <ns3:hr>151</ns3:hr>
          </ns3:TrackPointExtension>
        </extensions>
      </trkpt>
      <trkpt lat="47.0202547498047351837158203125" lon="6.9605109281837940216064453125">
        <ele>800</ele>
        <time>2019-06-14T11:11:50.000Z</time>
        <extensions>
          <ns3:TrackPointExtension>
            <ns3:atemp>26.0</ns3:atemp>
            <ns3:hr>152</ns3:hr>
          </ns3:TrackPointExtension>
        </extensions>
      </trkpt>
      <trkpt lat="47.020247876644134521484375" lon="6.96047463454306125640869140625">
        <ele>800.20001220703125</ele>
        <time>2019-06-14T11:11:52.000Z</time>
        <extensions>
          <ns3:TrackPointExtension>
            <ns3:atemp>26.0</ns3:atemp>
            <ns3:hr>152</ns3:hr>
          </ns3:TrackPointExtension>
        </extensions>
      </trkpt>
      <trkpt lat="47.0202346332371234893798828125" lon="6.9604237563908100128173828125">
        <ele>800.5999755859375</ele>
        <time>2019-06-14T11:11:54.000Z</time>
        <extensions>
          <ns3:TrackPointExtension>
            <ns3:atemp>26.0</ns3:atemp>
            <ns3:hr>153</ns3:hr>
          </ns3:TrackPointExtension>
        </extensions>
      </trkpt>
      <trkpt lat="47.0202249102294445037841796875" lon="6.96037304587662220001220703125">
        <ele>800.79998779296875</ele>
        <time>2019-06-14T11:11:56.000Z</time>
        <extensions>
          <ns3:TrackPointExtension>
            <ns3:atemp>26.0</ns3:atemp>
            <ns3:hr>153</ns3:hr>
          </ns3:TrackPointExtension>
        </extensions>
      </trkpt>
      <trkpt lat="47.02017755247652530670166015625" lon="6.9602908194065093994140625">
        <ele>801.4000244140625</ele>
        <time>2019-06-14T11:11:59.000Z</time>
        <extensions>
          <ns3:TrackPointExtension>
            <ns3:atemp>26.0</ns3:atemp>
            <ns3:hr>152</ns3:hr>
          </ns3:TrackPointExtension>
        </extensions>
      </trkpt>
      <trkpt lat="47.02012105844914913177490234375" lon="6.960159726440906524658203125">
        <ele>801.79998779296875</ele>
        <time>2019-06-14T11:12:03.000Z</time>
        <extensions>
          <ns3:TrackPointExtension>
            <ns3:atemp>26.0</ns3:atemp>
            <ns3:hr>150</ns3:hr>
          </ns3:TrackPointExtension>
        </extensions>
      </trkpt>
      <trkpt lat="47.02009809203445911407470703125" lon="6.960108093917369842529296875">
        <ele>802</ele>
        <time>2019-06-14T11:12:05.000Z</time>
        <extensions>
          <ns3:TrackPointExtension>
            <ns3:atemp>26.0</ns3:atemp>
            <ns3:hr>150</ns3:hr>
          </ns3:TrackPointExtension>
        </extensions>
      </trkpt>
      <trkpt lat="47.02006883919239044189453125" lon="6.96002519689500331878662109375">
        <ele>802.20001220703125</ele>
        <time>2019-06-14T11:12:08.000Z</time>
        <extensions>
          <ns3:TrackPointExtension>
            <ns3:atemp>26.0</ns3:atemp>
            <ns3:hr>150</ns3:hr>
          </ns3:TrackPointExtension>
        </extensions>
      </trkpt>
      <trkpt lat="47.0200509019196033477783203125" lon="6.9599935971200466156005859375">
        <ele>802.4000244140625</ele>
        <time>2019-06-14T11:12:10.000Z</time>
        <extensions>
          <ns3:TrackPointExtension>
            <ns3:atemp>26.0</ns3:atemp>
            <ns3:hr>151</ns3:hr>
          </ns3:TrackPointExtension>
        </extensions>
      </trkpt>
      <trkpt lat="47.02001360245048999786376953125" lon="6.9599104486405849456787109375">
        <ele>802.79998779296875</ele>
        <time>2019-06-14T11:12:13.000Z</time>
        <extensions>
          <ns3:TrackPointExtension>
            <ns3:atemp>26.0</ns3:atemp>
            <ns3:hr>151</ns3:hr>
          </ns3:TrackPointExtension>
        </extensions>
      </trkpt>
      <trkpt lat="47.01994067989289760589599609375" lon="6.95973501540720462799072265625">
        <ele>803.4000244140625</ele>
        <time>2019-06-14T11:12:18.000Z</time>
        <extensions>
          <ns3:TrackPointExtension>
            <ns3:atemp>26.0</ns3:atemp>
            <ns3:hr>151</ns3:hr>
          </ns3:TrackPointExtension>
        </extensions>
      </trkpt>
      <trkpt lat="47.01992827467620372772216796875" lon="6.95969335734844207763671875">
        <ele>803.4000244140625</ele>
        <time>2019-06-14T11:12:19.000Z</time>
        <extensions>
          <ns3:TrackPointExtension>
            <ns3:atemp>26.0</ns3:atemp>
            <ns3:hr>151</ns3:hr>
          </ns3:TrackPointExtension>
        </extensions>
      </trkpt>
      <trkpt lat="47.01988569460809230804443359375" lon="6.95956997573375701904296875">
        <ele>804</ele>
        <time>2019-06-14T11:12:22.000Z</time>
        <extensions>
          <ns3:TrackPointExtension>
            <ns3:atemp>26.0</ns3:atemp>
            <ns3:hr>151</ns3:hr>
          </ns3:TrackPointExtension>
        </extensions>
      </trkpt>
      <trkpt lat="47.019824422895908355712890625" lon="6.95944718085229396820068359375">
        <ele>804.4000244140625</ele>
        <time>2019-06-14T11:12:26.000Z</time>
        <extensions>
          <ns3:TrackPointExtension>
            <ns3:atemp>26.0</ns3:atemp>
            <ns3:hr>151</ns3:hr>
          </ns3:TrackPointExtension>
        </extensions>
      </trkpt>
      <trkpt lat="47.01980405487120151519775390625" lon="6.95941918529570102691650390625">
        <ele>804.4000244140625</ele>
        <time>2019-06-14T11:12:27.000Z</time>
        <extensions>
          <ns3:TrackPointExtension>
            <ns3:atemp>26.0</ns3:atemp>
            <ns3:hr>151</ns3:hr>
          </ns3:TrackPointExtension>
        </extensions>
      </trkpt>
      <trkpt lat="47.019784189760684967041015625" lon="6.959381885826587677001953125">
        <ele>804.5999755859375</ele>
        <time>2019-06-14T11:12:28.000Z</time>
        <extensions>
          <ns3:TrackPointExtension>
            <ns3:atemp>26.0</ns3:atemp>
            <ns3:hr>151</ns3:hr>
          </ns3:TrackPointExtension>
        </extensions>
      </trkpt>
      <trkpt lat="47.01970942318439483642578125" lon="6.9592281617224216461181640625">
        <ele>805.4000244140625</ele>
        <time>2019-06-14T11:12:33.000Z</time>
        <extensions>
          <ns3:TrackPointExtension>
            <ns3:atemp>26.0</ns3:atemp>
            <ns3:hr>151</ns3:hr>
          </ns3:TrackPointExtension>
        </extensions>
      </trkpt>
      <trkpt lat="47.0196958445012569427490234375" lon="6.9591964781284332275390625">
        <ele>805.5999755859375</ele>
        <time>2019-06-14T11:12:34.000Z</time>
        <extensions>
          <ns3:TrackPointExtension>
            <ns3:atemp>26.0</ns3:atemp>
            <ns3:hr>151</ns3:hr>
          </ns3:TrackPointExtension>
        </extensions>
      </trkpt>
      <trkpt lat="47.01963222585618495941162109375" lon="6.9590481184422969818115234375">
        <ele>806.20001220703125</ele>
        <time>2019-06-14T11:12:39.000Z</time>
        <extensions>
          <ns3:TrackPointExtension>
            <ns3:atemp>26.0</ns3:atemp>
            <ns3:hr>151</ns3:hr>
          </ns3:TrackPointExtension>
        </extensions>
      </trkpt>
      <trkpt lat="47.0195845328271389007568359375" lon="6.95888509042561054229736328125">
        <ele>806.5999755859375</ele>
        <time>2019-06-14T11:12:43.000Z</time>
        <extensions>
          <ns3:TrackPointExtension>
            <ns3:atemp>26.0</ns3:atemp>
            <ns3:hr>150</ns3:hr>
          </ns3:TrackPointExtension>
        </extensions>
      </trkpt>
      <trkpt lat="47.019546143710613250732421875" lon="6.95880378596484661102294921875">
        <ele>806.79998779296875</ele>
        <time>2019-06-14T11:12:45.000Z</time>
        <extensions>
          <ns3:TrackPointExtension>
            <ns3:atemp>26.0</ns3:atemp>
            <ns3:hr>150</ns3:hr>
          </ns3:TrackPointExtension>
        </extensions>
      </trkpt>
      <trkpt lat="47.01947531662881374359130859375" lon="6.9586142711341381072998046875">
        <ele>807.79998779296875</ele>
        <time>2019-06-14T11:12:50.000Z</time>
        <extensions>
          <ns3:TrackPointExtension>
            <ns3:atemp>26.0</ns3:atemp>
            <ns3:hr>151</ns3:hr>
          </ns3:TrackPointExtension>
        </extensions>
      </trkpt>
      <trkpt lat="47.01946123503148555755615234375" lon="6.9585653208196163177490234375">
        <ele>808.20001220703125</ele>
        <time>2019-06-14T11:12:51.000Z</time>
        <extensions>
          <ns3:TrackPointExtension>
            <ns3:atemp>26.0</ns3:atemp>
            <ns3:hr>151</ns3:hr>
          </ns3:TrackPointExtension>
        </extensions>
      </trkpt>
      <trkpt lat="47.0194276235997676849365234375" lon="6.95841033942997455596923828125">
        <ele>809</ele>
        <time>2019-06-14T11:12:55.000Z</time>
        <extensions>
          <ns3:TrackPointExtension>
            <ns3:atemp>26.0</ns3:atemp>
            <ns3:hr>152</ns3:hr>
          </ns3:TrackPointExtension>
        </extensions>
      </trkpt>
      <trkpt lat="47.01941899023950099945068359375" lon="6.9582940824329853057861328125">
        <ele>809.20001220703125</ele>
        <time>2019-06-14T11:12:58.000Z</time>
        <extensions>
          <ns3:TrackPointExtension>
            <ns3:atemp>26.0</ns3:atemp>
            <ns3:hr>152</ns3:hr>
          </ns3:TrackPointExtension>
        </extensions>
      </trkpt>
      <trkpt lat="47.0194177329540252685546875" lon="6.95825560949742794036865234375">
        <ele>809.20001220703125</ele>
        <time>2019-06-14T11:12:59.000Z</time>
        <extensions>
          <ns3:TrackPointExtension>
            <ns3:atemp>26.0</ns3:atemp>
            <ns3:hr>153</ns3:hr>
          </ns3:TrackPointExtension>
        </extensions>
      </trkpt>
      <trkpt lat="47.0193944312632083892822265625" lon="6.9580711238086223602294921875">
        <ele>809.5999755859375</ele>
        <time>2019-06-14T11:13:02.000Z</time>
        <extensions>
          <ns3:TrackPointExtension>
            <ns3:atemp>26.0</ns3:atemp>
            <ns3:hr>153</ns3:hr>
          </ns3:TrackPointExtension>
        </extensions>
      </trkpt>
      <trkpt lat="47.0193622447550296783447265625" lon="6.957906000316143035888671875">
        <ele>810</ele>
        <time>2019-06-14T11:13:05.000Z</time>
        <extensions>
          <ns3:TrackPointExtension>
            <ns3:atemp>26.0</ns3:atemp>
            <ns3:hr>153</ns3:hr>
          </ns3:TrackPointExtension>
        </extensions>
      </trkpt>
      <trkpt lat="47.01934841461479663848876953125" lon="6.9578233547508716583251953125">
        <ele>810.20001220703125</ele>
        <time>2019-06-14T11:13:07.000Z</time>
        <extensions>
          <ns3:TrackPointExtension>
            <ns3:atemp>26.0</ns3:atemp>
            <ns3:hr>153</ns3:hr>
          </ns3:TrackPointExtension>
        </extensions>
      </trkpt>
      <trkpt lat="47.019277922809123992919921875" lon="6.95770039223134517669677734375">
        <ele>810.20001220703125</ele>
        <time>2019-06-14T11:13:11.000Z</time>
        <extensions>
          <ns3:TrackPointExtension>
            <ns3:atemp>25.0</ns3:atemp>
            <ns3:hr>152</ns3:hr>
          </ns3:TrackPointExtension>
        </extensions>
      </trkpt>
      <trkpt lat="47.01912495307624340057373046875" lon="6.9574744999408721923828125">
        <ele>809.20001220703125</ele>
        <time>2019-06-14T11:13:16.000Z</time>
        <extensions>
          <ns3:TrackPointExtension>
            <ns3:atemp>25.0</ns3:atemp>
            <ns3:hr>153</ns3:hr>
          </ns3:TrackPointExtension>
        </extensions>
      </trkpt>
      <trkpt lat="47.01909125782549381256103515625" lon="6.9574421457946300506591796875">
        <ele>809</ele>
        <time>2019-06-14T11:13:17.000Z</time>
        <extensions>
          <ns3:TrackPointExtension>
            <ns3:atemp>25.0</ns3:atemp>
            <ns3:hr>153</ns3:hr>
          </ns3:TrackPointExtension>
        </extensions>
      </trkpt>
      <trkpt lat="47.01891188509762287139892578125" lon="6.95726059377193450927734375">
        <ele>808.20001220703125</ele>
        <time>2019-06-14T11:13:21.000Z</time>
        <extensions>
          <ns3:TrackPointExtension>
            <ns3:atemp>25.0</ns3:atemp>
            <ns3:hr>151</ns3:hr>
          </ns3:TrackPointExtension>
        </extensions>
      </trkpt>
      <trkpt lat="47.0188589952886104583740234375" lon="6.95720351301133632659912109375">
        <ele>807.79998779296875</ele>
        <time>2019-06-14T11:13:22.000Z</time>
        <extensions>
          <ns3:TrackPointExtension>
            <ns3:atemp>25.0</ns3:atemp>
            <ns3:hr>151</ns3:hr>
          </ns3:TrackPointExtension>
        </extensions>
      </trkpt>
      <trkpt lat="47.01881784014403820037841796875" lon="6.957156658172607421875">
        <ele>807.79998779296875</ele>
        <time>2019-06-14T11:13:23.000Z</time>
        <extensions>
          <ns3:TrackPointExtension>
            <ns3:atemp>25.0</ns3:atemp>
            <ns3:hr>150</ns3:hr>
          </ns3:TrackPointExtension>
        </extensions>
      </trkpt>
      <trkpt lat="47.0187647826969623565673828125" lon="6.95708197541534900665283203125">
        <ele>807.5999755859375</ele>
        <time>2019-06-14T11:13:24.000Z</time>
        <extensions>
          <ns3:TrackPointExtension>
            <ns3:atemp>25.0</ns3:atemp>
            <ns3:hr>150</ns3:hr>
          </ns3:TrackPointExtension>
        </extensions>
      </trkpt>
      <trkpt lat="47.018627822399139404296875" lon="6.95685465820133686065673828125">
        <ele>806.79998779296875</ele>
        <time>2019-06-14T11:13:27.000Z</time>
        <extensions>
          <ns3:TrackPointExtension>
            <ns3:atemp>25.0</ns3:atemp>
            <ns3:hr>149</ns3:hr>
          </ns3:TrackPointExtension>
        </extensions>
      </trkpt>
      <trkpt lat="47.01859940774738788604736328125" lon="6.95678005926311016082763671875">
        <ele>806.20001220703125</ele>
        <time>2019-06-14T11:13:28.000Z</time>
        <extensions>
          <ns3:TrackPointExtension>
            <ns3:atemp>25.0</ns3:atemp>
            <ns3:hr>149</ns3:hr>
          </ns3:TrackPointExtension>
        </extensions>
      </trkpt>
      <trkpt lat="47.018571831285953521728515625" lon="6.95671082474291324615478515625">
        <ele>805.79998779296875</ele>
        <time>2019-06-14T11:13:29.000Z</time>
        <extensions>
          <ns3:TrackPointExtension>
            <ns3:atemp>25.0</ns3:atemp>
            <ns3:hr>148</ns3:hr>
          </ns3:TrackPointExtension>
        </extensions>
      </trkpt>
      <trkpt lat="47.01853889040648937225341796875" lon="6.956636644899845123291015625">
        <ele>805.4000244140625</ele>
        <time>2019-06-14T11:13:30.000Z</time>
        <extensions>
          <ns3:TrackPointExtension>
            <ns3:atemp>25.0</ns3:atemp>
            <ns3:hr>148</ns3:hr>
          </ns3:TrackPointExtension>
        </extensions>
      </trkpt>
      <trkpt lat="47.01841550879180431365966796875" lon="6.95639801211655139923095703125">
        <ele>804.4000244140625</ele>
        <time>2019-06-14T11:13:33.000Z</time>
        <extensions>
          <ns3:TrackPointExtension>
            <ns3:atemp>25.0</ns3:atemp>
            <ns3:hr>148</ns3:hr>
          </ns3:TrackPointExtension>
        </extensions>
      </trkpt>
      <trkpt lat="47.0183761976659297943115234375" lon="6.95629944093525409698486328125">
        <ele>804.20001220703125</ele>
        <time>2019-06-14T11:13:34.000Z</time>
        <extensions>
          <ns3:TrackPointExtension>
            <ns3:atemp>25.0</ns3:atemp>
            <ns3:hr>148</ns3:hr>
          </ns3:TrackPointExtension>
        </extensions>
      </trkpt>
      <trkpt lat="47.01824820600450038909912109375" lon="6.95598277263343334197998046875">
        <ele>803.79998779296875</ele>
        <time>2019-06-14T11:13:37.000Z</time>
        <extensions>
          <ns3:TrackPointExtension>
            <ns3:atemp>25.0</ns3:atemp>
            <ns3:hr>147</ns3:hr>
          </ns3:TrackPointExtension>
        </extensions>
      </trkpt>
      <trkpt lat="47.01819959096610546112060546875" lon="6.95588353089988231658935546875">
        <ele>803.4000244140625</ele>
        <time>2019-06-14T11:13:38.000Z</time>
        <extensions>
          <ns3:TrackPointExtension>
            <ns3:atemp>25.0</ns3:atemp>
            <ns3:hr>147</ns3:hr>
          </ns3:TrackPointExtension>
        </extensions>
      </trkpt>
      <trkpt lat="47.01815265230834484100341796875" lon="6.95577624253928661346435546875">
        <ele>802.79998779296875</ele>
        <time>2019-06-14T11:13:39.000Z</time>
        <extensions>
          <ns3:TrackPointExtension>
            <ns3:atemp>25.0</ns3:atemp>
            <ns3:hr>147</ns3:hr>
          </ns3:TrackPointExtension>
        </extensions>
      </trkpt>
      <trkpt lat="47.0181113295257091522216796875" lon="6.95565805770456790924072265625">
        <ele>802.20001220703125</ele>
        <time>2019-06-14T11:13:40.000Z</time>
        <extensions>
          <ns3:TrackPointExtension>
            <ns3:atemp>25.0</ns3:atemp>
            <ns3:hr>147</ns3:hr>
          </ns3:TrackPointExtension>
        </extensions>
      </trkpt>
      <trkpt lat="47.01796372421085834503173828125" lon="6.95532529614865779876708984375">
        <ele>801</ele>
        <time>2019-06-14T11:13:43.000Z</time>
        <extensions>
          <ns3:TrackPointExtension>
            <ns3:atemp>24.0</ns3:atemp>
            <ns3:hr>147</ns3:hr>
          </ns3:TrackPointExtension>
        </extensions>
      </trkpt>
      <trkpt lat="47.0179229043424129486083984375" lon="6.95521431975066661834716796875">
        <ele>800.79998779296875</ele>
        <time>2019-06-14T11:13:44.000Z</time>
        <extensions>
          <ns3:TrackPointExtension>
            <ns3:atemp>24.0</ns3:atemp>
            <ns3:hr>147</ns3:hr>
          </ns3:TrackPointExtension>
        </extensions>
      </trkpt>
      <trkpt lat="47.0178216509521007537841796875" lon="6.95499278604984283447265625">
        <ele>800</ele>
        <time>2019-06-14T11:13:46.000Z</time>
        <extensions>
          <ns3:TrackPointExtension>
            <ns3:atemp>24.0</ns3:atemp>
            <ns3:hr>147</ns3:hr>
          </ns3:TrackPointExtension>
        </extensions>
      </trkpt>
      <trkpt lat="47.01772249303758144378662109375" lon="6.9547666423022747039794921875">
        <ele>798.79998779296875</ele>
        <time>2019-06-14T11:13:48.000Z</time>
        <extensions>
          <ns3:TrackPointExtension>
            <ns3:atemp>24.0</ns3:atemp>
            <ns3:hr>147</ns3:hr>
          </ns3:TrackPointExtension>
        </extensions>
      </trkpt>
      <trkpt lat="47.01762626878917217254638671875" lon="6.9545785523951053619384765625">
        <ele>797.5999755859375</ele>
        <time>2019-06-14T11:13:50.000Z</time>
        <extensions>
          <ns3:TrackPointExtension>
            <ns3:atemp>24.0</ns3:atemp>
            <ns3:hr>147</ns3:hr>
          </ns3:TrackPointExtension>
        </extensions>
      </trkpt>
      <trkpt lat="47.01757413335144519805908203125" lon="6.9545104913413524627685546875">
        <ele>797</ele>
        <time>2019-06-14T11:13:51.000Z</time>
        <extensions>
          <ns3:TrackPointExtension>
            <ns3:atemp>24.0</ns3:atemp>
            <ns3:hr>147</ns3:hr>
          </ns3:TrackPointExtension>
        </extensions>
      </trkpt>
      <trkpt lat="47.0175178907811641693115234375" lon="6.95442860014736652374267578125">
        <ele>796.79998779296875</ele>
        <time>2019-06-14T11:13:52.000Z</time>
        <extensions>
          <ns3:TrackPointExtension>
            <ns3:atemp>24.0</ns3:atemp>
            <ns3:hr>147</ns3:hr>
          </ns3:TrackPointExtension>
        </extensions>
      </trkpt>
      <trkpt lat="47.0174082554876804351806640625" lon="6.95425526238977909088134765625">
        <ele>796.4000244140625</ele>
        <time>2019-06-14T11:13:54.000Z</time>
        <extensions>
          <ns3:TrackPointExtension>
            <ns3:atemp>24.0</ns3:atemp>
            <ns3:hr>146</ns3:hr>
          </ns3:TrackPointExtension>
        </extensions>
      </trkpt>
      <trkpt lat="47.01722796075046062469482421875" lon="6.95392250083386898040771484375">
        <ele>795.79998779296875</ele>
        <time>2019-06-14T11:13:57.000Z</time>
        <extensions>
          <ns3:TrackPointExtension>
            <ns3:atemp>24.0</ns3:atemp>
            <ns3:hr>146</ns3:hr>
          </ns3:TrackPointExtension>
        </extensions>
      </trkpt>
      <trkpt lat="47.01716425828635692596435546875" lon="6.95380783639848232269287109375">
        <ele>795.4000244140625</ele>
        <time>2019-06-14T11:13:58.000Z</time>
        <extensions>
          <ns3:TrackPointExtension>
            <ns3:atemp>24.0</ns3:atemp>
            <ns3:hr>146</ns3:hr>
          </ns3:TrackPointExtension>
        </extensions>
      </trkpt>
      <trkpt lat="47.01701925136148929595947265625" lon="6.95353106595575809478759765625">
        <ele>793.79998779296875</ele>
        <time>2019-06-14T11:14:00.000Z</time>
        <extensions>
          <ns3:TrackPointExtension>
            <ns3:atemp>24.0</ns3:atemp>
            <ns3:hr>146</ns3:hr>
          </ns3:TrackPointExtension>
        </extensions>
      </trkpt>
      <trkpt lat="47.01695135794579982757568359375" lon="6.9534215144813060760498046875">
        <ele>792.79998779296875</ele>
        <time>2019-06-14T11:14:01.000Z</time>
        <extensions>
          <ns3:TrackPointExtension>
            <ns3:atemp>23.0</ns3:atemp>
            <ns3:hr>146</ns3:hr>
          </ns3:TrackPointExtension>
        </extensions>
      </trkpt>
      <trkpt lat="47.0168818719685077667236328125" lon="6.9533172436058521270751953125">
        <ele>791.79998779296875</ele>
        <time>2019-06-14T11:14:02.000Z</time>
        <extensions>
          <ns3:TrackPointExtension>
            <ns3:atemp>23.0</ns3:atemp>
            <ns3:hr>146</ns3:hr>
          </ns3:TrackPointExtension>
        </extensions>
      </trkpt>
      <trkpt lat="47.0167993940412998199462890625" lon="6.95321448147296905517578125">
        <ele>790.79998779296875</ele>
        <time>2019-06-14T11:14:03.000Z</time>
        <extensions>
          <ns3:TrackPointExtension>
            <ns3:atemp>23.0</ns3:atemp>
            <ns3:hr>147</ns3:hr>
          </ns3:TrackPointExtension>
        </extensions>
      </trkpt>
      <trkpt lat="47.01671632938086986541748046875" lon="6.95311314426362514495849609375">
        <ele>789.79998779296875</ele>
        <time>2019-06-14T11:14:04.000Z</time>
        <extensions>
          <ns3:TrackPointExtension>
            <ns3:atemp>23.0</ns3:atemp>
            <ns3:hr>147</ns3:hr>
          </ns3:TrackPointExtension>
        </extensions>
      </trkpt>
      <trkpt lat="47.0166330970823764801025390625" lon="6.9530081190168857574462890625">
        <ele>789</ele>
        <time>2019-06-14T11:14:05.000Z</time>
        <extensions>
          <ns3:TrackPointExtension>
            <ns3:atemp>23.0</ns3:atemp>
            <ns3:hr>147</ns3:hr>
          </ns3:TrackPointExtension>
        </extensions>
      </trkpt>
      <trkpt lat="47.01655640266835689544677734375" lon="6.95289588533341884613037109375">
        <ele>788.5999755859375</ele>
        <time>2019-06-14T11:14:06.000Z</time>
        <extensions>
          <ns3:TrackPointExtension>
            <ns3:atemp>23.0</ns3:atemp>
            <ns3:hr>147</ns3:hr>
          </ns3:TrackPointExtension>
        </extensions>
      </trkpt>
      <trkpt lat="47.01641424559056758880615234375" lon="6.9526530615985393524169921875">
        <ele>787</ele>
        <time>2019-06-14T11:14:08.000Z</time>
        <extensions>
          <ns3:TrackPointExtension>
            <ns3:atemp>23.0</ns3:atemp>
            <ns3:hr>146</ns3:hr>
          </ns3:TrackPointExtension>
        </extensions>
      </trkpt>
      <trkpt lat="47.016344256699085235595703125" lon="6.95252138189971446990966796875">
        <ele>785.79998779296875</ele>
        <time>2019-06-14T11:14:09.000Z</time>
        <extensions>
          <ns3:TrackPointExtension>
            <ns3:atemp>23.0</ns3:atemp>
            <ns3:hr>146</ns3:hr>
          </ns3:TrackPointExtension>
        </extensions>
      </trkpt>
      <trkpt lat="47.016271166503429412841796875" lon="6.9523943960666656494140625">
        <ele>784.79998779296875</ele>
        <time>2019-06-14T11:14:10.000Z</time>
        <extensions>
          <ns3:TrackPointExtension>
            <ns3:atemp>23.0</ns3:atemp>
            <ns3:hr>146</ns3:hr>
          </ns3:TrackPointExtension>
        </extensions>
      </trkpt>
      <trkpt lat="47.016196064651012420654296875" lon="6.9522604532539844512939453125">
        <ele>783.79998779296875</ele>
        <time>2019-06-14T11:14:11.000Z</time>
        <extensions>
          <ns3:TrackPointExtension>
            <ns3:atemp>23.0</ns3:atemp>
            <ns3:hr>146</ns3:hr>
          </ns3:TrackPointExtension>
        </extensions>
      </trkpt>
      <trkpt lat="47.0161212980747222900390625" lon="6.95213044993579387664794921875">
        <ele>782.5999755859375</ele>
        <time>2019-06-14T11:14:12.000Z</time>
        <extensions>
          <ns3:TrackPointExtension>
            <ns3:atemp>23.0</ns3:atemp>
            <ns3:hr>145</ns3:hr>
          </ns3:TrackPointExtension>
        </extensions>
      </trkpt>
      <trkpt lat="47.01604058034718036651611328125" lon="6.95198929868638515472412109375">
        <ele>781.4000244140625</ele>
        <time>2019-06-14T11:14:13.000Z</time>
        <extensions>
          <ns3:TrackPointExtension>
            <ns3:atemp>23.0</ns3:atemp>
            <ns3:hr>144</ns3:hr>
          </ns3:TrackPointExtension>
        </extensions>
      </trkpt>
      <trkpt lat="47.01588467694818973541259765625" lon="6.95172057487070560455322265625">
        <ele>779.5999755859375</ele>
        <time>2019-06-14T11:14:15.000Z</time>
        <extensions>
          <ns3:TrackPointExtension>
            <ns3:atemp>23.0</ns3:atemp>
            <ns3:hr>144</ns3:hr>
          </ns3:TrackPointExtension>
        </extensions>
      </trkpt>
      <trkpt lat="47.01580303721129894256591796875" lon="6.95157657377421855926513671875">
        <ele>778.20001220703125</ele>
        <time>2019-06-14T11:14:16.000Z</time>
        <extensions>
          <ns3:TrackPointExtension>
            <ns3:atemp>23.0</ns3:atemp>
            <ns3:hr>143</ns3:hr>
          </ns3:TrackPointExtension>
        </extensions>
      </trkpt>
      <trkpt lat="47.01572231948375701904296875" lon="6.9514376856386661529541015625">
        <ele>777</ele>
        <time>2019-06-14T11:14:17.000Z</time>
        <extensions>
          <ns3:TrackPointExtension>
            <ns3:atemp>23.0</ns3:atemp>
            <ns3:hr>143</ns3:hr>
          </ns3:TrackPointExtension>
        </extensions>
      </trkpt>
      <trkpt lat="47.0155595429241657257080078125" lon="6.951160244643688201904296875">
        <ele>775</ele>
        <time>2019-06-14T11:14:19.000Z</time>
        <extensions>
          <ns3:TrackPointExtension>
            <ns3:atemp>23.0</ns3:atemp>
            <ns3:hr>142</ns3:hr>
          </ns3:TrackPointExtension>
        </extensions>
      </trkpt>
      <trkpt lat="47.01547815464437007904052734375" lon="6.95102923549711704254150390625">
        <ele>773.79998779296875</ele>
        <time>2019-06-14T11:14:20.000Z</time>
        <extensions>
          <ns3:TrackPointExtension>
            <ns3:atemp>23.0</ns3:atemp>
            <ns3:hr>142</ns3:hr>
          </ns3:TrackPointExtension>
        </extensions>
      </trkpt>
      <trkpt lat="47.01538704335689544677734375" lon="6.9509180076420307159423828125">
        <ele>772.5999755859375</ele>
        <time>2019-06-14T11:14:21.000Z</time>
        <extensions>
          <ns3:TrackPointExtension>
            <ns3:atemp>23.0</ns3:atemp>
            <ns3:hr>142</ns3:hr>
          </ns3:TrackPointExtension>
        </extensions>
      </trkpt>
      <trkpt lat="47.01529056765139102935791015625" lon="6.95081524550914764404296875">
        <ele>772</ele>
        <time>2019-06-14T11:14:22.000Z</time>
        <extensions>
          <ns3:TrackPointExtension>
            <ns3:atemp>23.0</ns3:atemp>
            <ns3:hr>142</ns3:hr>
          </ns3:TrackPointExtension>
        </extensions>
      </trkpt>
      <trkpt lat="47.01520909555256366729736328125" lon="6.9506967253983020782470703125">
        <ele>771.4000244140625</ele>
        <time>2019-06-14T11:14:23.000Z</time>
        <extensions>
          <ns3:TrackPointExtension>
            <ns3:atemp>22.0</ns3:atemp>
            <ns3:hr>142</ns3:hr>
          </ns3:TrackPointExtension>
        </extensions>
      </trkpt>
      <trkpt lat="47.01507230289280414581298828125" lon="6.95044954307377338409423828125">
        <ele>769.79998779296875</ele>
        <time>2019-06-14T11:14:25.000Z</time>
        <extensions>
          <ns3:TrackPointExtension>
            <ns3:atemp>22.0</ns3:atemp>
            <ns3:hr>142</ns3:hr>
          </ns3:TrackPointExtension>
        </extensions>
      </trkpt>
      <trkpt lat="47.01490734703838825225830078125" lon="6.95004804991185665130615234375">
        <ele>768.4000244140625</ele>
        <time>2019-06-14T11:14:28.000Z</time>
        <extensions>
          <ns3:TrackPointExtension>
            <ns3:atemp>22.0</ns3:atemp>
            <ns3:hr>143</ns3:hr>
          </ns3:TrackPointExtension>
        </extensions>
      </trkpt>
      <trkpt lat="47.014786899089813232421875" lon="6.9497820921242237091064453125">
        <ele>767.5999755859375</ele>
        <time>2019-06-14T11:14:30.000Z</time>
        <extensions>
          <ns3:TrackPointExtension>
            <ns3:atemp>22.0</ns3:atemp>
            <ns3:hr>143</ns3:hr>
          </ns3:TrackPointExtension>
        </extensions>
      </trkpt>
      <trkpt lat="47.01468162238597869873046875" lon="6.94952501915395259857177734375">
        <ele>767</ele>
        <time>2019-06-14T11:14:32.000Z</time>
        <extensions>
          <ns3:TrackPointExtension>
            <ns3:atemp>22.0</ns3:atemp>
            <ns3:hr>142</ns3:hr>
          </ns3:TrackPointExtension>
        </extensions>
      </trkpt>
      <trkpt lat="47.01456503011286258697509765625" lon="6.94926853291690349578857421875">
        <ele>766.20001220703125</ele>
        <time>2019-06-14T11:14:34.000Z</time>
        <extensions>
          <ns3:TrackPointExtension>
            <ns3:atemp>22.0</ns3:atemp>
            <ns3:hr>141</ns3:hr>
          </ns3:TrackPointExtension>
        </extensions>
      </trkpt>
      <trkpt lat="47.01449529267847537994384765625" lon="6.94915420375764369964599609375">
        <ele>765.79998779296875</ele>
        <time>2019-06-14T11:14:35.000Z</time>
        <extensions>
          <ns3:TrackPointExtension>
            <ns3:atemp>22.0</ns3:atemp>
            <ns3:hr>141</ns3:hr>
          </ns3:TrackPointExtension>
        </extensions>
      </trkpt>
      <trkpt lat="47.0142858289182186126708984375" lon="6.94882345385849475860595703125">
        <ele>765</ele>
        <time>2019-06-14T11:14:38.000Z</time>
        <extensions>
          <ns3:TrackPointExtension>
            <ns3:atemp>22.0</ns3:atemp>
            <ns3:hr>143</ns3:hr>
          </ns3:TrackPointExtension>
        </extensions>
      </trkpt>
      <trkpt lat="47.01415264047682285308837890625" lon="6.9485875032842159271240234375">
        <ele>764.20001220703125</ele>
        <time>2019-06-14T11:14:40.000Z</time>
        <extensions>
          <ns3:TrackPointExtension>
            <ns3:atemp>22.0</ns3:atemp>
            <ns3:hr>144</ns3:hr>
          </ns3:TrackPointExtension>
        </extensions>
      </trkpt>
      <trkpt lat="47.01402054168283939361572265625" lon="6.9483477808535099029541015625">
        <ele>763.20001220703125</ele>
        <time>2019-06-14T11:14:42.000Z</time>
        <extensions>
          <ns3:TrackPointExtension>
            <ns3:atemp>22.0</ns3:atemp>
            <ns3:hr>143</ns3:hr>
          </ns3:TrackPointExtension>
        </extensions>
      </trkpt>
      <trkpt lat="47.01389305293560028076171875" lon="6.94810881279408931732177734375">
        <ele>762.20001220703125</ele>
        <time>2019-06-14T11:14:44.000Z</time>
        <extensions>
          <ns3:TrackPointExtension>
            <ns3:atemp>22.0</ns3:atemp>
            <ns3:hr>143</ns3:hr>
          </ns3:TrackPointExtension>
        </extensions>
      </trkpt>
      <trkpt lat="47.013835720717906951904296875" lon="6.94798727519810199737548828125">
        <ele>761.5999755859375</ele>
        <time>2019-06-14T11:14:45.000Z</time>
        <extensions>
          <ns3:TrackPointExtension>
            <ns3:atemp>22.0</ns3:atemp>
            <ns3:hr>142</ns3:hr>
          </ns3:TrackPointExtension>
        </extensions>
      </trkpt>
      <trkpt lat="47.0137011073529720306396484375" lon="6.94778108038008213043212890625">
        <ele>760.4000244140625</ele>
        <time>2019-06-14T11:14:47.000Z</time>
        <extensions>
          <ns3:TrackPointExtension>
            <ns3:atemp>22.0</ns3:atemp>
            <ns3:hr>142</ns3:hr>
          </ns3:TrackPointExtension>
        </extensions>
      </trkpt>
      <trkpt lat="47.0135517418384552001953125" lon="6.94759299047291278839111328125">
        <ele>760</ele>
        <time>2019-06-14T11:14:49.000Z</time>
        <extensions>
          <ns3:TrackPointExtension>
            <ns3:atemp>22.0</ns3:atemp>
            <ns3:hr>143</ns3:hr>
          </ns3:TrackPointExtension>
        </extensions>
      </trkpt>
      <trkpt lat="47.01348208822309970855712890625" lon="6.9474841095507144927978515625">
        <ele>759.20001220703125</ele>
        <time>2019-06-14T11:14:50.000Z</time>
        <extensions>
          <ns3:TrackPointExtension>
            <ns3:atemp>22.0</ns3:atemp>
            <ns3:hr>143</ns3:hr>
          </ns3:TrackPointExtension>
        </extensions>
      </trkpt>
      <trkpt lat="47.013279832899570465087890625" lon="6.947165429592132568359375">
        <ele>758</ele>
        <time>2019-06-14T11:14:53.000Z</time>
        <extensions>
          <ns3:TrackPointExtension>
            <ns3:atemp>22.0</ns3:atemp>
            <ns3:hr>143</ns3:hr>
          </ns3:TrackPointExtension>
        </extensions>
      </trkpt>
      <trkpt lat="47.0130179822444915771484375" lon="6.9466348551213741302490234375">
        <ele>757</ele>
        <time>2019-06-14T11:14:58.000Z</time>
        <extensions>
          <ns3:TrackPointExtension>
            <ns3:atemp>21.0</ns3:atemp>
            <ns3:hr>141</ns3:hr>
          </ns3:TrackPointExtension>
        </extensions>
      </trkpt>
      <trkpt lat="47.01296207495033740997314453125" lon="6.94655321538448333740234375">
        <ele>757</ele>
        <time>2019-06-14T11:14:59.000Z</time>
        <extensions>
          <ns3:TrackPointExtension>
            <ns3:atemp>21.0</ns3:atemp>
            <ns3:hr>142</ns3:hr>
          </ns3:TrackPointExtension>
        </extensions>
      </trkpt>
      <trkpt lat="47.0127980411052703857421875" lon="6.9463253952562808990478515625">
        <ele>757</ele>
        <time>2019-06-14T11:15:02.000Z</time>
        <extensions>
          <ns3:TrackPointExtension>
            <ns3:atemp>21.0</ns3:atemp>
            <ns3:hr>143</ns3:hr>
          </ns3:TrackPointExtension>
        </extensions>
      </trkpt>
      <trkpt lat="47.01269418932497501373291015625" lon="6.94620964117348194122314453125">
        <ele>757.4000244140625</ele>
        <time>2019-06-14T11:15:05.000Z</time>
        <extensions>
          <ns3:TrackPointExtension>
            <ns3:atemp>21.0</ns3:atemp>
            <ns3:hr>142</ns3:hr>
          </ns3:TrackPointExtension>
        </extensions>
      </trkpt>
      <trkpt lat="47.01268530450761318206787109375" lon="6.94616018794476985931396484375">
        <ele>757.5999755859375</ele>
        <time>2019-06-14T11:15:06.000Z</time>
        <extensions>
          <ns3:TrackPointExtension>
            <ns3:atemp>21.0</ns3:atemp>
            <ns3:hr>142</ns3:hr>
          </ns3:TrackPointExtension>
        </extensions>
      </trkpt>
      <trkpt lat="47.0127023197710514068603515625" lon="6.94607201032340526580810546875">
        <ele>757.79998779296875</ele>
        <time>2019-06-14T11:15:08.000Z</time>
        <extensions>
          <ns3:TrackPointExtension>
            <ns3:atemp>21.0</ns3:atemp>
            <ns3:hr>141</ns3:hr>
          </ns3:TrackPointExtension>
        </extensions>
      </trkpt>
      <trkpt lat="47.01271866448223590850830078125" lon="6.94592197425663471221923828125">
        <ele>758.20001220703125</ele>
        <time>2019-06-14T11:15:11.000Z</time>
        <extensions>
          <ns3:TrackPointExtension>
            <ns3:atemp>21.0</ns3:atemp>
            <ns3:hr>140</ns3:hr>
          </ns3:TrackPointExtension>
        </extensions>
      </trkpt>
      <trkpt lat="47.01271614991128444671630859375" lon="6.94587729871273040771484375">
        <ele>758.4000244140625</ele>
        <time>2019-06-14T11:15:12.000Z</time>
        <extensions>
          <ns3:TrackPointExtension>
            <ns3:atemp>21.0</ns3:atemp>
            <ns3:hr>140</ns3:hr>
          </ns3:TrackPointExtension>
        </extensions>
      </trkpt>
      <trkpt lat="47.01270441524684429168701171875" lon="6.94579549133777618408203125">
        <ele>759.20001220703125</ele>
        <time>2019-06-14T11:15:14.000Z</time>
        <extensions>
          <ns3:TrackPointExtension>
            <ns3:atemp>21.0</ns3:atemp>
            <ns3:hr>140</ns3:hr>
          </ns3:TrackPointExtension>
        </extensions>
      </trkpt>
      <trkpt lat="47.0126708038151264190673828125" lon="6.94567655213177204132080078125">
        <ele>759.5999755859375</ele>
        <time>2019-06-14T11:15:17.000Z</time>
        <extensions>
          <ns3:TrackPointExtension>
            <ns3:atemp>21.0</ns3:atemp>
            <ns3:hr>141</ns3:hr>
          </ns3:TrackPointExtension>
        </extensions>
      </trkpt>
      <trkpt lat="47.0125554688274860382080078125" lon="6.94544102065265178680419921875">
        <ele>759.5999755859375</ele>
        <time>2019-06-14T11:15:23.000Z</time>
        <extensions>
          <ns3:TrackPointExtension>
            <ns3:atemp>22.0</ns3:atemp>
            <ns3:hr>141</ns3:hr>
          </ns3:TrackPointExtension>
        </extensions>
      </trkpt>
      <trkpt lat="47.0124434866011142730712890625" lon="6.9451663456857204437255859375">
        <ele>759.20001220703125</ele>
        <time>2019-06-14T11:15:28.000Z</time>
        <extensions>
          <ns3:TrackPointExtension>
            <ns3:atemp>22.0</ns3:atemp>
            <ns3:hr>143</ns3:hr>
          </ns3:TrackPointExtension>
        </extensions>
      </trkpt>
      <trkpt lat="47.01228640973567962646484375" lon="6.9448868930339813232421875">
        <ele>758.5999755859375</ele>
        <time>2019-06-14T11:15:33.000Z</time>
        <extensions>
          <ns3:TrackPointExtension>
            <ns3:atemp>22.0</ns3:atemp>
            <ns3:hr>142</ns3:hr>
          </ns3:TrackPointExtension>
        </extensions>
      </trkpt>
      <trkpt lat="47.01216705143451690673828125" lon="6.94462277926504611968994140625">
        <ele>758.20001220703125</ele>
        <time>2019-06-14T11:15:37.000Z</time>
        <extensions>
          <ns3:TrackPointExtension>
            <ns3:atemp>22.0</ns3:atemp>
            <ns3:hr>142</ns3:hr>
          </ns3:TrackPointExtension>
        </extensions>
      </trkpt>
      <trkpt lat="47.01212472282350063323974609375" lon="6.9445350207388401031494140625">
        <ele>758.20001220703125</ele>
        <time>2019-06-14T11:15:38.000Z</time>
        <extensions>
          <ns3:TrackPointExtension>
            <ns3:atemp>22.0</ns3:atemp>
            <ns3:hr>142</ns3:hr>
          </ns3:TrackPointExtension>
        </extensions>
      </trkpt>
      <trkpt lat="47.012070827186107635498046875" lon="6.94437802769243717193603515625">
        <ele>757.79998779296875</ele>
        <time>2019-06-14T11:15:40.000Z</time>
        <extensions>
          <ns3:TrackPointExtension>
            <ns3:atemp>22.0</ns3:atemp>
            <ns3:hr>143</ns3:hr>
          </ns3:TrackPointExtension>
        </extensions>
      </trkpt>
      <trkpt lat="47.0120069570839405059814453125" lon="6.94422614760696887969970703125">
        <ele>757.5999755859375</ele>
        <time>2019-06-14T11:15:42.000Z</time>
        <extensions>
          <ns3:TrackPointExtension>
            <ns3:atemp>22.0</ns3:atemp>
            <ns3:hr>143</ns3:hr>
          </ns3:TrackPointExtension>
        </extensions>
      </trkpt>
      <trkpt lat="47.01197468675673007965087890625" lon="6.94414081983268260955810546875">
        <ele>757.5999755859375</ele>
        <time>2019-06-14T11:15:43.000Z</time>
        <extensions>
          <ns3:TrackPointExtension>
            <ns3:atemp>22.0</ns3:atemp>
            <ns3:hr>143</ns3:hr>
          </ns3:TrackPointExtension>
        </extensions>
      </trkpt>
      <trkpt lat="47.011889107525348663330078125" lon="6.943873353302478790283203125">
        <ele>757.5999755859375</ele>
        <time>2019-06-14T11:15:46.000Z</time>
        <extensions>
          <ns3:TrackPointExtension>
            <ns3:atemp>22.0</ns3:atemp>
            <ns3:hr>143</ns3:hr>
          </ns3:TrackPointExtension>
        </extensions>
      </trkpt>
      <trkpt lat="47.01176513917744159698486328125" lon="6.943571604788303375244140625">
        <ele>757</ele>
        <time>2019-06-14T11:15:50.000Z</time>
        <extensions>
          <ns3:TrackPointExtension>
            <ns3:atemp>22.0</ns3:atemp>
            <ns3:hr>143</ns3:hr>
          </ns3:TrackPointExtension>
        </extensions>
      </trkpt>
      <trkpt lat="47.0117467828094959259033203125" lon="6.94349591620266437530517578125">
        <ele>756.5999755859375</ele>
        <time>2019-06-14T11:15:51.000Z</time>
        <extensions>
          <ns3:TrackPointExtension>
            <ns3:atemp>22.0</ns3:atemp>
            <ns3:hr>143</ns3:hr>
          </ns3:TrackPointExtension>
        </extensions>
      </trkpt>
      <trkpt lat="47.01170579530298709869384765625" lon="6.9433920644223690032958984375">
        <ele>756.4000244140625</ele>
        <time>2019-06-14T11:15:53.000Z</time>
        <extensions>
          <ns3:TrackPointExtension>
            <ns3:atemp>22.0</ns3:atemp>
            <ns3:hr>143</ns3:hr>
          </ns3:TrackPointExtension>
        </extensions>
      </trkpt>
      <trkpt lat="47.011647708714008331298828125" lon="6.94326105527579784393310546875">
        <ele>756.4000244140625</ele>
        <time>2019-06-14T11:15:55.000Z</time>
        <extensions>
          <ns3:TrackPointExtension>
            <ns3:atemp>22.0</ns3:atemp>
            <ns3:hr>143</ns3:hr>
          </ns3:TrackPointExtension>
        </extensions>
      </trkpt>
      <trkpt lat="47.011607475578784942626953125" lon="6.943195424973964691162109375">
        <ele>756.20001220703125</ele>
        <time>2019-06-14T11:15:56.000Z</time>
        <extensions>
          <ns3:TrackPointExtension>
            <ns3:atemp>22.0</ns3:atemp>
            <ns3:hr>144</ns3:hr>
          </ns3:TrackPointExtension>
        </extensions>
      </trkpt>
      <trkpt lat="47.01147546060383319854736328125" lon="6.9429843686521053314208984375">
        <ele>756.4000244140625</ele>
        <time>2019-06-14T11:15:59.000Z</time>
        <extensions>
          <ns3:TrackPointExtension>
            <ns3:atemp>22.0</ns3:atemp>
            <ns3:hr>143</ns3:hr>
          </ns3:TrackPointExtension>
        </extensions>
      </trkpt>
      <trkpt lat="47.01125535182654857635498046875" lon="6.9425421394407749176025390625">
        <ele>756</ele>
        <time>2019-06-14T11:16:04.000Z</time>
        <extensions>
          <ns3:TrackPointExtension>
            <ns3:atemp>22.0</ns3:atemp>
            <ns3:hr>143</ns3:hr>
          </ns3:TrackPointExtension>
        </extensions>
      </trkpt>
      <trkpt lat="47.01109441928565502166748046875" lon="6.94217744283378124237060546875">
        <ele>754.79998779296875</ele>
        <time>2019-06-14T11:16:08.000Z</time>
        <extensions>
          <ns3:TrackPointExtension>
            <ns3:atemp>22.0</ns3:atemp>
            <ns3:hr>144</ns3:hr>
          </ns3:TrackPointExtension>
        </extensions>
      </trkpt>
      <trkpt lat="47.0109860412776470184326171875" lon="6.94196957163512706756591796875">
        <ele>754.5999755859375</ele>
        <time>2019-06-14T11:16:10.000Z</time>
        <extensions>
          <ns3:TrackPointExtension>
            <ns3:atemp>22.0</ns3:atemp>
            <ns3:hr>144</ns3:hr>
          </ns3:TrackPointExtension>
        </extensions>
      </trkpt>
      <trkpt lat="47.0108817704021930694580078125" lon="6.94168257527053356170654296875">
        <ele>754.4000244140625</ele>
        <time>2019-06-14T11:16:13.000Z</time>
        <extensions>
          <ns3:TrackPointExtension>
            <ns3:atemp>22.0</ns3:atemp>
            <ns3:hr>145</ns3:hr>
          </ns3:TrackPointExtension>
        </extensions>
      </trkpt>
      <trkpt lat="47.01084396801888942718505859375" lon="6.94158031605184078216552734375">
        <ele>754.20001220703125</ele>
        <time>2019-06-14T11:16:14.000Z</time>
        <extensions>
          <ns3:TrackPointExtension>
            <ns3:atemp>22.0</ns3:atemp>
            <ns3:hr>145</ns3:hr>
          </ns3:TrackPointExtension>
        </extensions>
      </trkpt>
      <trkpt lat="47.010806836187839508056640625" lon="6.94149331189692020416259765625">
        <ele>754</ele>
        <time>2019-06-14T11:16:15.000Z</time>
        <extensions>
          <ns3:TrackPointExtension>
            <ns3:atemp>22.0</ns3:atemp>
            <ns3:hr>146</ns3:hr>
          </ns3:TrackPointExtension>
        </extensions>
      </trkpt>
      <trkpt lat="47.0107734762132167816162109375" lon="6.94139289669692516326904296875">
        <ele>753.79998779296875</ele>
        <time>2019-06-14T11:16:16.000Z</time>
        <extensions>
          <ns3:TrackPointExtension>
            <ns3:atemp>22.0</ns3:atemp>
            <ns3:hr>146</ns3:hr>
          </ns3:TrackPointExtension>
        </extensions>
      </trkpt>
      <trkpt lat="47.010657303035259246826171875" lon="6.94113724865019321441650390625">
        <ele>753.4000244140625</ele>
        <time>2019-06-14T11:16:19.000Z</time>
        <extensions>
          <ns3:TrackPointExtension>
            <ns3:atemp>22.0</ns3:atemp>
            <ns3:hr>147</ns3:hr>
          </ns3:TrackPointExtension>
        </extensions>
      </trkpt>
      <trkpt lat="47.0104536227881908416748046875" lon="6.94067741744220256805419921875">
        <ele>753.20001220703125</ele>
        <time>2019-06-14T11:16:23.000Z</time>
        <extensions>
          <ns3:TrackPointExtension>
            <ns3:atemp>22.0</ns3:atemp>
            <ns3:hr>147</ns3:hr>
          </ns3:TrackPointExtension>
        </extensions>
      </trkpt>
      <trkpt lat="47.0103382878005504608154296875" lon="6.94049033336341381072998046875">
        <ele>753</ele>
        <time>2019-06-14T11:16:25.000Z</time>
        <extensions>
          <ns3:TrackPointExtension>
            <ns3:atemp>22.0</ns3:atemp>
            <ns3:hr>148</ns3:hr>
          </ns3:TrackPointExtension>
        </extensions>
      </trkpt>
      <trkpt lat="47.01029579155147075653076171875" lon="6.94039679132401943206787109375">
        <ele>752.79998779296875</ele>
        <time>2019-06-14T11:16:26.000Z</time>
        <extensions>
          <ns3:TrackPointExtension>
            <ns3:atemp>22.0</ns3:atemp>
            <ns3:hr>148</ns3:hr>
          </ns3:TrackPointExtension>
        </extensions>
      </trkpt>
      <trkpt lat="47.01025329530239105224609375" lon="6.9403122179210186004638671875">
        <ele>752.79998779296875</ele>
        <time>2019-06-14T11:16:27.000Z</time>
        <extensions>
          <ns3:TrackPointExtension>
            <ns3:atemp>22.0</ns3:atemp>
            <ns3:hr>148</ns3:hr>
          </ns3:TrackPointExtension>
        </extensions>
      </trkpt>
      <trkpt lat="47.01018330641090869903564453125" lon="6.93993494845926761627197265625">
        <ele>752.20001220703125</ele>
        <time>2019-06-14T11:16:30.000Z</time>
        <extensions>
          <ns3:TrackPointExtension>
            <ns3:atemp>22.0</ns3:atemp>
            <ns3:hr>149</ns3:hr>
          </ns3:TrackPointExtension>
        </extensions>
      </trkpt>
      <trkpt lat="47.010179199278354644775390625" lon="6.93981173448264598846435546875">
        <ele>752.20001220703125</ele>
        <time>2019-06-14T11:16:31.000Z</time>
        <extensions>
          <ns3:TrackPointExtension>
            <ns3:atemp>22.0</ns3:atemp>
            <ns3:hr>149</ns3:hr>
          </ns3:TrackPointExtension>
        </extensions>
      </trkpt>
      <trkpt lat="47.01007216237485408782958984375" lon="6.93950177170336246490478515625">
        <ele>751.79998779296875</ele>
        <time>2019-06-14T11:16:34.000Z</time>
        <extensions>
          <ns3:TrackPointExtension>
            <ns3:atemp>22.0</ns3:atemp>
            <ns3:hr>149</ns3:hr>
          </ns3:TrackPointExtension>
        </extensions>
      </trkpt>
      <trkpt lat="47.009992785751819610595703125" lon="6.93926724605262279510498046875">
        <ele>751.4000244140625</ele>
        <time>2019-06-14T11:16:36.000Z</time>
        <extensions>
          <ns3:TrackPointExtension>
            <ns3:atemp>22.0</ns3:atemp>
            <ns3:hr>149</ns3:hr>
          </ns3:TrackPointExtension>
        </extensions>
      </trkpt>
      <trkpt lat="47.00989798642694950103759765625" lon="6.93904797546565532684326171875">
        <ele>750.4000244140625</ele>
        <time>2019-06-14T11:16:38.000Z</time>
        <extensions>
          <ns3:TrackPointExtension>
            <ns3:atemp>22.0</ns3:atemp>
            <ns3:hr>149</ns3:hr>
          </ns3:TrackPointExtension>
        </extensions>
      </trkpt>
      <trkpt lat="47.00976337306201457977294921875" lon="6.93865184672176837921142578125">
        <ele>749.79998779296875</ele>
        <time>2019-06-14T11:16:41.000Z</time>
        <extensions>
          <ns3:TrackPointExtension>
            <ns3:atemp>22.0</ns3:atemp>
            <ns3:hr>149</ns3:hr>
          </ns3:TrackPointExtension>
        </extensions>
      </trkpt>
      <trkpt lat="47.0095740258693695068359375" lon="6.93812705576419830322265625">
        <ele>750.4000244140625</ele>
        <time>2019-06-14T11:16:46.000Z</time>
        <extensions>
          <ns3:TrackPointExtension>
            <ns3:atemp>22.0</ns3:atemp>
            <ns3:hr>148</ns3:hr>
          </ns3:TrackPointExtension>
        </extensions>
      </trkpt>
      <trkpt lat="47.00944720767438411712646484375" lon="6.93788909353315830230712890625">
        <ele>750.79998779296875</ele>
        <time>2019-06-14T11:16:49.000Z</time>
        <extensions>
          <ns3:TrackPointExtension>
            <ns3:atemp>22.0</ns3:atemp>
            <ns3:hr>149</ns3:hr>
          </ns3:TrackPointExtension>
        </extensions>
      </trkpt>
      <trkpt lat="47.00940781272947788238525390625" lon="6.93783427588641643524169921875">
        <ele>750.79998779296875</ele>
        <time>2019-06-14T11:16:50.000Z</time>
        <extensions>
          <ns3:TrackPointExtension>
            <ns3:atemp>22.0</ns3:atemp>
            <ns3:hr>149</ns3:hr>
          </ns3:TrackPointExtension>
        </extensions>
      </trkpt>
      <trkpt lat="47.009235732257366180419921875" lon="6.93761249072849750518798828125">
        <ele>748.79998779296875</ele>
        <time>2019-06-14T11:16:54.000Z</time>
        <extensions>
          <ns3:TrackPointExtension>
            <ns3:atemp>22.0</ns3:atemp>
            <ns3:hr>149</ns3:hr>
          </ns3:TrackPointExtension>
        </extensions>
      </trkpt>
      <trkpt lat="47.0091866143047809600830078125" lon="6.93754727952182292938232421875">
        <ele>748</ele>
        <time>2019-06-14T11:16:55.000Z</time>
        <extensions>
          <ns3:TrackPointExtension>
            <ns3:atemp>22.0</ns3:atemp>
            <ns3:hr>149</ns3:hr>
          </ns3:TrackPointExtension>
        </extensions>
      </trkpt>
      <trkpt lat="47.00912450440227985382080078125" lon="6.9374875165522098541259765625">
        <ele>747.4000244140625</ele>
        <time>2019-06-14T11:16:56.000Z</time>
        <extensions>
          <ns3:TrackPointExtension>
            <ns3:atemp>22.0</ns3:atemp>
            <ns3:hr>148</ns3:hr>
          </ns3:TrackPointExtension>
        </extensions>
      </trkpt>
      <trkpt lat="47.00898419134318828582763671875" lon="6.93728886544704437255859375">
        <ele>746</ele>
        <time>2019-06-14T11:16:58.000Z</time>
        <extensions>
          <ns3:TrackPointExtension>
            <ns3:atemp>22.0</ns3:atemp>
            <ns3:hr>148</ns3:hr>
          </ns3:TrackPointExtension>
        </extensions>
      </trkpt>
      <trkpt lat="47.008915208280086517333984375" lon="6.9371773861348628997802734375">
        <ele>744.79998779296875</ele>
        <time>2019-06-14T11:16:59.000Z</time>
        <extensions>
          <ns3:TrackPointExtension>
            <ns3:atemp>22.0</ns3:atemp>
            <ns3:hr>148</ns3:hr>
          </ns3:TrackPointExtension>
        </extensions>
      </trkpt>
      <trkpt lat="47.008875645697116851806640625" lon="6.93706146441400051116943359375">
        <ele>743.5999755859375</ele>
        <time>2019-06-14T11:17:00.000Z</time>
        <extensions>
          <ns3:TrackPointExtension>
            <ns3:atemp>22.0</ns3:atemp>
            <ns3:hr>148</ns3:hr>
          </ns3:TrackPointExtension>
        </extensions>
      </trkpt>
      <trkpt lat="47.0087645016610622406005859375" lon="6.9368578679859638214111328125">
        <ele>742.5999755859375</ele>
        <time>2019-06-14T11:17:01.000Z</time>
        <extensions>
          <ns3:TrackPointExtension>
            <ns3:atemp>22.0</ns3:atemp>
            <ns3:hr>147</ns3:hr>
          </ns3:TrackPointExtension>
        </extensions>
      </trkpt>
      <trkpt lat="47.00861069373786449432373046875" lon="6.936559975147247314453125">
        <ele>741.4000244140625</ele>
        <time>2019-06-14T11:17:03.000Z</time>
        <extensions>
          <ns3:TrackPointExtension>
            <ns3:atemp>22.0</ns3:atemp>
            <ns3:hr>146</ns3:hr>
          </ns3:TrackPointExtension>
        </extensions>
      </trkpt>
      <trkpt lat="47.00836594216525554656982421875" lon="6.93607726134359836578369140625">
        <ele>740.79998779296875</ele>
        <time>2019-06-14T11:17:07.000Z</time>
        <extensions>
          <ns3:TrackPointExtension>
            <ns3:atemp>22.0</ns3:atemp>
            <ns3:hr>145</ns3:hr>
          </ns3:TrackPointExtension>
        </extensions>
      </trkpt>
      <trkpt lat="47.008252702653408050537109375" lon="6.93577609956264495849609375">
        <ele>741.5999755859375</ele>
        <time>2019-06-14T11:17:10.000Z</time>
        <extensions>
          <ns3:TrackPointExtension>
            <ns3:atemp>22.0</ns3:atemp>
            <ns3:hr>145</ns3:hr>
          </ns3:TrackPointExtension>
        </extensions>
      </trkpt>
      <trkpt lat="47.0082304067909717559814453125" lon="6.935690604150295257568359375">
        <ele>741.79998779296875</ele>
        <time>2019-06-14T11:17:11.000Z</time>
        <extensions>
          <ns3:TrackPointExtension>
            <ns3:atemp>22.0</ns3:atemp>
            <ns3:hr>145</ns3:hr>
          </ns3:TrackPointExtension>
        </extensions>
      </trkpt>
      <trkpt lat="47.0081787742674350738525390625" lon="6.9354805536568164825439453125">
        <ele>742.4000244140625</ele>
        <time>2019-06-14T11:17:14.000Z</time>
        <extensions>
          <ns3:TrackPointExtension>
            <ns3:atemp>22.0</ns3:atemp>
            <ns3:hr>144</ns3:hr>
          </ns3:TrackPointExtension>
        </extensions>
      </trkpt>
      <trkpt lat="47.00817215256392955780029296875" lon="6.93542607128620147705078125">
        <ele>742.4000244140625</ele>
        <time>2019-06-14T11:17:15.000Z</time>
        <extensions>
          <ns3:TrackPointExtension>
            <ns3:atemp>22.0</ns3:atemp>
            <ns3:hr>144</ns3:hr>
          </ns3:TrackPointExtension>
        </extensions>
      </trkpt>
      <trkpt lat="47.00812890194356441497802734375" lon="6.93528282456099987030029296875">
        <ele>742.79998779296875</ele>
        <time>2019-06-14T11:17:19.000Z</time>
        <extensions>
          <ns3:TrackPointExtension>
            <ns3:atemp>22.0</ns3:atemp>
            <ns3:hr>144</ns3:hr>
          </ns3:TrackPointExtension>
        </extensions>
      </trkpt>
      <trkpt lat="47.00808011926710605621337890625" lon="6.93504377268254756927490234375">
        <ele>743.4000244140625</ele>
        <time>2019-06-14T11:17:23.000Z</time>
        <extensions>
          <ns3:TrackPointExtension>
            <ns3:atemp>22.0</ns3:atemp>
            <ns3:hr>146</ns3:hr>
          </ns3:TrackPointExtension>
        </extensions>
      </trkpt>
      <trkpt lat="47.00805027969181537628173828125" lon="6.934948973357677459716796875">
        <ele>743.79998779296875</ele>
        <time>2019-06-14T11:17:24.000Z</time>
        <extensions>
          <ns3:TrackPointExtension>
            <ns3:atemp>22.0</ns3:atemp>
            <ns3:hr>146</ns3:hr>
          </ns3:TrackPointExtension>
        </extensions>
      </trkpt>
      <trkpt lat="47.00803804211318492889404296875" lon="6.93487831391394138336181640625">
        <ele>744.20001220703125</ele>
        <time>2019-06-14T11:17:25.000Z</time>
        <extensions>
          <ns3:TrackPointExtension>
            <ns3:atemp>22.0</ns3:atemp>
            <ns3:hr>146</ns3:hr>
          </ns3:TrackPointExtension>
        </extensions>
      </trkpt>
      <trkpt lat="47.00802513398230075836181640625" lon="6.9348049722611904144287109375">
        <ele>744.4000244140625</ele>
        <time>2019-06-14T11:17:26.000Z</time>
        <extensions>
          <ns3:TrackPointExtension>
            <ns3:atemp>22.0</ns3:atemp>
            <ns3:hr>146</ns3:hr>
          </ns3:TrackPointExtension>
        </extensions>
      </trkpt>
      <trkpt lat="47.00798003934323787689208984375" lon="6.934678740799427032470703125">
        <ele>744.5999755859375</ele>
        <time>2019-06-14T11:17:27.000Z</time>
        <extensions>
          <ns3:TrackPointExtension>
            <ns3:atemp>22.0</ns3:atemp>
            <ns3:hr>145</ns3:hr>
          </ns3:TrackPointExtension>
        </extensions>
      </trkpt>
      <trkpt lat="47.00794248841702938079833984375" lon="6.9345706142485141754150390625">
        <ele>744.5999755859375</ele>
        <time>2019-06-14T11:17:28.000Z</time>
        <extensions>
          <ns3:TrackPointExtension>
            <ns3:atemp>22.0</ns3:atemp>
            <ns3:hr>145</ns3:hr>
          </ns3:TrackPointExtension>
        </extensions>
      </trkpt>
      <trkpt lat="47.00771081261336803436279296875" lon="6.9340641796588897705078125">
        <ele>745.5999755859375</ele>
        <time>2019-06-14T11:17:33.000Z</time>
        <extensions>
          <ns3:TrackPointExtension>
            <ns3:atemp>22.0</ns3:atemp>
            <ns3:hr>145</ns3:hr>
          </ns3:TrackPointExtension>
        </extensions>
      </trkpt>
      <trkpt lat="47.00767208822071552276611328125" lon="6.93395529873669147491455078125">
        <ele>745.5999755859375</ele>
        <time>2019-06-14T11:17:34.000Z</time>
        <extensions>
          <ns3:TrackPointExtension>
            <ns3:atemp>22.0</ns3:atemp>
            <ns3:hr>146</ns3:hr>
          </ns3:TrackPointExtension>
        </extensions>
      </trkpt>
      <trkpt lat="47.007644176483154296875" lon="6.9337753392755985260009765625">
        <ele>745.79998779296875</ele>
        <time>2019-06-14T11:17:36.000Z</time>
        <extensions>
          <ns3:TrackPointExtension>
            <ns3:atemp>22.0</ns3:atemp>
            <ns3:hr>146</ns3:hr>
          </ns3:TrackPointExtension>
        </extensions>
      </trkpt>
      <trkpt lat="47.00762598775327205657958984375" lon="6.93342137150466442108154296875">
        <ele>746.4000244140625</ele>
        <time>2019-06-14T11:17:41.000Z</time>
        <extensions>
          <ns3:TrackPointExtension>
            <ns3:atemp>22.0</ns3:atemp>
            <ns3:hr>146</ns3:hr>
          </ns3:TrackPointExtension>
        </extensions>
      </trkpt>
      <trkpt lat="47.0076198689639568328857421875" lon="6.9333109818398952484130859375">
        <ele>746.5999755859375</ele>
        <time>2019-06-14T11:17:43.000Z</time>
        <extensions>
          <ns3:TrackPointExtension>
            <ns3:atemp>22.0</ns3:atemp>
            <ns3:hr>146</ns3:hr>
          </ns3:TrackPointExtension>
        </extensions>
      </trkpt>
      <trkpt lat="47.00758324004709720611572265625" lon="6.93317427299916744232177734375">
        <ele>746.4000244140625</ele>
        <time>2019-06-14T11:17:45.000Z</time>
        <extensions>
          <ns3:TrackPointExtension>
            <ns3:atemp>22.0</ns3:atemp>
            <ns3:hr>147</ns3:hr>
          </ns3:TrackPointExtension>
        </extensions>
      </trkpt>
      <trkpt lat="47.0075481198728084564208984375" lon="6.9329478777945041656494140625">
        <ele>745.4000244140625</ele>
        <time>2019-06-14T11:17:48.000Z</time>
        <extensions>
          <ns3:TrackPointExtension>
            <ns3:atemp>22.0</ns3:atemp>
            <ns3:hr>147</ns3:hr>
          </ns3:TrackPointExtension>
        </extensions>
      </trkpt>
      <trkpt lat="47.00752951204776763916015625" lon="6.9327597878873348236083984375">
        <ele>744.4000244140625</ele>
        <time>2019-06-14T11:17:50.000Z</time>
        <extensions>
          <ns3:TrackPointExtension>
            <ns3:atemp>22.0</ns3:atemp>
            <ns3:hr>146</ns3:hr>
          </ns3:TrackPointExtension>
        </extensions>
      </trkpt>
      <trkpt lat="47.0075280033051967620849609375" lon="6.9326694309711456298828125">
        <ele>744</ele>
        <time>2019-06-14T11:17:51.000Z</time>
        <extensions>
          <ns3:TrackPointExtension>
            <ns3:atemp>22.0</ns3:atemp>
            <ns3:hr>145</ns3:hr>
          </ns3:TrackPointExtension>
        </extensions>
      </trkpt>
      <trkpt lat="47.0075261592864990234375" lon="6.93252450786530971527099609375">
        <ele>743.5999755859375</ele>
        <time>2019-06-14T11:17:52.000Z</time>
        <extensions>
          <ns3:TrackPointExtension>
            <ns3:atemp>22.0</ns3:atemp>
            <ns3:hr>145</ns3:hr>
          </ns3:TrackPointExtension>
        </extensions>
      </trkpt>
      <trkpt lat="47.007569409906864166259765625" lon="6.93225259892642498016357421875">
        <ele>742.79998779296875</ele>
        <time>2019-06-14T11:17:54.000Z</time>
        <extensions>
          <ns3:TrackPointExtension>
            <ns3:atemp>22.0</ns3:atemp>
            <ns3:hr>144</ns3:hr>
          </ns3:TrackPointExtension>
        </extensions>
      </trkpt>
      <trkpt lat="47.0075715892016887664794921875" lon="6.9319859705865383148193359375">
        <ele>742.20001220703125</ele>
        <time>2019-06-14T11:17:57.000Z</time>
        <extensions>
          <ns3:TrackPointExtension>
            <ns3:atemp>22.0</ns3:atemp>
            <ns3:hr>143</ns3:hr>
          </ns3:TrackPointExtension>
        </extensions>
      </trkpt>
      <trkpt lat="47.0075739361345767974853515625" lon="6.931951604783535003662109375">
        <ele>742.20001220703125</ele>
        <time>2019-06-14T11:17:58.000Z</time>
        <extensions>
          <ns3:TrackPointExtension>
            <ns3:atemp>22.0</ns3:atemp>
            <ns3:hr>143</ns3:hr>
          </ns3:TrackPointExtension>
        </extensions>
      </trkpt>
      <trkpt lat="47.007542587816715240478515625" lon="6.93184372968971729278564453125">
        <ele>742</ele>
        <time>2019-06-14T11:18:00.000Z</time>
        <extensions>
          <ns3:TrackPointExtension>
            <ns3:atemp>22.0</ns3:atemp>
            <ns3:hr>143</ns3:hr>
          </ns3:TrackPointExtension>
        </extensions>
      </trkpt>
      <trkpt lat="47.00751216150820255279541015625" lon="6.931799389421939849853515625">
        <ele>742.20001220703125</ele>
        <time>2019-06-14T11:18:03.000Z</time>
        <extensions>
          <ns3:TrackPointExtension>
            <ns3:atemp>22.0</ns3:atemp>
            <ns3:hr>143</ns3:hr>
          </ns3:TrackPointExtension>
        </extensions>
      </trkpt>
      <trkpt lat="47.00750109739601612091064453125" lon="6.93180182017385959625244140625">
        <ele>742</ele>
        <time>2019-06-14T11:18:04.000Z</time>
        <extensions>
          <ns3:TrackPointExtension>
            <ns3:atemp>22.0</ns3:atemp>
            <ns3:hr>143</ns3:hr>
          </ns3:TrackPointExtension>
        </extensions>
      </trkpt>
      <trkpt lat="47.0074860937893390655517578125" lon="6.93181791342794895172119140625">
        <ele>741.5999755859375</ele>
        <time>2019-06-14T11:18:05.000Z</time>
        <extensions>
          <ns3:TrackPointExtension>
            <ns3:atemp>22.0</ns3:atemp>
            <ns3:hr>143</ns3:hr>
          </ns3:TrackPointExtension>
        </extensions>
      </trkpt>
      <trkpt lat="47.0073761232197284698486328125" lon="6.931910030543804168701171875">
        <ele>741</ele>
        <time>2019-06-14T11:18:08.000Z</time>
        <extensions>
          <ns3:TrackPointExtension>
            <ns3:atemp>22.0</ns3:atemp>
            <ns3:hr>143</ns3:hr>
          </ns3:TrackPointExtension>
        </extensions>
      </trkpt>
      <trkpt lat="47.007339410483837127685546875" lon="6.93196694366633892059326171875">
        <ele>740.5999755859375</ele>
        <time>2019-06-14T11:18:09.000Z</time>
        <extensions>
          <ns3:TrackPointExtension>
            <ns3:atemp>22.0</ns3:atemp>
            <ns3:hr>143</ns3:hr>
          </ns3:TrackPointExtension>
        </extensions>
      </trkpt>
      <trkpt lat="47.00724662281572818756103515625" lon="6.9321284629404544830322265625">
        <ele>739.20001220703125</ele>
        <time>2019-06-14T11:18:12.000Z</time>
        <extensions>
          <ns3:TrackPointExtension>
            <ns3:atemp>22.0</ns3:atemp>
            <ns3:hr>142</ns3:hr>
          </ns3:TrackPointExtension>
        </extensions>
      </trkpt>
      <trkpt lat="47.0072205550968647003173828125" lon="6.932203732430934906005859375">
        <ele>738.79998779296875</ele>
        <time>2019-06-14T11:18:13.000Z</time>
        <extensions>
          <ns3:TrackPointExtension>
            <ns3:atemp>22.0</ns3:atemp>
            <ns3:hr>142</ns3:hr>
          </ns3:TrackPointExtension>
        </extensions>
      </trkpt>
      <trkpt lat="47.0071675814688205718994140625" lon="6.9323534332215785980224609375">
        <ele>738.20001220703125</ele>
        <time>2019-06-14T11:18:15.000Z</time>
        <extensions>
          <ns3:TrackPointExtension>
            <ns3:atemp>22.0</ns3:atemp>
            <ns3:hr>142</ns3:hr>
          </ns3:TrackPointExtension>
        </extensions>
      </trkpt>
      <trkpt lat="47.007089965045452117919921875" lon="6.9326184689998626708984375">
        <ele>737.79998779296875</ele>
        <time>2019-06-14T11:18:18.000Z</time>
        <extensions>
          <ns3:TrackPointExtension>
            <ns3:atemp>22.0</ns3:atemp>
            <ns3:hr>142</ns3:hr>
          </ns3:TrackPointExtension>
        </extensions>
      </trkpt>
      <trkpt lat="47.0070361532270908355712890625" lon="6.93272299133241176605224609375">
        <ele>737</ele>
        <time>2019-06-14T11:18:20.000Z</time>
        <extensions>
          <ns3:TrackPointExtension>
            <ns3:atemp>22.0</ns3:atemp>
            <ns3:hr>141</ns3:hr>
          </ns3:TrackPointExtension>
        </extensions>
      </trkpt>
      <trkpt lat="47.00697588734328746795654296875" lon="6.9327936507761478424072265625">
        <ele>736.5999755859375</ele>
        <time>2019-06-14T11:18:22.000Z</time>
        <extensions>
          <ns3:TrackPointExtension>
            <ns3:atemp>22.0</ns3:atemp>
            <ns3:hr>141</ns3:hr>
          </ns3:TrackPointExtension>
        </extensions>
      </trkpt>
      <trkpt lat="47.00693632476031780242919921875" lon="6.9328442774713039398193359375">
        <ele>736</ele>
        <time>2019-06-14T11:18:24.000Z</time>
        <extensions>
          <ns3:TrackPointExtension>
            <ns3:atemp>22.0</ns3:atemp>
            <ns3:hr>140</ns3:hr>
          </ns3:TrackPointExtension>
        </extensions>
      </trkpt>
      <trkpt lat="47.0069137774407863616943359375" lon="6.9328721053898334503173828125">
        <ele>735.5999755859375</ele>
        <time>2019-06-14T11:18:25.000Z</time>
        <extensions>
          <ns3:TrackPointExtension>
            <ns3:atemp>22.0</ns3:atemp>
            <ns3:hr>140</ns3:hr>
          </ns3:TrackPointExtension>
        </extensions>
      </trkpt>
      <trkpt lat="47.00689651072025299072265625" lon="6.93289364688098430633544921875">
        <ele>735.4000244140625</ele>
        <time>2019-06-14T11:18:26.000Z</time>
        <extensions>
          <ns3:TrackPointExtension>
            <ns3:atemp>22.0</ns3:atemp>
            <ns3:hr>140</ns3:hr>
          </ns3:TrackPointExtension>
        </extensions>
      </trkpt>
      <trkpt lat="47.006884776055812835693359375" lon="6.93296246230602264404296875">
        <ele>734.79998779296875</ele>
        <time>2019-06-14T11:18:28.000Z</time>
        <extensions>
          <ns3:TrackPointExtension>
            <ns3:atemp>22.0</ns3:atemp>
            <ns3:hr>139</ns3:hr>
          </ns3:TrackPointExtension>
        </extensions>
      </trkpt>
      <trkpt lat="47.0068725384771823883056640625" lon="6.93306229077279567718505859375">
        <ele>733.4000244140625</ele>
        <time>2019-06-14T11:18:30.000Z</time>
        <extensions>
          <ns3:TrackPointExtension>
            <ns3:atemp>22.0</ns3:atemp>
            <ns3:hr>138</ns3:hr>
          </ns3:TrackPointExtension>
        </extensions>
      </trkpt>
      <trkpt lat="47.0068604685366153717041015625" lon="6.9331057928502559661865234375">
        <ele>732.20001220703125</ele>
        <time>2019-06-14T11:18:31.000Z</time>
        <extensions>
          <ns3:TrackPointExtension>
            <ns3:atemp>22.0</ns3:atemp>
            <ns3:hr>139</ns3:hr>
          </ns3:TrackPointExtension>
        </extensions>
      </trkpt>
      <trkpt lat="47.0068395137786865234375" lon="6.93321567960083484649658203125">
        <ele>731</ele>
        <time>2019-06-14T11:18:33.000Z</time>
        <extensions>
          <ns3:TrackPointExtension>
            <ns3:atemp>22.0</ns3:atemp>
            <ns3:hr>138</ns3:hr>
          </ns3:TrackPointExtension>
        </extensions>
      </trkpt>
      <trkpt lat="47.0068138651549816131591796875" lon="6.9333238899707794189453125">
        <ele>729.5999755859375</ele>
        <time>2019-06-14T11:18:35.000Z</time>
        <extensions>
          <ns3:TrackPointExtension>
            <ns3:atemp>22.0</ns3:atemp>
            <ns3:hr>138</ns3:hr>
          </ns3:TrackPointExtension>
        </extensions>
      </trkpt>
      <trkpt lat="47.006810344755649566650390625" lon="6.9334263168275356292724609375">
        <ele>728.20001220703125</ele>
        <time>2019-06-14T11:18:37.000Z</time>
        <extensions>
          <ns3:TrackPointExtension>
            <ns3:atemp>22.0</ns3:atemp>
            <ns3:hr>136</ns3:hr>
          </ns3:TrackPointExtension>
        </extensions>
      </trkpt>
      <trkpt lat="47.00681361369788646697998046875" lon="6.93353938870131969451904296875">
        <ele>727</ele>
        <time>2019-06-14T11:18:39.000Z</time>
        <extensions>
          <ns3:TrackPointExtension>
            <ns3:atemp>22.0</ns3:atemp>
            <ns3:hr>135</ns3:hr>
          </ns3:TrackPointExtension>
        </extensions>
      </trkpt>
      <trkpt lat="47.0068188942968845367431640625" lon="6.933579035103321075439453125">
        <ele>726.5999755859375</ele>
        <time>2019-06-14T11:18:40.000Z</time>
        <extensions>
          <ns3:TrackPointExtension>
            <ns3:atemp>22.0</ns3:atemp>
            <ns3:hr>134</ns3:hr>
          </ns3:TrackPointExtension>
        </extensions>
      </trkpt>
      <trkpt lat="47.00681914575397968292236328125" lon="6.93361650221049785614013671875">
        <ele>725.79998779296875</ele>
        <time>2019-06-14T11:18:41.000Z</time>
        <extensions>
          <ns3:TrackPointExtension>
            <ns3:atemp>22.0</ns3:atemp>
            <ns3:hr>134</ns3:hr>
          </ns3:TrackPointExtension>
        </extensions>
      </trkpt>
      <trkpt lat="47.00682953931391239166259765625" lon="6.933710463345050811767578125">
        <ele>724.5999755859375</ele>
        <time>2019-06-14T11:18:43.000Z</time>
        <extensions>
          <ns3:TrackPointExtension>
            <ns3:atemp>22.0</ns3:atemp>
            <ns3:hr>135</ns3:hr>
          </ns3:TrackPointExtension>
        </extensions>
      </trkpt>
      <trkpt lat="47.00683540664613246917724609375" lon="6.9338236190378665924072265625">
        <ele>723.5999755859375</ele>
        <time>2019-06-14T11:18:46.000Z</time>
        <extensions>
          <ns3:TrackPointExtension>
            <ns3:atemp>22.0</ns3:atemp>
            <ns3:hr>135</ns3:hr>
          </ns3:TrackPointExtension>
        </extensions>
      </trkpt>
      <trkpt lat="47.0068343169987201690673828125" lon="6.93388170562684535980224609375">
        <ele>722.79998779296875</ele>
        <time>2019-06-14T11:18:48.000Z</time>
        <extensions>
          <ns3:TrackPointExtension>
            <ns3:atemp>22.0</ns3:atemp>
            <ns3:hr>135</ns3:hr>
          </ns3:TrackPointExtension>
        </extensions>
      </trkpt>
      <trkpt lat="47.0068336464464664459228515625" lon="6.9339215196669101715087890625">
        <ele>722.4000244140625</ele>
        <time>2019-06-14T11:18:50.000Z</time>
        <extensions>
          <ns3:TrackPointExtension>
            <ns3:atemp>22.0</ns3:atemp>
            <ns3:hr>134</ns3:hr>
          </ns3:TrackPointExtension>
        </extensions>
      </trkpt>
      <trkpt lat="47.0068359933793544769287109375" lon="6.9339775107800960540771484375">
        <ele>721.5999755859375</ele>
        <time>2019-06-14T11:18:52.000Z</time>
        <extensions>
          <ns3:TrackPointExtension>
            <ns3:atemp>22.0</ns3:atemp>
            <ns3:hr>134</ns3:hr>
          </ns3:TrackPointExtension>
        </extensions>
      </trkpt>
      <trkpt lat="47.00684529729187488555908203125" lon="6.93400626070797443389892578125">
        <ele>721</ele>
        <time>2019-06-14T11:18:53.000Z</time>
        <extensions>
          <ns3:TrackPointExtension>
            <ns3:atemp>22.0</ns3:atemp>
            <ns3:hr>134</ns3:hr>
          </ns3:TrackPointExtension>
        </extensions>
      </trkpt>
      <trkpt lat="47.00682316906750202178955078125" lon="6.9341407902538776397705078125">
        <ele>719.79998779296875</ele>
        <time>2019-06-14T11:18:56.000Z</time>
        <extensions>
          <ns3:TrackPointExtension>
            <ns3:atemp>22.0</ns3:atemp>
            <ns3:hr>133</ns3:hr>
          </ns3:TrackPointExtension>
        </extensions>
      </trkpt>
      <trkpt lat="47.00678863562643527984619140625" lon="6.93424078635871410369873046875">
        <ele>719.20001220703125</ele>
        <time>2019-06-14T11:18:59.000Z</time>
        <extensions>
          <ns3:TrackPointExtension>
            <ns3:atemp>22.0</ns3:atemp>
            <ns3:hr>133</ns3:hr>
          </ns3:TrackPointExtension>
        </extensions>
      </trkpt>
      <trkpt lat="47.00676030479371547698974609375" lon="6.93436324596405029296875">
        <ele>718.5999755859375</ele>
        <time>2019-06-14T11:19:01.000Z</time>
        <extensions>
          <ns3:TrackPointExtension>
            <ns3:atemp>22.0</ns3:atemp>
            <ns3:hr>134</ns3:hr>
          </ns3:TrackPointExtension>
        </extensions>
      </trkpt>
      <trkpt lat="47.00674672611057758331298828125" lon="6.9345481507480144500732421875">
        <ele>717.20001220703125</ele>
        <time>2019-06-14T11:19:04.000Z</time>
        <extensions>
          <ns3:TrackPointExtension>
            <ns3:atemp>22.0</ns3:atemp>
            <ns3:hr>132</ns3:hr>
          </ns3:TrackPointExtension>
        </extensions>
      </trkpt>
      <trkpt lat="47.00675779022276401519775390625" lon="6.93469273857772350311279296875">
        <ele>715</ele>
        <time>2019-06-14T11:19:06.000Z</time>
        <extensions>
          <ns3:TrackPointExtension>
            <ns3:atemp>22.0</ns3:atemp>
            <ns3:hr>131</ns3:hr>
          </ns3:TrackPointExtension>
        </extensions>
      </trkpt>
      <trkpt lat="47.0067655853927135467529296875" lon="6.9347749650478363037109375">
        <ele>713.79998779296875</ele>
        <time>2019-06-14T11:19:07.000Z</time>
        <extensions>
          <ns3:TrackPointExtension>
            <ns3:atemp>22.0</ns3:atemp>
            <ns3:hr>131</ns3:hr>
          </ns3:TrackPointExtension>
        </extensions>
      </trkpt>
      <trkpt lat="47.006782181560993194580078125" lon="6.93485149182379245758056640625">
        <ele>712.79998779296875</ele>
        <time>2019-06-14T11:19:08.000Z</time>
        <extensions>
          <ns3:TrackPointExtension>
            <ns3:atemp>22.0</ns3:atemp>
            <ns3:hr>131</ns3:hr>
          </ns3:TrackPointExtension>
        </extensions>
      </trkpt>
      <trkpt lat="47.0068034715950489044189453125" lon="6.93493899889290332794189453125">
        <ele>712.20001220703125</ele>
        <time>2019-06-14T11:19:09.000Z</time>
        <extensions>
          <ns3:TrackPointExtension>
            <ns3:atemp>22.0</ns3:atemp>
            <ns3:hr>131</ns3:hr>
          </ns3:TrackPointExtension>
        </extensions>
      </trkpt>
      <trkpt lat="47.0068205706775188446044921875" lon="6.93503287620842456817626953125">
        <ele>711.5999755859375</ele>
        <time>2019-06-14T11:19:10.000Z</time>
        <extensions>
          <ns3:TrackPointExtension>
            <ns3:atemp>22.0</ns3:atemp>
            <ns3:hr>130</ns3:hr>
          </ns3:TrackPointExtension>
        </extensions>
      </trkpt>
      <trkpt lat="47.006831802427768707275390625" lon="6.9351316988468170166015625">
        <ele>711</ele>
        <time>2019-06-14T11:19:11.000Z</time>
        <extensions>
          <ns3:TrackPointExtension>
            <ns3:atemp>22.0</ns3:atemp>
            <ns3:hr>130</ns3:hr>
          </ns3:TrackPointExtension>
        </extensions>
      </trkpt>
      <trkpt lat="47.0068489015102386474609375" lon="6.93530092947185039520263671875">
        <ele>710</ele>
        <time>2019-06-14T11:19:13.000Z</time>
        <extensions>
          <ns3:TrackPointExtension>
            <ns3:atemp>22.0</ns3:atemp>
            <ns3:hr>130</ns3:hr>
          </ns3:TrackPointExtension>
        </extensions>
      </trkpt>
      <trkpt lat="47.0068514160811901092529296875" lon="6.93538256920874118804931640625">
        <ele>709.79998779296875</ele>
        <time>2019-06-14T11:19:14.000Z</time>
        <extensions>
          <ns3:TrackPointExtension>
            <ns3:atemp>22.0</ns3:atemp>
            <ns3:hr>130</ns3:hr>
          </ns3:TrackPointExtension>
        </extensions>
      </trkpt>
      <trkpt lat="47.00684764422476291656494140625" lon="6.9354567490518093109130859375">
        <ele>709.5999755859375</ele>
        <time>2019-06-14T11:19:15.000Z</time>
        <extensions>
          <ns3:TrackPointExtension>
            <ns3:atemp>22.0</ns3:atemp>
            <ns3:hr>130</ns3:hr>
          </ns3:TrackPointExtension>
        </extensions>
      </trkpt>
      <trkpt lat="47.00681068003177642822265625" lon="6.93559764884412288665771484375">
        <ele>709</ele>
        <time>2019-06-14T11:19:17.000Z</time>
        <extensions>
          <ns3:TrackPointExtension>
            <ns3:atemp>22.0</ns3:atemp>
            <ns3:hr>129</ns3:hr>
          </ns3:TrackPointExtension>
        </extensions>
      </trkpt>
      <trkpt lat="47.0067374221980571746826171875" lon="6.93573360331356525421142578125">
        <ele>708.5999755859375</ele>
        <time>2019-06-14T11:19:19.000Z</time>
        <extensions>
          <ns3:TrackPointExtension>
            <ns3:atemp>22.0</ns3:atemp>
            <ns3:hr>129</ns3:hr>
          </ns3:TrackPointExtension>
        </extensions>
      </trkpt>
      <trkpt lat="47.006631307303905487060546875" lon="6.93587190471589565277099609375">
        <ele>708.20001220703125</ele>
        <time>2019-06-14T11:19:22.000Z</time>
        <extensions>
          <ns3:TrackPointExtension>
            <ns3:atemp>22.0</ns3:atemp>
            <ns3:hr>128</ns3:hr>
          </ns3:TrackPointExtension>
        </extensions>
      </trkpt>
      <trkpt lat="47.00650314800441265106201171875" lon="6.93599645979702472686767578125">
        <ele>707.5999755859375</ele>
        <time>2019-06-14T11:19:26.000Z</time>
        <extensions>
          <ns3:TrackPointExtension>
            <ns3:atemp>22.0</ns3:atemp>
            <ns3:hr>128</ns3:hr>
          </ns3:TrackPointExtension>
        </extensions>
      </trkpt>
      <trkpt lat="47.00643391348421573638916015625" lon="6.9360451586544513702392578125">
        <ele>707.4000244140625</ele>
        <time>2019-06-14T11:19:28.000Z</time>
        <extensions>
          <ns3:TrackPointExtension>
            <ns3:atemp>22.0</ns3:atemp>
            <ns3:hr>128</ns3:hr>
          </ns3:TrackPointExtension>
        </extensions>
      </trkpt>
      <trkpt lat="47.0063553750514984130859375" lon="6.93608011119067668914794921875">
        <ele>706.79998779296875</ele>
        <time>2019-06-14T11:19:31.000Z</time>
        <extensions>
          <ns3:TrackPointExtension>
            <ns3:atemp>22.0</ns3:atemp>
            <ns3:hr>127</ns3:hr>
          </ns3:TrackPointExtension>
        </extensions>
      </trkpt>
      <trkpt lat="47.00632059015333652496337890625" lon="6.93608413450419902801513671875">
        <ele>706.5999755859375</ele>
        <time>2019-06-14T11:19:32.000Z</time>
        <extensions>
          <ns3:TrackPointExtension>
            <ns3:atemp>22.0</ns3:atemp>
            <ns3:hr>128</ns3:hr>
          </ns3:TrackPointExtension>
        </extensions>
      </trkpt>
      <trkpt lat="47.00628220103681087493896484375" lon="6.93608446978032588958740234375">
        <ele>706.4000244140625</ele>
        <time>2019-06-14T11:19:33.000Z</time>
        <extensions>
          <ns3:TrackPointExtension>
            <ns3:atemp>22.0</ns3:atemp>
            <ns3:hr>128</ns3:hr>
          </ns3:TrackPointExtension>
        </extensions>
      </trkpt>
      <trkpt lat="47.0061822049319744110107421875" lon="6.93607474677264690399169921875">
        <ele>705.79998779296875</ele>
        <time>2019-06-14T11:19:35.000Z</time>
        <extensions>
          <ns3:TrackPointExtension>
            <ns3:atemp>22.0</ns3:atemp>
            <ns3:hr>129</ns3:hr>
          </ns3:TrackPointExtension>
        </extensions>
      </trkpt>
      <trkpt lat="47.006145156919956207275390625" lon="6.93604675121605396270751953125">
        <ele>705.4000244140625</ele>
        <time>2019-06-14T11:19:36.000Z</time>
        <extensions>
          <ns3:TrackPointExtension>
            <ns3:atemp>22.0</ns3:atemp>
            <ns3:hr>129</ns3:hr>
          </ns3:TrackPointExtension>
        </extensions>
      </trkpt>
      <trkpt lat="47.0060035027563571929931640625" lon="6.9359499402344226837158203125">
        <ele>704</ele>
        <time>2019-06-14T11:19:40.000Z</time>
        <extensions>
          <ns3:TrackPointExtension>
            <ns3:atemp>22.0</ns3:atemp>
            <ns3:hr>128</ns3:hr>
          </ns3:TrackPointExtension>
        </extensions>
      </trkpt>
      <trkpt lat="47.00596972368657588958740234375" lon="6.93593837320804595947265625">
        <ele>703.5999755859375</ele>
        <time>2019-06-14T11:19:41.000Z</time>
        <extensions>
          <ns3:TrackPointExtension>
            <ns3:atemp>22.0</ns3:atemp>
            <ns3:hr>128</ns3:hr>
          </ns3:TrackPointExtension>
        </extensions>
      </trkpt>
      <trkpt lat="47.00593602843582630157470703125" lon="6.93591398186981678009033203125">
        <ele>703</ele>
        <time>2019-06-14T11:19:42.000Z</time>
        <extensions>
          <ns3:TrackPointExtension>
            <ns3:atemp>22.0</ns3:atemp>
            <ns3:hr>128</ns3:hr>
          </ns3:TrackPointExtension>
        </extensions>
      </trkpt>
      <trkpt lat="47.0059139840304851531982421875" lon="6.935900151729583740234375">
        <ele>702.4000244140625</ele>
        <time>2019-06-14T11:19:43.000Z</time>
        <extensions>
          <ns3:TrackPointExtension>
            <ns3:atemp>22.0</ns3:atemp>
            <ns3:hr>128</ns3:hr>
          </ns3:TrackPointExtension>
        </extensions>
      </trkpt>
      <trkpt lat="47.00589210726320743560791015625" lon="6.935889758169651031494140625">
        <ele>701.5999755859375</ele>
        <time>2019-06-14T11:19:44.000Z</time>
        <extensions>
          <ns3:TrackPointExtension>
            <ns3:atemp>22.0</ns3:atemp>
            <ns3:hr>128</ns3:hr>
          </ns3:TrackPointExtension>
        </extensions>
      </trkpt>
      <trkpt lat="47.0058747567236423492431640625" lon="6.93587626330554485321044921875">
        <ele>701</ele>
        <time>2019-06-14T11:19:45.000Z</time>
        <extensions>
          <ns3:TrackPointExtension>
            <ns3:atemp>22.0</ns3:atemp>
            <ns3:hr>128</ns3:hr>
          </ns3:TrackPointExtension>
        </extensions>
      </trkpt>
      <trkpt lat="47.00582002289593219757080078125" lon="6.93583569489419460296630859375">
        <ele>700.4000244140625</ele>
        <time>2019-06-14T11:19:47.000Z</time>
        <extensions>
          <ns3:TrackPointExtension>
            <ns3:atemp>22.0</ns3:atemp>
            <ns3:hr>130</ns3:hr>
          </ns3:TrackPointExtension>
        </extensions>
      </trkpt>
      <trkpt lat="47.00574492104351520538330078125" lon="6.9357997365295886993408203125">
        <ele>699.79998779296875</ele>
        <time>2019-06-14T11:19:50.000Z</time>
        <extensions>
          <ns3:TrackPointExtension>
            <ns3:atemp>22.0</ns3:atemp>
            <ns3:hr>131</ns3:hr>
          </ns3:TrackPointExtension>
        </extensions>
      </trkpt>
      <trkpt lat="47.0056943781673908233642578125" lon="6.93581289611756801605224609375">
        <ele>699.4000244140625</ele>
        <time>2019-06-14T11:19:52.000Z</time>
        <extensions>
          <ns3:TrackPointExtension>
            <ns3:atemp>22.0</ns3:atemp>
            <ns3:hr>131</ns3:hr>
          </ns3:TrackPointExtension>
        </extensions>
      </trkpt>
      <trkpt lat="47.00563344173133373260498046875" lon="6.9357819668948650360107421875">
        <ele>698.79998779296875</ele>
        <time>2019-06-14T11:19:55.000Z</time>
        <extensions>
          <ns3:TrackPointExtension>
            <ns3:atemp>22.0</ns3:atemp>
            <ns3:hr>130</ns3:hr>
          </ns3:TrackPointExtension>
        </extensions>
      </trkpt>
      <trkpt lat="47.00558088719844818115234375" lon="6.93575598299503326416015625">
        <ele>698.4000244140625</ele>
        <time>2019-06-14T11:19:57.000Z</time>
        <extensions>
          <ns3:TrackPointExtension>
            <ns3:atemp>22.0</ns3:atemp>
            <ns3:hr>129</ns3:hr>
          </ns3:TrackPointExtension>
        </extensions>
      </trkpt>
      <trkpt lat="47.00553369708359241485595703125" lon="6.9357360340654850006103515625">
        <ele>698</ele>
        <time>2019-06-14T11:19:59.000Z</time>
        <extensions>
          <ns3:TrackPointExtension>
            <ns3:atemp>22.0</ns3:atemp>
            <ns3:hr>129</ns3:hr>
          </ns3:TrackPointExtension>
        </extensions>
      </trkpt>
      <trkpt lat="47.0055129937827587127685546875" lon="6.9357266463339328765869140625">
        <ele>697.5999755859375</ele>
        <time>2019-06-14T11:20:00.000Z</time>
        <extensions>
          <ns3:TrackPointExtension>
            <ns3:atemp>22.0</ns3:atemp>
            <ns3:hr>129</ns3:hr>
          </ns3:TrackPointExtension>
        </extensions>
      </trkpt>
      <trkpt lat="47.0054970681667327880859375" lon="6.93571650423109531402587890625">
        <ele>697</ele>
        <time>2019-06-14T11:20:01.000Z</time>
        <extensions>
          <ns3:TrackPointExtension>
            <ns3:atemp>22.0</ns3:atemp>
            <ns3:hr>130</ns3:hr>
          </ns3:TrackPointExtension>
        </extensions>
      </trkpt>
      <trkpt lat="47.00545457191765308380126953125" lon="6.93570259027183055877685546875">
        <ele>695.79998779296875</ele>
        <time>2019-06-14T11:20:04.000Z</time>
        <extensions>
          <ns3:TrackPointExtension>
            <ns3:atemp>22.0</ns3:atemp>
            <ns3:hr>131</ns3:hr>
          </ns3:TrackPointExtension>
        </extensions>
      </trkpt>
      <trkpt lat="47.00544602237641811370849609375" lon="6.93568515591323375701904296875">
        <ele>695.20001220703125</ele>
        <time>2019-06-14T11:20:05.000Z</time>
        <extensions>
          <ns3:TrackPointExtension>
            <ns3:atemp>22.0</ns3:atemp>
            <ns3:hr>131</ns3:hr>
          </ns3:TrackPointExtension>
        </extensions>
      </trkpt>
      <trkpt lat="47.00539288111031055450439453125" lon="6.93565431050956249237060546875">
        <ele>694.4000244140625</ele>
        <time>2019-06-14T11:20:07.000Z</time>
        <extensions>
          <ns3:TrackPointExtension>
            <ns3:atemp>22.0</ns3:atemp>
            <ns3:hr>130</ns3:hr>
          </ns3:TrackPointExtension>
        </extensions>
      </trkpt>
      <trkpt lat="47.00535030104219913482666015625" lon="6.93560100160539150238037109375">
        <ele>694</ele>
        <time>2019-06-14T11:20:10.000Z</time>
        <extensions>
          <ns3:TrackPointExtension>
            <ns3:atemp>22.0</ns3:atemp>
            <ns3:hr>129</ns3:hr>
          </ns3:TrackPointExtension>
        </extensions>
      </trkpt>
      <trkpt lat="47.005316354334354400634765625" lon="6.93557627499103546142578125">
        <ele>693.20001220703125</ele>
        <time>2019-06-14T11:20:12.000Z</time>
        <extensions>
          <ns3:TrackPointExtension>
            <ns3:atemp>22.0</ns3:atemp>
            <ns3:hr>129</ns3:hr>
          </ns3:TrackPointExtension>
        </extensions>
      </trkpt>
      <trkpt lat="47.005296237766742706298828125" lon="6.9355429150164127349853515625">
        <ele>692.79998779296875</ele>
        <time>2019-06-14T11:20:16.000Z</time>
        <extensions>
          <ns3:TrackPointExtension>
            <ns3:atemp>22.0</ns3:atemp>
            <ns3:hr>130</ns3:hr>
          </ns3:TrackPointExtension>
        </extensions>
      </trkpt>
      <trkpt lat="47.00527670793235301971435546875" lon="6.93550075404345989227294921875">
        <ele>692.5999755859375</ele>
        <time>2019-06-14T11:20:20.000Z</time>
        <extensions>
          <ns3:TrackPointExtension>
            <ns3:atemp>22.0</ns3:atemp>
            <ns3:hr>128</ns3:hr>
          </ns3:TrackPointExtension>
        </extensions>
      </trkpt>
      <trkpt lat="47.0052675716578960418701171875" lon="6.93546772934496402740478515625">
        <ele>692.4000244140625</ele>
        <time>2019-06-14T11:20:22.000Z</time>
        <extensions>
          <ns3:TrackPointExtension>
            <ns3:atemp>22.0</ns3:atemp>
            <ns3:hr>129</ns3:hr>
          </ns3:TrackPointExtension>
        </extensions>
      </trkpt>
      <trkpt lat="47.0052556693553924560546875" lon="6.9354562461376190185546875">
        <ele>692.20001220703125</ele>
        <time>2019-06-14T11:20:23.000Z</time>
        <extensions>
          <ns3:TrackPointExtension>
            <ns3:atemp>22.0</ns3:atemp>
            <ns3:hr>129</ns3:hr>
          </ns3:TrackPointExtension>
        </extensions>
      </trkpt>
      <trkpt lat="47.00515718199312686920166015625" lon="6.935405619442462921142578125">
        <ele>691.20001220703125</ele>
        <time>2019-06-14T11:20:27.000Z</time>
        <extensions>
          <ns3:TrackPointExtension>
            <ns3:atemp>22.0</ns3:atemp>
            <ns3:hr>129</ns3:hr>
          </ns3:TrackPointExtension>
        </extensions>
      </trkpt>
      <trkpt lat="47.00513002462685108184814453125" lon="6.9353685714304447174072265625">
        <ele>690.79998779296875</ele>
        <time>2019-06-14T11:20:28.000Z</time>
        <extensions>
          <ns3:TrackPointExtension>
            <ns3:atemp>22.0</ns3:atemp>
            <ns3:hr>129</ns3:hr>
          </ns3:TrackPointExtension>
        </extensions>
      </trkpt>
      <trkpt lat="47.0050412602722644805908203125" lon="6.935233287513256072998046875">
        <ele>689.79998779296875</ele>
        <time>2019-06-14T11:20:31.000Z</time>
        <extensions>
          <ns3:TrackPointExtension>
            <ns3:atemp>22.0</ns3:atemp>
            <ns3:hr>129</ns3:hr>
          </ns3:TrackPointExtension>
        </extensions>
      </trkpt>
      <trkpt lat="47.0049245841801166534423828125" lon="6.9350825808942317962646484375">
        <ele>688.4000244140625</ele>
        <time>2019-06-14T11:20:34.000Z</time>
        <extensions>
          <ns3:TrackPointExtension>
            <ns3:atemp>23.0</ns3:atemp>
            <ns3:hr>129</ns3:hr>
          </ns3:TrackPointExtension>
        </extensions>
      </trkpt>
      <trkpt lat="47.00487739406526088714599609375" lon="6.935012675821781158447265625">
        <ele>688.20001220703125</ele>
        <time>2019-06-14T11:20:35.000Z</time>
        <extensions>
          <ns3:TrackPointExtension>
            <ns3:atemp>23.0</ns3:atemp>
            <ns3:hr>130</ns3:hr>
          </ns3:TrackPointExtension>
        </extensions>
      </trkpt>
      <trkpt lat="47.00477513484656810760498046875" lon="6.93487085402011871337890625">
        <ele>687</ele>
        <time>2019-06-14T11:20:37.000Z</time>
        <extensions>
          <ns3:TrackPointExtension>
            <ns3:atemp>23.0</ns3:atemp>
            <ns3:hr>130</ns3:hr>
          </ns3:TrackPointExtension>
        </extensions>
      </trkpt>
      <trkpt lat="47.00473171658813953399658203125" lon="6.93478158675134181976318359375">
        <ele>686.4000244140625</ele>
        <time>2019-06-14T11:20:38.000Z</time>
        <extensions>
          <ns3:TrackPointExtension>
            <ns3:atemp>23.0</ns3:atemp>
            <ns3:hr>130</ns3:hr>
          </ns3:TrackPointExtension>
        </extensions>
      </trkpt>
      <trkpt lat="47.00469450093805789947509765625" lon="6.93469324149191379547119140625">
        <ele>685.79998779296875</ele>
        <time>2019-06-14T11:20:39.000Z</time>
        <extensions>
          <ns3:TrackPointExtension>
            <ns3:atemp>22.0</ns3:atemp>
            <ns3:hr>131</ns3:hr>
          </ns3:TrackPointExtension>
        </extensions>
      </trkpt>
      <trkpt lat="47.00465820729732513427734375" lon="6.93460933864116668701171875">
        <ele>685.4000244140625</ele>
        <time>2019-06-14T11:20:40.000Z</time>
        <extensions>
          <ns3:TrackPointExtension>
            <ns3:atemp>23.0</ns3:atemp>
            <ns3:hr>131</ns3:hr>
          </ns3:TrackPointExtension>
        </extensions>
      </trkpt>
      <trkpt lat="47.0044644176959991455078125" lon="6.9341669417917728424072265625">
        <ele>684.5999755859375</ele>
        <time>2019-06-14T11:20:45.000Z</time>
        <extensions>
          <ns3:TrackPointExtension>
            <ns3:atemp>22.0</ns3:atemp>
            <ns3:hr>128</ns3:hr>
          </ns3:TrackPointExtension>
        </extensions>
      </trkpt>
      <trkpt lat="47.00443315319716930389404296875" lon="6.9340749084949493408203125">
        <ele>684.4000244140625</ele>
        <time>2019-06-14T11:20:46.000Z</time>
        <extensions>
          <ns3:TrackPointExtension>
            <ns3:atemp>22.0</ns3:atemp>
            <ns3:hr>128</ns3:hr>
          </ns3:TrackPointExtension>
        </extensions>
      </trkpt>
      <trkpt lat="47.00429803691804409027099609375" lon="6.9336888380348682403564453125">
        <ele>683.79998779296875</ele>
        <time>2019-06-14T11:20:51.000Z</time>
        <extensions>
          <ns3:TrackPointExtension>
            <ns3:atemp>22.0</ns3:atemp>
            <ns3:hr>129</ns3:hr>
          </ns3:TrackPointExtension>
        </extensions>
      </trkpt>
      <trkpt lat="47.00424321927130222320556640625" lon="6.9335319288074970245361328125">
        <ele>683.5999755859375</ele>
        <time>2019-06-14T11:20:53.000Z</time>
        <extensions>
          <ns3:TrackPointExtension>
            <ns3:atemp>22.0</ns3:atemp>
            <ns3:hr>129</ns3:hr>
          </ns3:TrackPointExtension>
        </extensions>
      </trkpt>
      <trkpt lat="47.0041588135063648223876953125" lon="6.9333629496395587921142578125">
        <ele>683.4000244140625</ele>
        <time>2019-06-14T11:20:55.000Z</time>
        <extensions>
          <ns3:TrackPointExtension>
            <ns3:atemp>22.0</ns3:atemp>
            <ns3:hr>128</ns3:hr>
          </ns3:TrackPointExtension>
        </extensions>
      </trkpt>
      <trkpt lat="47.0039398781955242156982421875" lon="6.9330410845577716827392578125">
        <ele>682.5999755859375</ele>
        <time>2019-06-14T11:20:59.000Z</time>
        <extensions>
          <ns3:TrackPointExtension>
            <ns3:atemp>22.0</ns3:atemp>
            <ns3:hr>127</ns3:hr>
          </ns3:TrackPointExtension>
        </extensions>
      </trkpt>
      <trkpt lat="47.003873325884342193603515625" lon="6.932962127029895782470703125">
        <ele>682</ele>
        <time>2019-06-14T11:21:00.000Z</time>
        <extensions>
          <ns3:TrackPointExtension>
            <ns3:atemp>22.0</ns3:atemp>
            <ns3:hr>127</ns3:hr>
          </ns3:TrackPointExtension>
        </extensions>
      </trkpt>
      <trkpt lat="47.00380870141088962554931640625" lon="6.93288543261587619781494140625">
        <ele>681</ele>
        <time>2019-06-14T11:21:01.000Z</time>
        <extensions>
          <ns3:TrackPointExtension>
            <ns3:atemp>22.0</ns3:atemp>
            <ns3:hr>127</ns3:hr>
          </ns3:TrackPointExtension>
        </extensions>
      </trkpt>
      <trkpt lat="47.00372940860688686370849609375" lon="6.93281636573374271392822265625">
        <ele>679.4000244140625</ele>
        <time>2019-06-14T11:21:02.000Z</time>
        <extensions>
          <ns3:TrackPointExtension>
            <ns3:atemp>22.0</ns3:atemp>
            <ns3:hr>126</ns3:hr>
          </ns3:TrackPointExtension>
        </extensions>
      </trkpt>
      <trkpt lat="47.00365506112575531005859375" lon="6.93274042569100856781005859375">
        <ele>678.20001220703125</ele>
        <time>2019-06-14T11:21:03.000Z</time>
        <extensions>
          <ns3:TrackPointExtension>
            <ns3:atemp>22.0</ns3:atemp>
            <ns3:hr>126</ns3:hr>
          </ns3:TrackPointExtension>
        </extensions>
      </trkpt>
      <trkpt lat="47.00353243388235569000244140625" lon="6.93258770741522312164306640625">
        <ele>676.4000244140625</ele>
        <time>2019-06-14T11:21:05.000Z</time>
        <extensions>
          <ns3:TrackPointExtension>
            <ns3:atemp>22.0</ns3:atemp>
            <ns3:hr>125</ns3:hr>
          </ns3:TrackPointExtension>
        </extensions>
      </trkpt>
      <trkpt lat="47.00340737588703632354736328125" lon="6.9324583746492862701416015625">
        <ele>675.4000244140625</ele>
        <time>2019-06-14T11:21:07.000Z</time>
        <extensions>
          <ns3:TrackPointExtension>
            <ns3:atemp>22.0</ns3:atemp>
            <ns3:hr>125</ns3:hr>
          </ns3:TrackPointExtension>
        </extensions>
      </trkpt>
      <trkpt lat="47.003342919051647186279296875" lon="6.93237514235079288482666015625">
        <ele>675.4000244140625</ele>
        <time>2019-06-14T11:21:08.000Z</time>
        <extensions>
          <ns3:TrackPointExtension>
            <ns3:atemp>22.0</ns3:atemp>
            <ns3:hr>125</ns3:hr>
          </ns3:TrackPointExtension>
        </extensions>
      </trkpt>
      <trkpt lat="47.00328248552978038787841796875" lon="6.93229283206164836883544921875">
        <ele>675.4000244140625</ele>
        <time>2019-06-14T11:21:09.000Z</time>
        <extensions>
          <ns3:TrackPointExtension>
            <ns3:atemp>22.0</ns3:atemp>
            <ns3:hr>125</ns3:hr>
          </ns3:TrackPointExtension>
        </extensions>
      </trkpt>
      <trkpt lat="47.00301677919924259185791015625" lon="6.93181850016117095947265625">
        <ele>674.4000244140625</ele>
        <time>2019-06-14T11:21:14.000Z</time>
        <extensions>
          <ns3:TrackPointExtension>
            <ns3:atemp>22.0</ns3:atemp>
            <ns3:hr>125</ns3:hr>
          </ns3:TrackPointExtension>
        </extensions>
      </trkpt>
      <trkpt lat="47.002895660698413848876953125" lon="6.93162211216986179351806640625">
        <ele>673.79998779296875</ele>
        <time>2019-06-14T11:21:16.000Z</time>
        <extensions>
          <ns3:TrackPointExtension>
            <ns3:atemp>22.0</ns3:atemp>
            <ns3:hr>125</ns3:hr>
          </ns3:TrackPointExtension>
        </extensions>
      </trkpt>
      <trkpt lat="47.00276322662830352783203125" lon="6.9314626045525074005126953125">
        <ele>673.4000244140625</ele>
        <time>2019-06-14T11:21:18.000Z</time>
        <extensions>
          <ns3:TrackPointExtension>
            <ns3:atemp>22.0</ns3:atemp>
            <ns3:hr>126</ns3:hr>
          </ns3:TrackPointExtension>
        </extensions>
      </trkpt>
      <trkpt lat="47.002700865268707275390625" lon="6.9313573278486728668212890625">
        <ele>672.79998779296875</ele>
        <time>2019-06-14T11:21:19.000Z</time>
        <extensions>
          <ns3:TrackPointExtension>
            <ns3:atemp>22.0</ns3:atemp>
            <ns3:hr>127</ns3:hr>
          </ns3:TrackPointExtension>
        </extensions>
      </trkpt>
      <trkpt lat="47.00255661271512508392333984375" lon="6.931110732257366180419921875">
        <ele>672</ele>
        <time>2019-06-14T11:21:22.000Z</time>
        <extensions>
          <ns3:TrackPointExtension>
            <ns3:atemp>22.0</ns3:atemp>
            <ns3:hr>127</ns3:hr>
          </ns3:TrackPointExtension>
        </extensions>
      </trkpt>
      <trkpt lat="47.00249324552714824676513671875" lon="6.93100838921964168548583984375">
        <ele>671.79998779296875</ele>
        <time>2019-06-14T11:21:25.000Z</time>
        <extensions>
          <ns3:TrackPointExtension>
            <ns3:atemp>22.0</ns3:atemp>
            <ns3:hr>126</ns3:hr>
          </ns3:TrackPointExtension>
        </extensions>
      </trkpt>
      <trkpt lat="47.002491988241672515869140625" lon="6.93098341114819049835205078125">
        <ele>671.5999755859375</ele>
        <time>2019-06-14T11:21:26.000Z</time>
        <extensions>
          <ns3:TrackPointExtension>
            <ns3:atemp>22.0</ns3:atemp>
            <ns3:hr>126</ns3:hr>
          </ns3:TrackPointExtension>
        </extensions>
      </trkpt>
      <trkpt lat="47.00247799046337604522705078125" lon="6.93100403062999248504638671875">
        <ele>671.4000244140625</ele>
        <time>2019-06-14T11:21:28.000Z</time>
        <extensions>
          <ns3:TrackPointExtension>
            <ns3:atemp>22.0</ns3:atemp>
            <ns3:hr>126</ns3:hr>
          </ns3:TrackPointExtension>
        </extensions>
      </trkpt>
      <trkpt lat="47.00249475426971912384033203125" lon="6.9310627877712249755859375">
        <ele>671.20001220703125</ele>
        <time>2019-06-14T11:21:30.000Z</time>
        <extensions>
          <ns3:TrackPointExtension>
            <ns3:atemp>22.0</ns3:atemp>
            <ns3:hr>127</ns3:hr>
          </ns3:TrackPointExtension>
        </extensions>
      </trkpt>
      <trkpt lat="47.00252660550177097320556640625" lon="6.93108751438558101654052734375">
        <ele>670.79998779296875</ele>
        <time>2019-06-14T11:21:31.000Z</time>
        <extensions>
          <ns3:TrackPointExtension>
            <ns3:atemp>22.0</ns3:atemp>
            <ns3:hr>127</ns3:hr>
          </ns3:TrackPointExtension>
        </extensions>
      </trkpt>
      <trkpt lat="47.0025535114109516143798828125" lon="6.9311212934553623199462890625">
        <ele>670.5999755859375</ele>
        <time>2019-06-14T11:21:32.000Z</time>
        <extensions>
          <ns3:TrackPointExtension>
            <ns3:atemp>22.0</ns3:atemp>
            <ns3:hr>127</ns3:hr>
          </ns3:TrackPointExtension>
        </extensions>
      </trkpt>
      <trkpt lat="47.00267781503498554229736328125" lon="6.93132220767438411712646484375">
        <ele>670.20001220703125</ele>
        <time>2019-06-14T11:21:37.000Z</time>
        <extensions>
          <ns3:TrackPointExtension>
            <ns3:atemp>22.0</ns3:atemp>
            <ns3:hr>126</ns3:hr>
          </ns3:TrackPointExtension>
        </extensions>
      </trkpt>
      <trkpt lat="47.00279214419424533843994140625" lon="6.931554637849330902099609375">
        <ele>670.4000244140625</ele>
        <time>2019-06-14T11:21:42.000Z</time>
        <extensions>
          <ns3:TrackPointExtension>
            <ns3:atemp>22.0</ns3:atemp>
            <ns3:hr>124</ns3:hr>
          </ns3:TrackPointExtension>
        </extensions>
      </trkpt>
      <trkpt lat="47.00286339037120342254638671875" lon="6.93173040635883808135986328125">
        <ele>670.79998779296875</ele>
        <time>2019-06-14T11:21:47.000Z</time>
        <extensions>
          <ns3:TrackPointExtension>
            <ns3:atemp>22.0</ns3:atemp>
            <ns3:hr>125</ns3:hr>
          </ns3:TrackPointExtension>
        </extensions>
      </trkpt>
      <trkpt lat="47.00293480418622493743896484375" lon="6.9319774210453033447265625">
        <ele>670.5999755859375</ele>
        <time>2019-06-14T11:21:52.000Z</time>
        <extensions>
          <ns3:TrackPointExtension>
            <ns3:atemp>22.0</ns3:atemp>
            <ns3:hr>128</ns3:hr>
          </ns3:TrackPointExtension>
        </extensions>
      </trkpt>
      <trkpt lat="47.00299230404198169708251953125" lon="6.93218437023460865020751953125">
        <ele>671</ele>
        <time>2019-06-14T11:21:57.000Z</time>
        <extensions>
          <ns3:TrackPointExtension>
            <ns3:atemp>22.0</ns3:atemp>
            <ns3:hr>128</ns3:hr>
          </ns3:TrackPointExtension>
        </extensions>
      </trkpt>
      <trkpt lat="47.0031093992292881011962890625" lon="6.93234144710004329681396484375">
        <ele>671</ele>
        <time>2019-06-14T11:22:02.000Z</time>
        <extensions>
          <ns3:TrackPointExtension>
            <ns3:atemp>22.0</ns3:atemp>
            <ns3:hr>127</ns3:hr>
          </ns3:TrackPointExtension>
        </extensions>
      </trkpt>
      <trkpt lat="47.00311727821826934814453125" lon="6.932394839823246002197265625">
        <ele>671.20001220703125</ele>
        <time>2019-06-14T11:22:03.000Z</time>
        <extensions>
          <ns3:TrackPointExtension>
            <ns3:atemp>22.0</ns3:atemp>
            <ns3:hr>126</ns3:hr>
          </ns3:TrackPointExtension>
        </extensions>
      </trkpt>
      <trkpt lat="47.00310009531676769256591796875" lon="6.932520568370819091796875">
        <ele>671.4000244140625</ele>
        <time>2019-06-14T11:22:06.000Z</time>
        <extensions>
          <ns3:TrackPointExtension>
            <ns3:atemp>22.0</ns3:atemp>
            <ns3:hr>126</ns3:hr>
          </ns3:TrackPointExtension>
        </extensions>
      </trkpt>
      <trkpt lat="47.00307310558855533599853515625" lon="6.93258804269134998321533203125">
        <ele>671.4000244140625</ele>
        <time>2019-06-14T11:22:10.000Z</time>
        <extensions>
          <ns3:TrackPointExtension>
            <ns3:atemp>22.0</ns3:atemp>
            <ns3:hr>126</ns3:hr>
          </ns3:TrackPointExtension>
        </extensions>
      </trkpt>
    </trkseg>
  </trk>
</gpx>
